<?xml version="1.0" encoding="UTF-8" standalone="no" ?>
<gpx xmlns="http://www.topografix.com/GPX/1/1" xmlns:xsi="http://www.w3.org/2001/XMLSchema-instance" xsi:schemaLocation="http://www.topografix.com/GPX/1/1 http://www.topografix.com/GPX/1/1/gpx.xsd" version="1.1" creator="VisuGPX - https://www.visugpx.com">
  <metadata>
    <name>LGT : Guerlédan au départ de Beau-Rivage</name>
    <desc><![CDATA[Une randonnée d\'environ 10 km ayant pour but de déambuler, une dernière fois, au fond du barrage de Guerlédan avant qu\'il ne soit remis en eau. Après un départ à Beau-Rivage, le circuit contourne le bois privé de Caurel avant d\'emprunter l\'ancien chemin de halage du Blavet pour revenir à beau-Rivage]]></desc>
  </metadata>
  <trk>
    <name><![CDATA[LGT : Guerlédan au départ de Beau-Rivage_1]]></name>
    <trkseg>
      <trkpt lat="48.20675" lon="-3.047">
        <ele>178</ele>
        <time>2015-10-12T07:38:13.1Z</time>
      </trkpt>
      <trkpt lat="48.20675" lon="-3.04698">
        <ele>178</ele>
        <time>2015-10-12T07:38:15.1Z</time>
      </trkpt>
      <trkpt lat="48.20673" lon="-3.04695">
        <ele>178</ele>
        <time>2015-10-12T07:38:17.1Z</time>
      </trkpt>
      <trkpt lat="48.20672" lon="-3.04692">
        <ele>178</ele>
        <time>2015-10-12T07:38:20.1Z</time>
      </trkpt>
      <trkpt lat="48.2067" lon="-3.04689">
        <ele>178</ele>
        <time>2015-10-12T07:38:23.1Z</time>
      </trkpt>
      <trkpt lat="48.20669" lon="-3.04686">
        <ele>178</ele>
        <time>2015-10-12T07:38:25.1Z</time>
      </trkpt>
      <trkpt lat="48.20669" lon="-3.04685">
        <ele>177</ele>
        <time>2015-10-12T07:38:27.1Z</time>
      </trkpt>
      <trkpt lat="48.20667" lon="-3.04681">
        <ele>177</ele>
        <time>2015-10-12T07:38:30.1Z</time>
      </trkpt>
      <trkpt lat="48.20666" lon="-3.04679">
        <ele>177</ele>
        <time>2015-10-12T07:38:32.1Z</time>
      </trkpt>
      <trkpt lat="48.20665" lon="-3.04677">
        <ele>177</ele>
        <time>2015-10-12T07:38:34.1Z</time>
      </trkpt>
      <trkpt lat="48.20663" lon="-3.04672">
        <ele>177</ele>
        <time>2015-10-12T07:38:37.1Z</time>
      </trkpt>
      <trkpt lat="48.20662" lon="-3.04669">
        <ele>177</ele>
        <time>2015-10-12T07:38:39.1Z</time>
      </trkpt>
      <trkpt lat="48.2066" lon="-3.04664">
        <ele>176</ele>
        <time>2015-10-12T07:38:42.1Z</time>
      </trkpt>
      <trkpt lat="48.20659" lon="-3.04661">
        <ele>176</ele>
        <time>2015-10-12T07:38:44.1Z</time>
      </trkpt>
      <trkpt lat="48.20657" lon="-3.04657">
        <ele>176</ele>
        <time>2015-10-12T07:38:47.1Z</time>
      </trkpt>
      <trkpt lat="48.20656" lon="-3.04654">
        <ele>176</ele>
        <time>2015-10-12T07:38:50.1Z</time>
      </trkpt>
      <trkpt lat="48.20655" lon="-3.04651">
        <ele>176</ele>
        <time>2015-10-12T07:38:52.1Z</time>
      </trkpt>
      <trkpt lat="48.20654" lon="-3.04647">
        <ele>175</ele>
        <time>2015-10-12T07:38:55.1Z</time>
      </trkpt>
      <trkpt lat="48.20652" lon="-3.04644">
        <ele>175</ele>
        <time>2015-10-12T07:38:57.1Z</time>
      </trkpt>
      <trkpt lat="48.20651" lon="-3.0464">
        <ele>175</ele>
        <time>2015-10-12T07:39:00.1Z</time>
      </trkpt>
      <trkpt lat="48.20649" lon="-3.04637">
        <ele>175</ele>
        <time>2015-10-12T07:39:03.1Z</time>
      </trkpt>
      <trkpt lat="48.20648" lon="-3.04634">
        <ele>174</ele>
        <time>2015-10-12T07:39:05.1Z</time>
      </trkpt>
      <trkpt lat="48.20646" lon="-3.0463">
        <ele>174</ele>
        <time>2015-10-12T07:39:08.1Z</time>
      </trkpt>
      <trkpt lat="48.20645" lon="-3.04628">
        <ele>174</ele>
        <time>2015-10-12T07:39:10.1Z</time>
      </trkpt>
      <trkpt lat="48.20643" lon="-3.04624">
        <ele>173</ele>
        <time>2015-10-12T07:39:13.1Z</time>
      </trkpt>
      <trkpt lat="48.20641" lon="-3.04622">
        <ele>173</ele>
        <time>2015-10-12T07:39:16.1Z</time>
      </trkpt>
      <trkpt lat="48.2064" lon="-3.04621">
        <ele>173</ele>
        <time>2015-10-12T07:39:18.1Z</time>
      </trkpt>
      <trkpt lat="48.20638" lon="-3.04618">
        <ele>173</ele>
        <time>2015-10-12T07:39:21.1Z</time>
      </trkpt>
      <trkpt lat="48.20635" lon="-3.04617">
        <ele>173</ele>
        <time>2015-10-12T07:39:24.1Z</time>
      </trkpt>
      <trkpt lat="48.20633" lon="-3.04616">
        <ele>174</ele>
        <time>2015-10-12T07:39:26.1Z</time>
      </trkpt>
      <trkpt lat="48.2063" lon="-3.04615">
        <ele>174</ele>
        <time>2015-10-12T07:39:29.1Z</time>
      </trkpt>
      <trkpt lat="48.20628" lon="-3.04614">
        <ele>174</ele>
        <time>2015-10-12T07:39:32.1Z</time>
      </trkpt>
      <trkpt lat="48.20627" lon="-3.04613">
        <ele>173</ele>
        <time>2015-10-12T07:39:34.1Z</time>
      </trkpt>
      <trkpt lat="48.20625" lon="-3.0461">
        <ele>173</ele>
        <time>2015-10-12T07:39:37.1Z</time>
      </trkpt>
      <trkpt lat="48.20623" lon="-3.04607">
        <ele>173</ele>
        <time>2015-10-12T07:39:40.1Z</time>
      </trkpt>
      <trkpt lat="48.20622" lon="-3.04605">
        <ele>173</ele>
        <time>2015-10-12T07:39:43.1Z</time>
      </trkpt>
      <trkpt lat="48.20621" lon="-3.04603">
        <ele>172</ele>
        <time>2015-10-12T07:39:45.1Z</time>
      </trkpt>
      <trkpt lat="48.20622" lon="-3.04602">
        <ele>172</ele>
        <time>2015-10-12T07:39:48.1Z</time>
      </trkpt>
      <trkpt lat="48.20623" lon="-3.04601">
        <ele>172</ele>
        <time>2015-10-12T07:39:50.1Z</time>
      </trkpt>
      <trkpt lat="48.20623" lon="-3.046">
        <ele>172</ele>
        <time>2015-10-12T07:39:53.1Z</time>
      </trkpt>
      <trkpt lat="48.20623" lon="-3.046">
        <ele>172</ele>
        <time>2015-10-12T07:39:56.1Z</time>
      </trkpt>
      <trkpt lat="48.20624" lon="-3.04599">
        <ele>172</ele>
        <time>2015-10-12T07:39:58.1Z</time>
      </trkpt>
      <trkpt lat="48.20627" lon="-3.04597">
        <ele>172</ele>
        <time>2015-10-12T07:40:01.1Z</time>
      </trkpt>
      <trkpt lat="48.20628" lon="-3.04596">
        <ele>171</ele>
        <time>2015-10-12T07:40:03.1Z</time>
      </trkpt>
      <trkpt lat="48.20631" lon="-3.04593">
        <ele>171</ele>
        <time>2015-10-12T07:40:06.1Z</time>
      </trkpt>
      <trkpt lat="48.20634" lon="-3.0459">
        <ele>171</ele>
        <time>2015-10-12T07:40:09.1Z</time>
      </trkpt>
      <trkpt lat="48.20634" lon="-3.04587">
        <ele>171</ele>
        <time>2015-10-12T07:40:11.1Z</time>
      </trkpt>
      <trkpt lat="48.20633" lon="-3.04584">
        <ele>171</ele>
        <time>2015-10-12T07:40:14.1Z</time>
      </trkpt>
      <trkpt lat="48.20635" lon="-3.0458">
        <ele>172</ele>
        <time>2015-10-12T07:40:17.1Z</time>
      </trkpt>
      <trkpt lat="48.20636" lon="-3.04579">
        <ele>171</ele>
        <time>2015-10-12T07:40:19.1Z</time>
      </trkpt>
      <trkpt lat="48.20639" lon="-3.04577">
        <ele>171</ele>
        <time>2015-10-12T07:40:22.1Z</time>
      </trkpt>
      <trkpt lat="48.20641" lon="-3.04576">
        <ele>171</ele>
        <time>2015-10-12T07:40:24.1Z</time>
      </trkpt>
      <trkpt lat="48.20644" lon="-3.04576">
        <ele>171</ele>
        <time>2015-10-12T07:40:27.1Z</time>
      </trkpt>
      <trkpt lat="48.20647" lon="-3.04576">
        <ele>171</ele>
        <time>2015-10-12T07:40:30.1Z</time>
      </trkpt>
      <trkpt lat="48.20649" lon="-3.04576">
        <ele>171</ele>
        <time>2015-10-12T07:40:32.1Z</time>
      </trkpt>
      <trkpt lat="48.20652" lon="-3.04576">
        <ele>171</ele>
        <time>2015-10-12T07:40:35.1Z</time>
      </trkpt>
      <trkpt lat="48.20655" lon="-3.04575">
        <ele>171</ele>
        <time>2015-10-12T07:40:38.1Z</time>
      </trkpt>
      <trkpt lat="48.20657" lon="-3.04575">
        <ele>171</ele>
        <time>2015-10-12T07:40:40.1Z</time>
      </trkpt>
      <trkpt lat="48.2066" lon="-3.04576">
        <ele>171</ele>
        <time>2015-10-12T07:40:43.1Z</time>
      </trkpt>
      <trkpt lat="48.20662" lon="-3.04577">
        <ele>171</ele>
        <time>2015-10-12T07:40:45.1Z</time>
      </trkpt>
      <trkpt lat="48.20664" lon="-3.04578">
        <ele>171</ele>
        <time>2015-10-12T07:40:48.1Z</time>
      </trkpt>
      <trkpt lat="48.20665" lon="-3.0458">
        <ele>171</ele>
        <time>2015-10-12T07:40:50.1Z</time>
      </trkpt>
      <trkpt lat="48.20667" lon="-3.04583">
        <ele>171</ele>
        <time>2015-10-12T07:40:53.1Z</time>
      </trkpt>
      <trkpt lat="48.20668" lon="-3.04585">
        <ele>171</ele>
        <time>2015-10-12T07:40:55.1Z</time>
      </trkpt>
      <trkpt lat="48.20669" lon="-3.04589">
        <ele>171</ele>
        <time>2015-10-12T07:40:58.1Z</time>
      </trkpt>
      <trkpt lat="48.20671" lon="-3.04593">
        <ele>171</ele>
        <time>2015-10-12T07:41:01.1Z</time>
      </trkpt>
      <trkpt lat="48.20672" lon="-3.04595">
        <ele>170</ele>
        <time>2015-10-12T07:41:03.1Z</time>
      </trkpt>
      <trkpt lat="48.20675" lon="-3.04597">
        <ele>170</ele>
        <time>2015-10-12T07:41:06.1Z</time>
      </trkpt>
      <trkpt lat="48.20677" lon="-3.04599">
        <ele>170</ele>
        <time>2015-10-12T07:41:08.1Z</time>
      </trkpt>
      <trkpt lat="48.20679" lon="-3.04603">
        <ele>170</ele>
        <time>2015-10-12T07:41:11.1Z</time>
      </trkpt>
      <trkpt lat="48.20681" lon="-3.04605">
        <ele>170</ele>
        <time>2015-10-12T07:41:14.1Z</time>
      </trkpt>
      <trkpt lat="48.20684" lon="-3.04608">
        <ele>170</ele>
        <time>2015-10-12T07:41:17.1Z</time>
      </trkpt>
      <trkpt lat="48.20685" lon="-3.0461">
        <ele>170</ele>
        <time>2015-10-12T07:41:19.1Z</time>
      </trkpt>
      <trkpt lat="48.20687" lon="-3.04613">
        <ele>171</ele>
        <time>2015-10-12T07:41:22.1Z</time>
      </trkpt>
      <trkpt lat="48.20688" lon="-3.04615">
        <ele>171</ele>
        <time>2015-10-12T07:41:24.1Z</time>
      </trkpt>
      <trkpt lat="48.2069" lon="-3.04618">
        <ele>170</ele>
        <time>2015-10-12T07:41:27.1Z</time>
      </trkpt>
      <trkpt lat="48.20692" lon="-3.04623">
        <ele>171</ele>
        <time>2015-10-12T07:41:30.1Z</time>
      </trkpt>
      <trkpt lat="48.20694" lon="-3.04625">
        <ele>171</ele>
        <time>2015-10-12T07:41:32.1Z</time>
      </trkpt>
      <trkpt lat="48.20696" lon="-3.04629">
        <ele>171</ele>
        <time>2015-10-12T07:41:35.1Z</time>
      </trkpt>
      <trkpt lat="48.20697" lon="-3.04632">
        <ele>171</ele>
        <time>2015-10-12T07:41:37.1Z</time>
      </trkpt>
      <trkpt lat="48.20699" lon="-3.04637">
        <ele>171</ele>
        <time>2015-10-12T07:41:40.1Z</time>
      </trkpt>
      <trkpt lat="48.207" lon="-3.04639">
        <ele>171</ele>
        <time>2015-10-12T07:41:42.1Z</time>
      </trkpt>
      <trkpt lat="48.20703" lon="-3.04644">
        <ele>171</ele>
        <time>2015-10-12T07:41:45.1Z</time>
      </trkpt>
      <trkpt lat="48.20705" lon="-3.04648">
        <ele>171</ele>
        <time>2015-10-12T07:41:48.1Z</time>
      </trkpt>
      <trkpt lat="48.20707" lon="-3.04651">
        <ele>171</ele>
        <time>2015-10-12T07:41:50.1Z</time>
      </trkpt>
      <trkpt lat="48.2071" lon="-3.04655">
        <ele>171</ele>
        <time>2015-10-12T07:41:53.1Z</time>
      </trkpt>
      <trkpt lat="48.20712" lon="-3.04657">
        <ele>171</ele>
        <time>2015-10-12T07:41:55.1Z</time>
      </trkpt>
      <trkpt lat="48.20715" lon="-3.0466">
        <ele>171</ele>
        <time>2015-10-12T07:41:58.1Z</time>
      </trkpt>
      <trkpt lat="48.20718" lon="-3.04664">
        <ele>171</ele>
        <time>2015-10-12T07:42:01.1Z</time>
      </trkpt>
      <trkpt lat="48.20722" lon="-3.04667">
        <ele>171</ele>
        <time>2015-10-12T07:42:04.1Z</time>
      </trkpt>
      <trkpt lat="48.20726" lon="-3.0467">
        <ele>171</ele>
        <time>2015-10-12T07:42:07.1Z</time>
      </trkpt>
      <trkpt lat="48.20727" lon="-3.04672">
        <ele>171</ele>
        <time>2015-10-12T07:42:09.1Z</time>
      </trkpt>
      <trkpt lat="48.20731" lon="-3.04675">
        <ele>171</ele>
        <time>2015-10-12T07:42:12.1Z</time>
      </trkpt>
      <trkpt lat="48.20732" lon="-3.04677">
        <ele>171</ele>
        <time>2015-10-12T07:42:14.1Z</time>
      </trkpt>
      <trkpt lat="48.20734" lon="-3.04679">
        <ele>171</ele>
        <time>2015-10-12T07:42:17.1Z</time>
      </trkpt>
      <trkpt lat="48.20736" lon="-3.04684">
        <ele>170</ele>
        <time>2015-10-12T07:42:20.1Z</time>
      </trkpt>
      <trkpt lat="48.20737" lon="-3.04688">
        <ele>170</ele>
        <time>2015-10-12T07:42:23.1Z</time>
      </trkpt>
      <trkpt lat="48.20739" lon="-3.04691">
        <ele>171</ele>
        <time>2015-10-12T07:42:25.1Z</time>
      </trkpt>
      <trkpt lat="48.20741" lon="-3.04694">
        <ele>171</ele>
        <time>2015-10-12T07:42:27.1Z</time>
      </trkpt>
      <trkpt lat="48.20744" lon="-3.04699">
        <ele>171</ele>
        <time>2015-10-12T07:42:30.1Z</time>
      </trkpt>
      <trkpt lat="48.20746" lon="-3.04702">
        <ele>171</ele>
        <time>2015-10-12T07:42:33.1Z</time>
      </trkpt>
      <trkpt lat="48.20748" lon="-3.04705">
        <ele>170</ele>
        <time>2015-10-12T07:42:35.1Z</time>
      </trkpt>
      <trkpt lat="48.20751" lon="-3.04709">
        <ele>170</ele>
        <time>2015-10-12T07:42:38.1Z</time>
      </trkpt>
      <trkpt lat="48.20752" lon="-3.04711">
        <ele>170</ele>
        <time>2015-10-12T07:42:40.1Z</time>
      </trkpt>
      <trkpt lat="48.20755" lon="-3.04715">
        <ele>170</ele>
        <time>2015-10-12T07:42:43.1Z</time>
      </trkpt>
      <trkpt lat="48.20757" lon="-3.04717">
        <ele>170</ele>
        <time>2015-10-12T07:42:45.1Z</time>
      </trkpt>
      <trkpt lat="48.20759" lon="-3.04721">
        <ele>170</ele>
        <time>2015-10-12T07:42:48.1Z</time>
      </trkpt>
      <trkpt lat="48.20761" lon="-3.04722">
        <ele>170</ele>
        <time>2015-10-12T07:42:50.1Z</time>
      </trkpt>
      <trkpt lat="48.20763" lon="-3.04723">
        <ele>170</ele>
        <time>2015-10-12T07:42:52.1Z</time>
      </trkpt>
      <trkpt lat="48.20766" lon="-3.04726">
        <ele>170</ele>
        <time>2015-10-12T07:42:55.1Z</time>
      </trkpt>
      <trkpt lat="48.20768" lon="-3.04727">
        <ele>170</ele>
        <time>2015-10-12T07:42:57.1Z</time>
      </trkpt>
      <trkpt lat="48.2077" lon="-3.04731">
        <ele>170</ele>
        <time>2015-10-12T07:43:00.1Z</time>
      </trkpt>
      <trkpt lat="48.20771" lon="-3.04733">
        <ele>170</ele>
        <time>2015-10-12T07:43:02.1Z</time>
      </trkpt>
      <trkpt lat="48.20772" lon="-3.04734">
        <ele>170</ele>
        <time>2015-10-12T07:43:04.1Z</time>
      </trkpt>
      <trkpt lat="48.20774" lon="-3.04736">
        <ele>170</ele>
        <time>2015-10-12T07:43:07.1Z</time>
      </trkpt>
      <trkpt lat="48.20776" lon="-3.04736">
        <ele>170</ele>
        <time>2015-10-12T07:43:10.1Z</time>
      </trkpt>
      <trkpt lat="48.20778" lon="-3.04738">
        <ele>170</ele>
        <time>2015-10-12T07:43:13.1Z</time>
      </trkpt>
      <trkpt lat="48.20779" lon="-3.04741">
        <ele>170</ele>
        <time>2015-10-12T07:43:15.1Z</time>
      </trkpt>
      <trkpt lat="48.20781" lon="-3.04743">
        <ele>170</ele>
        <time>2015-10-12T07:43:17.1Z</time>
      </trkpt>
      <trkpt lat="48.20784" lon="-3.04746">
        <ele>170</ele>
        <time>2015-10-12T07:43:20.1Z</time>
      </trkpt>
      <trkpt lat="48.20786" lon="-3.04748">
        <ele>170</ele>
        <time>2015-10-12T07:43:22.1Z</time>
      </trkpt>
      <trkpt lat="48.20788" lon="-3.04751">
        <ele>170</ele>
        <time>2015-10-12T07:43:25.1Z</time>
      </trkpt>
      <trkpt lat="48.2079" lon="-3.04753">
        <ele>170</ele>
        <time>2015-10-12T07:43:27.1Z</time>
      </trkpt>
      <trkpt lat="48.20792" lon="-3.04755">
        <ele>170</ele>
        <time>2015-10-12T07:43:29.1Z</time>
      </trkpt>
      <trkpt lat="48.20795" lon="-3.04759">
        <ele>170</ele>
        <time>2015-10-12T07:43:32.1Z</time>
      </trkpt>
      <trkpt lat="48.20797" lon="-3.04762">
        <ele>170</ele>
        <time>2015-10-12T07:43:35.1Z</time>
      </trkpt>
      <trkpt lat="48.20798" lon="-3.04766">
        <ele>170</ele>
        <time>2015-10-12T07:43:38.1Z</time>
      </trkpt>
      <trkpt lat="48.208" lon="-3.04768">
        <ele>170</ele>
        <time>2015-10-12T07:43:40.1Z</time>
      </trkpt>
      <trkpt lat="48.20802" lon="-3.04771">
        <ele>170</ele>
        <time>2015-10-12T07:43:43.1Z</time>
      </trkpt>
      <trkpt lat="48.20803" lon="-3.04774">
        <ele>170</ele>
        <time>2015-10-12T07:43:45.1Z</time>
      </trkpt>
      <trkpt lat="48.20805" lon="-3.04778">
        <ele>170</ele>
        <time>2015-10-12T07:43:48.1Z</time>
      </trkpt>
      <trkpt lat="48.20808" lon="-3.0478">
        <ele>170</ele>
        <time>2015-10-12T07:43:50.1Z</time>
      </trkpt>
      <trkpt lat="48.2081" lon="-3.04784">
        <ele>170</ele>
        <time>2015-10-12T07:43:53.1Z</time>
      </trkpt>
      <trkpt lat="48.20813" lon="-3.04788">
        <ele>170</ele>
        <time>2015-10-12T07:43:56.1Z</time>
      </trkpt>
      <trkpt lat="48.20816" lon="-3.04793">
        <ele>171</ele>
        <time>2015-10-12T07:43:59.1Z</time>
      </trkpt>
      <trkpt lat="48.20818" lon="-3.04797">
        <ele>171</ele>
        <time>2015-10-12T07:44:02.1Z</time>
      </trkpt>
      <trkpt lat="48.20821" lon="-3.04799">
        <ele>170</ele>
        <time>2015-10-12T07:44:05.1Z</time>
      </trkpt>
      <trkpt lat="48.20822" lon="-3.04802">
        <ele>170</ele>
        <time>2015-10-12T07:44:07.1Z</time>
      </trkpt>
      <trkpt lat="48.20824" lon="-3.04805">
        <ele>170</ele>
        <time>2015-10-12T07:44:10.1Z</time>
      </trkpt>
      <trkpt lat="48.20826" lon="-3.04811">
        <ele>170</ele>
        <time>2015-10-12T07:44:13.1Z</time>
      </trkpt>
      <trkpt lat="48.20829" lon="-3.04813">
        <ele>170</ele>
        <time>2015-10-12T07:44:15.1Z</time>
      </trkpt>
      <trkpt lat="48.20831" lon="-3.04816">
        <ele>170</ele>
        <time>2015-10-12T07:44:18.1Z</time>
      </trkpt>
      <trkpt lat="48.20832" lon="-3.04819">
        <ele>170</ele>
        <time>2015-10-12T07:44:20.1Z</time>
      </trkpt>
      <trkpt lat="48.20833" lon="-3.04822">
        <ele>170</ele>
        <time>2015-10-12T07:44:22.1Z</time>
      </trkpt>
      <trkpt lat="48.20835" lon="-3.04827">
        <ele>169</ele>
        <time>2015-10-12T07:44:25.1Z</time>
      </trkpt>
      <trkpt lat="48.20836" lon="-3.04831">
        <ele>170</ele>
        <time>2015-10-12T07:44:27.1Z</time>
      </trkpt>
      <trkpt lat="48.20838" lon="-3.04835">
        <ele>169</ele>
        <time>2015-10-12T07:44:30.1Z</time>
      </trkpt>
      <trkpt lat="48.2084" lon="-3.04838">
        <ele>170</ele>
        <time>2015-10-12T07:44:32.1Z</time>
      </trkpt>
      <trkpt lat="48.20842" lon="-3.04844">
        <ele>170</ele>
        <time>2015-10-12T07:44:35.1Z</time>
      </trkpt>
      <trkpt lat="48.20844" lon="-3.04847">
        <ele>170</ele>
        <time>2015-10-12T07:44:37.1Z</time>
      </trkpt>
      <trkpt lat="48.20846" lon="-3.04851">
        <ele>170</ele>
        <time>2015-10-12T07:44:40.1Z</time>
      </trkpt>
      <trkpt lat="48.20848" lon="-3.04855">
        <ele>170</ele>
        <time>2015-10-12T07:44:43.1Z</time>
      </trkpt>
      <trkpt lat="48.20849" lon="-3.0486">
        <ele>170</ele>
        <time>2015-10-12T07:44:46.1Z</time>
      </trkpt>
      <trkpt lat="48.2085" lon="-3.04862">
        <ele>170</ele>
        <time>2015-10-12T07:44:48.1Z</time>
      </trkpt>
      <trkpt lat="48.20852" lon="-3.04865">
        <ele>170</ele>
        <time>2015-10-12T07:44:50.1Z</time>
      </trkpt>
      <trkpt lat="48.20854" lon="-3.04869">
        <ele>170</ele>
        <time>2015-10-12T07:44:53.1Z</time>
      </trkpt>
      <trkpt lat="48.20856" lon="-3.04872">
        <ele>169</ele>
        <time>2015-10-12T07:44:56.1Z</time>
      </trkpt>
      <trkpt lat="48.20859" lon="-3.04875">
        <ele>170</ele>
        <time>2015-10-12T07:44:59.1Z</time>
      </trkpt>
      <trkpt lat="48.2086" lon="-3.04877">
        <ele>170</ele>
        <time>2015-10-12T07:45:02.1Z</time>
      </trkpt>
      <trkpt lat="48.2086" lon="-3.04879">
        <ele>170</ele>
        <time>2015-10-12T07:45:04.1Z</time>
      </trkpt>
      <trkpt lat="48.20861" lon="-3.04879">
        <ele>170</ele>
        <time>2015-10-12T07:45:07.1Z</time>
      </trkpt>
      <trkpt lat="48.20861" lon="-3.04879">
        <ele>170</ele>
        <time>2015-10-12T07:45:09.1Z</time>
      </trkpt>
      <trkpt lat="48.20861" lon="-3.0488">
        <ele>170</ele>
        <time>2015-10-12T07:45:12.1Z</time>
      </trkpt>
      <trkpt lat="48.20861" lon="-3.04882">
        <ele>170</ele>
        <time>2015-10-12T07:45:14.1Z</time>
      </trkpt>
      <trkpt lat="48.20861" lon="-3.04883">
        <ele>170</ele>
        <time>2015-10-12T07:45:17.1Z</time>
      </trkpt>
      <trkpt lat="48.20862" lon="-3.04884">
        <ele>170</ele>
        <time>2015-10-12T07:45:19.1Z</time>
      </trkpt>
      <trkpt lat="48.20863" lon="-3.04886">
        <ele>170</ele>
        <time>2015-10-12T07:45:22.1Z</time>
      </trkpt>
      <trkpt lat="48.20866" lon="-3.04887">
        <ele>170</ele>
        <time>2015-10-12T07:45:25.1Z</time>
      </trkpt>
      <trkpt lat="48.20868" lon="-3.04889">
        <ele>169</ele>
        <time>2015-10-12T07:45:28.1Z</time>
      </trkpt>
      <trkpt lat="48.2087" lon="-3.04892">
        <ele>169</ele>
        <time>2015-10-12T07:45:31.1Z</time>
      </trkpt>
      <trkpt lat="48.20872" lon="-3.04894">
        <ele>170</ele>
        <time>2015-10-12T07:45:34.1Z</time>
      </trkpt>
      <trkpt lat="48.20874" lon="-3.04895">
        <ele>170</ele>
        <time>2015-10-12T07:45:36.1Z</time>
      </trkpt>
      <trkpt lat="48.20878" lon="-3.04897">
        <ele>170</ele>
        <time>2015-10-12T07:45:39.1Z</time>
      </trkpt>
      <trkpt lat="48.20881" lon="-3.04899">
        <ele>169</ele>
        <time>2015-10-12T07:45:42.1Z</time>
      </trkpt>
      <trkpt lat="48.20884" lon="-3.049">
        <ele>169</ele>
        <time>2015-10-12T07:45:45.1Z</time>
      </trkpt>
      <trkpt lat="48.20888" lon="-3.04902">
        <ele>169</ele>
        <time>2015-10-12T07:45:48.1Z</time>
      </trkpt>
      <trkpt lat="48.2089" lon="-3.04903">
        <ele>169</ele>
        <time>2015-10-12T07:45:50.1Z</time>
      </trkpt>
      <trkpt lat="48.20893" lon="-3.04904">
        <ele>169</ele>
        <time>2015-10-12T07:45:53.1Z</time>
      </trkpt>
      <trkpt lat="48.20895" lon="-3.04907">
        <ele>169</ele>
        <time>2015-10-12T07:45:55.1Z</time>
      </trkpt>
      <trkpt lat="48.20897" lon="-3.04908">
        <ele>170</ele>
        <time>2015-10-12T07:45:57.1Z</time>
      </trkpt>
      <trkpt lat="48.209" lon="-3.04911">
        <ele>169</ele>
        <time>2015-10-12T07:46:00.1Z</time>
      </trkpt>
      <trkpt lat="48.20903" lon="-3.04912">
        <ele>169</ele>
        <time>2015-10-12T07:46:02.1Z</time>
      </trkpt>
      <trkpt lat="48.20905" lon="-3.04914">
        <ele>170</ele>
        <time>2015-10-12T07:46:04.1Z</time>
      </trkpt>
      <trkpt lat="48.20909" lon="-3.04916">
        <ele>170</ele>
        <time>2015-10-12T07:46:07.1Z</time>
      </trkpt>
      <trkpt lat="48.20911" lon="-3.04918">
        <ele>170</ele>
        <time>2015-10-12T07:46:09.1Z</time>
      </trkpt>
      <trkpt lat="48.20914" lon="-3.04921">
        <ele>170</ele>
        <time>2015-10-12T07:46:12.1Z</time>
      </trkpt>
      <trkpt lat="48.20917" lon="-3.04923">
        <ele>170</ele>
        <time>2015-10-12T07:46:15.1Z</time>
      </trkpt>
      <trkpt lat="48.20919" lon="-3.04925">
        <ele>170</ele>
        <time>2015-10-12T07:46:17.1Z</time>
      </trkpt>
      <trkpt lat="48.20923" lon="-3.04929">
        <ele>170</ele>
        <time>2015-10-12T07:46:20.1Z</time>
      </trkpt>
      <trkpt lat="48.20925" lon="-3.04932">
        <ele>170</ele>
        <time>2015-10-12T07:46:22.1Z</time>
      </trkpt>
      <trkpt lat="48.20927" lon="-3.04934">
        <ele>170</ele>
        <time>2015-10-12T07:46:24.1Z</time>
      </trkpt>
      <trkpt lat="48.2093" lon="-3.04936">
        <ele>170</ele>
        <time>2015-10-12T07:46:27.1Z</time>
      </trkpt>
      <trkpt lat="48.20932" lon="-3.04938">
        <ele>170</ele>
        <time>2015-10-12T07:46:29.1Z</time>
      </trkpt>
      <trkpt lat="48.20934" lon="-3.04939">
        <ele>170</ele>
        <time>2015-10-12T07:46:31.1Z</time>
      </trkpt>
      <trkpt lat="48.20936" lon="-3.0494">
        <ele>170</ele>
        <time>2015-10-12T07:46:34.1Z</time>
      </trkpt>
      <trkpt lat="48.20938" lon="-3.04941">
        <ele>170</ele>
        <time>2015-10-12T07:46:36.1Z</time>
      </trkpt>
      <trkpt lat="48.20941" lon="-3.04942">
        <ele>170</ele>
        <time>2015-10-12T07:46:39.1Z</time>
      </trkpt>
      <trkpt lat="48.20943" lon="-3.04944">
        <ele>170</ele>
        <time>2015-10-12T07:46:41.1Z</time>
      </trkpt>
      <trkpt lat="48.20946" lon="-3.04947">
        <ele>170</ele>
        <time>2015-10-12T07:46:44.1Z</time>
      </trkpt>
      <trkpt lat="48.20948" lon="-3.04948">
        <ele>170</ele>
        <time>2015-10-12T07:46:46.1Z</time>
      </trkpt>
      <trkpt lat="48.20951" lon="-3.0495">
        <ele>170</ele>
        <time>2015-10-12T07:46:49.1Z</time>
      </trkpt>
      <trkpt lat="48.20953" lon="-3.04951">
        <ele>170</ele>
        <time>2015-10-12T07:46:51.1Z</time>
      </trkpt>
      <trkpt lat="48.20954" lon="-3.04952">
        <ele>170</ele>
        <time>2015-10-12T07:46:53.1Z</time>
      </trkpt>
      <trkpt lat="48.20957" lon="-3.04954">
        <ele>170</ele>
        <time>2015-10-12T07:46:56.1Z</time>
      </trkpt>
      <trkpt lat="48.20959" lon="-3.04955">
        <ele>171</ele>
        <time>2015-10-12T07:46:58.1Z</time>
      </trkpt>
      <trkpt lat="48.20963" lon="-3.04956">
        <ele>171</ele>
        <time>2015-10-12T07:47:01.1Z</time>
      </trkpt>
      <trkpt lat="48.20965" lon="-3.04956">
        <ele>170</ele>
        <time>2015-10-12T07:47:03.1Z</time>
      </trkpt>
      <trkpt lat="48.20967" lon="-3.04957">
        <ele>171</ele>
        <time>2015-10-12T07:47:05.1Z</time>
      </trkpt>
      <trkpt lat="48.20971" lon="-3.0496">
        <ele>170</ele>
        <time>2015-10-12T07:47:08.1Z</time>
      </trkpt>
      <trkpt lat="48.20975" lon="-3.04961">
        <ele>170</ele>
        <time>2015-10-12T07:47:11.1Z</time>
      </trkpt>
      <trkpt lat="48.20979" lon="-3.04961">
        <ele>170</ele>
        <time>2015-10-12T07:47:13.1Z</time>
      </trkpt>
      <trkpt lat="48.20982" lon="-3.04962">
        <ele>170</ele>
        <time>2015-10-12T07:47:16.1Z</time>
      </trkpt>
      <trkpt lat="48.20987" lon="-3.04962">
        <ele>170</ele>
        <time>2015-10-12T07:47:19.1Z</time>
      </trkpt>
      <trkpt lat="48.20988" lon="-3.04961">
        <ele>170</ele>
        <time>2015-10-12T07:47:21.1Z</time>
      </trkpt>
      <trkpt lat="48.20992" lon="-3.0496">
        <ele>170</ele>
        <time>2015-10-12T07:47:24.1Z</time>
      </trkpt>
      <trkpt lat="48.20995" lon="-3.0496">
        <ele>170</ele>
        <time>2015-10-12T07:47:26.1Z</time>
      </trkpt>
      <trkpt lat="48.20998" lon="-3.04958">
        <ele>170</ele>
        <time>2015-10-12T07:47:29.1Z</time>
      </trkpt>
      <trkpt lat="48.21" lon="-3.04957">
        <ele>170</ele>
        <time>2015-10-12T07:47:31.1Z</time>
      </trkpt>
      <trkpt lat="48.21003" lon="-3.04955">
        <ele>170</ele>
        <time>2015-10-12T07:47:34.1Z</time>
      </trkpt>
      <trkpt lat="48.21005" lon="-3.04953">
        <ele>170</ele>
        <time>2015-10-12T07:47:36.1Z</time>
      </trkpt>
      <trkpt lat="48.21009" lon="-3.04952">
        <ele>170</ele>
        <time>2015-10-12T07:47:39.1Z</time>
      </trkpt>
      <trkpt lat="48.21011" lon="-3.04952">
        <ele>171</ele>
        <time>2015-10-12T07:47:41.1Z</time>
      </trkpt>
      <trkpt lat="48.21015" lon="-3.04951">
        <ele>171</ele>
        <time>2015-10-12T07:47:44.1Z</time>
      </trkpt>
      <trkpt lat="48.21017" lon="-3.04951">
        <ele>171</ele>
        <time>2015-10-12T07:47:47.1Z</time>
      </trkpt>
      <trkpt lat="48.2102" lon="-3.04951">
        <ele>170</ele>
        <time>2015-10-12T07:47:49.1Z</time>
      </trkpt>
      <trkpt lat="48.21023" lon="-3.04951">
        <ele>170</ele>
        <time>2015-10-12T07:47:51.1Z</time>
      </trkpt>
      <trkpt lat="48.21028" lon="-3.04951">
        <ele>170</ele>
        <time>2015-10-12T07:47:54.1Z</time>
      </trkpt>
      <trkpt lat="48.21032" lon="-3.04951">
        <ele>170</ele>
        <time>2015-10-12T07:47:57.1Z</time>
      </trkpt>
      <trkpt lat="48.21035" lon="-3.0495">
        <ele>170</ele>
        <time>2015-10-12T07:48:00.1Z</time>
      </trkpt>
      <trkpt lat="48.21039" lon="-3.0495">
        <ele>170</ele>
        <time>2015-10-12T07:48:03.1Z</time>
      </trkpt>
      <trkpt lat="48.21042" lon="-3.04951">
        <ele>170</ele>
        <time>2015-10-12T07:48:05.1Z</time>
      </trkpt>
      <trkpt lat="48.21045" lon="-3.04951">
        <ele>170</ele>
        <time>2015-10-12T07:48:07.1Z</time>
      </trkpt>
      <trkpt lat="48.21048" lon="-3.04952">
        <ele>170</ele>
        <time>2015-10-12T07:48:10.1Z</time>
      </trkpt>
      <trkpt lat="48.21051" lon="-3.04952">
        <ele>170</ele>
        <time>2015-10-12T07:48:12.1Z</time>
      </trkpt>
      <trkpt lat="48.21052" lon="-3.04951">
        <ele>170</ele>
        <time>2015-10-12T07:48:14.1Z</time>
      </trkpt>
      <trkpt lat="48.21055" lon="-3.0495">
        <ele>169</ele>
        <time>2015-10-12T07:48:17.1Z</time>
      </trkpt>
      <trkpt lat="48.21056" lon="-3.04949">
        <ele>169</ele>
        <time>2015-10-12T07:48:20.1Z</time>
      </trkpt>
      <trkpt lat="48.21057" lon="-3.04948">
        <ele>169</ele>
        <time>2015-10-12T07:48:22.1Z</time>
      </trkpt>
      <trkpt lat="48.21058" lon="-3.04947">
        <ele>169</ele>
        <time>2015-10-12T07:48:25.1Z</time>
      </trkpt>
      <trkpt lat="48.21059" lon="-3.04946">
        <ele>169</ele>
        <time>2015-10-12T07:48:28.1Z</time>
      </trkpt>
      <trkpt lat="48.21059" lon="-3.04944">
        <ele>169</ele>
        <time>2015-10-12T07:48:30.1Z</time>
      </trkpt>
      <trkpt lat="48.21059" lon="-3.04943">
        <ele>169</ele>
        <time>2015-10-12T07:48:33.1Z</time>
      </trkpt>
      <trkpt lat="48.21059" lon="-3.0494">
        <ele>169</ele>
        <time>2015-10-12T07:48:36.1Z</time>
      </trkpt>
      <trkpt lat="48.21059" lon="-3.04937">
        <ele>169</ele>
        <time>2015-10-12T07:48:39.1Z</time>
      </trkpt>
      <trkpt lat="48.21059" lon="-3.04933">
        <ele>169</ele>
        <time>2015-10-12T07:48:42.1Z</time>
      </trkpt>
      <trkpt lat="48.2106" lon="-3.0493">
        <ele>169</ele>
        <time>2015-10-12T07:48:45.1Z</time>
      </trkpt>
      <trkpt lat="48.2106" lon="-3.04925">
        <ele>169</ele>
        <time>2015-10-12T07:48:48.1Z</time>
      </trkpt>
      <trkpt lat="48.21059" lon="-3.04922">
        <ele>169</ele>
        <time>2015-10-12T07:48:50.1Z</time>
      </trkpt>
      <trkpt lat="48.21058" lon="-3.04918">
        <ele>169</ele>
        <time>2015-10-12T07:48:53.1Z</time>
      </trkpt>
      <trkpt lat="48.21057" lon="-3.04915">
        <ele>169</ele>
        <time>2015-10-12T07:48:55.1Z</time>
      </trkpt>
      <trkpt lat="48.21055" lon="-3.04911">
        <ele>169</ele>
        <time>2015-10-12T07:48:58.1Z</time>
      </trkpt>
      <trkpt lat="48.21053" lon="-3.04909">
        <ele>169</ele>
        <time>2015-10-12T07:49:00.1Z</time>
      </trkpt>
      <trkpt lat="48.21052" lon="-3.04906">
        <ele>169</ele>
        <time>2015-10-12T07:49:02.1Z</time>
      </trkpt>
      <trkpt lat="48.2105" lon="-3.04903">
        <ele>170</ele>
        <time>2015-10-12T07:49:05.1Z</time>
      </trkpt>
      <trkpt lat="48.21048" lon="-3.049">
        <ele>170</ele>
        <time>2015-10-12T07:49:07.1Z</time>
      </trkpt>
      <trkpt lat="48.21046" lon="-3.04895">
        <ele>170</ele>
        <time>2015-10-12T07:49:10.1Z</time>
      </trkpt>
      <trkpt lat="48.21044" lon="-3.04891">
        <ele>170</ele>
        <time>2015-10-12T07:49:13.1Z</time>
      </trkpt>
      <trkpt lat="48.21043" lon="-3.04889">
        <ele>170</ele>
        <time>2015-10-12T07:49:15.1Z</time>
      </trkpt>
      <trkpt lat="48.21041" lon="-3.04886">
        <ele>170</ele>
        <time>2015-10-12T07:49:18.1Z</time>
      </trkpt>
      <trkpt lat="48.21039" lon="-3.04883">
        <ele>169</ele>
        <time>2015-10-12T07:49:20.1Z</time>
      </trkpt>
      <trkpt lat="48.21036" lon="-3.0488">
        <ele>169</ele>
        <time>2015-10-12T07:49:23.1Z</time>
      </trkpt>
      <trkpt lat="48.21034" lon="-3.04877">
        <ele>170</ele>
        <time>2015-10-12T07:49:25.1Z</time>
      </trkpt>
      <trkpt lat="48.21031" lon="-3.04874">
        <ele>169</ele>
        <time>2015-10-12T07:49:28.1Z</time>
      </trkpt>
      <trkpt lat="48.21029" lon="-3.04872">
        <ele>170</ele>
        <time>2015-10-12T07:49:30.1Z</time>
      </trkpt>
      <trkpt lat="48.21026" lon="-3.04869">
        <ele>170</ele>
        <time>2015-10-12T07:49:33.1Z</time>
      </trkpt>
      <trkpt lat="48.21024" lon="-3.04867">
        <ele>171</ele>
        <time>2015-10-12T07:49:35.1Z</time>
      </trkpt>
      <trkpt lat="48.21022" lon="-3.04863">
        <ele>171</ele>
        <time>2015-10-12T07:49:38.1Z</time>
      </trkpt>
      <trkpt lat="48.21018" lon="-3.04859">
        <ele>171</ele>
        <time>2015-10-12T07:49:41.1Z</time>
      </trkpt>
      <trkpt lat="48.21015" lon="-3.04856">
        <ele>171</ele>
        <time>2015-10-12T07:49:44.1Z</time>
      </trkpt>
      <trkpt lat="48.21011" lon="-3.04854">
        <ele>171</ele>
        <time>2015-10-12T07:49:47.1Z</time>
      </trkpt>
      <trkpt lat="48.21009" lon="-3.04852">
        <ele>172</ele>
        <time>2015-10-12T07:49:49.1Z</time>
      </trkpt>
      <trkpt lat="48.21007" lon="-3.0485">
        <ele>172</ele>
        <time>2015-10-12T07:49:51.1Z</time>
      </trkpt>
      <trkpt lat="48.21006" lon="-3.04848">
        <ele>172</ele>
        <time>2015-10-12T07:49:53.1Z</time>
      </trkpt>
      <trkpt lat="48.21003" lon="-3.04845">
        <ele>172</ele>
        <time>2015-10-12T07:49:56.1Z</time>
      </trkpt>
      <trkpt lat="48.21" lon="-3.04841">
        <ele>172</ele>
        <time>2015-10-12T07:49:59.1Z</time>
      </trkpt>
      <trkpt lat="48.20998" lon="-3.04837">
        <ele>172</ele>
        <time>2015-10-12T07:50:02.1Z</time>
      </trkpt>
      <trkpt lat="48.20996" lon="-3.04833">
        <ele>173</ele>
        <time>2015-10-12T07:50:05.1Z</time>
      </trkpt>
      <trkpt lat="48.20994" lon="-3.04828">
        <ele>173</ele>
        <time>2015-10-12T07:50:08.1Z</time>
      </trkpt>
      <trkpt lat="48.20993" lon="-3.04825">
        <ele>173</ele>
        <time>2015-10-12T07:50:10.1Z</time>
      </trkpt>
      <trkpt lat="48.20991" lon="-3.04822">
        <ele>174</ele>
        <time>2015-10-12T07:50:12.1Z</time>
      </trkpt>
      <trkpt lat="48.20989" lon="-3.04819">
        <ele>174</ele>
        <time>2015-10-12T07:50:15.1Z</time>
      </trkpt>
      <trkpt lat="48.20987" lon="-3.04816">
        <ele>174</ele>
        <time>2015-10-12T07:50:18.1Z</time>
      </trkpt>
      <trkpt lat="48.20985" lon="-3.04813">
        <ele>174</ele>
        <time>2015-10-12T07:50:21.1Z</time>
      </trkpt>
      <trkpt lat="48.20982" lon="-3.04809">
        <ele>174</ele>
        <time>2015-10-12T07:50:24.1Z</time>
      </trkpt>
      <trkpt lat="48.20981" lon="-3.04807">
        <ele>174</ele>
        <time>2015-10-12T07:50:26.1Z</time>
      </trkpt>
      <trkpt lat="48.20979" lon="-3.04803">
        <ele>174</ele>
        <time>2015-10-12T07:50:29.1Z</time>
      </trkpt>
      <trkpt lat="48.20977" lon="-3.04799">
        <ele>174</ele>
        <time>2015-10-12T07:50:32.1Z</time>
      </trkpt>
      <trkpt lat="48.20975" lon="-3.04796">
        <ele>174</ele>
        <time>2015-10-12T07:50:35.1Z</time>
      </trkpt>
      <trkpt lat="48.20974" lon="-3.04793">
        <ele>174</ele>
        <time>2015-10-12T07:50:38.1Z</time>
      </trkpt>
      <trkpt lat="48.20973" lon="-3.04791">
        <ele>174</ele>
        <time>2015-10-12T07:50:40.1Z</time>
      </trkpt>
      <trkpt lat="48.20972" lon="-3.04788">
        <ele>174</ele>
        <time>2015-10-12T07:50:43.1Z</time>
      </trkpt>
      <trkpt lat="48.2097" lon="-3.04784">
        <ele>174</ele>
        <time>2015-10-12T07:50:45.1Z</time>
      </trkpt>
      <trkpt lat="48.20969" lon="-3.04781">
        <ele>174</ele>
        <time>2015-10-12T07:50:47.1Z</time>
      </trkpt>
      <trkpt lat="48.20967" lon="-3.04778">
        <ele>173</ele>
        <time>2015-10-12T07:50:50.1Z</time>
      </trkpt>
      <trkpt lat="48.20965" lon="-3.04774">
        <ele>173</ele>
        <time>2015-10-12T07:50:53.1Z</time>
      </trkpt>
      <trkpt lat="48.20963" lon="-3.04769">
        <ele>173</ele>
        <time>2015-10-12T07:50:56.1Z</time>
      </trkpt>
      <trkpt lat="48.20961" lon="-3.04767">
        <ele>173</ele>
        <time>2015-10-12T07:50:58.1Z</time>
      </trkpt>
      <trkpt lat="48.20959" lon="-3.04764">
        <ele>173</ele>
        <time>2015-10-12T07:51:01.1Z</time>
      </trkpt>
      <trkpt lat="48.20957" lon="-3.04759">
        <ele>173</ele>
        <time>2015-10-12T07:51:04.1Z</time>
      </trkpt>
      <trkpt lat="48.20955" lon="-3.04757">
        <ele>173</ele>
        <time>2015-10-12T07:51:06.1Z</time>
      </trkpt>
      <trkpt lat="48.20952" lon="-3.04753">
        <ele>173</ele>
        <time>2015-10-12T07:51:09.1Z</time>
      </trkpt>
      <trkpt lat="48.2095" lon="-3.04749">
        <ele>173</ele>
        <time>2015-10-12T07:51:12.1Z</time>
      </trkpt>
      <trkpt lat="48.20948" lon="-3.04745">
        <ele>173</ele>
        <time>2015-10-12T07:51:15.1Z</time>
      </trkpt>
      <trkpt lat="48.20946" lon="-3.04742">
        <ele>173</ele>
        <time>2015-10-12T07:51:18.1Z</time>
      </trkpt>
      <trkpt lat="48.20944" lon="-3.04739">
        <ele>173</ele>
        <time>2015-10-12T07:51:20.1Z</time>
      </trkpt>
      <trkpt lat="48.20942" lon="-3.04734">
        <ele>172</ele>
        <time>2015-10-12T07:51:23.1Z</time>
      </trkpt>
      <trkpt lat="48.2094" lon="-3.04731">
        <ele>172</ele>
        <time>2015-10-12T07:51:25.1Z</time>
      </trkpt>
      <trkpt lat="48.20938" lon="-3.0473">
        <ele>172</ele>
        <time>2015-10-12T07:51:27.1Z</time>
      </trkpt>
      <trkpt lat="48.20937" lon="-3.04727">
        <ele>172</ele>
        <time>2015-10-12T07:51:30.1Z</time>
      </trkpt>
      <trkpt lat="48.20935" lon="-3.04725">
        <ele>172</ele>
        <time>2015-10-12T07:51:32.1Z</time>
      </trkpt>
      <trkpt lat="48.20934" lon="-3.04722">
        <ele>172</ele>
        <time>2015-10-12T07:51:34.1Z</time>
      </trkpt>
      <trkpt lat="48.2093" lon="-3.04718">
        <ele>172</ele>
        <time>2015-10-12T07:51:37.1Z</time>
      </trkpt>
      <trkpt lat="48.20928" lon="-3.04715">
        <ele>171</ele>
        <time>2015-10-12T07:51:40.1Z</time>
      </trkpt>
      <trkpt lat="48.20926" lon="-3.04713">
        <ele>171</ele>
        <time>2015-10-12T07:51:42.1Z</time>
      </trkpt>
      <trkpt lat="48.20923" lon="-3.04711">
        <ele>171</ele>
        <time>2015-10-12T07:51:44.1Z</time>
      </trkpt>
      <trkpt lat="48.20921" lon="-3.04709">
        <ele>170</ele>
        <time>2015-10-12T07:51:46.1Z</time>
      </trkpt>
      <trkpt lat="48.20919" lon="-3.04707">
        <ele>170</ele>
        <time>2015-10-12T07:51:49.1Z</time>
      </trkpt>
      <trkpt lat="48.20915" lon="-3.04704">
        <ele>170</ele>
        <time>2015-10-12T07:51:52.1Z</time>
      </trkpt>
      <trkpt lat="48.20914" lon="-3.04701">
        <ele>170</ele>
        <time>2015-10-12T07:51:54.1Z</time>
      </trkpt>
      <trkpt lat="48.20912" lon="-3.04698">
        <ele>170</ele>
        <time>2015-10-12T07:51:56.1Z</time>
      </trkpt>
      <trkpt lat="48.20908" lon="-3.04695">
        <ele>170</ele>
        <time>2015-10-12T07:51:59.1Z</time>
      </trkpt>
      <trkpt lat="48.20906" lon="-3.04692">
        <ele>169</ele>
        <time>2015-10-12T07:52:02.1Z</time>
      </trkpt>
      <trkpt lat="48.20904" lon="-3.04689">
        <ele>170</ele>
        <time>2015-10-12T07:52:04.1Z</time>
      </trkpt>
      <trkpt lat="48.20903" lon="-3.04686">
        <ele>170</ele>
        <time>2015-10-12T07:52:06.1Z</time>
      </trkpt>
      <trkpt lat="48.20902" lon="-3.04681">
        <ele>170</ele>
        <time>2015-10-12T07:52:09.1Z</time>
      </trkpt>
      <trkpt lat="48.20901" lon="-3.04677">
        <ele>170</ele>
        <time>2015-10-12T07:52:12.1Z</time>
      </trkpt>
      <trkpt lat="48.209" lon="-3.04674">
        <ele>170</ele>
        <time>2015-10-12T07:52:14.1Z</time>
      </trkpt>
      <trkpt lat="48.20898" lon="-3.0467">
        <ele>170</ele>
        <time>2015-10-12T07:52:17.1Z</time>
      </trkpt>
      <trkpt lat="48.20897" lon="-3.04665">
        <ele>170</ele>
        <time>2015-10-12T07:52:20.1Z</time>
      </trkpt>
      <trkpt lat="48.20896" lon="-3.04662">
        <ele>170</ele>
        <time>2015-10-12T07:52:23.1Z</time>
      </trkpt>
      <trkpt lat="48.20895" lon="-3.04659">
        <ele>170</ele>
        <time>2015-10-12T07:52:25.1Z</time>
      </trkpt>
      <trkpt lat="48.20894" lon="-3.04657">
        <ele>170</ele>
        <time>2015-10-12T07:52:27.1Z</time>
      </trkpt>
      <trkpt lat="48.20892" lon="-3.04654">
        <ele>170</ele>
        <time>2015-10-12T07:52:30.1Z</time>
      </trkpt>
      <trkpt lat="48.2089" lon="-3.04653">
        <ele>170</ele>
        <time>2015-10-12T07:52:33.1Z</time>
      </trkpt>
      <trkpt lat="48.20887" lon="-3.04651">
        <ele>170</ele>
        <time>2015-10-12T07:52:36.1Z</time>
      </trkpt>
      <trkpt lat="48.20886" lon="-3.04649">
        <ele>170</ele>
        <time>2015-10-12T07:52:39.1Z</time>
      </trkpt>
      <trkpt lat="48.20883" lon="-3.04646">
        <ele>170</ele>
        <time>2015-10-12T07:52:41.1Z</time>
      </trkpt>
      <trkpt lat="48.20882" lon="-3.04642">
        <ele>170</ele>
        <time>2015-10-12T07:52:44.1Z</time>
      </trkpt>
      <trkpt lat="48.2088" lon="-3.04638">
        <ele>170</ele>
        <time>2015-10-12T07:52:47.1Z</time>
      </trkpt>
      <trkpt lat="48.20877" lon="-3.04634">
        <ele>171</ele>
        <time>2015-10-12T07:52:50.1Z</time>
      </trkpt>
      <trkpt lat="48.20877" lon="-3.0463">
        <ele>171</ele>
        <time>2015-10-12T07:52:53.1Z</time>
      </trkpt>
      <trkpt lat="48.20876" lon="-3.04624">
        <ele>171</ele>
        <time>2015-10-12T07:52:56.1Z</time>
      </trkpt>
      <trkpt lat="48.20876" lon="-3.0462">
        <ele>171</ele>
        <time>2015-10-12T07:52:59.1Z</time>
      </trkpt>
      <trkpt lat="48.20876" lon="-3.04618">
        <ele>171</ele>
        <time>2015-10-12T07:53:01.1Z</time>
      </trkpt>
      <trkpt lat="48.20876" lon="-3.04616">
        <ele>171</ele>
        <time>2015-10-12T07:53:03.1Z</time>
      </trkpt>
      <trkpt lat="48.20877" lon="-3.04613">
        <ele>171</ele>
        <time>2015-10-12T07:53:06.1Z</time>
      </trkpt>
      <trkpt lat="48.20878" lon="-3.0461">
        <ele>171</ele>
        <time>2015-10-12T07:53:08.1Z</time>
      </trkpt>
      <trkpt lat="48.20879" lon="-3.04605">
        <ele>171</ele>
        <time>2015-10-12T07:53:11.1Z</time>
      </trkpt>
      <trkpt lat="48.20879" lon="-3.04602">
        <ele>171</ele>
        <time>2015-10-12T07:53:13.1Z</time>
      </trkpt>
      <trkpt lat="48.20879" lon="-3.04599">
        <ele>171</ele>
        <time>2015-10-12T07:53:15.1Z</time>
      </trkpt>
      <trkpt lat="48.2088" lon="-3.04597">
        <ele>171</ele>
        <time>2015-10-12T07:53:17.1Z</time>
      </trkpt>
      <trkpt lat="48.20881" lon="-3.04596">
        <ele>170</ele>
        <time>2015-10-12T07:53:20.1Z</time>
      </trkpt>
      <trkpt lat="48.20882" lon="-3.04597">
        <ele>170</ele>
        <time>2015-10-12T07:53:22.1Z</time>
      </trkpt>
      <trkpt lat="48.20881" lon="-3.04597">
        <ele>170</ele>
        <time>2015-10-12T07:53:24.1Z</time>
      </trkpt>
      <trkpt lat="48.20881" lon="-3.04597">
        <ele>170</ele>
        <time>2015-10-12T07:53:27.1Z</time>
      </trkpt>
      <trkpt lat="48.20881" lon="-3.04598">
        <ele>170</ele>
        <time>2015-10-12T07:53:29.1Z</time>
      </trkpt>
      <trkpt lat="48.20881" lon="-3.04599">
        <ele>170</ele>
        <time>2015-10-12T07:53:32.1Z</time>
      </trkpt>
      <trkpt lat="48.20882" lon="-3.046">
        <ele>170</ele>
        <time>2015-10-12T07:53:35.1Z</time>
      </trkpt>
      <trkpt lat="48.20882" lon="-3.04601">
        <ele>170</ele>
        <time>2015-10-12T07:53:37.1Z</time>
      </trkpt>
      <trkpt lat="48.20884" lon="-3.04602">
        <ele>170</ele>
        <time>2015-10-12T07:53:40.1Z</time>
      </trkpt>
      <trkpt lat="48.20884" lon="-3.04602">
        <ele>170</ele>
        <time>2015-10-12T07:53:42.1Z</time>
      </trkpt>
      <trkpt lat="48.20886" lon="-3.04602">
        <ele>170</ele>
        <time>2015-10-12T07:53:45.1Z</time>
      </trkpt>
      <trkpt lat="48.20885" lon="-3.046">
        <ele>170</ele>
        <time>2015-10-12T07:53:48.1Z</time>
      </trkpt>
      <trkpt lat="48.20885" lon="-3.04597">
        <ele>170</ele>
        <time>2015-10-12T07:53:51.1Z</time>
      </trkpt>
      <trkpt lat="48.20885" lon="-3.04595">
        <ele>170</ele>
        <time>2015-10-12T07:53:54.1Z</time>
      </trkpt>
      <trkpt lat="48.20885" lon="-3.04594">
        <ele>170</ele>
        <time>2015-10-12T07:53:56.1Z</time>
      </trkpt>
      <trkpt lat="48.20885" lon="-3.04592">
        <ele>170</ele>
        <time>2015-10-12T07:53:59.1Z</time>
      </trkpt>
      <trkpt lat="48.20885" lon="-3.04588">
        <ele>170</ele>
        <time>2015-10-12T07:54:02.1Z</time>
      </trkpt>
      <trkpt lat="48.20886" lon="-3.04585">
        <ele>170</ele>
        <time>2015-10-12T07:54:05.1Z</time>
      </trkpt>
      <trkpt lat="48.20887" lon="-3.04581">
        <ele>169</ele>
        <time>2015-10-12T07:54:08.1Z</time>
      </trkpt>
      <trkpt lat="48.20887" lon="-3.04579">
        <ele>169</ele>
        <time>2015-10-12T07:54:10.1Z</time>
      </trkpt>
      <trkpt lat="48.20888" lon="-3.04576">
        <ele>169</ele>
        <time>2015-10-12T07:54:13.1Z</time>
      </trkpt>
      <trkpt lat="48.20889" lon="-3.04575">
        <ele>169</ele>
        <time>2015-10-12T07:54:15.1Z</time>
      </trkpt>
      <trkpt lat="48.2089" lon="-3.04574">
        <ele>169</ele>
        <time>2015-10-12T07:54:17.1Z</time>
      </trkpt>
      <trkpt lat="48.20891" lon="-3.04573">
        <ele>169</ele>
        <time>2015-10-12T07:54:19.1Z</time>
      </trkpt>
      <trkpt lat="48.20893" lon="-3.04571">
        <ele>169</ele>
        <time>2015-10-12T07:54:22.1Z</time>
      </trkpt>
      <trkpt lat="48.20894" lon="-3.04568">
        <ele>169</ele>
        <time>2015-10-12T07:54:25.1Z</time>
      </trkpt>
      <trkpt lat="48.20896" lon="-3.04565">
        <ele>169</ele>
        <time>2015-10-12T07:54:28.1Z</time>
      </trkpt>
      <trkpt lat="48.20899" lon="-3.04563">
        <ele>169</ele>
        <time>2015-10-12T07:54:31.1Z</time>
      </trkpt>
      <trkpt lat="48.209" lon="-3.04562">
        <ele>169</ele>
        <time>2015-10-12T07:54:33.1Z</time>
      </trkpt>
      <trkpt lat="48.20902" lon="-3.04561">
        <ele>169</ele>
        <time>2015-10-12T07:54:36.1Z</time>
      </trkpt>
      <trkpt lat="48.20905" lon="-3.04558">
        <ele>168</ele>
        <time>2015-10-12T07:54:39.1Z</time>
      </trkpt>
      <trkpt lat="48.20907" lon="-3.04556">
        <ele>169</ele>
        <time>2015-10-12T07:54:42.1Z</time>
      </trkpt>
      <trkpt lat="48.20909" lon="-3.04555">
        <ele>169</ele>
        <time>2015-10-12T07:54:45.1Z</time>
      </trkpt>
      <trkpt lat="48.2091" lon="-3.04553">
        <ele>169</ele>
        <time>2015-10-12T07:54:47.1Z</time>
      </trkpt>
      <trkpt lat="48.20912" lon="-3.04549">
        <ele>169</ele>
        <time>2015-10-12T07:54:50.1Z</time>
      </trkpt>
      <trkpt lat="48.20914" lon="-3.04546">
        <ele>169</ele>
        <time>2015-10-12T07:54:53.1Z</time>
      </trkpt>
      <trkpt lat="48.20915" lon="-3.04544">
        <ele>169</ele>
        <time>2015-10-12T07:54:55.1Z</time>
      </trkpt>
      <trkpt lat="48.20916" lon="-3.04541">
        <ele>169</ele>
        <time>2015-10-12T07:54:57.1Z</time>
      </trkpt>
      <trkpt lat="48.2092" lon="-3.04539">
        <ele>169</ele>
        <time>2015-10-12T07:55:00.1Z</time>
      </trkpt>
      <trkpt lat="48.20923" lon="-3.04537">
        <ele>169</ele>
        <time>2015-10-12T07:55:03.1Z</time>
      </trkpt>
      <trkpt lat="48.20924" lon="-3.04534">
        <ele>169</ele>
        <time>2015-10-12T07:55:05.1Z</time>
      </trkpt>
      <trkpt lat="48.20927" lon="-3.04531">
        <ele>169</ele>
        <time>2015-10-12T07:55:08.1Z</time>
      </trkpt>
      <trkpt lat="48.20929" lon="-3.04527">
        <ele>169</ele>
        <time>2015-10-12T07:55:11.1Z</time>
      </trkpt>
      <trkpt lat="48.2093" lon="-3.04525">
        <ele>169</ele>
        <time>2015-10-12T07:55:13.1Z</time>
      </trkpt>
      <trkpt lat="48.20934" lon="-3.04522">
        <ele>168</ele>
        <time>2015-10-12T07:55:16.1Z</time>
      </trkpt>
      <trkpt lat="48.20937" lon="-3.04518">
        <ele>169</ele>
        <time>2015-10-12T07:55:19.1Z</time>
      </trkpt>
      <trkpt lat="48.20939" lon="-3.04516">
        <ele>169</ele>
        <time>2015-10-12T07:55:21.1Z</time>
      </trkpt>
      <trkpt lat="48.20943" lon="-3.04514">
        <ele>169</ele>
        <time>2015-10-12T07:55:24.1Z</time>
      </trkpt>
      <trkpt lat="48.20945" lon="-3.0451">
        <ele>169</ele>
        <time>2015-10-12T07:55:27.1Z</time>
      </trkpt>
      <trkpt lat="48.20948" lon="-3.04508">
        <ele>169</ele>
        <time>2015-10-12T07:55:30.1Z</time>
      </trkpt>
      <trkpt lat="48.2095" lon="-3.04505">
        <ele>169</ele>
        <time>2015-10-12T07:55:32.1Z</time>
      </trkpt>
      <trkpt lat="48.20954" lon="-3.04502">
        <ele>169</ele>
        <time>2015-10-12T07:55:35.1Z</time>
      </trkpt>
      <trkpt lat="48.20956" lon="-3.04498">
        <ele>169</ele>
        <time>2015-10-12T07:55:38.1Z</time>
      </trkpt>
      <trkpt lat="48.20957" lon="-3.04496">
        <ele>170</ele>
        <time>2015-10-12T07:55:40.1Z</time>
      </trkpt>
      <trkpt lat="48.2096" lon="-3.04493">
        <ele>170</ele>
        <time>2015-10-12T07:55:43.1Z</time>
      </trkpt>
      <trkpt lat="48.20961" lon="-3.04488">
        <ele>170</ele>
        <time>2015-10-12T07:55:46.1Z</time>
      </trkpt>
      <trkpt lat="48.20962" lon="-3.04486">
        <ele>171</ele>
        <time>2015-10-12T07:55:48.1Z</time>
      </trkpt>
      <trkpt lat="48.20963" lon="-3.04483">
        <ele>171</ele>
        <time>2015-10-12T07:55:51.1Z</time>
      </trkpt>
      <trkpt lat="48.20965" lon="-3.0448">
        <ele>171</ele>
        <time>2015-10-12T07:55:53.1Z</time>
      </trkpt>
      <trkpt lat="48.20966" lon="-3.04475">
        <ele>171</ele>
        <time>2015-10-12T07:55:56.1Z</time>
      </trkpt>
      <trkpt lat="48.2097" lon="-3.04472">
        <ele>171</ele>
        <time>2015-10-12T07:55:59.1Z</time>
      </trkpt>
      <trkpt lat="48.20971" lon="-3.0447">
        <ele>171</ele>
        <time>2015-10-12T07:56:01.1Z</time>
      </trkpt>
      <trkpt lat="48.20972" lon="-3.04468">
        <ele>172</ele>
        <time>2015-10-12T07:56:04.1Z</time>
      </trkpt>
      <trkpt lat="48.20973" lon="-3.04464">
        <ele>172</ele>
        <time>2015-10-12T07:56:07.1Z</time>
      </trkpt>
      <trkpt lat="48.20973" lon="-3.04461">
        <ele>172</ele>
        <time>2015-10-12T07:56:10.1Z</time>
      </trkpt>
      <trkpt lat="48.20975" lon="-3.04458">
        <ele>172</ele>
        <time>2015-10-12T07:56:13.1Z</time>
      </trkpt>
      <trkpt lat="48.20977" lon="-3.04457">
        <ele>173</ele>
        <time>2015-10-12T07:56:15.1Z</time>
      </trkpt>
      <trkpt lat="48.20979" lon="-3.04455">
        <ele>173</ele>
        <time>2015-10-12T07:56:18.1Z</time>
      </trkpt>
      <trkpt lat="48.20979" lon="-3.04453">
        <ele>173</ele>
        <time>2015-10-12T07:56:20.1Z</time>
      </trkpt>
      <trkpt lat="48.2098" lon="-3.0445">
        <ele>173</ele>
        <time>2015-10-12T07:56:23.1Z</time>
      </trkpt>
      <trkpt lat="48.20981" lon="-3.04447">
        <ele>172</ele>
        <time>2015-10-12T07:56:25.1Z</time>
      </trkpt>
      <trkpt lat="48.20982" lon="-3.04442">
        <ele>171</ele>
        <time>2015-10-12T07:56:28.1Z</time>
      </trkpt>
      <trkpt lat="48.20985" lon="-3.04439">
        <ele>171</ele>
        <time>2015-10-12T07:56:31.1Z</time>
      </trkpt>
      <trkpt lat="48.20985" lon="-3.04437">
        <ele>171</ele>
        <time>2015-10-12T07:56:33.1Z</time>
      </trkpt>
      <trkpt lat="48.20987" lon="-3.04433">
        <ele>170</ele>
        <time>2015-10-12T07:56:36.1Z</time>
      </trkpt>
      <trkpt lat="48.20989" lon="-3.04431">
        <ele>170</ele>
        <time>2015-10-12T07:56:39.1Z</time>
      </trkpt>
      <trkpt lat="48.2099" lon="-3.04429">
        <ele>170</ele>
        <time>2015-10-12T07:56:41.1Z</time>
      </trkpt>
      <trkpt lat="48.20991" lon="-3.04428">
        <ele>170</ele>
        <time>2015-10-12T07:56:44.1Z</time>
      </trkpt>
      <trkpt lat="48.20992" lon="-3.04426">
        <ele>170</ele>
        <time>2015-10-12T07:56:46.1Z</time>
      </trkpt>
      <trkpt lat="48.20994" lon="-3.04424">
        <ele>170</ele>
        <time>2015-10-12T07:56:49.1Z</time>
      </trkpt>
      <trkpt lat="48.20995" lon="-3.04422">
        <ele>170</ele>
        <time>2015-10-12T07:56:51.1Z</time>
      </trkpt>
      <trkpt lat="48.20996" lon="-3.0442">
        <ele>170</ele>
        <time>2015-10-12T07:56:54.1Z</time>
      </trkpt>
      <trkpt lat="48.20997" lon="-3.04418">
        <ele>170</ele>
        <time>2015-10-12T07:56:56.1Z</time>
      </trkpt>
      <trkpt lat="48.20997" lon="-3.04417">
        <ele>170</ele>
        <time>2015-10-12T07:56:58.1Z</time>
      </trkpt>
      <trkpt lat="48.20998" lon="-3.04415">
        <ele>170</ele>
        <time>2015-10-12T07:57:01.1Z</time>
      </trkpt>
      <trkpt lat="48.21" lon="-3.04413">
        <ele>169</ele>
        <time>2015-10-12T07:57:04.1Z</time>
      </trkpt>
      <trkpt lat="48.20999" lon="-3.04411">
        <ele>169</ele>
        <time>2015-10-12T07:57:07.1Z</time>
      </trkpt>
      <trkpt lat="48.21" lon="-3.04409">
        <ele>169</ele>
        <time>2015-10-12T07:57:09.1Z</time>
      </trkpt>
      <trkpt lat="48.20999" lon="-3.04408">
        <ele>169</ele>
        <time>2015-10-12T07:57:12.1Z</time>
      </trkpt>
      <trkpt lat="48.20999" lon="-3.04408">
        <ele>169</ele>
        <time>2015-10-12T07:57:14.1Z</time>
      </trkpt>
      <trkpt lat="48.20998" lon="-3.04409">
        <ele>169</ele>
        <time>2015-10-12T07:57:17.1Z</time>
      </trkpt>
      <trkpt lat="48.20997" lon="-3.04409">
        <ele>170</ele>
        <time>2015-10-12T07:57:19.1Z</time>
      </trkpt>
      <trkpt lat="48.20998" lon="-3.04411">
        <ele>170</ele>
        <time>2015-10-12T07:57:22.1Z</time>
      </trkpt>
      <trkpt lat="48.20996" lon="-3.04409">
        <ele>170</ele>
        <time>2015-10-12T07:57:24.1Z</time>
      </trkpt>
      <trkpt lat="48.20995" lon="-3.04409">
        <ele>169</ele>
        <time>2015-10-12T07:57:27.1Z</time>
      </trkpt>
      <trkpt lat="48.20995" lon="-3.04409">
        <ele>169</ele>
        <time>2015-10-12T07:57:29.1Z</time>
      </trkpt>
      <trkpt lat="48.20995" lon="-3.04409">
        <ele>169</ele>
        <time>2015-10-12T07:57:32.1Z</time>
      </trkpt>
      <trkpt lat="48.20995" lon="-3.04408">
        <ele>169</ele>
        <time>2015-10-12T07:57:35.1Z</time>
      </trkpt>
      <trkpt lat="48.20995" lon="-3.04408">
        <ele>169</ele>
        <time>2015-10-12T07:57:37.1Z</time>
      </trkpt>
      <trkpt lat="48.20995" lon="-3.04407">
        <ele>169</ele>
        <time>2015-10-12T07:57:40.1Z</time>
      </trkpt>
      <trkpt lat="48.20996" lon="-3.04406">
        <ele>169</ele>
        <time>2015-10-12T07:57:42.1Z</time>
      </trkpt>
      <trkpt lat="48.20997" lon="-3.04404">
        <ele>169</ele>
        <time>2015-10-12T07:57:45.1Z</time>
      </trkpt>
      <trkpt lat="48.20998" lon="-3.04403">
        <ele>169</ele>
        <time>2015-10-12T07:57:47.1Z</time>
      </trkpt>
      <trkpt lat="48.20998" lon="-3.04403">
        <ele>169</ele>
        <time>2015-10-12T07:57:49.1Z</time>
      </trkpt>
      <trkpt lat="48.20999" lon="-3.04403">
        <ele>169</ele>
        <time>2015-10-12T07:57:52.1Z</time>
      </trkpt>
      <trkpt lat="48.21" lon="-3.04405">
        <ele>169</ele>
        <time>2015-10-12T07:57:55.1Z</time>
      </trkpt>
      <trkpt lat="48.21" lon="-3.04405">
        <ele>169</ele>
        <time>2015-10-12T07:57:57.1Z</time>
      </trkpt>
      <trkpt lat="48.21001" lon="-3.04405">
        <ele>169</ele>
        <time>2015-10-12T07:58:00.1Z</time>
      </trkpt>
      <trkpt lat="48.21001" lon="-3.04404">
        <ele>169</ele>
        <time>2015-10-12T07:58:02.1Z</time>
      </trkpt>
      <trkpt lat="48.21001" lon="-3.04402">
        <ele>169</ele>
        <time>2015-10-12T07:58:05.1Z</time>
      </trkpt>
      <trkpt lat="48.21" lon="-3.044">
        <ele>169</ele>
        <time>2015-10-12T07:58:07.1Z</time>
      </trkpt>
      <trkpt lat="48.21001" lon="-3.04398">
        <ele>169</ele>
        <time>2015-10-12T07:58:10.1Z</time>
      </trkpt>
      <trkpt lat="48.21001" lon="-3.04396">
        <ele>169</ele>
        <time>2015-10-12T07:58:13.1Z</time>
      </trkpt>
      <trkpt lat="48.21003" lon="-3.04394">
        <ele>169</ele>
        <time>2015-10-12T07:58:15.1Z</time>
      </trkpt>
      <trkpt lat="48.21004" lon="-3.0439">
        <ele>169</ele>
        <time>2015-10-12T07:58:18.1Z</time>
      </trkpt>
      <trkpt lat="48.21005" lon="-3.04388">
        <ele>169</ele>
        <time>2015-10-12T07:58:20.1Z</time>
      </trkpt>
      <trkpt lat="48.21007" lon="-3.04383">
        <ele>169</ele>
        <time>2015-10-12T07:58:23.1Z</time>
      </trkpt>
      <trkpt lat="48.21008" lon="-3.04379">
        <ele>169</ele>
        <time>2015-10-12T07:58:26.1Z</time>
      </trkpt>
      <trkpt lat="48.2101" lon="-3.04375">
        <ele>169</ele>
        <time>2015-10-12T07:58:29.1Z</time>
      </trkpt>
      <trkpt lat="48.21012" lon="-3.04373">
        <ele>170</ele>
        <time>2015-10-12T07:58:31.1Z</time>
      </trkpt>
      <trkpt lat="48.21014" lon="-3.04368">
        <ele>170</ele>
        <time>2015-10-12T07:58:34.1Z</time>
      </trkpt>
      <trkpt lat="48.21014" lon="-3.04366">
        <ele>171</ele>
        <time>2015-10-12T07:58:36.1Z</time>
      </trkpt>
      <trkpt lat="48.21014" lon="-3.04362">
        <ele>171</ele>
        <time>2015-10-12T07:58:38.1Z</time>
      </trkpt>
      <trkpt lat="48.21014" lon="-3.0436">
        <ele>171</ele>
        <time>2015-10-12T07:58:40.1Z</time>
      </trkpt>
      <trkpt lat="48.21015" lon="-3.04355">
        <ele>170</ele>
        <time>2015-10-12T07:58:43.1Z</time>
      </trkpt>
      <trkpt lat="48.21016" lon="-3.04352">
        <ele>170</ele>
        <time>2015-10-12T07:58:45.1Z</time>
      </trkpt>
      <trkpt lat="48.21016" lon="-3.04347">
        <ele>170</ele>
        <time>2015-10-12T07:58:48.1Z</time>
      </trkpt>
      <trkpt lat="48.21017" lon="-3.04344">
        <ele>170</ele>
        <time>2015-10-12T07:58:50.1Z</time>
      </trkpt>
      <trkpt lat="48.21017" lon="-3.0434">
        <ele>169</ele>
        <time>2015-10-12T07:58:53.1Z</time>
      </trkpt>
      <trkpt lat="48.21018" lon="-3.04335">
        <ele>170</ele>
        <time>2015-10-12T07:58:56.1Z</time>
      </trkpt>
      <trkpt lat="48.21018" lon="-3.04334">
        <ele>169</ele>
        <time>2015-10-12T07:58:58.1Z</time>
      </trkpt>
      <trkpt lat="48.2102" lon="-3.04331">
        <ele>170</ele>
        <time>2015-10-12T07:59:00.1Z</time>
      </trkpt>
      <trkpt lat="48.21022" lon="-3.04329">
        <ele>170</ele>
        <time>2015-10-12T07:59:03.1Z</time>
      </trkpt>
      <trkpt lat="48.21023" lon="-3.04326">
        <ele>170</ele>
        <time>2015-10-12T07:59:05.1Z</time>
      </trkpt>
      <trkpt lat="48.21025" lon="-3.04324">
        <ele>170</ele>
        <time>2015-10-12T07:59:08.1Z</time>
      </trkpt>
      <trkpt lat="48.21026" lon="-3.04321">
        <ele>170</ele>
        <time>2015-10-12T07:59:10.1Z</time>
      </trkpt>
      <trkpt lat="48.21027" lon="-3.04315">
        <ele>170</ele>
        <time>2015-10-12T07:59:13.1Z</time>
      </trkpt>
      <trkpt lat="48.21027" lon="-3.04312">
        <ele>170</ele>
        <time>2015-10-12T07:59:15.1Z</time>
      </trkpt>
      <trkpt lat="48.21027" lon="-3.04309">
        <ele>170</ele>
        <time>2015-10-12T07:59:17.1Z</time>
      </trkpt>
      <trkpt lat="48.21028" lon="-3.04305">
        <ele>170</ele>
        <time>2015-10-12T07:59:20.1Z</time>
      </trkpt>
      <trkpt lat="48.21029" lon="-3.04303">
        <ele>170</ele>
        <time>2015-10-12T07:59:22.1Z</time>
      </trkpt>
      <trkpt lat="48.2103" lon="-3.04296">
        <ele>170</ele>
        <time>2015-10-12T07:59:25.1Z</time>
      </trkpt>
      <trkpt lat="48.21031" lon="-3.04291">
        <ele>169</ele>
        <time>2015-10-12T07:59:28.1Z</time>
      </trkpt>
      <trkpt lat="48.21032" lon="-3.04288">
        <ele>169</ele>
        <time>2015-10-12T07:59:30.1Z</time>
      </trkpt>
      <trkpt lat="48.21033" lon="-3.04283">
        <ele>169</ele>
        <time>2015-10-12T07:59:33.1Z</time>
      </trkpt>
      <trkpt lat="48.21034" lon="-3.04281">
        <ele>169</ele>
        <time>2015-10-12T07:59:35.1Z</time>
      </trkpt>
      <trkpt lat="48.21035" lon="-3.04276">
        <ele>169</ele>
        <time>2015-10-12T07:59:38.1Z</time>
      </trkpt>
      <trkpt lat="48.21034" lon="-3.04271">
        <ele>169</ele>
        <time>2015-10-12T07:59:41.1Z</time>
      </trkpt>
      <trkpt lat="48.21035" lon="-3.04267">
        <ele>169</ele>
        <time>2015-10-12T07:59:44.1Z</time>
      </trkpt>
      <trkpt lat="48.21035" lon="-3.04265">
        <ele>169</ele>
        <time>2015-10-12T07:59:46.1Z</time>
      </trkpt>
      <trkpt lat="48.21037" lon="-3.04261">
        <ele>170</ele>
        <time>2015-10-12T07:59:49.1Z</time>
      </trkpt>
      <trkpt lat="48.21036" lon="-3.04258">
        <ele>170</ele>
        <time>2015-10-12T07:59:51.1Z</time>
      </trkpt>
      <trkpt lat="48.21036" lon="-3.04253">
        <ele>169</ele>
        <time>2015-10-12T07:59:54.1Z</time>
      </trkpt>
      <trkpt lat="48.21035" lon="-3.04248">
        <ele>169</ele>
        <time>2015-10-12T07:59:56.1Z</time>
      </trkpt>
      <trkpt lat="48.21035" lon="-3.04244">
        <ele>169</ele>
        <time>2015-10-12T07:59:58.1Z</time>
      </trkpt>
      <trkpt lat="48.21037" lon="-3.04239">
        <ele>169</ele>
        <time>2015-10-12T08:00:01.1Z</time>
      </trkpt>
      <trkpt lat="48.21038" lon="-3.04234">
        <ele>169</ele>
        <time>2015-10-12T08:00:04.1Z</time>
      </trkpt>
      <trkpt lat="48.21038" lon="-3.0423">
        <ele>169</ele>
        <time>2015-10-12T08:00:06.1Z</time>
      </trkpt>
      <trkpt lat="48.21038" lon="-3.04223">
        <ele>169</ele>
        <time>2015-10-12T08:00:09.1Z</time>
      </trkpt>
      <trkpt lat="48.21039" lon="-3.04216">
        <ele>169</ele>
        <time>2015-10-12T08:00:12.1Z</time>
      </trkpt>
      <trkpt lat="48.2104" lon="-3.04207">
        <ele>168</ele>
        <time>2015-10-12T08:00:15.1Z</time>
      </trkpt>
      <trkpt lat="48.2104" lon="-3.04202">
        <ele>168</ele>
        <time>2015-10-12T08:00:17.1Z</time>
      </trkpt>
      <trkpt lat="48.21041" lon="-3.04194">
        <ele>168</ele>
        <time>2015-10-12T08:00:20.1Z</time>
      </trkpt>
      <trkpt lat="48.21043" lon="-3.04187">
        <ele>169</ele>
        <time>2015-10-12T08:00:23.1Z</time>
      </trkpt>
      <trkpt lat="48.21043" lon="-3.04182">
        <ele>169</ele>
        <time>2015-10-12T08:00:26.1Z</time>
      </trkpt>
      <trkpt lat="48.21045" lon="-3.04176">
        <ele>169</ele>
        <time>2015-10-12T08:00:29.1Z</time>
      </trkpt>
      <trkpt lat="48.21046" lon="-3.04173">
        <ele>169</ele>
        <time>2015-10-12T08:00:31.1Z</time>
      </trkpt>
      <trkpt lat="48.21048" lon="-3.04168">
        <ele>169</ele>
        <time>2015-10-12T08:00:34.1Z</time>
      </trkpt>
      <trkpt lat="48.21048" lon="-3.04166">
        <ele>170</ele>
        <time>2015-10-12T08:00:36.1Z</time>
      </trkpt>
      <trkpt lat="48.21048" lon="-3.04163">
        <ele>170</ele>
        <time>2015-10-12T08:00:39.1Z</time>
      </trkpt>
      <trkpt lat="48.21048" lon="-3.04162">
        <ele>170</ele>
        <time>2015-10-12T08:00:41.1Z</time>
      </trkpt>
      <trkpt lat="48.21048" lon="-3.0416">
        <ele>170</ele>
        <time>2015-10-12T08:00:43.1Z</time>
      </trkpt>
      <trkpt lat="48.21049" lon="-3.04159">
        <ele>170</ele>
        <time>2015-10-12T08:00:46.1Z</time>
      </trkpt>
      <trkpt lat="48.2105" lon="-3.04157">
        <ele>169</ele>
        <time>2015-10-12T08:00:49.1Z</time>
      </trkpt>
      <trkpt lat="48.21051" lon="-3.04156">
        <ele>169</ele>
        <time>2015-10-12T08:00:51.1Z</time>
      </trkpt>
      <trkpt lat="48.21051" lon="-3.04156">
        <ele>169</ele>
        <time>2015-10-12T08:00:54.1Z</time>
      </trkpt>
      <trkpt lat="48.21051" lon="-3.04155">
        <ele>169</ele>
        <time>2015-10-12T08:00:56.1Z</time>
      </trkpt>
      <trkpt lat="48.21052" lon="-3.04155">
        <ele>169</ele>
        <time>2015-10-12T08:00:59.1Z</time>
      </trkpt>
      <trkpt lat="48.21053" lon="-3.04153">
        <ele>169</ele>
        <time>2015-10-12T08:01:02.1Z</time>
      </trkpt>
      <trkpt lat="48.21054" lon="-3.04152">
        <ele>169</ele>
        <time>2015-10-12T08:01:05.1Z</time>
      </trkpt>
      <trkpt lat="48.21054" lon="-3.04152">
        <ele>169</ele>
        <time>2015-10-12T08:01:07.1Z</time>
      </trkpt>
      <trkpt lat="48.21054" lon="-3.0415">
        <ele>169</ele>
        <time>2015-10-12T08:01:10.1Z</time>
      </trkpt>
      <trkpt lat="48.21055" lon="-3.04149">
        <ele>169</ele>
        <time>2015-10-12T08:01:13.1Z</time>
      </trkpt>
      <trkpt lat="48.21055" lon="-3.04148">
        <ele>169</ele>
        <time>2015-10-12T08:01:16.1Z</time>
      </trkpt>
      <trkpt lat="48.21056" lon="-3.04147">
        <ele>169</ele>
        <time>2015-10-12T08:01:19.1Z</time>
      </trkpt>
      <trkpt lat="48.21057" lon="-3.04145">
        <ele>170</ele>
        <time>2015-10-12T08:01:22.1Z</time>
      </trkpt>
      <trkpt lat="48.21057" lon="-3.04142">
        <ele>170</ele>
        <time>2015-10-12T08:01:25.1Z</time>
      </trkpt>
      <trkpt lat="48.21057" lon="-3.0414">
        <ele>170</ele>
        <time>2015-10-12T08:01:27.1Z</time>
      </trkpt>
      <trkpt lat="48.21056" lon="-3.04135">
        <ele>169</ele>
        <time>2015-10-12T08:01:30.1Z</time>
      </trkpt>
      <trkpt lat="48.21054" lon="-3.0413">
        <ele>168</ele>
        <time>2015-10-12T08:01:33.1Z</time>
      </trkpt>
      <trkpt lat="48.21054" lon="-3.04126">
        <ele>168</ele>
        <time>2015-10-12T08:01:36.1Z</time>
      </trkpt>
      <trkpt lat="48.21054" lon="-3.04122">
        <ele>168</ele>
        <time>2015-10-12T08:01:38.1Z</time>
      </trkpt>
      <trkpt lat="48.21053" lon="-3.04116">
        <ele>168</ele>
        <time>2015-10-12T08:01:41.1Z</time>
      </trkpt>
      <trkpt lat="48.21051" lon="-3.04111">
        <ele>168</ele>
        <time>2015-10-12T08:01:44.1Z</time>
      </trkpt>
      <trkpt lat="48.2105" lon="-3.04106">
        <ele>168</ele>
        <time>2015-10-12T08:01:47.1Z</time>
      </trkpt>
      <trkpt lat="48.21048" lon="-3.04101">
        <ele>169</ele>
        <time>2015-10-12T08:01:50.1Z</time>
      </trkpt>
      <trkpt lat="48.21048" lon="-3.04096">
        <ele>168</ele>
        <time>2015-10-12T08:01:53.1Z</time>
      </trkpt>
      <trkpt lat="48.21047" lon="-3.04093">
        <ele>168</ele>
        <time>2015-10-12T08:01:55.1Z</time>
      </trkpt>
      <trkpt lat="48.21045" lon="-3.04091">
        <ele>168</ele>
        <time>2015-10-12T08:01:58.1Z</time>
      </trkpt>
      <trkpt lat="48.21043" lon="-3.04089">
        <ele>168</ele>
        <time>2015-10-12T08:02:00.1Z</time>
      </trkpt>
      <trkpt lat="48.21042" lon="-3.04086">
        <ele>169</ele>
        <time>2015-10-12T08:02:03.1Z</time>
      </trkpt>
      <trkpt lat="48.21042" lon="-3.04081">
        <ele>169</ele>
        <time>2015-10-12T08:02:06.1Z</time>
      </trkpt>
      <trkpt lat="48.2104" lon="-3.04076">
        <ele>169</ele>
        <time>2015-10-12T08:02:09.1Z</time>
      </trkpt>
      <trkpt lat="48.21039" lon="-3.04073">
        <ele>169</ele>
        <time>2015-10-12T08:02:12.1Z</time>
      </trkpt>
      <trkpt lat="48.21037" lon="-3.04068">
        <ele>169</ele>
        <time>2015-10-12T08:02:15.1Z</time>
      </trkpt>
      <trkpt lat="48.21038" lon="-3.04063">
        <ele>169</ele>
        <time>2015-10-12T08:02:18.1Z</time>
      </trkpt>
      <trkpt lat="48.21037" lon="-3.04058">
        <ele>170</ele>
        <time>2015-10-12T08:02:21.1Z</time>
      </trkpt>
      <trkpt lat="48.21038" lon="-3.04054">
        <ele>170</ele>
        <time>2015-10-12T08:02:23.1Z</time>
      </trkpt>
      <trkpt lat="48.21037" lon="-3.0405">
        <ele>170</ele>
        <time>2015-10-12T08:02:26.1Z</time>
      </trkpt>
      <trkpt lat="48.21037" lon="-3.04047">
        <ele>171</ele>
        <time>2015-10-12T08:02:28.1Z</time>
      </trkpt>
      <trkpt lat="48.21037" lon="-3.04045">
        <ele>171</ele>
        <time>2015-10-12T08:02:30.1Z</time>
      </trkpt>
      <trkpt lat="48.21036" lon="-3.04039">
        <ele>171</ele>
        <time>2015-10-12T08:02:33.1Z</time>
      </trkpt>
      <trkpt lat="48.21036" lon="-3.04036">
        <ele>171</ele>
        <time>2015-10-12T08:02:35.1Z</time>
      </trkpt>
      <trkpt lat="48.21035" lon="-3.04031">
        <ele>171</ele>
        <time>2015-10-12T08:02:38.1Z</time>
      </trkpt>
      <trkpt lat="48.21035" lon="-3.04029">
        <ele>172</ele>
        <time>2015-10-12T08:02:41.1Z</time>
      </trkpt>
      <trkpt lat="48.21036" lon="-3.04027">
        <ele>172</ele>
        <time>2015-10-12T08:02:43.1Z</time>
      </trkpt>
      <trkpt lat="48.21035" lon="-3.04025">
        <ele>172</ele>
        <time>2015-10-12T08:02:45.1Z</time>
      </trkpt>
      <trkpt lat="48.21034" lon="-3.04023">
        <ele>172</ele>
        <time>2015-10-12T08:02:48.1Z</time>
      </trkpt>
      <trkpt lat="48.21033" lon="-3.04024">
        <ele>172</ele>
        <time>2015-10-12T08:02:51.1Z</time>
      </trkpt>
      <trkpt lat="48.21033" lon="-3.04019">
        <ele>172</ele>
        <time>2015-10-12T08:02:54.1Z</time>
      </trkpt>
      <trkpt lat="48.21035" lon="-3.04017">
        <ele>173</ele>
        <time>2015-10-12T08:02:57.1Z</time>
      </trkpt>
      <trkpt lat="48.21035" lon="-3.04017">
        <ele>173</ele>
        <time>2015-10-12T08:03:00.1Z</time>
      </trkpt>
      <trkpt lat="48.21034" lon="-3.04017">
        <ele>174</ele>
        <time>2015-10-12T08:03:02.1Z</time>
      </trkpt>
      <trkpt lat="48.21033" lon="-3.04016">
        <ele>173</ele>
        <time>2015-10-12T08:03:05.1Z</time>
      </trkpt>
      <trkpt lat="48.21033" lon="-3.04015">
        <ele>173</ele>
        <time>2015-10-12T08:03:08.1Z</time>
      </trkpt>
      <trkpt lat="48.21033" lon="-3.04014">
        <ele>173</ele>
        <time>2015-10-12T08:03:10.1Z</time>
      </trkpt>
      <trkpt lat="48.21033" lon="-3.04014">
        <ele>173</ele>
        <time>2015-10-12T08:03:13.1Z</time>
      </trkpt>
      <trkpt lat="48.21033" lon="-3.04014">
        <ele>173</ele>
        <time>2015-10-12T08:03:16.1Z</time>
      </trkpt>
      <trkpt lat="48.21031" lon="-3.04015">
        <ele>173</ele>
        <time>2015-10-12T08:03:19.1Z</time>
      </trkpt>
      <trkpt lat="48.2103" lon="-3.04013">
        <ele>173</ele>
        <time>2015-10-12T08:03:21.1Z</time>
      </trkpt>
      <trkpt lat="48.2103" lon="-3.0401">
        <ele>173</ele>
        <time>2015-10-12T08:03:24.1Z</time>
      </trkpt>
      <trkpt lat="48.21031" lon="-3.04007">
        <ele>174</ele>
        <time>2015-10-12T08:03:27.1Z</time>
      </trkpt>
      <trkpt lat="48.2103" lon="-3.04001">
        <ele>174</ele>
        <time>2015-10-12T08:03:30.1Z</time>
      </trkpt>
      <trkpt lat="48.2103" lon="-3.03997">
        <ele>174</ele>
        <time>2015-10-12T08:03:32.1Z</time>
      </trkpt>
      <trkpt lat="48.2103" lon="-3.03993">
        <ele>174</ele>
        <time>2015-10-12T08:03:35.1Z</time>
      </trkpt>
      <trkpt lat="48.2103" lon="-3.03991">
        <ele>174</ele>
        <time>2015-10-12T08:03:37.1Z</time>
      </trkpt>
      <trkpt lat="48.2103" lon="-3.0399">
        <ele>174</ele>
        <time>2015-10-12T08:03:39.1Z</time>
      </trkpt>
      <trkpt lat="48.2103" lon="-3.03986">
        <ele>174</ele>
        <time>2015-10-12T08:03:42.1Z</time>
      </trkpt>
      <trkpt lat="48.21031" lon="-3.03982">
        <ele>174</ele>
        <time>2015-10-12T08:03:45.1Z</time>
      </trkpt>
      <trkpt lat="48.21031" lon="-3.03978">
        <ele>174</ele>
        <time>2015-10-12T08:03:48.1Z</time>
      </trkpt>
      <trkpt lat="48.21031" lon="-3.03975">
        <ele>174</ele>
        <time>2015-10-12T08:03:51.1Z</time>
      </trkpt>
      <trkpt lat="48.21031" lon="-3.03973">
        <ele>174</ele>
        <time>2015-10-12T08:03:53.1Z</time>
      </trkpt>
      <trkpt lat="48.2103" lon="-3.03968">
        <ele>174</ele>
        <time>2015-10-12T08:03:56.1Z</time>
      </trkpt>
      <trkpt lat="48.2103" lon="-3.03964">
        <ele>174</ele>
        <time>2015-10-12T08:03:59.1Z</time>
      </trkpt>
      <trkpt lat="48.21031" lon="-3.0396">
        <ele>174</ele>
        <time>2015-10-12T08:04:01.1Z</time>
      </trkpt>
      <trkpt lat="48.21032" lon="-3.03956">
        <ele>174</ele>
        <time>2015-10-12T08:04:03.1Z</time>
      </trkpt>
      <trkpt lat="48.21032" lon="-3.03951">
        <ele>175</ele>
        <time>2015-10-12T08:04:05.1Z</time>
      </trkpt>
      <trkpt lat="48.21032" lon="-3.03943">
        <ele>175</ele>
        <time>2015-10-12T08:04:08.1Z</time>
      </trkpt>
      <trkpt lat="48.21033" lon="-3.03936">
        <ele>174</ele>
        <time>2015-10-12T08:04:11.1Z</time>
      </trkpt>
      <trkpt lat="48.21033" lon="-3.03932">
        <ele>174</ele>
        <time>2015-10-12T08:04:13.1Z</time>
      </trkpt>
      <trkpt lat="48.21033" lon="-3.03927">
        <ele>174</ele>
        <time>2015-10-12T08:04:15.1Z</time>
      </trkpt>
      <trkpt lat="48.21033" lon="-3.03924">
        <ele>174</ele>
        <time>2015-10-12T08:04:17.1Z</time>
      </trkpt>
      <trkpt lat="48.21033" lon="-3.0392">
        <ele>175</ele>
        <time>2015-10-12T08:04:20.1Z</time>
      </trkpt>
      <trkpt lat="48.21032" lon="-3.0392">
        <ele>174</ele>
        <time>2015-10-12T08:04:22.1Z</time>
      </trkpt>
      <trkpt lat="48.21033" lon="-3.03915">
        <ele>174</ele>
        <time>2015-10-12T08:04:25.1Z</time>
      </trkpt>
      <trkpt lat="48.21034" lon="-3.03912">
        <ele>174</ele>
        <time>2015-10-12T08:04:27.1Z</time>
      </trkpt>
      <trkpt lat="48.21034" lon="-3.03907">
        <ele>175</ele>
        <time>2015-10-12T08:04:30.1Z</time>
      </trkpt>
      <trkpt lat="48.21033" lon="-3.03902">
        <ele>175</ele>
        <time>2015-10-12T08:04:33.1Z</time>
      </trkpt>
      <trkpt lat="48.21032" lon="-3.03897">
        <ele>176</ele>
        <time>2015-10-12T08:04:36.1Z</time>
      </trkpt>
      <trkpt lat="48.21031" lon="-3.03894">
        <ele>176</ele>
        <time>2015-10-12T08:04:38.1Z</time>
      </trkpt>
      <trkpt lat="48.21029" lon="-3.03887">
        <ele>176</ele>
        <time>2015-10-12T08:04:41.1Z</time>
      </trkpt>
      <trkpt lat="48.21028" lon="-3.0388">
        <ele>176</ele>
        <time>2015-10-12T08:04:44.1Z</time>
      </trkpt>
      <trkpt lat="48.21025" lon="-3.03873">
        <ele>177</ele>
        <time>2015-10-12T08:04:47.1Z</time>
      </trkpt>
      <trkpt lat="48.21023" lon="-3.03868">
        <ele>177</ele>
        <time>2015-10-12T08:04:50.1Z</time>
      </trkpt>
      <trkpt lat="48.21022" lon="-3.03864">
        <ele>177</ele>
        <time>2015-10-12T08:04:53.1Z</time>
      </trkpt>
      <trkpt lat="48.2102" lon="-3.03861">
        <ele>177</ele>
        <time>2015-10-12T08:04:55.1Z</time>
      </trkpt>
      <trkpt lat="48.21017" lon="-3.03857">
        <ele>177</ele>
        <time>2015-10-12T08:04:58.1Z</time>
      </trkpt>
      <trkpt lat="48.21015" lon="-3.03855">
        <ele>177</ele>
        <time>2015-10-12T08:05:00.1Z</time>
      </trkpt>
      <trkpt lat="48.21013" lon="-3.03852">
        <ele>177</ele>
        <time>2015-10-12T08:05:03.1Z</time>
      </trkpt>
      <trkpt lat="48.2101" lon="-3.03848">
        <ele>177</ele>
        <time>2015-10-12T08:05:06.1Z</time>
      </trkpt>
      <trkpt lat="48.21008" lon="-3.03846">
        <ele>177</ele>
        <time>2015-10-12T08:05:08.1Z</time>
      </trkpt>
      <trkpt lat="48.21006" lon="-3.03844">
        <ele>177</ele>
        <time>2015-10-12T08:05:11.1Z</time>
      </trkpt>
      <trkpt lat="48.21003" lon="-3.03841">
        <ele>178</ele>
        <time>2015-10-12T08:05:14.1Z</time>
      </trkpt>
      <trkpt lat="48.21" lon="-3.03839">
        <ele>178</ele>
        <time>2015-10-12T08:05:17.1Z</time>
      </trkpt>
      <trkpt lat="48.20998" lon="-3.03838">
        <ele>178</ele>
        <time>2015-10-12T08:05:19.1Z</time>
      </trkpt>
      <trkpt lat="48.20996" lon="-3.03836">
        <ele>178</ele>
        <time>2015-10-12T08:05:22.1Z</time>
      </trkpt>
      <trkpt lat="48.20992" lon="-3.03833">
        <ele>178</ele>
        <time>2015-10-12T08:05:25.1Z</time>
      </trkpt>
      <trkpt lat="48.2099" lon="-3.03831">
        <ele>178</ele>
        <time>2015-10-12T08:05:27.1Z</time>
      </trkpt>
      <trkpt lat="48.20986" lon="-3.03829">
        <ele>178</ele>
        <time>2015-10-12T08:05:30.1Z</time>
      </trkpt>
      <trkpt lat="48.20984" lon="-3.03828">
        <ele>178</ele>
        <time>2015-10-12T08:05:32.1Z</time>
      </trkpt>
      <trkpt lat="48.2098" lon="-3.03825">
        <ele>178</ele>
        <time>2015-10-12T08:05:35.1Z</time>
      </trkpt>
      <trkpt lat="48.20977" lon="-3.03823">
        <ele>178</ele>
        <time>2015-10-12T08:05:37.1Z</time>
      </trkpt>
      <trkpt lat="48.20974" lon="-3.03819">
        <ele>178</ele>
        <time>2015-10-12T08:05:40.1Z</time>
      </trkpt>
      <trkpt lat="48.20972" lon="-3.03818">
        <ele>178</ele>
        <time>2015-10-12T08:05:42.1Z</time>
      </trkpt>
      <trkpt lat="48.2097" lon="-3.03815">
        <ele>178</ele>
        <time>2015-10-12T08:05:45.1Z</time>
      </trkpt>
      <trkpt lat="48.20968" lon="-3.03813">
        <ele>178</ele>
        <time>2015-10-12T08:05:47.1Z</time>
      </trkpt>
      <trkpt lat="48.20965" lon="-3.03811">
        <ele>179</ele>
        <time>2015-10-12T08:05:50.1Z</time>
      </trkpt>
      <trkpt lat="48.20961" lon="-3.03809">
        <ele>179</ele>
        <time>2015-10-12T08:05:53.1Z</time>
      </trkpt>
      <trkpt lat="48.20959" lon="-3.03806">
        <ele>179</ele>
        <time>2015-10-12T08:05:56.1Z</time>
      </trkpt>
      <trkpt lat="48.20957" lon="-3.03805">
        <ele>179</ele>
        <time>2015-10-12T08:05:58.1Z</time>
      </trkpt>
      <trkpt lat="48.20955" lon="-3.03803">
        <ele>179</ele>
        <time>2015-10-12T08:06:01.1Z</time>
      </trkpt>
      <trkpt lat="48.20954" lon="-3.03803">
        <ele>180</ele>
        <time>2015-10-12T08:06:03.1Z</time>
      </trkpt>
      <trkpt lat="48.20951" lon="-3.03801">
        <ele>180</ele>
        <time>2015-10-12T08:06:06.1Z</time>
      </trkpt>
      <trkpt lat="48.2095" lon="-3.038">
        <ele>180</ele>
        <time>2015-10-12T08:06:08.1Z</time>
      </trkpt>
      <trkpt lat="48.20948" lon="-3.03798">
        <ele>180</ele>
        <time>2015-10-12T08:06:11.1Z</time>
      </trkpt>
      <trkpt lat="48.20947" lon="-3.03797">
        <ele>180</ele>
        <time>2015-10-12T08:06:13.1Z</time>
      </trkpt>
      <trkpt lat="48.20945" lon="-3.03796">
        <ele>180</ele>
        <time>2015-10-12T08:06:15.1Z</time>
      </trkpt>
      <trkpt lat="48.20942" lon="-3.03795">
        <ele>180</ele>
        <time>2015-10-12T08:06:18.1Z</time>
      </trkpt>
      <trkpt lat="48.20939" lon="-3.03795">
        <ele>180</ele>
        <time>2015-10-12T08:06:20.1Z</time>
      </trkpt>
      <trkpt lat="48.20937" lon="-3.03793">
        <ele>180</ele>
        <time>2015-10-12T08:06:22.1Z</time>
      </trkpt>
      <trkpt lat="48.20933" lon="-3.03791">
        <ele>181</ele>
        <time>2015-10-12T08:06:25.1Z</time>
      </trkpt>
      <trkpt lat="48.2093" lon="-3.0379">
        <ele>181</ele>
        <time>2015-10-12T08:06:27.1Z</time>
      </trkpt>
      <trkpt lat="48.20929" lon="-3.03789">
        <ele>181</ele>
        <time>2015-10-12T08:06:29.1Z</time>
      </trkpt>
      <trkpt lat="48.20926" lon="-3.03788">
        <ele>180</ele>
        <time>2015-10-12T08:06:32.1Z</time>
      </trkpt>
      <trkpt lat="48.20922" lon="-3.03787">
        <ele>181</ele>
        <time>2015-10-12T08:06:35.1Z</time>
      </trkpt>
      <trkpt lat="48.2092" lon="-3.03786">
        <ele>181</ele>
        <time>2015-10-12T08:06:38.1Z</time>
      </trkpt>
      <trkpt lat="48.20916" lon="-3.03785">
        <ele>181</ele>
        <time>2015-10-12T08:06:41.1Z</time>
      </trkpt>
      <trkpt lat="48.20911" lon="-3.03784">
        <ele>182</ele>
        <time>2015-10-12T08:06:44.1Z</time>
      </trkpt>
      <trkpt lat="48.20906" lon="-3.03782">
        <ele>182</ele>
        <time>2015-10-12T08:06:47.1Z</time>
      </trkpt>
      <trkpt lat="48.20901" lon="-3.03782">
        <ele>182</ele>
        <time>2015-10-12T08:06:50.1Z</time>
      </trkpt>
      <trkpt lat="48.20898" lon="-3.03781">
        <ele>181</ele>
        <time>2015-10-12T08:06:52.1Z</time>
      </trkpt>
      <trkpt lat="48.20894" lon="-3.03779">
        <ele>181</ele>
        <time>2015-10-12T08:06:55.1Z</time>
      </trkpt>
      <trkpt lat="48.20892" lon="-3.03779">
        <ele>181</ele>
        <time>2015-10-12T08:06:57.1Z</time>
      </trkpt>
      <trkpt lat="48.20891" lon="-3.03778">
        <ele>181</ele>
        <time>2015-10-12T08:06:59.1Z</time>
      </trkpt>
      <trkpt lat="48.20888" lon="-3.03778">
        <ele>182</ele>
        <time>2015-10-12T08:07:02.1Z</time>
      </trkpt>
      <trkpt lat="48.20886" lon="-3.03778">
        <ele>182</ele>
        <time>2015-10-12T08:07:05.1Z</time>
      </trkpt>
      <trkpt lat="48.20885" lon="-3.03777">
        <ele>182</ele>
        <time>2015-10-12T08:07:07.1Z</time>
      </trkpt>
      <trkpt lat="48.20882" lon="-3.03776">
        <ele>182</ele>
        <time>2015-10-12T08:07:10.1Z</time>
      </trkpt>
      <trkpt lat="48.20879" lon="-3.03774">
        <ele>182</ele>
        <time>2015-10-12T08:07:13.1Z</time>
      </trkpt>
      <trkpt lat="48.20876" lon="-3.03772">
        <ele>182</ele>
        <time>2015-10-12T08:07:16.1Z</time>
      </trkpt>
      <trkpt lat="48.20874" lon="-3.0377">
        <ele>182</ele>
        <time>2015-10-12T08:07:18.1Z</time>
      </trkpt>
      <trkpt lat="48.20872" lon="-3.03768">
        <ele>182</ele>
        <time>2015-10-12T08:07:21.1Z</time>
      </trkpt>
      <trkpt lat="48.20868" lon="-3.03766">
        <ele>182</ele>
        <time>2015-10-12T08:07:24.1Z</time>
      </trkpt>
      <trkpt lat="48.20864" lon="-3.03763">
        <ele>183</ele>
        <time>2015-10-12T08:07:27.1Z</time>
      </trkpt>
      <trkpt lat="48.20861" lon="-3.03759">
        <ele>183</ele>
        <time>2015-10-12T08:07:30.1Z</time>
      </trkpt>
      <trkpt lat="48.20858" lon="-3.03757">
        <ele>183</ele>
        <time>2015-10-12T08:07:33.1Z</time>
      </trkpt>
      <trkpt lat="48.20855" lon="-3.03754">
        <ele>183</ele>
        <time>2015-10-12T08:07:36.1Z</time>
      </trkpt>
      <trkpt lat="48.20853" lon="-3.03753">
        <ele>183</ele>
        <time>2015-10-12T08:07:38.1Z</time>
      </trkpt>
      <trkpt lat="48.2085" lon="-3.0375">
        <ele>183</ele>
        <time>2015-10-12T08:07:41.1Z</time>
      </trkpt>
      <trkpt lat="48.20847" lon="-3.03747">
        <ele>183</ele>
        <time>2015-10-12T08:07:44.1Z</time>
      </trkpt>
      <trkpt lat="48.20845" lon="-3.03744">
        <ele>184</ele>
        <time>2015-10-12T08:07:47.1Z</time>
      </trkpt>
      <trkpt lat="48.20842" lon="-3.03741">
        <ele>184</ele>
        <time>2015-10-12T08:07:50.1Z</time>
      </trkpt>
      <trkpt lat="48.20841" lon="-3.0374">
        <ele>184</ele>
        <time>2015-10-12T08:07:52.1Z</time>
      </trkpt>
      <trkpt lat="48.20838" lon="-3.03738">
        <ele>184</ele>
        <time>2015-10-12T08:07:55.1Z</time>
      </trkpt>
      <trkpt lat="48.20836" lon="-3.03736">
        <ele>185</ele>
        <time>2015-10-12T08:07:57.1Z</time>
      </trkpt>
      <trkpt lat="48.20833" lon="-3.03733">
        <ele>185</ele>
        <time>2015-10-12T08:08:00.1Z</time>
      </trkpt>
      <trkpt lat="48.20832" lon="-3.03731">
        <ele>185</ele>
        <time>2015-10-12T08:08:02.1Z</time>
      </trkpt>
      <trkpt lat="48.20829" lon="-3.03728">
        <ele>185</ele>
        <time>2015-10-12T08:08:05.1Z</time>
      </trkpt>
      <trkpt lat="48.20826" lon="-3.03725">
        <ele>185</ele>
        <time>2015-10-12T08:08:08.1Z</time>
      </trkpt>
      <trkpt lat="48.20823" lon="-3.03723">
        <ele>185</ele>
        <time>2015-10-12T08:08:11.1Z</time>
      </trkpt>
      <trkpt lat="48.20821" lon="-3.0372">
        <ele>185</ele>
        <time>2015-10-12T08:08:14.1Z</time>
      </trkpt>
      <trkpt lat="48.20818" lon="-3.03717">
        <ele>185</ele>
        <time>2015-10-12T08:08:17.1Z</time>
      </trkpt>
      <trkpt lat="48.20816" lon="-3.03715">
        <ele>186</ele>
        <time>2015-10-12T08:08:19.1Z</time>
      </trkpt>
      <trkpt lat="48.20813" lon="-3.03713">
        <ele>185</ele>
        <time>2015-10-12T08:08:22.1Z</time>
      </trkpt>
      <trkpt lat="48.20811" lon="-3.03712">
        <ele>186</ele>
        <time>2015-10-12T08:08:25.1Z</time>
      </trkpt>
      <trkpt lat="48.20808" lon="-3.0371">
        <ele>186</ele>
        <time>2015-10-12T08:08:27.1Z</time>
      </trkpt>
      <trkpt lat="48.20806" lon="-3.03707">
        <ele>186</ele>
        <time>2015-10-12T08:08:30.1Z</time>
      </trkpt>
      <trkpt lat="48.20804" lon="-3.03704">
        <ele>186</ele>
        <time>2015-10-12T08:08:33.1Z</time>
      </trkpt>
      <trkpt lat="48.20802" lon="-3.03703">
        <ele>186</ele>
        <time>2015-10-12T08:08:36.1Z</time>
      </trkpt>
      <trkpt lat="48.20799" lon="-3.03701">
        <ele>187</ele>
        <time>2015-10-12T08:08:39.1Z</time>
      </trkpt>
      <trkpt lat="48.20797" lon="-3.03701">
        <ele>187</ele>
        <time>2015-10-12T08:08:41.1Z</time>
      </trkpt>
      <trkpt lat="48.20795" lon="-3.03699">
        <ele>187</ele>
        <time>2015-10-12T08:08:43.1Z</time>
      </trkpt>
      <trkpt lat="48.20793" lon="-3.03697">
        <ele>187</ele>
        <time>2015-10-12T08:08:46.1Z</time>
      </trkpt>
      <trkpt lat="48.20792" lon="-3.03696">
        <ele>187</ele>
        <time>2015-10-12T08:08:48.1Z</time>
      </trkpt>
      <trkpt lat="48.2079" lon="-3.03693">
        <ele>187</ele>
        <time>2015-10-12T08:08:51.1Z</time>
      </trkpt>
      <trkpt lat="48.20789" lon="-3.03691">
        <ele>187</ele>
        <time>2015-10-12T08:08:54.1Z</time>
      </trkpt>
      <trkpt lat="48.20787" lon="-3.03689">
        <ele>188</ele>
        <time>2015-10-12T08:08:57.1Z</time>
      </trkpt>
      <trkpt lat="48.20784" lon="-3.03687">
        <ele>188</ele>
        <time>2015-10-12T08:09:00.1Z</time>
      </trkpt>
      <trkpt lat="48.20781" lon="-3.03685">
        <ele>188</ele>
        <time>2015-10-12T08:09:03.1Z</time>
      </trkpt>
      <trkpt lat="48.20779" lon="-3.03683">
        <ele>187</ele>
        <time>2015-10-12T08:09:05.1Z</time>
      </trkpt>
      <trkpt lat="48.20776" lon="-3.0368">
        <ele>188</ele>
        <time>2015-10-12T08:09:08.1Z</time>
      </trkpt>
      <trkpt lat="48.20776" lon="-3.03679">
        <ele>188</ele>
        <time>2015-10-12T08:09:10.1Z</time>
      </trkpt>
      <trkpt lat="48.20775" lon="-3.03679">
        <ele>188</ele>
        <time>2015-10-12T08:09:13.1Z</time>
      </trkpt>
      <trkpt lat="48.20775" lon="-3.03677">
        <ele>188</ele>
        <time>2015-10-12T08:09:16.1Z</time>
      </trkpt>
      <trkpt lat="48.20774" lon="-3.03676">
        <ele>188</ele>
        <time>2015-10-12T08:09:20.1Z</time>
      </trkpt>
      <trkpt lat="48.20774" lon="-3.03675">
        <ele>188</ele>
        <time>2015-10-12T08:09:23.1Z</time>
      </trkpt>
      <trkpt lat="48.20773" lon="-3.03674">
        <ele>188</ele>
        <time>2015-10-12T08:09:25.1Z</time>
      </trkpt>
      <trkpt lat="48.20771" lon="-3.03672">
        <ele>188</ele>
        <time>2015-10-12T08:09:27.1Z</time>
      </trkpt>
      <trkpt lat="48.20769" lon="-3.0367">
        <ele>188</ele>
        <time>2015-10-12T08:09:30.1Z</time>
      </trkpt>
      <trkpt lat="48.20768" lon="-3.03669">
        <ele>188</ele>
        <time>2015-10-12T08:09:32.1Z</time>
      </trkpt>
      <trkpt lat="48.20767" lon="-3.03668">
        <ele>188</ele>
        <time>2015-10-12T08:09:35.1Z</time>
      </trkpt>
      <trkpt lat="48.20766" lon="-3.03667">
        <ele>188</ele>
        <time>2015-10-12T08:09:38.1Z</time>
      </trkpt>
      <trkpt lat="48.20765" lon="-3.03666">
        <ele>189</ele>
        <time>2015-10-12T08:09:40.1Z</time>
      </trkpt>
      <trkpt lat="48.20763" lon="-3.03662">
        <ele>189</ele>
        <time>2015-10-12T08:09:43.1Z</time>
      </trkpt>
      <trkpt lat="48.20763" lon="-3.0366">
        <ele>189</ele>
        <time>2015-10-12T08:09:45.1Z</time>
      </trkpt>
      <trkpt lat="48.20762" lon="-3.03655">
        <ele>189</ele>
        <time>2015-10-12T08:09:48.1Z</time>
      </trkpt>
      <trkpt lat="48.20761" lon="-3.03652">
        <ele>188</ele>
        <time>2015-10-12T08:09:50.1Z</time>
      </trkpt>
      <trkpt lat="48.2076" lon="-3.03649">
        <ele>188</ele>
        <time>2015-10-12T08:09:52.1Z</time>
      </trkpt>
      <trkpt lat="48.20759" lon="-3.03645">
        <ele>188</ele>
        <time>2015-10-12T08:09:55.1Z</time>
      </trkpt>
      <trkpt lat="48.20759" lon="-3.03643">
        <ele>188</ele>
        <time>2015-10-12T08:09:57.1Z</time>
      </trkpt>
      <trkpt lat="48.20758" lon="-3.03641">
        <ele>189</ele>
        <time>2015-10-12T08:10:00.1Z</time>
      </trkpt>
      <trkpt lat="48.20758" lon="-3.0364">
        <ele>189</ele>
        <time>2015-10-12T08:10:02.1Z</time>
      </trkpt>
      <trkpt lat="48.20758" lon="-3.03639">
        <ele>189</ele>
        <time>2015-10-12T08:10:05.1Z</time>
      </trkpt>
      <trkpt lat="48.20758" lon="-3.03638">
        <ele>189</ele>
        <time>2015-10-12T08:10:08.1Z</time>
      </trkpt>
      <trkpt lat="48.20757" lon="-3.03637">
        <ele>188</ele>
        <time>2015-10-12T08:10:11.1Z</time>
      </trkpt>
      <trkpt lat="48.20757" lon="-3.03637">
        <ele>188</ele>
        <time>2015-10-12T08:10:13.1Z</time>
      </trkpt>
      <trkpt lat="48.20757" lon="-3.03636">
        <ele>189</ele>
        <time>2015-10-12T08:10:17.1Z</time>
      </trkpt>
      <trkpt lat="48.20757" lon="-3.03636">
        <ele>189</ele>
        <time>2015-10-12T08:10:19.1Z</time>
      </trkpt>
      <trkpt lat="48.20756" lon="-3.03633">
        <ele>189</ele>
        <time>2015-10-12T08:10:21.1Z</time>
      </trkpt>
      <trkpt lat="48.20754" lon="-3.03628">
        <ele>189</ele>
        <time>2015-10-12T08:10:24.1Z</time>
      </trkpt>
      <trkpt lat="48.20753" lon="-3.03625">
        <ele>189</ele>
        <time>2015-10-12T08:10:26.1Z</time>
      </trkpt>
      <trkpt lat="48.20752" lon="-3.03621">
        <ele>189</ele>
        <time>2015-10-12T08:10:29.1Z</time>
      </trkpt>
      <trkpt lat="48.2075" lon="-3.03617">
        <ele>189</ele>
        <time>2015-10-12T08:10:32.1Z</time>
      </trkpt>
      <trkpt lat="48.20747" lon="-3.03612">
        <ele>189</ele>
        <time>2015-10-12T08:10:35.1Z</time>
      </trkpt>
      <trkpt lat="48.20746" lon="-3.03608">
        <ele>189</ele>
        <time>2015-10-12T08:10:38.1Z</time>
      </trkpt>
      <trkpt lat="48.20745" lon="-3.03605">
        <ele>189</ele>
        <time>2015-10-12T08:10:40.1Z</time>
      </trkpt>
      <trkpt lat="48.20744" lon="-3.036">
        <ele>189</ele>
        <time>2015-10-12T08:10:43.1Z</time>
      </trkpt>
      <trkpt lat="48.20743" lon="-3.03597">
        <ele>189</ele>
        <time>2015-10-12T08:10:45.1Z</time>
      </trkpt>
      <trkpt lat="48.20742" lon="-3.03592">
        <ele>189</ele>
        <time>2015-10-12T08:10:48.1Z</time>
      </trkpt>
      <trkpt lat="48.20741" lon="-3.03589">
        <ele>190</ele>
        <time>2015-10-12T08:10:50.1Z</time>
      </trkpt>
      <trkpt lat="48.2074" lon="-3.03584">
        <ele>190</ele>
        <time>2015-10-12T08:10:53.1Z</time>
      </trkpt>
      <trkpt lat="48.20739" lon="-3.03581">
        <ele>189</ele>
        <time>2015-10-12T08:10:55.1Z</time>
      </trkpt>
      <trkpt lat="48.20737" lon="-3.03576">
        <ele>190</ele>
        <time>2015-10-12T08:10:58.1Z</time>
      </trkpt>
      <trkpt lat="48.20737" lon="-3.03572">
        <ele>190</ele>
        <time>2015-10-12T08:11:01.1Z</time>
      </trkpt>
      <trkpt lat="48.20737" lon="-3.03568">
        <ele>190</ele>
        <time>2015-10-12T08:11:04.1Z</time>
      </trkpt>
      <trkpt lat="48.20736" lon="-3.03563">
        <ele>189</ele>
        <time>2015-10-12T08:11:07.1Z</time>
      </trkpt>
      <trkpt lat="48.20736" lon="-3.0356">
        <ele>189</ele>
        <time>2015-10-12T08:11:09.1Z</time>
      </trkpt>
      <trkpt lat="48.20735" lon="-3.03555">
        <ele>190</ele>
        <time>2015-10-12T08:11:12.1Z</time>
      </trkpt>
      <trkpt lat="48.20734" lon="-3.03552">
        <ele>190</ele>
        <time>2015-10-12T08:11:14.1Z</time>
      </trkpt>
      <trkpt lat="48.20734" lon="-3.03547">
        <ele>191</ele>
        <time>2015-10-12T08:11:17.1Z</time>
      </trkpt>
      <trkpt lat="48.20733" lon="-3.03543">
        <ele>191</ele>
        <time>2015-10-12T08:11:20.1Z</time>
      </trkpt>
      <trkpt lat="48.20733" lon="-3.0354">
        <ele>191</ele>
        <time>2015-10-12T08:11:23.1Z</time>
      </trkpt>
      <trkpt lat="48.20732" lon="-3.03536">
        <ele>190</ele>
        <time>2015-10-12T08:11:26.1Z</time>
      </trkpt>
      <trkpt lat="48.20731" lon="-3.03533">
        <ele>190</ele>
        <time>2015-10-12T08:11:29.1Z</time>
      </trkpt>
      <trkpt lat="48.2073" lon="-3.03531">
        <ele>191</ele>
        <time>2015-10-12T08:11:32.1Z</time>
      </trkpt>
      <trkpt lat="48.2073" lon="-3.03531">
        <ele>191</ele>
        <time>2015-10-12T08:11:34.1Z</time>
      </trkpt>
      <trkpt lat="48.2073" lon="-3.03531">
        <ele>191</ele>
        <time>2015-10-12T08:11:36.1Z</time>
      </trkpt>
      <trkpt lat="48.2073" lon="-3.03531">
        <ele>191</ele>
        <time>2015-10-12T08:11:41.1Z</time>
      </trkpt>
      <trkpt lat="48.20729" lon="-3.03531">
        <ele>191</ele>
        <time>2015-10-12T08:11:44.1Z</time>
      </trkpt>
      <trkpt lat="48.20729" lon="-3.03531">
        <ele>191</ele>
        <time>2015-10-12T08:11:47.1Z</time>
      </trkpt>
      <trkpt lat="48.20728" lon="-3.03531">
        <ele>191</ele>
        <time>2015-10-12T08:11:49.1Z</time>
      </trkpt>
      <trkpt lat="48.20729" lon="-3.03531">
        <ele>191</ele>
        <time>2015-10-12T08:11:51.1Z</time>
      </trkpt>
      <trkpt lat="48.20729" lon="-3.03531">
        <ele>191</ele>
        <time>2015-10-12T08:11:54.1Z</time>
      </trkpt>
      <trkpt lat="48.20729" lon="-3.0353">
        <ele>190</ele>
        <time>2015-10-12T08:11:58.1Z</time>
      </trkpt>
      <trkpt lat="48.20729" lon="-3.0353">
        <ele>190</ele>
        <time>2015-10-12T08:12:01.1Z</time>
      </trkpt>
      <trkpt lat="48.20729" lon="-3.0353">
        <ele>190</ele>
        <time>2015-10-12T08:12:03.1Z</time>
      </trkpt>
      <trkpt lat="48.20729" lon="-3.0353">
        <ele>190</ele>
        <time>2015-10-12T08:12:06.1Z</time>
      </trkpt>
      <trkpt lat="48.20729" lon="-3.0353">
        <ele>190</ele>
        <time>2015-10-12T08:12:09.1Z</time>
      </trkpt>
      <trkpt lat="48.20728" lon="-3.03529">
        <ele>191</ele>
        <time>2015-10-12T08:12:11.1Z</time>
      </trkpt>
      <trkpt lat="48.20728" lon="-3.03529">
        <ele>191</ele>
        <time>2015-10-12T08:12:13.1Z</time>
      </trkpt>
      <trkpt lat="48.20728" lon="-3.0353">
        <ele>191</ele>
        <time>2015-10-12T08:12:16.1Z</time>
      </trkpt>
      <trkpt lat="48.20728" lon="-3.03529">
        <ele>190</ele>
        <time>2015-10-12T08:12:18.1Z</time>
      </trkpt>
      <trkpt lat="48.20728" lon="-3.03529">
        <ele>190</ele>
        <time>2015-10-12T08:12:22.1Z</time>
      </trkpt>
      <trkpt lat="48.20728" lon="-3.03529">
        <ele>190</ele>
        <time>2015-10-12T08:12:25.1Z</time>
      </trkpt>
      <trkpt lat="48.20729" lon="-3.03529">
        <ele>190</ele>
        <time>2015-10-12T08:12:28.1Z</time>
      </trkpt>
      <trkpt lat="48.2073" lon="-3.03529">
        <ele>190</ele>
        <time>2015-10-12T08:12:31.1Z</time>
      </trkpt>
      <trkpt lat="48.20731" lon="-3.03526">
        <ele>191</ele>
        <time>2015-10-12T08:12:33.1Z</time>
      </trkpt>
      <trkpt lat="48.20732" lon="-3.03523">
        <ele>191</ele>
        <time>2015-10-12T08:12:36.1Z</time>
      </trkpt>
      <trkpt lat="48.20734" lon="-3.03522">
        <ele>191</ele>
        <time>2015-10-12T08:12:38.1Z</time>
      </trkpt>
      <trkpt lat="48.20736" lon="-3.03521">
        <ele>191</ele>
        <time>2015-10-12T08:12:41.1Z</time>
      </trkpt>
      <trkpt lat="48.20736" lon="-3.03521">
        <ele>191</ele>
        <time>2015-10-12T08:12:43.1Z</time>
      </trkpt>
      <trkpt lat="48.20738" lon="-3.03521">
        <ele>191</ele>
        <time>2015-10-12T08:12:46.1Z</time>
      </trkpt>
      <trkpt lat="48.20739" lon="-3.0352">
        <ele>191</ele>
        <time>2015-10-12T08:12:48.1Z</time>
      </trkpt>
      <trkpt lat="48.20741" lon="-3.03519">
        <ele>191</ele>
        <time>2015-10-12T08:12:51.1Z</time>
      </trkpt>
      <trkpt lat="48.20742" lon="-3.03517">
        <ele>191</ele>
        <time>2015-10-12T08:12:53.1Z</time>
      </trkpt>
      <trkpt lat="48.20744" lon="-3.03515">
        <ele>191</ele>
        <time>2015-10-12T08:12:56.1Z</time>
      </trkpt>
      <trkpt lat="48.20745" lon="-3.03512">
        <ele>191</ele>
        <time>2015-10-12T08:12:59.1Z</time>
      </trkpt>
      <trkpt lat="48.20747" lon="-3.03509">
        <ele>191</ele>
        <time>2015-10-12T08:13:02.1Z</time>
      </trkpt>
      <trkpt lat="48.20747" lon="-3.03507">
        <ele>191</ele>
        <time>2015-10-12T08:13:06.1Z</time>
      </trkpt>
      <trkpt lat="48.20748" lon="-3.03507">
        <ele>192</ele>
        <time>2015-10-12T08:13:09.1Z</time>
      </trkpt>
      <trkpt lat="48.20749" lon="-3.03506">
        <ele>191</ele>
        <time>2015-10-12T08:13:11.1Z</time>
      </trkpt>
      <trkpt lat="48.2075" lon="-3.03503">
        <ele>192</ele>
        <time>2015-10-12T08:13:13.1Z</time>
      </trkpt>
      <trkpt lat="48.20752" lon="-3.035">
        <ele>192</ele>
        <time>2015-10-12T08:13:16.1Z</time>
      </trkpt>
      <trkpt lat="48.20754" lon="-3.03495">
        <ele>192</ele>
        <time>2015-10-12T08:13:19.1Z</time>
      </trkpt>
      <trkpt lat="48.20755" lon="-3.03492">
        <ele>193</ele>
        <time>2015-10-12T08:13:21.1Z</time>
      </trkpt>
      <trkpt lat="48.20757" lon="-3.03488">
        <ele>193</ele>
        <time>2015-10-12T08:13:24.1Z</time>
      </trkpt>
      <trkpt lat="48.20759" lon="-3.03484">
        <ele>193</ele>
        <time>2015-10-12T08:13:27.1Z</time>
      </trkpt>
      <trkpt lat="48.2076" lon="-3.03482">
        <ele>193</ele>
        <time>2015-10-12T08:13:29.1Z</time>
      </trkpt>
      <trkpt lat="48.20762" lon="-3.03478">
        <ele>193</ele>
        <time>2015-10-12T08:13:32.1Z</time>
      </trkpt>
      <trkpt lat="48.20764" lon="-3.03474">
        <ele>193</ele>
        <time>2015-10-12T08:13:35.1Z</time>
      </trkpt>
      <trkpt lat="48.20766" lon="-3.03472">
        <ele>194</ele>
        <time>2015-10-12T08:13:37.1Z</time>
      </trkpt>
      <trkpt lat="48.20768" lon="-3.03469">
        <ele>194</ele>
        <time>2015-10-12T08:13:39.1Z</time>
      </trkpt>
      <trkpt lat="48.2077" lon="-3.03466">
        <ele>194</ele>
        <time>2015-10-12T08:13:42.1Z</time>
      </trkpt>
      <trkpt lat="48.20772" lon="-3.03463">
        <ele>194</ele>
        <time>2015-10-12T08:13:45.1Z</time>
      </trkpt>
      <trkpt lat="48.20773" lon="-3.03461">
        <ele>195</ele>
        <time>2015-10-12T08:13:47.1Z</time>
      </trkpt>
      <trkpt lat="48.20776" lon="-3.03458">
        <ele>195</ele>
        <time>2015-10-12T08:13:50.1Z</time>
      </trkpt>
      <trkpt lat="48.20776" lon="-3.03455">
        <ele>195</ele>
        <time>2015-10-12T08:13:52.1Z</time>
      </trkpt>
      <trkpt lat="48.20778" lon="-3.03452">
        <ele>195</ele>
        <time>2015-10-12T08:13:55.1Z</time>
      </trkpt>
      <trkpt lat="48.20779" lon="-3.03449">
        <ele>195</ele>
        <time>2015-10-12T08:13:58.1Z</time>
      </trkpt>
      <trkpt lat="48.20781" lon="-3.03447">
        <ele>196</ele>
        <time>2015-10-12T08:14:01.1Z</time>
      </trkpt>
      <trkpt lat="48.20782" lon="-3.03444">
        <ele>196</ele>
        <time>2015-10-12T08:14:04.1Z</time>
      </trkpt>
      <trkpt lat="48.20784" lon="-3.0344">
        <ele>196</ele>
        <time>2015-10-12T08:14:07.1Z</time>
      </trkpt>
      <trkpt lat="48.20786" lon="-3.03437">
        <ele>196</ele>
        <time>2015-10-12T08:14:09.1Z</time>
      </trkpt>
      <trkpt lat="48.20787" lon="-3.03435">
        <ele>197</ele>
        <time>2015-10-12T08:14:11.1Z</time>
      </trkpt>
      <trkpt lat="48.20791" lon="-3.03432">
        <ele>197</ele>
        <time>2015-10-12T08:14:14.1Z</time>
      </trkpt>
      <trkpt lat="48.20792" lon="-3.03431">
        <ele>197</ele>
        <time>2015-10-12T08:14:16.1Z</time>
      </trkpt>
      <trkpt lat="48.20796" lon="-3.0343">
        <ele>198</ele>
        <time>2015-10-12T08:14:19.1Z</time>
      </trkpt>
      <trkpt lat="48.20799" lon="-3.03429">
        <ele>198</ele>
        <time>2015-10-12T08:14:22.1Z</time>
      </trkpt>
      <trkpt lat="48.20803" lon="-3.03429">
        <ele>198</ele>
        <time>2015-10-12T08:14:25.1Z</time>
      </trkpt>
      <trkpt lat="48.20805" lon="-3.03429">
        <ele>198</ele>
        <time>2015-10-12T08:14:27.1Z</time>
      </trkpt>
      <trkpt lat="48.20809" lon="-3.0343">
        <ele>198</ele>
        <time>2015-10-12T08:14:30.1Z</time>
      </trkpt>
      <trkpt lat="48.20812" lon="-3.03431">
        <ele>198</ele>
        <time>2015-10-12T08:14:33.1Z</time>
      </trkpt>
      <trkpt lat="48.20815" lon="-3.03433">
        <ele>198</ele>
        <time>2015-10-12T08:14:35.1Z</time>
      </trkpt>
      <trkpt lat="48.20818" lon="-3.03434">
        <ele>198</ele>
        <time>2015-10-12T08:14:38.1Z</time>
      </trkpt>
      <trkpt lat="48.20821" lon="-3.03434">
        <ele>198</ele>
        <time>2015-10-12T08:14:40.1Z</time>
      </trkpt>
      <trkpt lat="48.20823" lon="-3.03434">
        <ele>198</ele>
        <time>2015-10-12T08:14:43.1Z</time>
      </trkpt>
      <trkpt lat="48.20826" lon="-3.03435">
        <ele>197</ele>
        <time>2015-10-12T08:14:46.1Z</time>
      </trkpt>
      <trkpt lat="48.20828" lon="-3.03435">
        <ele>197</ele>
        <time>2015-10-12T08:14:48.1Z</time>
      </trkpt>
      <trkpt lat="48.2083" lon="-3.03437">
        <ele>197</ele>
        <time>2015-10-12T08:14:51.1Z</time>
      </trkpt>
      <trkpt lat="48.20833" lon="-3.03439">
        <ele>197</ele>
        <time>2015-10-12T08:14:54.1Z</time>
      </trkpt>
      <trkpt lat="48.20836" lon="-3.03441">
        <ele>197</ele>
        <time>2015-10-12T08:14:57.1Z</time>
      </trkpt>
      <trkpt lat="48.2084" lon="-3.03442">
        <ele>197</ele>
        <time>2015-10-12T08:15:00.1Z</time>
      </trkpt>
      <trkpt lat="48.20843" lon="-3.03441">
        <ele>196</ele>
        <time>2015-10-12T08:15:03.1Z</time>
      </trkpt>
      <trkpt lat="48.20845" lon="-3.03437">
        <ele>197</ele>
        <time>2015-10-12T08:15:05.1Z</time>
      </trkpt>
      <trkpt lat="48.20847" lon="-3.03435">
        <ele>197</ele>
        <time>2015-10-12T08:15:07.1Z</time>
      </trkpt>
      <trkpt lat="48.20848" lon="-3.03432">
        <ele>197</ele>
        <time>2015-10-12T08:15:09.1Z</time>
      </trkpt>
      <trkpt lat="48.20849" lon="-3.03427">
        <ele>197</ele>
        <time>2015-10-12T08:15:12.1Z</time>
      </trkpt>
      <trkpt lat="48.2085" lon="-3.03424">
        <ele>198</ele>
        <time>2015-10-12T08:15:14.1Z</time>
      </trkpt>
      <trkpt lat="48.20851" lon="-3.03419">
        <ele>198</ele>
        <time>2015-10-12T08:15:17.1Z</time>
      </trkpt>
      <trkpt lat="48.20851" lon="-3.03416">
        <ele>199</ele>
        <time>2015-10-12T08:15:19.1Z</time>
      </trkpt>
      <trkpt lat="48.20852" lon="-3.03414">
        <ele>199</ele>
        <time>2015-10-12T08:15:21.1Z</time>
      </trkpt>
      <trkpt lat="48.20853" lon="-3.03409">
        <ele>200</ele>
        <time>2015-10-12T08:15:24.1Z</time>
      </trkpt>
      <trkpt lat="48.20853" lon="-3.03406">
        <ele>200</ele>
        <time>2015-10-12T08:15:26.1Z</time>
      </trkpt>
      <trkpt lat="48.20853" lon="-3.03401">
        <ele>200</ele>
        <time>2015-10-12T08:15:29.1Z</time>
      </trkpt>
      <trkpt lat="48.20853" lon="-3.03397">
        <ele>201</ele>
        <time>2015-10-12T08:15:31.1Z</time>
      </trkpt>
      <trkpt lat="48.20854" lon="-3.03393">
        <ele>201</ele>
        <time>2015-10-12T08:15:34.1Z</time>
      </trkpt>
      <trkpt lat="48.20854" lon="-3.0339">
        <ele>201</ele>
        <time>2015-10-12T08:15:36.1Z</time>
      </trkpt>
      <trkpt lat="48.20854" lon="-3.03385">
        <ele>201</ele>
        <time>2015-10-12T08:15:39.1Z</time>
      </trkpt>
      <trkpt lat="48.20854" lon="-3.03382">
        <ele>201</ele>
        <time>2015-10-12T08:15:41.1Z</time>
      </trkpt>
      <trkpt lat="48.20853" lon="-3.03377">
        <ele>201</ele>
        <time>2015-10-12T08:15:44.1Z</time>
      </trkpt>
      <trkpt lat="48.20853" lon="-3.03373">
        <ele>202</ele>
        <time>2015-10-12T08:15:47.1Z</time>
      </trkpt>
      <trkpt lat="48.20851" lon="-3.03369">
        <ele>202</ele>
        <time>2015-10-12T08:15:50.1Z</time>
      </trkpt>
      <trkpt lat="48.20851" lon="-3.03366">
        <ele>202</ele>
        <time>2015-10-12T08:15:52.1Z</time>
      </trkpt>
      <trkpt lat="48.2085" lon="-3.03363">
        <ele>202</ele>
        <time>2015-10-12T08:15:55.1Z</time>
      </trkpt>
      <trkpt lat="48.20848" lon="-3.03358">
        <ele>203</ele>
        <time>2015-10-12T08:15:58.1Z</time>
      </trkpt>
      <trkpt lat="48.20847" lon="-3.03356">
        <ele>204</ele>
        <time>2015-10-12T08:16:00.1Z</time>
      </trkpt>
      <trkpt lat="48.20846" lon="-3.03352">
        <ele>204</ele>
        <time>2015-10-12T08:16:03.1Z</time>
      </trkpt>
      <trkpt lat="48.20845" lon="-3.0335">
        <ele>205</ele>
        <time>2015-10-12T08:16:05.1Z</time>
      </trkpt>
      <trkpt lat="48.20843" lon="-3.03348">
        <ele>205</ele>
        <time>2015-10-12T08:16:07.1Z</time>
      </trkpt>
      <trkpt lat="48.20842" lon="-3.03346">
        <ele>206</ele>
        <time>2015-10-12T08:16:10.1Z</time>
      </trkpt>
      <trkpt lat="48.20841" lon="-3.03344">
        <ele>206</ele>
        <time>2015-10-12T08:16:12.1Z</time>
      </trkpt>
      <trkpt lat="48.2084" lon="-3.03341">
        <ele>207</ele>
        <time>2015-10-12T08:16:15.1Z</time>
      </trkpt>
      <trkpt lat="48.20839" lon="-3.03339">
        <ele>207</ele>
        <time>2015-10-12T08:16:17.1Z</time>
      </trkpt>
      <trkpt lat="48.20837" lon="-3.03335">
        <ele>207</ele>
        <time>2015-10-12T08:16:20.1Z</time>
      </trkpt>
      <trkpt lat="48.20836" lon="-3.03331">
        <ele>208</ele>
        <time>2015-10-12T08:16:23.1Z</time>
      </trkpt>
      <trkpt lat="48.20834" lon="-3.03328">
        <ele>208</ele>
        <time>2015-10-12T08:16:26.1Z</time>
      </trkpt>
      <trkpt lat="48.20833" lon="-3.03324">
        <ele>209</ele>
        <time>2015-10-12T08:16:29.1Z</time>
      </trkpt>
      <trkpt lat="48.20832" lon="-3.0332">
        <ele>209</ele>
        <time>2015-10-12T08:16:32.1Z</time>
      </trkpt>
      <trkpt lat="48.20832" lon="-3.03315">
        <ele>209</ele>
        <time>2015-10-12T08:16:35.1Z</time>
      </trkpt>
      <trkpt lat="48.20832" lon="-3.03313">
        <ele>210</ele>
        <time>2015-10-12T08:16:37.1Z</time>
      </trkpt>
      <trkpt lat="48.20831" lon="-3.03309">
        <ele>210</ele>
        <time>2015-10-12T08:16:40.1Z</time>
      </trkpt>
      <trkpt lat="48.20831" lon="-3.03305">
        <ele>210</ele>
        <time>2015-10-12T08:16:42.1Z</time>
      </trkpt>
      <trkpt lat="48.2083" lon="-3.03301">
        <ele>210</ele>
        <time>2015-10-12T08:16:45.1Z</time>
      </trkpt>
      <trkpt lat="48.20829" lon="-3.03296">
        <ele>210</ele>
        <time>2015-10-12T08:16:48.1Z</time>
      </trkpt>
      <trkpt lat="48.20829" lon="-3.03292">
        <ele>210</ele>
        <time>2015-10-12T08:16:50.1Z</time>
      </trkpt>
      <trkpt lat="48.20829" lon="-3.03287">
        <ele>211</ele>
        <time>2015-10-12T08:16:53.1Z</time>
      </trkpt>
      <trkpt lat="48.20829" lon="-3.03283">
        <ele>211</ele>
        <time>2015-10-12T08:16:55.1Z</time>
      </trkpt>
      <trkpt lat="48.20829" lon="-3.0328">
        <ele>211</ele>
        <time>2015-10-12T08:16:57.1Z</time>
      </trkpt>
      <trkpt lat="48.20829" lon="-3.03274">
        <ele>211</ele>
        <time>2015-10-12T08:17:00.1Z</time>
      </trkpt>
      <trkpt lat="48.20829" lon="-3.03271">
        <ele>211</ele>
        <time>2015-10-12T08:17:02.1Z</time>
      </trkpt>
      <trkpt lat="48.20829" lon="-3.03267">
        <ele>211</ele>
        <time>2015-10-12T08:17:05.1Z</time>
      </trkpt>
      <trkpt lat="48.2083" lon="-3.03261">
        <ele>211</ele>
        <time>2015-10-12T08:17:08.1Z</time>
      </trkpt>
      <trkpt lat="48.20831" lon="-3.03256">
        <ele>211</ele>
        <time>2015-10-12T08:17:11.1Z</time>
      </trkpt>
      <trkpt lat="48.20831" lon="-3.03252">
        <ele>211</ele>
        <time>2015-10-12T08:17:13.1Z</time>
      </trkpt>
      <trkpt lat="48.20831" lon="-3.03249">
        <ele>211</ele>
        <time>2015-10-12T08:17:15.1Z</time>
      </trkpt>
      <trkpt lat="48.20831" lon="-3.03243">
        <ele>211</ele>
        <time>2015-10-12T08:17:18.1Z</time>
      </trkpt>
      <trkpt lat="48.20831" lon="-3.03238">
        <ele>211</ele>
        <time>2015-10-12T08:17:21.1Z</time>
      </trkpt>
      <trkpt lat="48.20832" lon="-3.03233">
        <ele>211</ele>
        <time>2015-10-12T08:17:24.1Z</time>
      </trkpt>
      <trkpt lat="48.20833" lon="-3.03228">
        <ele>211</ele>
        <time>2015-10-12T08:17:27.1Z</time>
      </trkpt>
      <trkpt lat="48.20834" lon="-3.03223">
        <ele>211</ele>
        <time>2015-10-12T08:17:30.1Z</time>
      </trkpt>
      <trkpt lat="48.20834" lon="-3.03218">
        <ele>211</ele>
        <time>2015-10-12T08:17:33.1Z</time>
      </trkpt>
      <trkpt lat="48.20833" lon="-3.03213">
        <ele>211</ele>
        <time>2015-10-12T08:17:36.1Z</time>
      </trkpt>
      <trkpt lat="48.20833" lon="-3.03209">
        <ele>211</ele>
        <time>2015-10-12T08:17:38.1Z</time>
      </trkpt>
      <trkpt lat="48.20833" lon="-3.03204">
        <ele>211</ele>
        <time>2015-10-12T08:17:41.1Z</time>
      </trkpt>
      <trkpt lat="48.20833" lon="-3.032">
        <ele>212</ele>
        <time>2015-10-12T08:17:43.1Z</time>
      </trkpt>
      <trkpt lat="48.20832" lon="-3.03196">
        <ele>212</ele>
        <time>2015-10-12T08:17:46.1Z</time>
      </trkpt>
      <trkpt lat="48.20833" lon="-3.03192">
        <ele>212</ele>
        <time>2015-10-12T08:17:48.1Z</time>
      </trkpt>
      <trkpt lat="48.20833" lon="-3.03187">
        <ele>212</ele>
        <time>2015-10-12T08:17:51.1Z</time>
      </trkpt>
      <trkpt lat="48.20832" lon="-3.03184">
        <ele>212</ele>
        <time>2015-10-12T08:17:53.1Z</time>
      </trkpt>
      <trkpt lat="48.20831" lon="-3.03181">
        <ele>213</ele>
        <time>2015-10-12T08:17:55.1Z</time>
      </trkpt>
      <trkpt lat="48.20831" lon="-3.03176">
        <ele>212</ele>
        <time>2015-10-12T08:17:58.1Z</time>
      </trkpt>
      <trkpt lat="48.20829" lon="-3.03174">
        <ele>212</ele>
        <time>2015-10-12T08:18:00.1Z</time>
      </trkpt>
      <trkpt lat="48.20828" lon="-3.03171">
        <ele>212</ele>
        <time>2015-10-12T08:18:02.1Z</time>
      </trkpt>
      <trkpt lat="48.20827" lon="-3.03167">
        <ele>212</ele>
        <time>2015-10-12T08:18:05.1Z</time>
      </trkpt>
      <trkpt lat="48.20827" lon="-3.03162">
        <ele>212</ele>
        <time>2015-10-12T08:18:08.1Z</time>
      </trkpt>
      <trkpt lat="48.20826" lon="-3.0316">
        <ele>213</ele>
        <time>2015-10-12T08:18:10.1Z</time>
      </trkpt>
      <trkpt lat="48.20824" lon="-3.03155">
        <ele>213</ele>
        <time>2015-10-12T08:18:13.1Z</time>
      </trkpt>
      <trkpt lat="48.20822" lon="-3.0315">
        <ele>213</ele>
        <time>2015-10-12T08:18:16.1Z</time>
      </trkpt>
      <trkpt lat="48.20821" lon="-3.03145">
        <ele>213</ele>
        <time>2015-10-12T08:18:19.1Z</time>
      </trkpt>
      <trkpt lat="48.20819" lon="-3.03139">
        <ele>213</ele>
        <time>2015-10-12T08:18:22.1Z</time>
      </trkpt>
      <trkpt lat="48.20818" lon="-3.03134">
        <ele>213</ele>
        <time>2015-10-12T08:18:25.1Z</time>
      </trkpt>
      <trkpt lat="48.20817" lon="-3.0313">
        <ele>214</ele>
        <time>2015-10-12T08:18:27.1Z</time>
      </trkpt>
      <trkpt lat="48.20817" lon="-3.03127">
        <ele>214</ele>
        <time>2015-10-12T08:18:29.1Z</time>
      </trkpt>
      <trkpt lat="48.20816" lon="-3.03122">
        <ele>214</ele>
        <time>2015-10-12T08:18:32.1Z</time>
      </trkpt>
      <trkpt lat="48.20816" lon="-3.03119">
        <ele>214</ele>
        <time>2015-10-12T08:18:34.1Z</time>
      </trkpt>
      <trkpt lat="48.20815" lon="-3.03115">
        <ele>213</ele>
        <time>2015-10-12T08:18:37.1Z</time>
      </trkpt>
      <trkpt lat="48.20814" lon="-3.0311">
        <ele>213</ele>
        <time>2015-10-12T08:18:40.1Z</time>
      </trkpt>
      <trkpt lat="48.20813" lon="-3.03105">
        <ele>213</ele>
        <time>2015-10-12T08:18:43.1Z</time>
      </trkpt>
      <trkpt lat="48.20813" lon="-3.03101">
        <ele>213</ele>
        <time>2015-10-12T08:18:45.1Z</time>
      </trkpt>
      <trkpt lat="48.20812" lon="-3.03096">
        <ele>213</ele>
        <time>2015-10-12T08:18:48.1Z</time>
      </trkpt>
      <trkpt lat="48.20811" lon="-3.03091">
        <ele>213</ele>
        <time>2015-10-12T08:18:50.1Z</time>
      </trkpt>
      <trkpt lat="48.2081" lon="-3.03086">
        <ele>213</ele>
        <time>2015-10-12T08:18:53.1Z</time>
      </trkpt>
      <trkpt lat="48.2081" lon="-3.03082">
        <ele>213</ele>
        <time>2015-10-12T08:18:55.1Z</time>
      </trkpt>
      <trkpt lat="48.2081" lon="-3.03077">
        <ele>213</ele>
        <time>2015-10-12T08:18:58.1Z</time>
      </trkpt>
      <trkpt lat="48.20809" lon="-3.03073">
        <ele>213</ele>
        <time>2015-10-12T08:19:01.1Z</time>
      </trkpt>
      <trkpt lat="48.20807" lon="-3.03069">
        <ele>213</ele>
        <time>2015-10-12T08:19:04.1Z</time>
      </trkpt>
      <trkpt lat="48.20807" lon="-3.03066">
        <ele>212</ele>
        <time>2015-10-12T08:19:06.1Z</time>
      </trkpt>
      <trkpt lat="48.20806" lon="-3.03064">
        <ele>212</ele>
        <time>2015-10-12T08:19:09.1Z</time>
      </trkpt>
      <trkpt lat="48.20807" lon="-3.03063">
        <ele>212</ele>
        <time>2015-10-12T08:19:11.1Z</time>
      </trkpt>
      <trkpt lat="48.20808" lon="-3.03062">
        <ele>212</ele>
        <time>2015-10-12T08:19:13.1Z</time>
      </trkpt>
      <trkpt lat="48.20809" lon="-3.0306">
        <ele>212</ele>
        <time>2015-10-12T08:19:16.1Z</time>
      </trkpt>
      <trkpt lat="48.20809" lon="-3.03058">
        <ele>212</ele>
        <time>2015-10-12T08:19:18.1Z</time>
      </trkpt>
      <trkpt lat="48.20809" lon="-3.03057">
        <ele>212</ele>
        <time>2015-10-12T08:19:21.1Z</time>
      </trkpt>
      <trkpt lat="48.20806" lon="-3.03057">
        <ele>212</ele>
        <time>2015-10-12T08:19:23.1Z</time>
      </trkpt>
      <trkpt lat="48.20806" lon="-3.03055">
        <ele>212</ele>
        <time>2015-10-12T08:19:26.1Z</time>
      </trkpt>
      <trkpt lat="48.20806" lon="-3.03055">
        <ele>212</ele>
        <time>2015-10-12T08:19:28.1Z</time>
      </trkpt>
      <trkpt lat="48.20806" lon="-3.03055">
        <ele>212</ele>
        <time>2015-10-12T08:19:30.1Z</time>
      </trkpt>
      <trkpt lat="48.20808" lon="-3.03054">
        <ele>212</ele>
        <time>2015-10-12T08:19:33.1Z</time>
      </trkpt>
      <trkpt lat="48.20813" lon="-3.03055">
        <ele>212</ele>
        <time>2015-10-12T08:19:36.1Z</time>
      </trkpt>
      <trkpt lat="48.20815" lon="-3.03056">
        <ele>212</ele>
        <time>2015-10-12T08:19:38.1Z</time>
      </trkpt>
      <trkpt lat="48.20816" lon="-3.03056">
        <ele>212</ele>
        <time>2015-10-12T08:19:42.1Z</time>
      </trkpt>
      <trkpt lat="48.20817" lon="-3.03058">
        <ele>212</ele>
        <time>2015-10-12T08:19:45.1Z</time>
      </trkpt>
      <trkpt lat="48.20818" lon="-3.03058">
        <ele>212</ele>
        <time>2015-10-12T08:19:47.1Z</time>
      </trkpt>
      <trkpt lat="48.20819" lon="-3.03057">
        <ele>212</ele>
        <time>2015-10-12T08:19:50.1Z</time>
      </trkpt>
      <trkpt lat="48.20819" lon="-3.03057">
        <ele>212</ele>
        <time>2015-10-12T08:19:52.1Z</time>
      </trkpt>
      <trkpt lat="48.20819" lon="-3.03057">
        <ele>212</ele>
        <time>2015-10-12T08:19:54.1Z</time>
      </trkpt>
      <trkpt lat="48.20819" lon="-3.03057">
        <ele>211</ele>
        <time>2015-10-12T08:19:57.1Z</time>
      </trkpt>
      <trkpt lat="48.20819" lon="-3.03058">
        <ele>211</ele>
        <time>2015-10-12T08:19:59.1Z</time>
      </trkpt>
      <trkpt lat="48.2082" lon="-3.03057">
        <ele>211</ele>
        <time>2015-10-12T08:20:01.1Z</time>
      </trkpt>
      <trkpt lat="48.20824" lon="-3.03053">
        <ele>211</ele>
        <time>2015-10-12T08:20:04.1Z</time>
      </trkpt>
      <trkpt lat="48.20826" lon="-3.03052">
        <ele>211</ele>
        <time>2015-10-12T08:20:06.1Z</time>
      </trkpt>
      <trkpt lat="48.20828" lon="-3.03052">
        <ele>211</ele>
        <time>2015-10-12T08:20:08.1Z</time>
      </trkpt>
      <trkpt lat="48.20832" lon="-3.0305">
        <ele>211</ele>
        <time>2015-10-12T08:20:11.1Z</time>
      </trkpt>
      <trkpt lat="48.20835" lon="-3.03049">
        <ele>211</ele>
        <time>2015-10-12T08:20:14.1Z</time>
      </trkpt>
      <trkpt lat="48.20835" lon="-3.03048">
        <ele>211</ele>
        <time>2015-10-12T08:20:16.1Z</time>
      </trkpt>
      <trkpt lat="48.20837" lon="-3.03046">
        <ele>210</ele>
        <time>2015-10-12T08:20:19.1Z</time>
      </trkpt>
      <trkpt lat="48.20839" lon="-3.03046">
        <ele>210</ele>
        <time>2015-10-12T08:20:21.1Z</time>
      </trkpt>
      <trkpt lat="48.20842" lon="-3.03045">
        <ele>210</ele>
        <time>2015-10-12T08:20:23.1Z</time>
      </trkpt>
      <trkpt lat="48.20847" lon="-3.03044">
        <ele>209</ele>
        <time>2015-10-12T08:20:26.1Z</time>
      </trkpt>
      <trkpt lat="48.20851" lon="-3.03043">
        <ele>209</ele>
        <time>2015-10-12T08:20:29.1Z</time>
      </trkpt>
      <trkpt lat="48.20856" lon="-3.03042">
        <ele>209</ele>
        <time>2015-10-12T08:20:32.1Z</time>
      </trkpt>
      <trkpt lat="48.2086" lon="-3.0304">
        <ele>209</ele>
        <time>2015-10-12T08:20:34.1Z</time>
      </trkpt>
      <trkpt lat="48.20865" lon="-3.0304">
        <ele>209</ele>
        <time>2015-10-12T08:20:37.1Z</time>
      </trkpt>
      <trkpt lat="48.20868" lon="-3.03039">
        <ele>208</ele>
        <time>2015-10-12T08:20:39.1Z</time>
      </trkpt>
      <trkpt lat="48.20871" lon="-3.03039">
        <ele>208</ele>
        <time>2015-10-12T08:20:42.1Z</time>
      </trkpt>
      <trkpt lat="48.20874" lon="-3.03038">
        <ele>208</ele>
        <time>2015-10-12T08:20:44.1Z</time>
      </trkpt>
      <trkpt lat="48.20877" lon="-3.03038">
        <ele>208</ele>
        <time>2015-10-12T08:20:46.1Z</time>
      </trkpt>
      <trkpt lat="48.20882" lon="-3.03037">
        <ele>208</ele>
        <time>2015-10-12T08:20:49.1Z</time>
      </trkpt>
      <trkpt lat="48.20884" lon="-3.03037">
        <ele>208</ele>
        <time>2015-10-12T08:20:51.1Z</time>
      </trkpt>
      <trkpt lat="48.20886" lon="-3.03037">
        <ele>208</ele>
        <time>2015-10-12T08:20:54.1Z</time>
      </trkpt>
      <trkpt lat="48.2089" lon="-3.03037">
        <ele>208</ele>
        <time>2015-10-12T08:20:57.1Z</time>
      </trkpt>
      <trkpt lat="48.20893" lon="-3.03036">
        <ele>208</ele>
        <time>2015-10-12T08:21:00.1Z</time>
      </trkpt>
      <trkpt lat="48.20896" lon="-3.03036">
        <ele>208</ele>
        <time>2015-10-12T08:21:02.1Z</time>
      </trkpt>
      <trkpt lat="48.20899" lon="-3.03036">
        <ele>208</ele>
        <time>2015-10-12T08:21:05.1Z</time>
      </trkpt>
      <trkpt lat="48.20902" lon="-3.03036">
        <ele>207</ele>
        <time>2015-10-12T08:21:07.1Z</time>
      </trkpt>
      <trkpt lat="48.20903" lon="-3.03036">
        <ele>207</ele>
        <time>2015-10-12T08:21:09.1Z</time>
      </trkpt>
      <trkpt lat="48.20904" lon="-3.03036">
        <ele>208</ele>
        <time>2015-10-12T08:21:12.1Z</time>
      </trkpt>
      <trkpt lat="48.20906" lon="-3.03038">
        <ele>207</ele>
        <time>2015-10-12T08:21:15.1Z</time>
      </trkpt>
      <trkpt lat="48.20909" lon="-3.03038">
        <ele>207</ele>
        <time>2015-10-12T08:21:17.1Z</time>
      </trkpt>
      <trkpt lat="48.20909" lon="-3.03038">
        <ele>207</ele>
        <time>2015-10-12T08:21:20.1Z</time>
      </trkpt>
      <trkpt lat="48.20913" lon="-3.0304">
        <ele>207</ele>
        <time>2015-10-12T08:21:23.1Z</time>
      </trkpt>
      <trkpt lat="48.20917" lon="-3.03041">
        <ele>207</ele>
        <time>2015-10-12T08:21:26.1Z</time>
      </trkpt>
      <trkpt lat="48.20919" lon="-3.03042">
        <ele>207</ele>
        <time>2015-10-12T08:21:28.1Z</time>
      </trkpt>
      <trkpt lat="48.20921" lon="-3.03043">
        <ele>206</ele>
        <time>2015-10-12T08:21:30.1Z</time>
      </trkpt>
      <trkpt lat="48.20924" lon="-3.03044">
        <ele>206</ele>
        <time>2015-10-12T08:21:32.1Z</time>
      </trkpt>
      <trkpt lat="48.20928" lon="-3.03045">
        <ele>206</ele>
        <time>2015-10-12T08:21:35.1Z</time>
      </trkpt>
      <trkpt lat="48.20931" lon="-3.03046">
        <ele>206</ele>
        <time>2015-10-12T08:21:37.1Z</time>
      </trkpt>
      <trkpt lat="48.20935" lon="-3.03047">
        <ele>206</ele>
        <time>2015-10-12T08:21:40.1Z</time>
      </trkpt>
      <trkpt lat="48.20937" lon="-3.03048">
        <ele>206</ele>
        <time>2015-10-12T08:21:42.1Z</time>
      </trkpt>
      <trkpt lat="48.20942" lon="-3.0305">
        <ele>206</ele>
        <time>2015-10-12T08:21:45.1Z</time>
      </trkpt>
      <trkpt lat="48.20945" lon="-3.03052">
        <ele>205</ele>
        <time>2015-10-12T08:21:48.1Z</time>
      </trkpt>
      <trkpt lat="48.20948" lon="-3.03052">
        <ele>205</ele>
        <time>2015-10-12T08:21:51.1Z</time>
      </trkpt>
      <trkpt lat="48.20953" lon="-3.03054">
        <ele>205</ele>
        <time>2015-10-12T08:21:54.1Z</time>
      </trkpt>
      <trkpt lat="48.20955" lon="-3.03056">
        <ele>205</ele>
        <time>2015-10-12T08:21:56.1Z</time>
      </trkpt>
      <trkpt lat="48.20958" lon="-3.03056">
        <ele>205</ele>
        <time>2015-10-12T08:21:59.1Z</time>
      </trkpt>
      <trkpt lat="48.20962" lon="-3.03058">
        <ele>205</ele>
        <time>2015-10-12T08:22:02.1Z</time>
      </trkpt>
      <trkpt lat="48.20966" lon="-3.0306">
        <ele>205</ele>
        <time>2015-10-12T08:22:05.1Z</time>
      </trkpt>
      <trkpt lat="48.20968" lon="-3.03061">
        <ele>205</ele>
        <time>2015-10-12T08:22:07.1Z</time>
      </trkpt>
      <trkpt lat="48.20972" lon="-3.03061">
        <ele>205</ele>
        <time>2015-10-12T08:22:10.1Z</time>
      </trkpt>
      <trkpt lat="48.20973" lon="-3.03058">
        <ele>205</ele>
        <time>2015-10-12T08:22:12.1Z</time>
      </trkpt>
      <trkpt lat="48.20973" lon="-3.03051">
        <ele>204</ele>
        <time>2015-10-12T08:22:15.1Z</time>
      </trkpt>
      <trkpt lat="48.20972" lon="-3.03045">
        <ele>204</ele>
        <time>2015-10-12T08:22:18.1Z</time>
      </trkpt>
      <trkpt lat="48.20972" lon="-3.0304">
        <ele>204</ele>
        <time>2015-10-12T08:22:21.1Z</time>
      </trkpt>
      <trkpt lat="48.20972" lon="-3.03036">
        <ele>204</ele>
        <time>2015-10-12T08:22:23.1Z</time>
      </trkpt>
      <trkpt lat="48.20971" lon="-3.03031">
        <ele>204</ele>
        <time>2015-10-12T08:22:26.1Z</time>
      </trkpt>
      <trkpt lat="48.2097" lon="-3.03027">
        <ele>203</ele>
        <time>2015-10-12T08:22:28.1Z</time>
      </trkpt>
      <trkpt lat="48.2097" lon="-3.03024">
        <ele>203</ele>
        <time>2015-10-12T08:22:30.1Z</time>
      </trkpt>
      <trkpt lat="48.2097" lon="-3.0302">
        <ele>203</ele>
        <time>2015-10-12T08:22:32.1Z</time>
      </trkpt>
      <trkpt lat="48.2097" lon="-3.03016">
        <ele>203</ele>
        <time>2015-10-12T08:22:35.1Z</time>
      </trkpt>
      <trkpt lat="48.2097" lon="-3.0301">
        <ele>203</ele>
        <time>2015-10-12T08:22:38.1Z</time>
      </trkpt>
      <trkpt lat="48.20971" lon="-3.03007">
        <ele>203</ele>
        <time>2015-10-12T08:22:40.1Z</time>
      </trkpt>
      <trkpt lat="48.20971" lon="-3.03002">
        <ele>203</ele>
        <time>2015-10-12T08:22:43.1Z</time>
      </trkpt>
      <trkpt lat="48.20971" lon="-3.02999">
        <ele>203</ele>
        <time>2015-10-12T08:22:45.1Z</time>
      </trkpt>
      <trkpt lat="48.20972" lon="-3.02995">
        <ele>202</ele>
        <time>2015-10-12T08:22:47.1Z</time>
      </trkpt>
      <trkpt lat="48.20972" lon="-3.0299">
        <ele>202</ele>
        <time>2015-10-12T08:22:50.1Z</time>
      </trkpt>
      <trkpt lat="48.20974" lon="-3.02985">
        <ele>202</ele>
        <time>2015-10-12T08:22:53.1Z</time>
      </trkpt>
      <trkpt lat="48.20974" lon="-3.02979">
        <ele>201</ele>
        <time>2015-10-12T08:22:56.1Z</time>
      </trkpt>
      <trkpt lat="48.20974" lon="-3.02975">
        <ele>201</ele>
        <time>2015-10-12T08:22:58.1Z</time>
      </trkpt>
      <trkpt lat="48.20975" lon="-3.02972">
        <ele>201</ele>
        <time>2015-10-12T08:23:00.1Z</time>
      </trkpt>
      <trkpt lat="48.20976" lon="-3.02965">
        <ele>201</ele>
        <time>2015-10-12T08:23:03.1Z</time>
      </trkpt>
      <trkpt lat="48.20975" lon="-3.02961">
        <ele>201</ele>
        <time>2015-10-12T08:23:06.1Z</time>
      </trkpt>
      <trkpt lat="48.20976" lon="-3.02957">
        <ele>200</ele>
        <time>2015-10-12T08:23:08.1Z</time>
      </trkpt>
      <trkpt lat="48.20977" lon="-3.02951">
        <ele>200</ele>
        <time>2015-10-12T08:23:11.1Z</time>
      </trkpt>
      <trkpt lat="48.20978" lon="-3.02946">
        <ele>200</ele>
        <time>2015-10-12T08:23:14.1Z</time>
      </trkpt>
      <trkpt lat="48.20978" lon="-3.02942">
        <ele>200</ele>
        <time>2015-10-12T08:23:16.1Z</time>
      </trkpt>
      <trkpt lat="48.20978" lon="-3.02937">
        <ele>199</ele>
        <time>2015-10-12T08:23:19.1Z</time>
      </trkpt>
      <trkpt lat="48.20978" lon="-3.02932">
        <ele>199</ele>
        <time>2015-10-12T08:23:22.1Z</time>
      </trkpt>
      <trkpt lat="48.20977" lon="-3.02928">
        <ele>198</ele>
        <time>2015-10-12T08:23:24.1Z</time>
      </trkpt>
      <trkpt lat="48.20977" lon="-3.02922">
        <ele>198</ele>
        <time>2015-10-12T08:23:27.1Z</time>
      </trkpt>
      <trkpt lat="48.20978" lon="-3.02919">
        <ele>198</ele>
        <time>2015-10-12T08:23:29.1Z</time>
      </trkpt>
      <trkpt lat="48.20977" lon="-3.02913">
        <ele>197</ele>
        <time>2015-10-12T08:23:32.1Z</time>
      </trkpt>
      <trkpt lat="48.20978" lon="-3.02909">
        <ele>197</ele>
        <time>2015-10-12T08:23:35.1Z</time>
      </trkpt>
      <trkpt lat="48.20977" lon="-3.02904">
        <ele>197</ele>
        <time>2015-10-12T08:23:38.1Z</time>
      </trkpt>
      <trkpt lat="48.20977" lon="-3.029">
        <ele>196</ele>
        <time>2015-10-12T08:23:40.1Z</time>
      </trkpt>
      <trkpt lat="48.20976" lon="-3.02893">
        <ele>195</ele>
        <time>2015-10-12T08:23:43.1Z</time>
      </trkpt>
      <trkpt lat="48.20976" lon="-3.02889">
        <ele>195</ele>
        <time>2015-10-12T08:23:46.1Z</time>
      </trkpt>
      <trkpt lat="48.20977" lon="-3.02885">
        <ele>194</ele>
        <time>2015-10-12T08:23:49.1Z</time>
      </trkpt>
      <trkpt lat="48.20978" lon="-3.02881">
        <ele>194</ele>
        <time>2015-10-12T08:23:51.1Z</time>
      </trkpt>
      <trkpt lat="48.20978" lon="-3.02876">
        <ele>194</ele>
        <time>2015-10-12T08:23:53.1Z</time>
      </trkpt>
      <trkpt lat="48.20979" lon="-3.02872">
        <ele>194</ele>
        <time>2015-10-12T08:23:55.1Z</time>
      </trkpt>
      <trkpt lat="48.2098" lon="-3.02868">
        <ele>193</ele>
        <time>2015-10-12T08:23:58.1Z</time>
      </trkpt>
      <trkpt lat="48.20982" lon="-3.02864">
        <ele>193</ele>
        <time>2015-10-12T08:24:01.1Z</time>
      </trkpt>
      <trkpt lat="48.20985" lon="-3.0286">
        <ele>192</ele>
        <time>2015-10-12T08:24:04.1Z</time>
      </trkpt>
      <trkpt lat="48.20986" lon="-3.02857">
        <ele>192</ele>
        <time>2015-10-12T08:24:07.1Z</time>
      </trkpt>
      <trkpt lat="48.20987" lon="-3.02853">
        <ele>192</ele>
        <time>2015-10-12T08:24:09.1Z</time>
      </trkpt>
      <trkpt lat="48.20987" lon="-3.02851">
        <ele>192</ele>
        <time>2015-10-12T08:24:11.1Z</time>
      </trkpt>
      <trkpt lat="48.20988" lon="-3.02849">
        <ele>191</ele>
        <time>2015-10-12T08:24:13.1Z</time>
      </trkpt>
      <trkpt lat="48.2099" lon="-3.02845">
        <ele>191</ele>
        <time>2015-10-12T08:24:16.1Z</time>
      </trkpt>
      <trkpt lat="48.20991" lon="-3.02841">
        <ele>191</ele>
        <time>2015-10-12T08:24:19.1Z</time>
      </trkpt>
      <trkpt lat="48.20992" lon="-3.02839">
        <ele>191</ele>
        <time>2015-10-12T08:24:21.1Z</time>
      </trkpt>
      <trkpt lat="48.20995" lon="-3.02836">
        <ele>190</ele>
        <time>2015-10-12T08:24:24.1Z</time>
      </trkpt>
      <trkpt lat="48.20996" lon="-3.02834">
        <ele>190</ele>
        <time>2015-10-12T08:24:26.1Z</time>
      </trkpt>
      <trkpt lat="48.20999" lon="-3.02831">
        <ele>190</ele>
        <time>2015-10-12T08:24:29.1Z</time>
      </trkpt>
      <trkpt lat="48.21001" lon="-3.02829">
        <ele>190</ele>
        <time>2015-10-12T08:24:31.1Z</time>
      </trkpt>
      <trkpt lat="48.21003" lon="-3.02826">
        <ele>190</ele>
        <time>2015-10-12T08:24:33.1Z</time>
      </trkpt>
      <trkpt lat="48.21006" lon="-3.02823">
        <ele>190</ele>
        <time>2015-10-12T08:24:36.1Z</time>
      </trkpt>
      <trkpt lat="48.21008" lon="-3.02822">
        <ele>189</ele>
        <time>2015-10-12T08:24:38.1Z</time>
      </trkpt>
      <trkpt lat="48.21012" lon="-3.02818">
        <ele>190</ele>
        <time>2015-10-12T08:24:41.1Z</time>
      </trkpt>
      <trkpt lat="48.21014" lon="-3.02815">
        <ele>189</ele>
        <time>2015-10-12T08:24:44.1Z</time>
      </trkpt>
      <trkpt lat="48.21016" lon="-3.02813">
        <ele>189</ele>
        <time>2015-10-12T08:24:46.1Z</time>
      </trkpt>
      <trkpt lat="48.21018" lon="-3.02809">
        <ele>189</ele>
        <time>2015-10-12T08:24:49.1Z</time>
      </trkpt>
      <trkpt lat="48.2102" lon="-3.02807">
        <ele>189</ele>
        <time>2015-10-12T08:24:51.1Z</time>
      </trkpt>
      <trkpt lat="48.21024" lon="-3.02804">
        <ele>188</ele>
        <time>2015-10-12T08:24:54.1Z</time>
      </trkpt>
      <trkpt lat="48.21027" lon="-3.02801">
        <ele>188</ele>
        <time>2015-10-12T08:24:56.1Z</time>
      </trkpt>
      <trkpt lat="48.2103" lon="-3.02799">
        <ele>188</ele>
        <time>2015-10-12T08:24:59.1Z</time>
      </trkpt>
      <trkpt lat="48.21032" lon="-3.02797">
        <ele>188</ele>
        <time>2015-10-12T08:25:01.1Z</time>
      </trkpt>
      <trkpt lat="48.21034" lon="-3.02794">
        <ele>188</ele>
        <time>2015-10-12T08:25:03.1Z</time>
      </trkpt>
      <trkpt lat="48.21037" lon="-3.02792">
        <ele>188</ele>
        <time>2015-10-12T08:25:06.1Z</time>
      </trkpt>
      <trkpt lat="48.2104" lon="-3.02788">
        <ele>187</ele>
        <time>2015-10-12T08:25:09.1Z</time>
      </trkpt>
      <trkpt lat="48.21042" lon="-3.02785">
        <ele>187</ele>
        <time>2015-10-12T08:25:11.1Z</time>
      </trkpt>
      <trkpt lat="48.21046" lon="-3.02781">
        <ele>187</ele>
        <time>2015-10-12T08:25:14.1Z</time>
      </trkpt>
      <trkpt lat="48.21047" lon="-3.02776">
        <ele>187</ele>
        <time>2015-10-12T08:25:17.1Z</time>
      </trkpt>
      <trkpt lat="48.21047" lon="-3.02771">
        <ele>186</ele>
        <time>2015-10-12T08:25:20.1Z</time>
      </trkpt>
      <trkpt lat="48.21047" lon="-3.02767">
        <ele>186</ele>
        <time>2015-10-12T08:25:23.1Z</time>
      </trkpt>
      <trkpt lat="48.21047" lon="-3.02763">
        <ele>185</ele>
        <time>2015-10-12T08:25:26.1Z</time>
      </trkpt>
      <trkpt lat="48.21048" lon="-3.02757">
        <ele>184</ele>
        <time>2015-10-12T08:25:29.1Z</time>
      </trkpt>
      <trkpt lat="48.21049" lon="-3.02754">
        <ele>184</ele>
        <time>2015-10-12T08:25:31.1Z</time>
      </trkpt>
      <trkpt lat="48.21048" lon="-3.0275">
        <ele>184</ele>
        <time>2015-10-12T08:25:33.1Z</time>
      </trkpt>
      <trkpt lat="48.21049" lon="-3.02747">
        <ele>183</ele>
        <time>2015-10-12T08:25:35.1Z</time>
      </trkpt>
      <trkpt lat="48.21048" lon="-3.02743">
        <ele>183</ele>
        <time>2015-10-12T08:25:38.1Z</time>
      </trkpt>
      <trkpt lat="48.21047" lon="-3.02739">
        <ele>182</ele>
        <time>2015-10-12T08:25:41.1Z</time>
      </trkpt>
      <trkpt lat="48.21046" lon="-3.02736">
        <ele>182</ele>
        <time>2015-10-12T08:25:43.1Z</time>
      </trkpt>
      <trkpt lat="48.21045" lon="-3.02731">
        <ele>181</ele>
        <time>2015-10-12T08:25:46.1Z</time>
      </trkpt>
      <trkpt lat="48.21045" lon="-3.02727">
        <ele>181</ele>
        <time>2015-10-12T08:25:48.1Z</time>
      </trkpt>
      <trkpt lat="48.21045" lon="-3.02723">
        <ele>181</ele>
        <time>2015-10-12T08:25:50.1Z</time>
      </trkpt>
      <trkpt lat="48.21046" lon="-3.02718">
        <ele>180</ele>
        <time>2015-10-12T08:25:53.1Z</time>
      </trkpt>
      <trkpt lat="48.21047" lon="-3.02712">
        <ele>180</ele>
        <time>2015-10-12T08:25:56.1Z</time>
      </trkpt>
      <trkpt lat="48.21048" lon="-3.02709">
        <ele>180</ele>
        <time>2015-10-12T08:25:58.1Z</time>
      </trkpt>
      <trkpt lat="48.21048" lon="-3.02705">
        <ele>180</ele>
        <time>2015-10-12T08:26:00.1Z</time>
      </trkpt>
      <trkpt lat="48.21048" lon="-3.02698">
        <ele>179</ele>
        <time>2015-10-12T08:26:03.1Z</time>
      </trkpt>
      <trkpt lat="48.21047" lon="-3.02694">
        <ele>179</ele>
        <time>2015-10-12T08:26:05.1Z</time>
      </trkpt>
      <trkpt lat="48.21047" lon="-3.02689">
        <ele>178</ele>
        <time>2015-10-12T08:26:08.1Z</time>
      </trkpt>
      <trkpt lat="48.21047" lon="-3.02683">
        <ele>178</ele>
        <time>2015-10-12T08:26:11.1Z</time>
      </trkpt>
      <trkpt lat="48.21046" lon="-3.02677">
        <ele>177</ele>
        <time>2015-10-12T08:26:14.1Z</time>
      </trkpt>
      <trkpt lat="48.21046" lon="-3.02671">
        <ele>177</ele>
        <time>2015-10-12T08:26:17.1Z</time>
      </trkpt>
      <trkpt lat="48.21046" lon="-3.02668">
        <ele>177</ele>
        <time>2015-10-12T08:26:19.1Z</time>
      </trkpt>
      <trkpt lat="48.21044" lon="-3.02663">
        <ele>177</ele>
        <time>2015-10-12T08:26:22.1Z</time>
      </trkpt>
      <trkpt lat="48.21043" lon="-3.02658">
        <ele>176</ele>
        <time>2015-10-12T08:26:25.1Z</time>
      </trkpt>
      <trkpt lat="48.21042" lon="-3.02652">
        <ele>176</ele>
        <time>2015-10-12T08:26:28.1Z</time>
      </trkpt>
      <trkpt lat="48.2104" lon="-3.02645">
        <ele>175</ele>
        <time>2015-10-12T08:26:31.1Z</time>
      </trkpt>
      <trkpt lat="48.2104" lon="-3.02639">
        <ele>175</ele>
        <time>2015-10-12T08:26:34.1Z</time>
      </trkpt>
      <trkpt lat="48.21038" lon="-3.02636">
        <ele>175</ele>
        <time>2015-10-12T08:26:36.1Z</time>
      </trkpt>
      <trkpt lat="48.21038" lon="-3.0263">
        <ele>175</ele>
        <time>2015-10-12T08:26:39.1Z</time>
      </trkpt>
      <trkpt lat="48.21038" lon="-3.02626">
        <ele>175</ele>
        <time>2015-10-12T08:26:42.1Z</time>
      </trkpt>
      <trkpt lat="48.21038" lon="-3.02623">
        <ele>175</ele>
        <time>2015-10-12T08:26:44.1Z</time>
      </trkpt>
      <trkpt lat="48.21036" lon="-3.02617">
        <ele>174</ele>
        <time>2015-10-12T08:26:47.1Z</time>
      </trkpt>
      <trkpt lat="48.21036" lon="-3.02612">
        <ele>174</ele>
        <time>2015-10-12T08:26:49.1Z</time>
      </trkpt>
      <trkpt lat="48.21035" lon="-3.02607">
        <ele>173</ele>
        <time>2015-10-12T08:26:52.1Z</time>
      </trkpt>
      <trkpt lat="48.21034" lon="-3.02604">
        <ele>173</ele>
        <time>2015-10-12T08:26:55.1Z</time>
      </trkpt>
      <trkpt lat="48.21034" lon="-3.02602">
        <ele>173</ele>
        <time>2015-10-12T08:26:58.1Z</time>
      </trkpt>
      <trkpt lat="48.21033" lon="-3.02601">
        <ele>172</ele>
        <time>2015-10-12T08:27:00.1Z</time>
      </trkpt>
      <trkpt lat="48.21032" lon="-3.02597">
        <ele>172</ele>
        <time>2015-10-12T08:27:03.1Z</time>
      </trkpt>
      <trkpt lat="48.21031" lon="-3.02594">
        <ele>172</ele>
        <time>2015-10-12T08:27:05.1Z</time>
      </trkpt>
      <trkpt lat="48.21029" lon="-3.02593">
        <ele>172</ele>
        <time>2015-10-12T08:27:07.1Z</time>
      </trkpt>
      <trkpt lat="48.21027" lon="-3.02591">
        <ele>173</ele>
        <time>2015-10-12T08:27:09.1Z</time>
      </trkpt>
      <trkpt lat="48.21024" lon="-3.02589">
        <ele>172</ele>
        <time>2015-10-12T08:27:12.1Z</time>
      </trkpt>
      <trkpt lat="48.2102" lon="-3.02587">
        <ele>172</ele>
        <time>2015-10-12T08:27:15.1Z</time>
      </trkpt>
      <trkpt lat="48.21018" lon="-3.02586">
        <ele>172</ele>
        <time>2015-10-12T08:27:17.1Z</time>
      </trkpt>
      <trkpt lat="48.21016" lon="-3.02583">
        <ele>172</ele>
        <time>2015-10-12T08:27:20.1Z</time>
      </trkpt>
      <trkpt lat="48.21014" lon="-3.02582">
        <ele>172</ele>
        <time>2015-10-12T08:27:22.1Z</time>
      </trkpt>
      <trkpt lat="48.21013" lon="-3.02582">
        <ele>172</ele>
        <time>2015-10-12T08:27:24.1Z</time>
      </trkpt>
      <trkpt lat="48.21012" lon="-3.02582">
        <ele>172</ele>
        <time>2015-10-12T08:27:26.1Z</time>
      </trkpt>
      <trkpt lat="48.21011" lon="-3.02583">
        <ele>173</ele>
        <time>2015-10-12T08:27:29.1Z</time>
      </trkpt>
      <trkpt lat="48.2101" lon="-3.02583">
        <ele>173</ele>
        <time>2015-10-12T08:27:32.1Z</time>
      </trkpt>
      <trkpt lat="48.2101" lon="-3.02583">
        <ele>172</ele>
        <time>2015-10-12T08:27:34.1Z</time>
      </trkpt>
      <trkpt lat="48.21009" lon="-3.02584">
        <ele>172</ele>
        <time>2015-10-12T08:27:37.1Z</time>
      </trkpt>
      <trkpt lat="48.21008" lon="-3.02585">
        <ele>172</ele>
        <time>2015-10-12T08:27:39.1Z</time>
      </trkpt>
      <trkpt lat="48.21007" lon="-3.02584">
        <ele>172</ele>
        <time>2015-10-12T08:27:42.1Z</time>
      </trkpt>
      <trkpt lat="48.21006" lon="-3.02583">
        <ele>172</ele>
        <time>2015-10-12T08:27:44.1Z</time>
      </trkpt>
      <trkpt lat="48.21005" lon="-3.02583">
        <ele>172</ele>
        <time>2015-10-12T08:27:47.1Z</time>
      </trkpt>
      <trkpt lat="48.21005" lon="-3.02583">
        <ele>172</ele>
        <time>2015-10-12T08:27:50.1Z</time>
      </trkpt>
      <trkpt lat="48.21003" lon="-3.02583">
        <ele>172</ele>
        <time>2015-10-12T08:27:52.1Z</time>
      </trkpt>
      <trkpt lat="48.21002" lon="-3.02583">
        <ele>172</ele>
        <time>2015-10-12T08:27:55.1Z</time>
      </trkpt>
      <trkpt lat="48.20998" lon="-3.02582">
        <ele>172</ele>
        <time>2015-10-12T08:27:58.1Z</time>
      </trkpt>
      <trkpt lat="48.20996" lon="-3.02582">
        <ele>172</ele>
        <time>2015-10-12T08:28:00.1Z</time>
      </trkpt>
      <trkpt lat="48.20993" lon="-3.02582">
        <ele>172</ele>
        <time>2015-10-12T08:28:03.1Z</time>
      </trkpt>
      <trkpt lat="48.20989" lon="-3.02581">
        <ele>171</ele>
        <time>2015-10-12T08:28:06.1Z</time>
      </trkpt>
      <trkpt lat="48.20986" lon="-3.0258">
        <ele>171</ele>
        <time>2015-10-12T08:28:09.1Z</time>
      </trkpt>
      <trkpt lat="48.20983" lon="-3.02579">
        <ele>171</ele>
        <time>2015-10-12T08:28:11.1Z</time>
      </trkpt>
      <trkpt lat="48.2098" lon="-3.02577">
        <ele>171</ele>
        <time>2015-10-12T08:28:14.1Z</time>
      </trkpt>
      <trkpt lat="48.20975" lon="-3.02576">
        <ele>171</ele>
        <time>2015-10-12T08:28:17.1Z</time>
      </trkpt>
      <trkpt lat="48.2097" lon="-3.02574">
        <ele>171</ele>
        <time>2015-10-12T08:28:20.1Z</time>
      </trkpt>
      <trkpt lat="48.20966" lon="-3.02572">
        <ele>171</ele>
        <time>2015-10-12T08:28:23.1Z</time>
      </trkpt>
      <trkpt lat="48.20961" lon="-3.0257">
        <ele>171</ele>
        <time>2015-10-12T08:28:26.1Z</time>
      </trkpt>
      <trkpt lat="48.20958" lon="-3.02567">
        <ele>171</ele>
        <time>2015-10-12T08:28:28.1Z</time>
      </trkpt>
      <trkpt lat="48.20955" lon="-3.02565">
        <ele>171</ele>
        <time>2015-10-12T08:28:31.1Z</time>
      </trkpt>
      <trkpt lat="48.20953" lon="-3.02563">
        <ele>171</ele>
        <time>2015-10-12T08:28:34.1Z</time>
      </trkpt>
      <trkpt lat="48.20951" lon="-3.0256">
        <ele>171</ele>
        <time>2015-10-12T08:28:37.1Z</time>
      </trkpt>
      <trkpt lat="48.20949" lon="-3.02558">
        <ele>171</ele>
        <time>2015-10-12T08:28:39.1Z</time>
      </trkpt>
      <trkpt lat="48.20947" lon="-3.02556">
        <ele>170</ele>
        <time>2015-10-12T08:28:42.1Z</time>
      </trkpt>
      <trkpt lat="48.20945" lon="-3.02553">
        <ele>170</ele>
        <time>2015-10-12T08:28:45.1Z</time>
      </trkpt>
      <trkpt lat="48.20944" lon="-3.0255">
        <ele>170</ele>
        <time>2015-10-12T08:28:47.1Z</time>
      </trkpt>
      <trkpt lat="48.20943" lon="-3.02547">
        <ele>170</ele>
        <time>2015-10-12T08:28:49.1Z</time>
      </trkpt>
      <trkpt lat="48.20942" lon="-3.02545">
        <ele>170</ele>
        <time>2015-10-12T08:28:51.1Z</time>
      </trkpt>
      <trkpt lat="48.20941" lon="-3.02543">
        <ele>170</ele>
        <time>2015-10-12T08:28:53.1Z</time>
      </trkpt>
      <trkpt lat="48.20939" lon="-3.0254">
        <ele>169</ele>
        <time>2015-10-12T08:28:56.1Z</time>
      </trkpt>
      <trkpt lat="48.20937" lon="-3.02537">
        <ele>169</ele>
        <time>2015-10-12T08:28:59.1Z</time>
      </trkpt>
      <trkpt lat="48.20935" lon="-3.02534">
        <ele>169</ele>
        <time>2015-10-12T08:29:02.1Z</time>
      </trkpt>
      <trkpt lat="48.20934" lon="-3.02532">
        <ele>169</ele>
        <time>2015-10-12T08:29:04.1Z</time>
      </trkpt>
      <trkpt lat="48.2093" lon="-3.02529">
        <ele>168</ele>
        <time>2015-10-12T08:29:07.1Z</time>
      </trkpt>
      <trkpt lat="48.20928" lon="-3.02525">
        <ele>168</ele>
        <time>2015-10-12T08:29:10.1Z</time>
      </trkpt>
      <trkpt lat="48.20925" lon="-3.0252">
        <ele>168</ele>
        <time>2015-10-12T08:29:13.1Z</time>
      </trkpt>
      <trkpt lat="48.20924" lon="-3.02514">
        <ele>168</ele>
        <time>2015-10-12T08:29:16.1Z</time>
      </trkpt>
      <trkpt lat="48.20924" lon="-3.0251">
        <ele>168</ele>
        <time>2015-10-12T08:29:18.1Z</time>
      </trkpt>
      <trkpt lat="48.20923" lon="-3.02504">
        <ele>168</ele>
        <time>2015-10-12T08:29:21.1Z</time>
      </trkpt>
      <trkpt lat="48.20922" lon="-3.02501">
        <ele>167</ele>
        <time>2015-10-12T08:29:23.1Z</time>
      </trkpt>
      <trkpt lat="48.20921" lon="-3.02497">
        <ele>167</ele>
        <time>2015-10-12T08:29:26.1Z</time>
      </trkpt>
      <trkpt lat="48.20919" lon="-3.02493">
        <ele>167</ele>
        <time>2015-10-12T08:29:28.1Z</time>
      </trkpt>
      <trkpt lat="48.20918" lon="-3.02489">
        <ele>167</ele>
        <time>2015-10-12T08:29:31.1Z</time>
      </trkpt>
      <trkpt lat="48.20918" lon="-3.02486">
        <ele>167</ele>
        <time>2015-10-12T08:29:33.1Z</time>
      </trkpt>
      <trkpt lat="48.20917" lon="-3.02483">
        <ele>167</ele>
        <time>2015-10-12T08:29:35.1Z</time>
      </trkpt>
      <trkpt lat="48.20916" lon="-3.02478">
        <ele>167</ele>
        <time>2015-10-12T08:29:38.1Z</time>
      </trkpt>
      <trkpt lat="48.20915" lon="-3.02475">
        <ele>167</ele>
        <time>2015-10-12T08:29:40.1Z</time>
      </trkpt>
      <trkpt lat="48.20913" lon="-3.02472">
        <ele>167</ele>
        <time>2015-10-12T08:29:42.1Z</time>
      </trkpt>
      <trkpt lat="48.20911" lon="-3.02468">
        <ele>167</ele>
        <time>2015-10-12T08:29:45.1Z</time>
      </trkpt>
      <trkpt lat="48.20908" lon="-3.02463">
        <ele>168</ele>
        <time>2015-10-12T08:29:48.1Z</time>
      </trkpt>
      <trkpt lat="48.20906" lon="-3.02458">
        <ele>168</ele>
        <time>2015-10-12T08:29:51.1Z</time>
      </trkpt>
      <trkpt lat="48.20906" lon="-3.02454">
        <ele>167</ele>
        <time>2015-10-12T08:29:53.1Z</time>
      </trkpt>
      <trkpt lat="48.20905" lon="-3.02451">
        <ele>167</ele>
        <time>2015-10-12T08:29:55.1Z</time>
      </trkpt>
      <trkpt lat="48.20903" lon="-3.02444">
        <ele>168</ele>
        <time>2015-10-12T08:29:58.1Z</time>
      </trkpt>
      <trkpt lat="48.20902" lon="-3.02442">
        <ele>168</ele>
        <time>2015-10-12T08:30:00.1Z</time>
      </trkpt>
      <trkpt lat="48.20901" lon="-3.02437">
        <ele>168</ele>
        <time>2015-10-12T08:30:03.1Z</time>
      </trkpt>
      <trkpt lat="48.209" lon="-3.02432">
        <ele>169</ele>
        <time>2015-10-12T08:30:06.1Z</time>
      </trkpt>
      <trkpt lat="48.20899" lon="-3.02428">
        <ele>169</ele>
        <time>2015-10-12T08:30:08.1Z</time>
      </trkpt>
      <trkpt lat="48.20899" lon="-3.02424">
        <ele>169</ele>
        <time>2015-10-12T08:30:10.1Z</time>
      </trkpt>
      <trkpt lat="48.20898" lon="-3.02419">
        <ele>169</ele>
        <time>2015-10-12T08:30:13.1Z</time>
      </trkpt>
      <trkpt lat="48.20896" lon="-3.02415">
        <ele>169</ele>
        <time>2015-10-12T08:30:15.1Z</time>
      </trkpt>
      <trkpt lat="48.20895" lon="-3.02411">
        <ele>169</ele>
        <time>2015-10-12T08:30:18.1Z</time>
      </trkpt>
      <trkpt lat="48.20893" lon="-3.02406">
        <ele>169</ele>
        <time>2015-10-12T08:30:21.1Z</time>
      </trkpt>
      <trkpt lat="48.20892" lon="-3.02402">
        <ele>169</ele>
        <time>2015-10-12T08:30:23.1Z</time>
      </trkpt>
      <trkpt lat="48.2089" lon="-3.02397">
        <ele>169</ele>
        <time>2015-10-12T08:30:26.1Z</time>
      </trkpt>
      <trkpt lat="48.20888" lon="-3.02394">
        <ele>169</ele>
        <time>2015-10-12T08:30:28.1Z</time>
      </trkpt>
      <trkpt lat="48.20887" lon="-3.02391">
        <ele>169</ele>
        <time>2015-10-12T08:30:30.1Z</time>
      </trkpt>
      <trkpt lat="48.20885" lon="-3.02387">
        <ele>169</ele>
        <time>2015-10-12T08:30:33.1Z</time>
      </trkpt>
      <trkpt lat="48.20884" lon="-3.02381">
        <ele>169</ele>
        <time>2015-10-12T08:30:36.1Z</time>
      </trkpt>
      <trkpt lat="48.20884" lon="-3.02378">
        <ele>169</ele>
        <time>2015-10-12T08:30:39.1Z</time>
      </trkpt>
      <trkpt lat="48.20882" lon="-3.02375">
        <ele>169</ele>
        <time>2015-10-12T08:30:41.1Z</time>
      </trkpt>
      <trkpt lat="48.2088" lon="-3.02371">
        <ele>169</ele>
        <time>2015-10-12T08:30:44.1Z</time>
      </trkpt>
      <trkpt lat="48.20878" lon="-3.02367">
        <ele>169</ele>
        <time>2015-10-12T08:30:47.1Z</time>
      </trkpt>
      <trkpt lat="48.20876" lon="-3.02362">
        <ele>169</ele>
        <time>2015-10-12T08:30:50.1Z</time>
      </trkpt>
      <trkpt lat="48.20874" lon="-3.02359">
        <ele>169</ele>
        <time>2015-10-12T08:30:52.1Z</time>
      </trkpt>
      <trkpt lat="48.20873" lon="-3.02355">
        <ele>169</ele>
        <time>2015-10-12T08:30:55.1Z</time>
      </trkpt>
      <trkpt lat="48.2087" lon="-3.0235">
        <ele>169</ele>
        <time>2015-10-12T08:30:58.1Z</time>
      </trkpt>
      <trkpt lat="48.20868" lon="-3.02346">
        <ele>169</ele>
        <time>2015-10-12T08:31:01.1Z</time>
      </trkpt>
      <trkpt lat="48.20866" lon="-3.0234">
        <ele>169</ele>
        <time>2015-10-12T08:31:04.1Z</time>
      </trkpt>
      <trkpt lat="48.20864" lon="-3.02337">
        <ele>169</ele>
        <time>2015-10-12T08:31:06.1Z</time>
      </trkpt>
      <trkpt lat="48.20862" lon="-3.02334">
        <ele>169</ele>
        <time>2015-10-12T08:31:08.1Z</time>
      </trkpt>
      <trkpt lat="48.20861" lon="-3.0233">
        <ele>169</ele>
        <time>2015-10-12T08:31:11.1Z</time>
      </trkpt>
      <trkpt lat="48.20859" lon="-3.02325">
        <ele>169</ele>
        <time>2015-10-12T08:31:14.1Z</time>
      </trkpt>
      <trkpt lat="48.20858" lon="-3.02322">
        <ele>169</ele>
        <time>2015-10-12T08:31:16.1Z</time>
      </trkpt>
      <trkpt lat="48.20857" lon="-3.02319">
        <ele>169</ele>
        <time>2015-10-12T08:31:18.1Z</time>
      </trkpt>
      <trkpt lat="48.20855" lon="-3.02315">
        <ele>169</ele>
        <time>2015-10-12T08:31:20.1Z</time>
      </trkpt>
      <trkpt lat="48.20853" lon="-3.0231">
        <ele>168</ele>
        <time>2015-10-12T08:31:23.1Z</time>
      </trkpt>
      <trkpt lat="48.2085" lon="-3.02304">
        <ele>168</ele>
        <time>2015-10-12T08:31:26.1Z</time>
      </trkpt>
      <trkpt lat="48.20848" lon="-3.02299">
        <ele>168</ele>
        <time>2015-10-12T08:31:29.1Z</time>
      </trkpt>
      <trkpt lat="48.20847" lon="-3.02295">
        <ele>169</ele>
        <time>2015-10-12T08:31:32.1Z</time>
      </trkpt>
      <trkpt lat="48.20845" lon="-3.02292">
        <ele>169</ele>
        <time>2015-10-12T08:31:35.1Z</time>
      </trkpt>
      <trkpt lat="48.20845" lon="-3.02289">
        <ele>169</ele>
        <time>2015-10-12T08:31:37.1Z</time>
      </trkpt>
      <trkpt lat="48.20844" lon="-3.02287">
        <ele>169</ele>
        <time>2015-10-12T08:31:39.1Z</time>
      </trkpt>
      <trkpt lat="48.20843" lon="-3.02284">
        <ele>169</ele>
        <time>2015-10-12T08:31:42.1Z</time>
      </trkpt>
      <trkpt lat="48.20842" lon="-3.02282">
        <ele>169</ele>
        <time>2015-10-12T08:31:44.1Z</time>
      </trkpt>
      <trkpt lat="48.2084" lon="-3.02278">
        <ele>169</ele>
        <time>2015-10-12T08:31:47.1Z</time>
      </trkpt>
      <trkpt lat="48.20839" lon="-3.02275">
        <ele>169</ele>
        <time>2015-10-12T08:31:49.1Z</time>
      </trkpt>
      <trkpt lat="48.20837" lon="-3.02273">
        <ele>169</ele>
        <time>2015-10-12T08:31:51.1Z</time>
      </trkpt>
      <trkpt lat="48.20835" lon="-3.02271">
        <ele>169</ele>
        <time>2015-10-12T08:31:53.1Z</time>
      </trkpt>
      <trkpt lat="48.20833" lon="-3.02267">
        <ele>169</ele>
        <time>2015-10-12T08:31:56.1Z</time>
      </trkpt>
      <trkpt lat="48.20831" lon="-3.02263">
        <ele>169</ele>
        <time>2015-10-12T08:31:58.1Z</time>
      </trkpt>
      <trkpt lat="48.20829" lon="-3.02261">
        <ele>169</ele>
        <time>2015-10-12T08:32:00.1Z</time>
      </trkpt>
      <trkpt lat="48.20825" lon="-3.02257">
        <ele>169</ele>
        <time>2015-10-12T08:32:03.1Z</time>
      </trkpt>
      <trkpt lat="48.20824" lon="-3.02253">
        <ele>169</ele>
        <time>2015-10-12T08:32:06.1Z</time>
      </trkpt>
      <trkpt lat="48.20821" lon="-3.02247">
        <ele>169</ele>
        <time>2015-10-12T08:32:09.1Z</time>
      </trkpt>
      <trkpt lat="48.20821" lon="-3.02244">
        <ele>169</ele>
        <time>2015-10-12T08:32:11.1Z</time>
      </trkpt>
      <trkpt lat="48.2082" lon="-3.02239">
        <ele>169</ele>
        <time>2015-10-12T08:32:14.1Z</time>
      </trkpt>
      <trkpt lat="48.20818" lon="-3.02234">
        <ele>170</ele>
        <time>2015-10-12T08:32:17.1Z</time>
      </trkpt>
      <trkpt lat="48.20817" lon="-3.02228">
        <ele>170</ele>
        <time>2015-10-12T08:32:20.1Z</time>
      </trkpt>
      <trkpt lat="48.20816" lon="-3.02225">
        <ele>170</ele>
        <time>2015-10-12T08:32:22.1Z</time>
      </trkpt>
      <trkpt lat="48.20814" lon="-3.02222">
        <ele>170</ele>
        <time>2015-10-12T08:32:25.1Z</time>
      </trkpt>
      <trkpt lat="48.20812" lon="-3.02218">
        <ele>170</ele>
        <time>2015-10-12T08:32:28.1Z</time>
      </trkpt>
      <trkpt lat="48.2081" lon="-3.02215">
        <ele>170</ele>
        <time>2015-10-12T08:32:31.1Z</time>
      </trkpt>
      <trkpt lat="48.20809" lon="-3.02212">
        <ele>170</ele>
        <time>2015-10-12T08:32:34.1Z</time>
      </trkpt>
      <trkpt lat="48.20808" lon="-3.02209">
        <ele>170</ele>
        <time>2015-10-12T08:32:37.1Z</time>
      </trkpt>
      <trkpt lat="48.2081" lon="-3.02206">
        <ele>170</ele>
        <time>2015-10-12T08:32:40.1Z</time>
      </trkpt>
      <trkpt lat="48.2081" lon="-3.02203">
        <ele>169</ele>
        <time>2015-10-12T08:32:43.1Z</time>
      </trkpt>
      <trkpt lat="48.2081" lon="-3.022">
        <ele>169</ele>
        <time>2015-10-12T08:32:45.1Z</time>
      </trkpt>
      <trkpt lat="48.2081" lon="-3.02197">
        <ele>168</ele>
        <time>2015-10-12T08:32:48.1Z</time>
      </trkpt>
      <trkpt lat="48.20812" lon="-3.02192">
        <ele>167</ele>
        <time>2015-10-12T08:32:51.1Z</time>
      </trkpt>
      <trkpt lat="48.20812" lon="-3.02189">
        <ele>167</ele>
        <time>2015-10-12T08:32:53.1Z</time>
      </trkpt>
      <trkpt lat="48.20813" lon="-3.02186">
        <ele>167</ele>
        <time>2015-10-12T08:32:56.1Z</time>
      </trkpt>
      <trkpt lat="48.20811" lon="-3.02183">
        <ele>167</ele>
        <time>2015-10-12T08:32:59.1Z</time>
      </trkpt>
      <trkpt lat="48.2081" lon="-3.02181">
        <ele>167</ele>
        <time>2015-10-12T08:33:01.1Z</time>
      </trkpt>
      <trkpt lat="48.20811" lon="-3.02179">
        <ele>167</ele>
        <time>2015-10-12T08:33:03.1Z</time>
      </trkpt>
      <trkpt lat="48.20811" lon="-3.02177">
        <ele>167</ele>
        <time>2015-10-12T08:33:05.1Z</time>
      </trkpt>
      <trkpt lat="48.2081" lon="-3.02174">
        <ele>167</ele>
        <time>2015-10-12T08:33:08.1Z</time>
      </trkpt>
      <trkpt lat="48.20809" lon="-3.02171">
        <ele>167</ele>
        <time>2015-10-12T08:33:11.1Z</time>
      </trkpt>
      <trkpt lat="48.20807" lon="-3.02168">
        <ele>167</ele>
        <time>2015-10-12T08:33:14.1Z</time>
      </trkpt>
      <trkpt lat="48.20805" lon="-3.02165">
        <ele>166</ele>
        <time>2015-10-12T08:33:16.1Z</time>
      </trkpt>
      <trkpt lat="48.20803" lon="-3.02161">
        <ele>167</ele>
        <time>2015-10-12T08:33:19.1Z</time>
      </trkpt>
      <trkpt lat="48.20801" lon="-3.02156">
        <ele>167</ele>
        <time>2015-10-12T08:33:22.1Z</time>
      </trkpt>
      <trkpt lat="48.208" lon="-3.02154">
        <ele>166</ele>
        <time>2015-10-12T08:33:24.1Z</time>
      </trkpt>
      <trkpt lat="48.208" lon="-3.0215">
        <ele>166</ele>
        <time>2015-10-12T08:33:27.1Z</time>
      </trkpt>
      <trkpt lat="48.208" lon="-3.02145">
        <ele>166</ele>
        <time>2015-10-12T08:33:30.1Z</time>
      </trkpt>
      <trkpt lat="48.208" lon="-3.02142">
        <ele>166</ele>
        <time>2015-10-12T08:33:32.1Z</time>
      </trkpt>
      <trkpt lat="48.20799" lon="-3.02138">
        <ele>166</ele>
        <time>2015-10-12T08:33:34.1Z</time>
      </trkpt>
      <trkpt lat="48.20797" lon="-3.02135">
        <ele>166</ele>
        <time>2015-10-12T08:33:36.1Z</time>
      </trkpt>
      <trkpt lat="48.20794" lon="-3.02131">
        <ele>167</ele>
        <time>2015-10-12T08:33:39.1Z</time>
      </trkpt>
      <trkpt lat="48.20792" lon="-3.0213">
        <ele>166</ele>
        <time>2015-10-12T08:33:41.1Z</time>
      </trkpt>
      <trkpt lat="48.20789" lon="-3.02127">
        <ele>167</ele>
        <time>2015-10-12T08:33:44.1Z</time>
      </trkpt>
      <trkpt lat="48.20787" lon="-3.02125">
        <ele>166</ele>
        <time>2015-10-12T08:33:46.1Z</time>
      </trkpt>
      <trkpt lat="48.20784" lon="-3.02121">
        <ele>167</ele>
        <time>2015-10-12T08:33:49.1Z</time>
      </trkpt>
      <trkpt lat="48.20783" lon="-3.02119">
        <ele>167</ele>
        <time>2015-10-12T08:33:51.1Z</time>
      </trkpt>
      <trkpt lat="48.20782" lon="-3.02117">
        <ele>167</ele>
        <time>2015-10-12T08:33:53.1Z</time>
      </trkpt>
      <trkpt lat="48.20781" lon="-3.02115">
        <ele>167</ele>
        <time>2015-10-12T08:33:55.1Z</time>
      </trkpt>
      <trkpt lat="48.20779" lon="-3.02113">
        <ele>167</ele>
        <time>2015-10-12T08:33:58.1Z</time>
      </trkpt>
      <trkpt lat="48.20778" lon="-3.02109">
        <ele>167</ele>
        <time>2015-10-12T08:34:01.1Z</time>
      </trkpt>
      <trkpt lat="48.20776" lon="-3.02105">
        <ele>167</ele>
        <time>2015-10-12T08:34:03.1Z</time>
      </trkpt>
      <trkpt lat="48.20773" lon="-3.021">
        <ele>167</ele>
        <time>2015-10-12T08:34:06.1Z</time>
      </trkpt>
      <trkpt lat="48.20771" lon="-3.02096">
        <ele>167</ele>
        <time>2015-10-12T08:34:09.1Z</time>
      </trkpt>
      <trkpt lat="48.20769" lon="-3.02094">
        <ele>167</ele>
        <time>2015-10-12T08:34:11.1Z</time>
      </trkpt>
      <trkpt lat="48.20768" lon="-3.02091">
        <ele>167</ele>
        <time>2015-10-12T08:34:14.1Z</time>
      </trkpt>
      <trkpt lat="48.20766" lon="-3.02089">
        <ele>167</ele>
        <time>2015-10-12T08:34:16.1Z</time>
      </trkpt>
      <trkpt lat="48.20764" lon="-3.02086">
        <ele>167</ele>
        <time>2015-10-12T08:34:19.1Z</time>
      </trkpt>
      <trkpt lat="48.20762" lon="-3.02084">
        <ele>168</ele>
        <time>2015-10-12T08:34:21.1Z</time>
      </trkpt>
      <trkpt lat="48.2076" lon="-3.0208">
        <ele>168</ele>
        <time>2015-10-12T08:34:24.1Z</time>
      </trkpt>
      <trkpt lat="48.20756" lon="-3.02076">
        <ele>168</ele>
        <time>2015-10-12T08:34:27.1Z</time>
      </trkpt>
      <trkpt lat="48.20753" lon="-3.02072">
        <ele>168</ele>
        <time>2015-10-12T08:34:30.1Z</time>
      </trkpt>
      <trkpt lat="48.20752" lon="-3.02069">
        <ele>168</ele>
        <time>2015-10-12T08:34:32.1Z</time>
      </trkpt>
      <trkpt lat="48.2075" lon="-3.02065">
        <ele>168</ele>
        <time>2015-10-12T08:34:35.1Z</time>
      </trkpt>
      <trkpt lat="48.20749" lon="-3.02062">
        <ele>168</ele>
        <time>2015-10-12T08:34:37.1Z</time>
      </trkpt>
      <trkpt lat="48.20749" lon="-3.02058">
        <ele>168</ele>
        <time>2015-10-12T08:34:39.1Z</time>
      </trkpt>
      <trkpt lat="48.20748" lon="-3.02054">
        <ele>168</ele>
        <time>2015-10-12T08:34:42.1Z</time>
      </trkpt>
      <trkpt lat="48.20749" lon="-3.02051">
        <ele>167</ele>
        <time>2015-10-12T08:34:45.1Z</time>
      </trkpt>
      <trkpt lat="48.2075" lon="-3.02049">
        <ele>167</ele>
        <time>2015-10-12T08:34:47.1Z</time>
      </trkpt>
      <trkpt lat="48.20751" lon="-3.02047">
        <ele>167</ele>
        <time>2015-10-12T08:34:49.1Z</time>
      </trkpt>
      <trkpt lat="48.20752" lon="-3.02044">
        <ele>167</ele>
        <time>2015-10-12T08:34:52.1Z</time>
      </trkpt>
      <trkpt lat="48.20752" lon="-3.02042">
        <ele>167</ele>
        <time>2015-10-12T08:34:54.1Z</time>
      </trkpt>
      <trkpt lat="48.20752" lon="-3.0204">
        <ele>166</ele>
        <time>2015-10-12T08:34:57.1Z</time>
      </trkpt>
      <trkpt lat="48.20752" lon="-3.02038">
        <ele>167</ele>
        <time>2015-10-12T08:34:59.1Z</time>
      </trkpt>
      <trkpt lat="48.2075" lon="-3.02035">
        <ele>167</ele>
        <time>2015-10-12T08:35:02.1Z</time>
      </trkpt>
      <trkpt lat="48.20748" lon="-3.02034">
        <ele>167</ele>
        <time>2015-10-12T08:35:04.1Z</time>
      </trkpt>
      <trkpt lat="48.20746" lon="-3.0203">
        <ele>167</ele>
        <time>2015-10-12T08:35:07.1Z</time>
      </trkpt>
      <trkpt lat="48.20744" lon="-3.02026">
        <ele>166</ele>
        <time>2015-10-12T08:35:10.1Z</time>
      </trkpt>
      <trkpt lat="48.20743" lon="-3.02024">
        <ele>166</ele>
        <time>2015-10-12T08:35:12.1Z</time>
      </trkpt>
      <trkpt lat="48.2074" lon="-3.02021">
        <ele>166</ele>
        <time>2015-10-12T08:35:15.1Z</time>
      </trkpt>
      <trkpt lat="48.20739" lon="-3.02017">
        <ele>166</ele>
        <time>2015-10-12T08:35:18.1Z</time>
      </trkpt>
      <trkpt lat="48.20739" lon="-3.02015">
        <ele>166</ele>
        <time>2015-10-12T08:35:20.1Z</time>
      </trkpt>
      <trkpt lat="48.20739" lon="-3.02015">
        <ele>166</ele>
        <time>2015-10-12T08:35:22.1Z</time>
      </trkpt>
      <trkpt lat="48.2074" lon="-3.02014">
        <ele>166</ele>
        <time>2015-10-12T08:35:25.1Z</time>
      </trkpt>
      <trkpt lat="48.20741" lon="-3.02015">
        <ele>166</ele>
        <time>2015-10-12T08:35:27.1Z</time>
      </trkpt>
      <trkpt lat="48.20742" lon="-3.02013">
        <ele>166</ele>
        <time>2015-10-12T08:35:29.1Z</time>
      </trkpt>
      <trkpt lat="48.20746" lon="-3.02011">
        <ele>166</ele>
        <time>2015-10-12T08:35:32.1Z</time>
      </trkpt>
      <trkpt lat="48.20747" lon="-3.02009">
        <ele>165</ele>
        <time>2015-10-12T08:35:35.1Z</time>
      </trkpt>
      <trkpt lat="48.20747" lon="-3.02007">
        <ele>165</ele>
        <time>2015-10-12T08:35:38.1Z</time>
      </trkpt>
      <trkpt lat="48.20747" lon="-3.02005">
        <ele>165</ele>
        <time>2015-10-12T08:35:40.1Z</time>
      </trkpt>
      <trkpt lat="48.20745" lon="-3.02001">
        <ele>165</ele>
        <time>2015-10-12T08:35:43.1Z</time>
      </trkpt>
      <trkpt lat="48.20743" lon="-3.01997">
        <ele>164</ele>
        <time>2015-10-12T08:35:45.1Z</time>
      </trkpt>
      <trkpt lat="48.20741" lon="-3.01994">
        <ele>164</ele>
        <time>2015-10-12T08:35:47.1Z</time>
      </trkpt>
      <trkpt lat="48.20738" lon="-3.01991">
        <ele>164</ele>
        <time>2015-10-12T08:35:50.1Z</time>
      </trkpt>
      <trkpt lat="48.20736" lon="-3.01988">
        <ele>164</ele>
        <time>2015-10-12T08:35:52.1Z</time>
      </trkpt>
      <trkpt lat="48.20734" lon="-3.01986">
        <ele>164</ele>
        <time>2015-10-12T08:35:55.1Z</time>
      </trkpt>
      <trkpt lat="48.20733" lon="-3.01985">
        <ele>164</ele>
        <time>2015-10-12T08:35:58.1Z</time>
      </trkpt>
      <trkpt lat="48.20732" lon="-3.01985">
        <ele>164</ele>
        <time>2015-10-12T08:36:00.1Z</time>
      </trkpt>
      <trkpt lat="48.20732" lon="-3.01985">
        <ele>164</ele>
        <time>2015-10-12T08:36:02.1Z</time>
      </trkpt>
      <trkpt lat="48.20732" lon="-3.01985">
        <ele>164</ele>
        <time>2015-10-12T08:36:04.1Z</time>
      </trkpt>
      <trkpt lat="48.20732" lon="-3.01985">
        <ele>164</ele>
        <time>2015-10-12T08:36:07.1Z</time>
      </trkpt>
      <trkpt lat="48.20732" lon="-3.01986">
        <ele>164</ele>
        <time>2015-10-12T08:36:09.1Z</time>
      </trkpt>
      <trkpt lat="48.20732" lon="-3.01986">
        <ele>164</ele>
        <time>2015-10-12T08:36:11.1Z</time>
      </trkpt>
      <trkpt lat="48.20733" lon="-3.01987">
        <ele>164</ele>
        <time>2015-10-12T08:36:14.1Z</time>
      </trkpt>
      <trkpt lat="48.20732" lon="-3.01987">
        <ele>164</ele>
        <time>2015-10-12T08:36:16.1Z</time>
      </trkpt>
      <trkpt lat="48.20732" lon="-3.01988">
        <ele>164</ele>
        <time>2015-10-12T08:36:19.1Z</time>
      </trkpt>
      <trkpt lat="48.20732" lon="-3.01988">
        <ele>164</ele>
        <time>2015-10-12T08:36:21.1Z</time>
      </trkpt>
      <trkpt lat="48.20733" lon="-3.01989">
        <ele>163</ele>
        <time>2015-10-12T08:36:24.1Z</time>
      </trkpt>
      <trkpt lat="48.20733" lon="-3.01988">
        <ele>163</ele>
        <time>2015-10-12T08:36:28.1Z</time>
      </trkpt>
      <trkpt lat="48.20733" lon="-3.01988">
        <ele>164</ele>
        <time>2015-10-12T08:36:30.1Z</time>
      </trkpt>
      <trkpt lat="48.20733" lon="-3.01988">
        <ele>164</ele>
        <time>2015-10-12T08:36:33.1Z</time>
      </trkpt>
      <trkpt lat="48.20733" lon="-3.01986">
        <ele>164</ele>
        <time>2015-10-12T08:36:36.1Z</time>
      </trkpt>
      <trkpt lat="48.20733" lon="-3.01985">
        <ele>164</ele>
        <time>2015-10-12T08:36:39.1Z</time>
      </trkpt>
      <trkpt lat="48.20732" lon="-3.01984">
        <ele>165</ele>
        <time>2015-10-12T08:36:41.1Z</time>
      </trkpt>
      <trkpt lat="48.20732" lon="-3.01984">
        <ele>165</ele>
        <time>2015-10-12T08:36:44.1Z</time>
      </trkpt>
      <trkpt lat="48.20732" lon="-3.01985">
        <ele>165</ele>
        <time>2015-10-12T08:36:47.1Z</time>
      </trkpt>
      <trkpt lat="48.20732" lon="-3.01986">
        <ele>165</ele>
        <time>2015-10-12T08:36:49.1Z</time>
      </trkpt>
      <trkpt lat="48.20731" lon="-3.01986">
        <ele>165</ele>
        <time>2015-10-12T08:36:52.1Z</time>
      </trkpt>
      <trkpt lat="48.20731" lon="-3.01987">
        <ele>165</ele>
        <time>2015-10-12T08:36:55.1Z</time>
      </trkpt>
      <trkpt lat="48.2073" lon="-3.01987">
        <ele>165</ele>
        <time>2015-10-12T08:36:58.1Z</time>
      </trkpt>
      <trkpt lat="48.2073" lon="-3.01988">
        <ele>165</ele>
        <time>2015-10-12T08:37:00.1Z</time>
      </trkpt>
      <trkpt lat="48.20731" lon="-3.01988">
        <ele>165</ele>
        <time>2015-10-12T08:37:03.1Z</time>
      </trkpt>
      <trkpt lat="48.2073" lon="-3.01988">
        <ele>165</ele>
        <time>2015-10-12T08:37:05.1Z</time>
      </trkpt>
      <trkpt lat="48.20729" lon="-3.01989">
        <ele>164</ele>
        <time>2015-10-12T08:37:08.1Z</time>
      </trkpt>
      <trkpt lat="48.2073" lon="-3.0199">
        <ele>164</ele>
        <time>2015-10-12T08:37:11.1Z</time>
      </trkpt>
      <trkpt lat="48.2073" lon="-3.0199">
        <ele>164</ele>
        <time>2015-10-12T08:37:15.1Z</time>
      </trkpt>
      <trkpt lat="48.2073" lon="-3.01991">
        <ele>164</ele>
        <time>2015-10-12T08:37:17.1Z</time>
      </trkpt>
      <trkpt lat="48.20731" lon="-3.0199">
        <ele>164</ele>
        <time>2015-10-12T08:37:20.1Z</time>
      </trkpt>
      <trkpt lat="48.20729" lon="-3.01988">
        <ele>164</ele>
        <time>2015-10-12T08:37:23.1Z</time>
      </trkpt>
      <trkpt lat="48.20728" lon="-3.01987">
        <ele>164</ele>
        <time>2015-10-12T08:37:25.1Z</time>
      </trkpt>
      <trkpt lat="48.20726" lon="-3.01989">
        <ele>164</ele>
        <time>2015-10-12T08:37:28.1Z</time>
      </trkpt>
      <trkpt lat="48.20726" lon="-3.0199">
        <ele>164</ele>
        <time>2015-10-12T08:37:30.1Z</time>
      </trkpt>
      <trkpt lat="48.20723" lon="-3.0199">
        <ele>165</ele>
        <time>2015-10-12T08:37:32.1Z</time>
      </trkpt>
      <trkpt lat="48.20722" lon="-3.0199">
        <ele>166</ele>
        <time>2015-10-12T08:37:35.1Z</time>
      </trkpt>
      <trkpt lat="48.20721" lon="-3.01989">
        <ele>166</ele>
        <time>2015-10-12T08:37:37.1Z</time>
      </trkpt>
      <trkpt lat="48.2072" lon="-3.01987">
        <ele>167</ele>
        <time>2015-10-12T08:37:40.1Z</time>
      </trkpt>
      <trkpt lat="48.2072" lon="-3.01985">
        <ele>166</ele>
        <time>2015-10-12T08:37:43.1Z</time>
      </trkpt>
      <trkpt lat="48.20718" lon="-3.01983">
        <ele>166</ele>
        <time>2015-10-12T08:37:46.1Z</time>
      </trkpt>
      <trkpt lat="48.20718" lon="-3.01981">
        <ele>166</ele>
        <time>2015-10-12T08:37:48.1Z</time>
      </trkpt>
      <trkpt lat="48.20717" lon="-3.01979">
        <ele>166</ele>
        <time>2015-10-12T08:37:51.1Z</time>
      </trkpt>
      <trkpt lat="48.20717" lon="-3.01977">
        <ele>166</ele>
        <time>2015-10-12T08:37:53.1Z</time>
      </trkpt>
      <trkpt lat="48.20718" lon="-3.01974">
        <ele>166</ele>
        <time>2015-10-12T08:37:56.1Z</time>
      </trkpt>
      <trkpt lat="48.20718" lon="-3.01972">
        <ele>166</ele>
        <time>2015-10-12T08:37:58.1Z</time>
      </trkpt>
      <trkpt lat="48.20717" lon="-3.01971">
        <ele>166</ele>
        <time>2015-10-12T08:38:01.1Z</time>
      </trkpt>
      <trkpt lat="48.20716" lon="-3.01969">
        <ele>167</ele>
        <time>2015-10-12T08:38:04.1Z</time>
      </trkpt>
      <trkpt lat="48.20714" lon="-3.01965">
        <ele>167</ele>
        <time>2015-10-12T08:38:07.1Z</time>
      </trkpt>
      <trkpt lat="48.20714" lon="-3.01963">
        <ele>168</ele>
        <time>2015-10-12T08:38:09.1Z</time>
      </trkpt>
      <trkpt lat="48.20712" lon="-3.0196">
        <ele>167</ele>
        <time>2015-10-12T08:38:12.1Z</time>
      </trkpt>
      <trkpt lat="48.20712" lon="-3.01956">
        <ele>167</ele>
        <time>2015-10-12T08:38:15.1Z</time>
      </trkpt>
      <trkpt lat="48.20711" lon="-3.01953">
        <ele>167</ele>
        <time>2015-10-12T08:38:17.1Z</time>
      </trkpt>
      <trkpt lat="48.20711" lon="-3.01949">
        <ele>166</ele>
        <time>2015-10-12T08:38:19.1Z</time>
      </trkpt>
      <trkpt lat="48.2071" lon="-3.01946">
        <ele>166</ele>
        <time>2015-10-12T08:38:21.1Z</time>
      </trkpt>
      <trkpt lat="48.20709" lon="-3.01943">
        <ele>166</ele>
        <time>2015-10-12T08:38:24.1Z</time>
      </trkpt>
      <trkpt lat="48.2071" lon="-3.0194">
        <ele>166</ele>
        <time>2015-10-12T08:38:27.1Z</time>
      </trkpt>
      <trkpt lat="48.20707" lon="-3.01936">
        <ele>165</ele>
        <time>2015-10-12T08:38:30.1Z</time>
      </trkpt>
      <trkpt lat="48.20706" lon="-3.01933">
        <ele>165</ele>
        <time>2015-10-12T08:38:32.1Z</time>
      </trkpt>
      <trkpt lat="48.20706" lon="-3.01931">
        <ele>165</ele>
        <time>2015-10-12T08:38:35.1Z</time>
      </trkpt>
      <trkpt lat="48.20704" lon="-3.01927">
        <ele>166</ele>
        <time>2015-10-12T08:38:38.1Z</time>
      </trkpt>
      <trkpt lat="48.20703" lon="-3.01923">
        <ele>166</ele>
        <time>2015-10-12T08:38:41.1Z</time>
      </trkpt>
      <trkpt lat="48.20701" lon="-3.0192">
        <ele>166</ele>
        <time>2015-10-12T08:38:44.1Z</time>
      </trkpt>
      <trkpt lat="48.207" lon="-3.01917">
        <ele>167</ele>
        <time>2015-10-12T08:38:46.1Z</time>
      </trkpt>
      <trkpt lat="48.207" lon="-3.01915">
        <ele>167</ele>
        <time>2015-10-12T08:38:49.1Z</time>
      </trkpt>
      <trkpt lat="48.20698" lon="-3.0191">
        <ele>167</ele>
        <time>2015-10-12T08:38:52.1Z</time>
      </trkpt>
      <trkpt lat="48.20699" lon="-3.01907">
        <ele>167</ele>
        <time>2015-10-12T08:38:54.1Z</time>
      </trkpt>
      <trkpt lat="48.20699" lon="-3.01904">
        <ele>168</ele>
        <time>2015-10-12T08:38:56.1Z</time>
      </trkpt>
      <trkpt lat="48.207" lon="-3.01899">
        <ele>168</ele>
        <time>2015-10-12T08:38:58.1Z</time>
      </trkpt>
      <trkpt lat="48.20699" lon="-3.01896">
        <ele>167</ele>
        <time>2015-10-12T08:39:01.1Z</time>
      </trkpt>
      <trkpt lat="48.20699" lon="-3.01893">
        <ele>167</ele>
        <time>2015-10-12T08:39:03.1Z</time>
      </trkpt>
      <trkpt lat="48.20698" lon="-3.01889">
        <ele>166</ele>
        <time>2015-10-12T08:39:06.1Z</time>
      </trkpt>
      <trkpt lat="48.20697" lon="-3.01887">
        <ele>166</ele>
        <time>2015-10-12T08:39:08.1Z</time>
      </trkpt>
      <trkpt lat="48.20697" lon="-3.01883">
        <ele>166</ele>
        <time>2015-10-12T08:39:11.1Z</time>
      </trkpt>
      <trkpt lat="48.20696" lon="-3.0188">
        <ele>166</ele>
        <time>2015-10-12T08:39:13.1Z</time>
      </trkpt>
      <trkpt lat="48.20695" lon="-3.01879">
        <ele>166</ele>
        <time>2015-10-12T08:39:15.1Z</time>
      </trkpt>
      <trkpt lat="48.20695" lon="-3.01877">
        <ele>166</ele>
        <time>2015-10-12T08:39:18.1Z</time>
      </trkpt>
      <trkpt lat="48.20696" lon="-3.01873">
        <ele>166</ele>
        <time>2015-10-12T08:39:21.1Z</time>
      </trkpt>
      <trkpt lat="48.20697" lon="-3.01871">
        <ele>167</ele>
        <time>2015-10-12T08:39:24.1Z</time>
      </trkpt>
      <trkpt lat="48.20698" lon="-3.01867">
        <ele>167</ele>
        <time>2015-10-12T08:39:27.1Z</time>
      </trkpt>
      <trkpt lat="48.20699" lon="-3.01863">
        <ele>166</ele>
        <time>2015-10-12T08:39:30.1Z</time>
      </trkpt>
      <trkpt lat="48.20699" lon="-3.01859">
        <ele>166</ele>
        <time>2015-10-12T08:39:32.1Z</time>
      </trkpt>
      <trkpt lat="48.20699" lon="-3.01857">
        <ele>166</ele>
        <time>2015-10-12T08:39:34.1Z</time>
      </trkpt>
      <trkpt lat="48.207" lon="-3.01854">
        <ele>166</ele>
        <time>2015-10-12T08:39:36.1Z</time>
      </trkpt>
      <trkpt lat="48.207" lon="-3.0185">
        <ele>166</ele>
        <time>2015-10-12T08:39:39.1Z</time>
      </trkpt>
      <trkpt lat="48.207" lon="-3.01848">
        <ele>166</ele>
        <time>2015-10-12T08:39:41.1Z</time>
      </trkpt>
      <trkpt lat="48.20699" lon="-3.01846">
        <ele>166</ele>
        <time>2015-10-12T08:39:43.1Z</time>
      </trkpt>
      <trkpt lat="48.207" lon="-3.01843">
        <ele>166</ele>
        <time>2015-10-12T08:39:46.1Z</time>
      </trkpt>
      <trkpt lat="48.20702" lon="-3.01838">
        <ele>166</ele>
        <time>2015-10-12T08:39:48.1Z</time>
      </trkpt>
      <trkpt lat="48.20702" lon="-3.01836">
        <ele>166</ele>
        <time>2015-10-12T08:39:51.1Z</time>
      </trkpt>
      <trkpt lat="48.20702" lon="-3.01832">
        <ele>166</ele>
        <time>2015-10-12T08:39:54.1Z</time>
      </trkpt>
      <trkpt lat="48.20702" lon="-3.01829">
        <ele>166</ele>
        <time>2015-10-12T08:39:56.1Z</time>
      </trkpt>
      <trkpt lat="48.20702" lon="-3.01827">
        <ele>165</ele>
        <time>2015-10-12T08:39:59.1Z</time>
      </trkpt>
      <trkpt lat="48.20705" lon="-3.01824">
        <ele>165</ele>
        <time>2015-10-12T08:40:01.1Z</time>
      </trkpt>
      <trkpt lat="48.20708" lon="-3.0182">
        <ele>166</ele>
        <time>2015-10-12T08:40:04.1Z</time>
      </trkpt>
      <trkpt lat="48.2071" lon="-3.01818">
        <ele>166</ele>
        <time>2015-10-12T08:40:06.1Z</time>
      </trkpt>
      <trkpt lat="48.20711" lon="-3.01814">
        <ele>166</ele>
        <time>2015-10-12T08:40:09.1Z</time>
      </trkpt>
      <trkpt lat="48.2071" lon="-3.01808">
        <ele>166</ele>
        <time>2015-10-12T08:40:12.1Z</time>
      </trkpt>
      <trkpt lat="48.2071" lon="-3.01803">
        <ele>166</ele>
        <time>2015-10-12T08:40:15.1Z</time>
      </trkpt>
      <trkpt lat="48.20708" lon="-3.01798">
        <ele>166</ele>
        <time>2015-10-12T08:40:18.1Z</time>
      </trkpt>
      <trkpt lat="48.20708" lon="-3.01795">
        <ele>166</ele>
        <time>2015-10-12T08:40:20.1Z</time>
      </trkpt>
      <trkpt lat="48.20707" lon="-3.01793">
        <ele>166</ele>
        <time>2015-10-12T08:40:22.1Z</time>
      </trkpt>
      <trkpt lat="48.20707" lon="-3.01788">
        <ele>167</ele>
        <time>2015-10-12T08:40:25.1Z</time>
      </trkpt>
      <trkpt lat="48.20706" lon="-3.01785">
        <ele>167</ele>
        <time>2015-10-12T08:40:28.1Z</time>
      </trkpt>
      <trkpt lat="48.20704" lon="-3.01782">
        <ele>168</ele>
        <time>2015-10-12T08:40:30.1Z</time>
      </trkpt>
      <trkpt lat="48.20703" lon="-3.0178">
        <ele>169</ele>
        <time>2015-10-12T08:40:32.1Z</time>
      </trkpt>
      <trkpt lat="48.20702" lon="-3.01778">
        <ele>169</ele>
        <time>2015-10-12T08:40:35.1Z</time>
      </trkpt>
      <trkpt lat="48.20703" lon="-3.01775">
        <ele>169</ele>
        <time>2015-10-12T08:40:37.1Z</time>
      </trkpt>
      <trkpt lat="48.20702" lon="-3.01773">
        <ele>169</ele>
        <time>2015-10-12T08:40:39.1Z</time>
      </trkpt>
      <trkpt lat="48.207" lon="-3.0177">
        <ele>169</ele>
        <time>2015-10-12T08:40:41.1Z</time>
      </trkpt>
      <trkpt lat="48.20699" lon="-3.01765">
        <ele>169</ele>
        <time>2015-10-12T08:40:44.1Z</time>
      </trkpt>
      <trkpt lat="48.20699" lon="-3.01763">
        <ele>169</ele>
        <time>2015-10-12T08:40:46.1Z</time>
      </trkpt>
      <trkpt lat="48.20698" lon="-3.0176">
        <ele>169</ele>
        <time>2015-10-12T08:40:48.1Z</time>
      </trkpt>
      <trkpt lat="48.20696" lon="-3.01757">
        <ele>169</ele>
        <time>2015-10-12T08:40:51.1Z</time>
      </trkpt>
      <trkpt lat="48.20694" lon="-3.01755">
        <ele>170</ele>
        <time>2015-10-12T08:40:54.1Z</time>
      </trkpt>
      <trkpt lat="48.20692" lon="-3.01752">
        <ele>170</ele>
        <time>2015-10-12T08:40:56.1Z</time>
      </trkpt>
      <trkpt lat="48.20689" lon="-3.01749">
        <ele>171</ele>
        <time>2015-10-12T08:40:58.1Z</time>
      </trkpt>
      <trkpt lat="48.20686" lon="-3.01747">
        <ele>171</ele>
        <time>2015-10-12T08:41:01.1Z</time>
      </trkpt>
      <trkpt lat="48.20685" lon="-3.01743">
        <ele>172</ele>
        <time>2015-10-12T08:41:04.1Z</time>
      </trkpt>
      <trkpt lat="48.20683" lon="-3.01739">
        <ele>172</ele>
        <time>2015-10-12T08:41:07.1Z</time>
      </trkpt>
      <trkpt lat="48.20681" lon="-3.01737">
        <ele>173</ele>
        <time>2015-10-12T08:41:10.1Z</time>
      </trkpt>
      <trkpt lat="48.2068" lon="-3.01733">
        <ele>173</ele>
        <time>2015-10-12T08:41:12.1Z</time>
      </trkpt>
      <trkpt lat="48.20678" lon="-3.01729">
        <ele>172</ele>
        <time>2015-10-12T08:41:15.1Z</time>
      </trkpt>
      <trkpt lat="48.20677" lon="-3.01727">
        <ele>173</ele>
        <time>2015-10-12T08:41:17.1Z</time>
      </trkpt>
      <trkpt lat="48.20676" lon="-3.01724">
        <ele>173</ele>
        <time>2015-10-12T08:41:19.1Z</time>
      </trkpt>
      <trkpt lat="48.20676" lon="-3.01722">
        <ele>173</ele>
        <time>2015-10-12T08:41:21.1Z</time>
      </trkpt>
      <trkpt lat="48.20675" lon="-3.0172">
        <ele>173</ele>
        <time>2015-10-12T08:41:24.1Z</time>
      </trkpt>
      <trkpt lat="48.20673" lon="-3.01717">
        <ele>172</ele>
        <time>2015-10-12T08:41:26.1Z</time>
      </trkpt>
      <trkpt lat="48.20673" lon="-3.01712">
        <ele>172</ele>
        <time>2015-10-12T08:41:29.1Z</time>
      </trkpt>
      <trkpt lat="48.20673" lon="-3.01709">
        <ele>172</ele>
        <time>2015-10-12T08:41:31.1Z</time>
      </trkpt>
      <trkpt lat="48.20673" lon="-3.01706">
        <ele>172</ele>
        <time>2015-10-12T08:41:34.1Z</time>
      </trkpt>
      <trkpt lat="48.20673" lon="-3.01704">
        <ele>172</ele>
        <time>2015-10-12T08:41:36.1Z</time>
      </trkpt>
      <trkpt lat="48.20671" lon="-3.01699">
        <ele>172</ele>
        <time>2015-10-12T08:41:38.1Z</time>
      </trkpt>
      <trkpt lat="48.20668" lon="-3.01697">
        <ele>173</ele>
        <time>2015-10-12T08:41:40.1Z</time>
      </trkpt>
      <trkpt lat="48.20667" lon="-3.01696">
        <ele>173</ele>
        <time>2015-10-12T08:41:42.1Z</time>
      </trkpt>
      <trkpt lat="48.20665" lon="-3.01694">
        <ele>173</ele>
        <time>2015-10-12T08:41:45.1Z</time>
      </trkpt>
      <trkpt lat="48.20663" lon="-3.01691">
        <ele>173</ele>
        <time>2015-10-12T08:41:47.1Z</time>
      </trkpt>
      <trkpt lat="48.20662" lon="-3.01689">
        <ele>173</ele>
        <time>2015-10-12T08:41:49.1Z</time>
      </trkpt>
      <trkpt lat="48.2066" lon="-3.01687">
        <ele>173</ele>
        <time>2015-10-12T08:41:52.1Z</time>
      </trkpt>
      <trkpt lat="48.20659" lon="-3.01686">
        <ele>173</ele>
        <time>2015-10-12T08:41:54.1Z</time>
      </trkpt>
      <trkpt lat="48.20657" lon="-3.01684">
        <ele>173</ele>
        <time>2015-10-12T08:41:57.1Z</time>
      </trkpt>
      <trkpt lat="48.20657" lon="-3.01683">
        <ele>173</ele>
        <time>2015-10-12T08:42:00.1Z</time>
      </trkpt>
      <trkpt lat="48.20657" lon="-3.01681">
        <ele>173</ele>
        <time>2015-10-12T08:42:02.1Z</time>
      </trkpt>
      <trkpt lat="48.20657" lon="-3.01678">
        <ele>172</ele>
        <time>2015-10-12T08:42:05.1Z</time>
      </trkpt>
      <trkpt lat="48.20659" lon="-3.01677">
        <ele>171</ele>
        <time>2015-10-12T08:42:08.1Z</time>
      </trkpt>
      <trkpt lat="48.2066" lon="-3.01675">
        <ele>170</ele>
        <time>2015-10-12T08:42:10.1Z</time>
      </trkpt>
      <trkpt lat="48.2066" lon="-3.01672">
        <ele>170</ele>
        <time>2015-10-12T08:42:13.1Z</time>
      </trkpt>
      <trkpt lat="48.20658" lon="-3.01668">
        <ele>170</ele>
        <time>2015-10-12T08:42:16.1Z</time>
      </trkpt>
      <trkpt lat="48.20658" lon="-3.01666">
        <ele>170</ele>
        <time>2015-10-12T08:42:18.1Z</time>
      </trkpt>
      <trkpt lat="48.20657" lon="-3.01665">
        <ele>170</ele>
        <time>2015-10-12T08:42:21.1Z</time>
      </trkpt>
      <trkpt lat="48.20657" lon="-3.01663">
        <ele>169</ele>
        <time>2015-10-12T08:42:24.1Z</time>
      </trkpt>
      <trkpt lat="48.20655" lon="-3.01661">
        <ele>169</ele>
        <time>2015-10-12T08:42:26.1Z</time>
      </trkpt>
      <trkpt lat="48.20654" lon="-3.01661">
        <ele>169</ele>
        <time>2015-10-12T08:42:29.1Z</time>
      </trkpt>
      <trkpt lat="48.20653" lon="-3.01659">
        <ele>170</ele>
        <time>2015-10-12T08:42:31.1Z</time>
      </trkpt>
      <trkpt lat="48.20653" lon="-3.01658">
        <ele>170</ele>
        <time>2015-10-12T08:42:34.1Z</time>
      </trkpt>
      <trkpt lat="48.20652" lon="-3.01655">
        <ele>170</ele>
        <time>2015-10-12T08:42:37.1Z</time>
      </trkpt>
      <trkpt lat="48.20652" lon="-3.01652">
        <ele>170</ele>
        <time>2015-10-12T08:42:40.1Z</time>
      </trkpt>
      <trkpt lat="48.20651" lon="-3.01649">
        <ele>169</ele>
        <time>2015-10-12T08:42:42.1Z</time>
      </trkpt>
      <trkpt lat="48.2065" lon="-3.01646">
        <ele>168</ele>
        <time>2015-10-12T08:42:45.1Z</time>
      </trkpt>
      <trkpt lat="48.20651" lon="-3.01641">
        <ele>168</ele>
        <time>2015-10-12T08:42:48.1Z</time>
      </trkpt>
      <trkpt lat="48.20652" lon="-3.01635">
        <ele>168</ele>
        <time>2015-10-12T08:42:51.1Z</time>
      </trkpt>
      <trkpt lat="48.20652" lon="-3.0163">
        <ele>168</ele>
        <time>2015-10-12T08:42:53.1Z</time>
      </trkpt>
      <trkpt lat="48.20653" lon="-3.01624">
        <ele>168</ele>
        <time>2015-10-12T08:42:57.1Z</time>
      </trkpt>
      <trkpt lat="48.20653" lon="-3.01619">
        <ele>169</ele>
        <time>2015-10-12T08:42:59.1Z</time>
      </trkpt>
      <trkpt lat="48.20652" lon="-3.01614">
        <ele>169</ele>
        <time>2015-10-12T08:43:02.1Z</time>
      </trkpt>
      <trkpt lat="48.20653" lon="-3.01612">
        <ele>169</ele>
        <time>2015-10-12T08:43:05.1Z</time>
      </trkpt>
      <trkpt lat="48.20653" lon="-3.0161">
        <ele>169</ele>
        <time>2015-10-12T08:43:07.1Z</time>
      </trkpt>
      <trkpt lat="48.20652" lon="-3.01607">
        <ele>169</ele>
        <time>2015-10-12T08:43:09.1Z</time>
      </trkpt>
      <trkpt lat="48.20652" lon="-3.01606">
        <ele>169</ele>
        <time>2015-10-12T08:43:12.1Z</time>
      </trkpt>
      <trkpt lat="48.2065" lon="-3.01604">
        <ele>169</ele>
        <time>2015-10-12T08:43:14.1Z</time>
      </trkpt>
      <trkpt lat="48.20647" lon="-3.01602">
        <ele>169</ele>
        <time>2015-10-12T08:43:16.1Z</time>
      </trkpt>
      <trkpt lat="48.20647" lon="-3.01602">
        <ele>169</ele>
        <time>2015-10-12T08:43:18.1Z</time>
      </trkpt>
      <trkpt lat="48.20644" lon="-3.016">
        <ele>170</ele>
        <time>2015-10-12T08:43:21.1Z</time>
      </trkpt>
      <trkpt lat="48.20642" lon="-3.01597">
        <ele>170</ele>
        <time>2015-10-12T08:43:23.1Z</time>
      </trkpt>
      <trkpt lat="48.20641" lon="-3.01595">
        <ele>171</ele>
        <time>2015-10-12T08:43:25.1Z</time>
      </trkpt>
      <trkpt lat="48.2064" lon="-3.01592">
        <ele>171</ele>
        <time>2015-10-12T08:43:28.1Z</time>
      </trkpt>
      <trkpt lat="48.20639" lon="-3.01591">
        <ele>171</ele>
        <time>2015-10-12T08:43:31.1Z</time>
      </trkpt>
      <trkpt lat="48.20639" lon="-3.0159">
        <ele>171</ele>
        <time>2015-10-12T08:43:33.1Z</time>
      </trkpt>
      <trkpt lat="48.20638" lon="-3.01589">
        <ele>172</ele>
        <time>2015-10-12T08:43:36.1Z</time>
      </trkpt>
      <trkpt lat="48.20638" lon="-3.01587">
        <ele>173</ele>
        <time>2015-10-12T08:43:39.1Z</time>
      </trkpt>
      <trkpt lat="48.20637" lon="-3.01585">
        <ele>173</ele>
        <time>2015-10-12T08:43:41.1Z</time>
      </trkpt>
      <trkpt lat="48.20635" lon="-3.01583">
        <ele>174</ele>
        <time>2015-10-12T08:43:44.1Z</time>
      </trkpt>
      <trkpt lat="48.20633" lon="-3.01581">
        <ele>175</ele>
        <time>2015-10-12T08:43:47.1Z</time>
      </trkpt>
      <trkpt lat="48.20632" lon="-3.01581">
        <ele>175</ele>
        <time>2015-10-12T08:43:49.1Z</time>
      </trkpt>
      <trkpt lat="48.20631" lon="-3.01578">
        <ele>176</ele>
        <time>2015-10-12T08:43:52.1Z</time>
      </trkpt>
      <trkpt lat="48.2063" lon="-3.01577">
        <ele>176</ele>
        <time>2015-10-12T08:43:54.1Z</time>
      </trkpt>
      <trkpt lat="48.20629" lon="-3.01574">
        <ele>176</ele>
        <time>2015-10-12T08:43:56.1Z</time>
      </trkpt>
      <trkpt lat="48.20629" lon="-3.01571">
        <ele>177</ele>
        <time>2015-10-12T08:43:58.1Z</time>
      </trkpt>
      <trkpt lat="48.20627" lon="-3.01568">
        <ele>177</ele>
        <time>2015-10-12T08:44:02.1Z</time>
      </trkpt>
      <trkpt lat="48.20625" lon="-3.01568">
        <ele>178</ele>
        <time>2015-10-12T08:44:04.1Z</time>
      </trkpt>
      <trkpt lat="48.20623" lon="-3.01568">
        <ele>178</ele>
        <time>2015-10-12T08:44:06.1Z</time>
      </trkpt>
      <trkpt lat="48.20622" lon="-3.01568">
        <ele>179</ele>
        <time>2015-10-12T08:44:09.1Z</time>
      </trkpt>
      <trkpt lat="48.2062" lon="-3.01567">
        <ele>179</ele>
        <time>2015-10-12T08:44:12.1Z</time>
      </trkpt>
      <trkpt lat="48.20619" lon="-3.01567">
        <ele>179</ele>
        <time>2015-10-12T08:44:14.1Z</time>
      </trkpt>
      <trkpt lat="48.20618" lon="-3.01566">
        <ele>180</ele>
        <time>2015-10-12T08:44:17.1Z</time>
      </trkpt>
      <trkpt lat="48.20616" lon="-3.01564">
        <ele>180</ele>
        <time>2015-10-12T08:44:19.1Z</time>
      </trkpt>
      <trkpt lat="48.20615" lon="-3.01562">
        <ele>180</ele>
        <time>2015-10-12T08:44:22.1Z</time>
      </trkpt>
      <trkpt lat="48.20614" lon="-3.01559">
        <ele>180</ele>
        <time>2015-10-12T08:44:25.1Z</time>
      </trkpt>
      <trkpt lat="48.20614" lon="-3.01558">
        <ele>180</ele>
        <time>2015-10-12T08:44:28.1Z</time>
      </trkpt>
      <trkpt lat="48.20613" lon="-3.01557">
        <ele>179</ele>
        <time>2015-10-12T08:44:30.1Z</time>
      </trkpt>
      <trkpt lat="48.20613" lon="-3.01555">
        <ele>179</ele>
        <time>2015-10-12T08:44:32.1Z</time>
      </trkpt>
      <trkpt lat="48.20612" lon="-3.01554">
        <ele>178</ele>
        <time>2015-10-12T08:44:36.1Z</time>
      </trkpt>
      <trkpt lat="48.2061" lon="-3.01552">
        <ele>178</ele>
        <time>2015-10-12T08:44:39.1Z</time>
      </trkpt>
      <trkpt lat="48.20609" lon="-3.01551">
        <ele>178</ele>
        <time>2015-10-12T08:44:41.1Z</time>
      </trkpt>
      <trkpt lat="48.20609" lon="-3.01549">
        <ele>177</ele>
        <time>2015-10-12T08:44:44.1Z</time>
      </trkpt>
      <trkpt lat="48.20608" lon="-3.01547">
        <ele>177</ele>
        <time>2015-10-12T08:44:46.1Z</time>
      </trkpt>
      <trkpt lat="48.20606" lon="-3.01546">
        <ele>177</ele>
        <time>2015-10-12T08:44:49.1Z</time>
      </trkpt>
      <trkpt lat="48.20604" lon="-3.01545">
        <ele>177</ele>
        <time>2015-10-12T08:44:52.1Z</time>
      </trkpt>
      <trkpt lat="48.20602" lon="-3.01545">
        <ele>176</ele>
        <time>2015-10-12T08:44:55.1Z</time>
      </trkpt>
      <trkpt lat="48.20602" lon="-3.01544">
        <ele>176</ele>
        <time>2015-10-12T08:44:57.1Z</time>
      </trkpt>
      <trkpt lat="48.20603" lon="-3.01543">
        <ele>175</ele>
        <time>2015-10-12T08:44:59.1Z</time>
      </trkpt>
      <trkpt lat="48.20603" lon="-3.01542">
        <ele>175</ele>
        <time>2015-10-12T08:45:01.1Z</time>
      </trkpt>
      <trkpt lat="48.20604" lon="-3.01539">
        <ele>174</ele>
        <time>2015-10-12T08:45:04.1Z</time>
      </trkpt>
      <trkpt lat="48.20602" lon="-3.01536">
        <ele>173</ele>
        <time>2015-10-12T08:45:06.1Z</time>
      </trkpt>
      <trkpt lat="48.20602" lon="-3.01535">
        <ele>172</ele>
        <time>2015-10-12T08:45:09.1Z</time>
      </trkpt>
      <trkpt lat="48.20601" lon="-3.01533">
        <ele>172</ele>
        <time>2015-10-12T08:45:12.1Z</time>
      </trkpt>
      <trkpt lat="48.20599" lon="-3.0153">
        <ele>171</ele>
        <time>2015-10-12T08:45:14.1Z</time>
      </trkpt>
      <trkpt lat="48.20596" lon="-3.01527">
        <ele>171</ele>
        <time>2015-10-12T08:45:16.1Z</time>
      </trkpt>
      <trkpt lat="48.20596" lon="-3.01525">
        <ele>170</ele>
        <time>2015-10-12T08:45:19.1Z</time>
      </trkpt>
      <trkpt lat="48.20594" lon="-3.01523">
        <ele>170</ele>
        <time>2015-10-12T08:45:22.1Z</time>
      </trkpt>
      <trkpt lat="48.20592" lon="-3.01524">
        <ele>169</ele>
        <time>2015-10-12T08:45:25.1Z</time>
      </trkpt>
      <trkpt lat="48.20589" lon="-3.01524">
        <ele>168</ele>
        <time>2015-10-12T08:45:27.1Z</time>
      </trkpt>
      <trkpt lat="48.20587" lon="-3.01523">
        <ele>168</ele>
        <time>2015-10-12T08:45:30.1Z</time>
      </trkpt>
      <trkpt lat="48.20584" lon="-3.01522">
        <ele>168</ele>
        <time>2015-10-12T08:45:32.1Z</time>
      </trkpt>
      <trkpt lat="48.20581" lon="-3.01523">
        <ele>168</ele>
        <time>2015-10-12T08:45:34.1Z</time>
      </trkpt>
      <trkpt lat="48.20578" lon="-3.01525">
        <ele>167</ele>
        <time>2015-10-12T08:45:37.1Z</time>
      </trkpt>
      <trkpt lat="48.20575" lon="-3.01525">
        <ele>167</ele>
        <time>2015-10-12T08:45:40.1Z</time>
      </trkpt>
      <trkpt lat="48.20575" lon="-3.01525">
        <ele>167</ele>
        <time>2015-10-12T08:45:42.1Z</time>
      </trkpt>
      <trkpt lat="48.20572" lon="-3.01524">
        <ele>167</ele>
        <time>2015-10-12T08:45:45.1Z</time>
      </trkpt>
      <trkpt lat="48.20569" lon="-3.01521">
        <ele>167</ele>
        <time>2015-10-12T08:45:47.1Z</time>
      </trkpt>
      <trkpt lat="48.20567" lon="-3.0152">
        <ele>167</ele>
        <time>2015-10-12T08:45:49.1Z</time>
      </trkpt>
      <trkpt lat="48.20566" lon="-3.0152">
        <ele>167</ele>
        <time>2015-10-12T08:45:52.1Z</time>
      </trkpt>
      <trkpt lat="48.20564" lon="-3.0152">
        <ele>167</ele>
        <time>2015-10-12T08:45:54.1Z</time>
      </trkpt>
      <trkpt lat="48.20561" lon="-3.01518">
        <ele>168</ele>
        <time>2015-10-12T08:45:56.1Z</time>
      </trkpt>
      <trkpt lat="48.20559" lon="-3.01515">
        <ele>168</ele>
        <time>2015-10-12T08:45:59.1Z</time>
      </trkpt>
      <trkpt lat="48.20558" lon="-3.01514">
        <ele>168</ele>
        <time>2015-10-12T08:46:02.1Z</time>
      </trkpt>
      <trkpt lat="48.20556" lon="-3.01513">
        <ele>168</ele>
        <time>2015-10-12T08:46:05.1Z</time>
      </trkpt>
      <trkpt lat="48.20555" lon="-3.01512">
        <ele>168</ele>
        <time>2015-10-12T08:46:07.1Z</time>
      </trkpt>
      <trkpt lat="48.20552" lon="-3.01511">
        <ele>169</ele>
        <time>2015-10-12T08:46:10.1Z</time>
      </trkpt>
      <trkpt lat="48.20549" lon="-3.0151">
        <ele>170</ele>
        <time>2015-10-12T08:46:14.1Z</time>
      </trkpt>
      <trkpt lat="48.20546" lon="-3.01509">
        <ele>170</ele>
        <time>2015-10-12T08:46:17.1Z</time>
      </trkpt>
      <trkpt lat="48.20543" lon="-3.01509">
        <ele>170</ele>
        <time>2015-10-12T08:46:20.1Z</time>
      </trkpt>
      <trkpt lat="48.2054" lon="-3.01508">
        <ele>171</ele>
        <time>2015-10-12T08:46:23.1Z</time>
      </trkpt>
      <trkpt lat="48.20537" lon="-3.01507">
        <ele>171</ele>
        <time>2015-10-12T08:46:25.1Z</time>
      </trkpt>
      <trkpt lat="48.20535" lon="-3.01507">
        <ele>171</ele>
        <time>2015-10-12T08:46:29.1Z</time>
      </trkpt>
      <trkpt lat="48.20533" lon="-3.01506">
        <ele>172</ele>
        <time>2015-10-12T08:46:32.1Z</time>
      </trkpt>
      <trkpt lat="48.2053" lon="-3.01506">
        <ele>173</ele>
        <time>2015-10-12T08:46:34.1Z</time>
      </trkpt>
      <trkpt lat="48.20529" lon="-3.01504">
        <ele>173</ele>
        <time>2015-10-12T08:46:37.1Z</time>
      </trkpt>
      <trkpt lat="48.20528" lon="-3.01504">
        <ele>173</ele>
        <time>2015-10-12T08:46:39.1Z</time>
      </trkpt>
      <trkpt lat="48.20527" lon="-3.01504">
        <ele>173</ele>
        <time>2015-10-12T08:46:41.1Z</time>
      </trkpt>
      <trkpt lat="48.20525" lon="-3.01503">
        <ele>172</ele>
        <time>2015-10-12T08:46:44.1Z</time>
      </trkpt>
      <trkpt lat="48.20524" lon="-3.01503">
        <ele>172</ele>
        <time>2015-10-12T08:46:47.1Z</time>
      </trkpt>
      <trkpt lat="48.20523" lon="-3.01504">
        <ele>172</ele>
        <time>2015-10-12T08:46:49.1Z</time>
      </trkpt>
      <trkpt lat="48.20522" lon="-3.01505">
        <ele>172</ele>
        <time>2015-10-12T08:46:52.1Z</time>
      </trkpt>
      <trkpt lat="48.2052" lon="-3.01506">
        <ele>172</ele>
        <time>2015-10-12T08:46:54.1Z</time>
      </trkpt>
      <trkpt lat="48.20518" lon="-3.01507">
        <ele>172</ele>
        <time>2015-10-12T08:46:57.1Z</time>
      </trkpt>
      <trkpt lat="48.20517" lon="-3.01509">
        <ele>172</ele>
        <time>2015-10-12T08:46:59.1Z</time>
      </trkpt>
      <trkpt lat="48.20517" lon="-3.01509">
        <ele>172</ele>
        <time>2015-10-12T08:47:01.1Z</time>
      </trkpt>
      <trkpt lat="48.20517" lon="-3.01507">
        <ele>172</ele>
        <time>2015-10-12T08:47:04.1Z</time>
      </trkpt>
      <trkpt lat="48.20516" lon="-3.01506">
        <ele>172</ele>
        <time>2015-10-12T08:47:06.1Z</time>
      </trkpt>
      <trkpt lat="48.20515" lon="-3.01506">
        <ele>172</ele>
        <time>2015-10-12T08:47:10.1Z</time>
      </trkpt>
      <trkpt lat="48.20515" lon="-3.01506">
        <ele>172</ele>
        <time>2015-10-12T08:47:13.1Z</time>
      </trkpt>
      <trkpt lat="48.20513" lon="-3.01507">
        <ele>172</ele>
        <time>2015-10-12T08:47:15.1Z</time>
      </trkpt>
      <trkpt lat="48.20513" lon="-3.01509">
        <ele>172</ele>
        <time>2015-10-12T08:47:17.1Z</time>
      </trkpt>
      <trkpt lat="48.20513" lon="-3.01512">
        <ele>171</ele>
        <time>2015-10-12T08:47:20.1Z</time>
      </trkpt>
      <trkpt lat="48.20512" lon="-3.01514">
        <ele>172</ele>
        <time>2015-10-12T08:47:23.1Z</time>
      </trkpt>
      <trkpt lat="48.20512" lon="-3.01516">
        <ele>172</ele>
        <time>2015-10-12T08:47:25.1Z</time>
      </trkpt>
      <trkpt lat="48.20511" lon="-3.01518">
        <ele>173</ele>
        <time>2015-10-12T08:47:27.1Z</time>
      </trkpt>
      <trkpt lat="48.2051" lon="-3.01519">
        <ele>174</ele>
        <time>2015-10-12T08:47:34.1Z</time>
      </trkpt>
      <trkpt lat="48.20509" lon="-3.0152">
        <ele>174</ele>
        <time>2015-10-12T08:47:36.1Z</time>
      </trkpt>
      <trkpt lat="48.20509" lon="-3.0152">
        <ele>174</ele>
        <time>2015-10-12T08:47:38.1Z</time>
      </trkpt>
      <trkpt lat="48.20508" lon="-3.0152">
        <ele>174</ele>
        <time>2015-10-12T08:47:41.1Z</time>
      </trkpt>
      <trkpt lat="48.20507" lon="-3.01519">
        <ele>173</ele>
        <time>2015-10-12T08:47:44.1Z</time>
      </trkpt>
      <trkpt lat="48.20507" lon="-3.0152">
        <ele>173</ele>
        <time>2015-10-12T08:47:47.1Z</time>
      </trkpt>
      <trkpt lat="48.20506" lon="-3.01522">
        <ele>172</ele>
        <time>2015-10-12T08:47:49.1Z</time>
      </trkpt>
      <trkpt lat="48.20505" lon="-3.01522">
        <ele>172</ele>
        <time>2015-10-12T08:47:52.1Z</time>
      </trkpt>
      <trkpt lat="48.20505" lon="-3.01524">
        <ele>172</ele>
        <time>2015-10-12T08:47:54.1Z</time>
      </trkpt>
      <trkpt lat="48.20506" lon="-3.01525">
        <ele>171</ele>
        <time>2015-10-12T08:47:57.1Z</time>
      </trkpt>
      <trkpt lat="48.20505" lon="-3.01525">
        <ele>171</ele>
        <time>2015-10-12T08:48:00.1Z</time>
      </trkpt>
      <trkpt lat="48.20505" lon="-3.01526">
        <ele>171</ele>
        <time>2015-10-12T08:48:02.1Z</time>
      </trkpt>
      <trkpt lat="48.20504" lon="-3.01525">
        <ele>171</ele>
        <time>2015-10-12T08:48:05.1Z</time>
      </trkpt>
      <trkpt lat="48.20504" lon="-3.01526">
        <ele>170</ele>
        <time>2015-10-12T08:48:07.1Z</time>
      </trkpt>
      <trkpt lat="48.20504" lon="-3.01527">
        <ele>170</ele>
        <time>2015-10-12T08:48:10.1Z</time>
      </trkpt>
      <trkpt lat="48.20504" lon="-3.01528">
        <ele>171</ele>
        <time>2015-10-12T08:48:14.1Z</time>
      </trkpt>
      <trkpt lat="48.20504" lon="-3.01529">
        <ele>171</ele>
        <time>2015-10-12T08:48:16.1Z</time>
      </trkpt>
      <trkpt lat="48.20503" lon="-3.01531">
        <ele>171</ele>
        <time>2015-10-12T08:48:19.1Z</time>
      </trkpt>
      <trkpt lat="48.20503" lon="-3.01531">
        <ele>171</ele>
        <time>2015-10-12T08:48:21.1Z</time>
      </trkpt>
      <trkpt lat="48.20502" lon="-3.01533">
        <ele>171</ele>
        <time>2015-10-12T08:48:24.1Z</time>
      </trkpt>
      <trkpt lat="48.20503" lon="-3.01533">
        <ele>170</ele>
        <time>2015-10-12T08:48:26.1Z</time>
      </trkpt>
      <trkpt lat="48.20502" lon="-3.01534">
        <ele>171</ele>
        <time>2015-10-12T08:48:29.1Z</time>
      </trkpt>
      <trkpt lat="48.20503" lon="-3.01533">
        <ele>171</ele>
        <time>2015-10-12T08:48:31.1Z</time>
      </trkpt>
      <trkpt lat="48.20502" lon="-3.01533">
        <ele>171</ele>
        <time>2015-10-12T08:48:34.1Z</time>
      </trkpt>
      <trkpt lat="48.20502" lon="-3.01533">
        <ele>171</ele>
        <time>2015-10-12T08:48:37.1Z</time>
      </trkpt>
      <trkpt lat="48.20501" lon="-3.01532">
        <ele>171</ele>
        <time>2015-10-12T08:48:40.1Z</time>
      </trkpt>
      <trkpt lat="48.205" lon="-3.0153">
        <ele>171</ele>
        <time>2015-10-12T08:48:42.1Z</time>
      </trkpt>
      <trkpt lat="48.20499" lon="-3.01531">
        <ele>170</ele>
        <time>2015-10-12T08:48:44.1Z</time>
      </trkpt>
      <trkpt lat="48.20497" lon="-3.01531">
        <ele>170</ele>
        <time>2015-10-12T08:48:47.1Z</time>
      </trkpt>
      <trkpt lat="48.20496" lon="-3.01531">
        <ele>169</ele>
        <time>2015-10-12T08:48:49.1Z</time>
      </trkpt>
      <trkpt lat="48.20495" lon="-3.01532">
        <ele>169</ele>
        <time>2015-10-12T08:48:51.1Z</time>
      </trkpt>
      <trkpt lat="48.20494" lon="-3.01531">
        <ele>169</ele>
        <time>2015-10-12T08:48:54.1Z</time>
      </trkpt>
      <trkpt lat="48.20493" lon="-3.01531">
        <ele>169</ele>
        <time>2015-10-12T08:48:56.1Z</time>
      </trkpt>
      <trkpt lat="48.20492" lon="-3.01529">
        <ele>169</ele>
        <time>2015-10-12T08:48:59.1Z</time>
      </trkpt>
      <trkpt lat="48.20491" lon="-3.01529">
        <ele>169</ele>
        <time>2015-10-12T08:49:02.1Z</time>
      </trkpt>
      <trkpt lat="48.20489" lon="-3.01528">
        <ele>169</ele>
        <time>2015-10-12T08:49:04.1Z</time>
      </trkpt>
      <trkpt lat="48.20487" lon="-3.01528">
        <ele>168</ele>
        <time>2015-10-12T08:49:07.1Z</time>
      </trkpt>
      <trkpt lat="48.20485" lon="-3.01529">
        <ele>168</ele>
        <time>2015-10-12T08:49:09.1Z</time>
      </trkpt>
      <trkpt lat="48.20483" lon="-3.01531">
        <ele>168</ele>
        <time>2015-10-12T08:49:12.1Z</time>
      </trkpt>
      <trkpt lat="48.20481" lon="-3.01532">
        <ele>168</ele>
        <time>2015-10-12T08:49:15.1Z</time>
      </trkpt>
      <trkpt lat="48.20479" lon="-3.01533">
        <ele>168</ele>
        <time>2015-10-12T08:49:17.1Z</time>
      </trkpt>
      <trkpt lat="48.20478" lon="-3.01535">
        <ele>168</ele>
        <time>2015-10-12T08:49:20.1Z</time>
      </trkpt>
      <trkpt lat="48.20478" lon="-3.01536">
        <ele>169</ele>
        <time>2015-10-12T08:49:23.1Z</time>
      </trkpt>
      <trkpt lat="48.20477" lon="-3.01537">
        <ele>169</ele>
        <time>2015-10-12T08:49:26.1Z</time>
      </trkpt>
      <trkpt lat="48.20475" lon="-3.01536">
        <ele>169</ele>
        <time>2015-10-12T08:49:28.1Z</time>
      </trkpt>
      <trkpt lat="48.20472" lon="-3.01535">
        <ele>169</ele>
        <time>2015-10-12T08:49:31.1Z</time>
      </trkpt>
      <trkpt lat="48.2047" lon="-3.01535">
        <ele>169</ele>
        <time>2015-10-12T08:49:33.1Z</time>
      </trkpt>
      <trkpt lat="48.20467" lon="-3.01534">
        <ele>168</ele>
        <time>2015-10-12T08:49:35.1Z</time>
      </trkpt>
      <trkpt lat="48.20464" lon="-3.01533">
        <ele>168</ele>
        <time>2015-10-12T08:49:38.1Z</time>
      </trkpt>
      <trkpt lat="48.2046" lon="-3.01534">
        <ele>168</ele>
        <time>2015-10-12T08:49:41.1Z</time>
      </trkpt>
      <trkpt lat="48.20457" lon="-3.01534">
        <ele>167</ele>
        <time>2015-10-12T08:49:44.1Z</time>
      </trkpt>
      <trkpt lat="48.20455" lon="-3.01535">
        <ele>167</ele>
        <time>2015-10-12T08:49:46.1Z</time>
      </trkpt>
      <trkpt lat="48.20451" lon="-3.01537">
        <ele>167</ele>
        <time>2015-10-12T08:49:50.1Z</time>
      </trkpt>
      <trkpt lat="48.20449" lon="-3.01539">
        <ele>168</ele>
        <time>2015-10-12T08:49:52.1Z</time>
      </trkpt>
      <trkpt lat="48.20446" lon="-3.01543">
        <ele>167</ele>
        <time>2015-10-12T08:49:54.1Z</time>
      </trkpt>
      <trkpt lat="48.20444" lon="-3.01545">
        <ele>168</ele>
        <time>2015-10-12T08:49:56.1Z</time>
      </trkpt>
      <trkpt lat="48.20442" lon="-3.01548">
        <ele>168</ele>
        <time>2015-10-12T08:49:59.1Z</time>
      </trkpt>
      <trkpt lat="48.20441" lon="-3.01549">
        <ele>168</ele>
        <time>2015-10-12T08:50:01.1Z</time>
      </trkpt>
      <trkpt lat="48.20439" lon="-3.01549">
        <ele>168</ele>
        <time>2015-10-12T08:50:03.1Z</time>
      </trkpt>
      <trkpt lat="48.20437" lon="-3.01551">
        <ele>168</ele>
        <time>2015-10-12T08:50:06.1Z</time>
      </trkpt>
      <trkpt lat="48.20435" lon="-3.01552">
        <ele>168</ele>
        <time>2015-10-12T08:50:09.1Z</time>
      </trkpt>
      <trkpt lat="48.20433" lon="-3.01553">
        <ele>168</ele>
        <time>2015-10-12T08:50:12.1Z</time>
      </trkpt>
      <trkpt lat="48.2043" lon="-3.01552">
        <ele>168</ele>
        <time>2015-10-12T08:50:14.1Z</time>
      </trkpt>
      <trkpt lat="48.2043" lon="-3.01552">
        <ele>168</ele>
        <time>2015-10-12T08:50:16.1Z</time>
      </trkpt>
      <trkpt lat="48.20427" lon="-3.01552">
        <ele>168</ele>
        <time>2015-10-12T08:50:19.1Z</time>
      </trkpt>
      <trkpt lat="48.20424" lon="-3.01551">
        <ele>168</ele>
        <time>2015-10-12T08:50:21.1Z</time>
      </trkpt>
      <trkpt lat="48.20422" lon="-3.01552">
        <ele>168</ele>
        <time>2015-10-12T08:50:23.1Z</time>
      </trkpt>
      <trkpt lat="48.20421" lon="-3.01551">
        <ele>167</ele>
        <time>2015-10-12T08:50:26.1Z</time>
      </trkpt>
      <trkpt lat="48.20419" lon="-3.01551">
        <ele>167</ele>
        <time>2015-10-12T08:50:28.1Z</time>
      </trkpt>
      <trkpt lat="48.20418" lon="-3.01551">
        <ele>168</ele>
        <time>2015-10-12T08:50:31.1Z</time>
      </trkpt>
      <trkpt lat="48.20416" lon="-3.01551">
        <ele>168</ele>
        <time>2015-10-12T08:50:33.1Z</time>
      </trkpt>
      <trkpt lat="48.20414" lon="-3.01552">
        <ele>169</ele>
        <time>2015-10-12T08:50:35.1Z</time>
      </trkpt>
      <trkpt lat="48.20412" lon="-3.01553">
        <ele>170</ele>
        <time>2015-10-12T08:50:38.1Z</time>
      </trkpt>
      <trkpt lat="48.20412" lon="-3.01553">
        <ele>170</ele>
        <time>2015-10-12T08:50:41.1Z</time>
      </trkpt>
      <trkpt lat="48.20411" lon="-3.01554">
        <ele>171</ele>
        <time>2015-10-12T08:50:43.1Z</time>
      </trkpt>
      <trkpt lat="48.2041" lon="-3.01554">
        <ele>171</ele>
        <time>2015-10-12T08:50:46.1Z</time>
      </trkpt>
      <trkpt lat="48.20408" lon="-3.01556">
        <ele>171</ele>
        <time>2015-10-12T08:50:48.1Z</time>
      </trkpt>
      <trkpt lat="48.20407" lon="-3.01557">
        <ele>172</ele>
        <time>2015-10-12T08:50:51.1Z</time>
      </trkpt>
      <trkpt lat="48.20406" lon="-3.01558">
        <ele>172</ele>
        <time>2015-10-12T08:50:54.1Z</time>
      </trkpt>
      <trkpt lat="48.20405" lon="-3.01559">
        <ele>173</ele>
        <time>2015-10-12T08:50:57.1Z</time>
      </trkpt>
      <trkpt lat="48.20403" lon="-3.0156">
        <ele>173</ele>
        <time>2015-10-12T08:50:59.1Z</time>
      </trkpt>
      <trkpt lat="48.20403" lon="-3.01561">
        <ele>174</ele>
        <time>2015-10-12T08:51:01.1Z</time>
      </trkpt>
      <trkpt lat="48.20401" lon="-3.01562">
        <ele>174</ele>
        <time>2015-10-12T08:51:05.1Z</time>
      </trkpt>
      <trkpt lat="48.204" lon="-3.01562">
        <ele>175</ele>
        <time>2015-10-12T08:51:07.1Z</time>
      </trkpt>
      <trkpt lat="48.20399" lon="-3.01561">
        <ele>175</ele>
        <time>2015-10-12T08:51:09.1Z</time>
      </trkpt>
      <trkpt lat="48.20398" lon="-3.0156">
        <ele>176</ele>
        <time>2015-10-12T08:51:12.1Z</time>
      </trkpt>
      <trkpt lat="48.20397" lon="-3.0156">
        <ele>176</ele>
        <time>2015-10-12T08:51:14.1Z</time>
      </trkpt>
      <trkpt lat="48.20396" lon="-3.0156">
        <ele>177</ele>
        <time>2015-10-12T08:51:18.1Z</time>
      </trkpt>
      <trkpt lat="48.20395" lon="-3.01559">
        <ele>178</ele>
        <time>2015-10-12T08:51:20.1Z</time>
      </trkpt>
      <trkpt lat="48.20394" lon="-3.01559">
        <ele>178</ele>
        <time>2015-10-12T08:51:22.1Z</time>
      </trkpt>
      <trkpt lat="48.20393" lon="-3.0156">
        <ele>179</ele>
        <time>2015-10-12T08:51:25.1Z</time>
      </trkpt>
      <trkpt lat="48.20391" lon="-3.01562">
        <ele>179</ele>
        <time>2015-10-12T08:51:28.1Z</time>
      </trkpt>
      <trkpt lat="48.20391" lon="-3.01563">
        <ele>179</ele>
        <time>2015-10-12T08:51:30.1Z</time>
      </trkpt>
      <trkpt lat="48.20389" lon="-3.01565">
        <ele>179</ele>
        <time>2015-10-12T08:51:34.1Z</time>
      </trkpt>
      <trkpt lat="48.20388" lon="-3.01567">
        <ele>180</ele>
        <time>2015-10-12T08:51:36.1Z</time>
      </trkpt>
      <trkpt lat="48.20387" lon="-3.01568">
        <ele>181</ele>
        <time>2015-10-12T08:51:39.1Z</time>
      </trkpt>
      <trkpt lat="48.20385" lon="-3.0157">
        <ele>181</ele>
        <time>2015-10-12T08:51:42.1Z</time>
      </trkpt>
      <trkpt lat="48.20385" lon="-3.01571">
        <ele>182</ele>
        <time>2015-10-12T08:51:45.1Z</time>
      </trkpt>
      <trkpt lat="48.20383" lon="-3.01572">
        <ele>182</ele>
        <time>2015-10-12T08:51:47.1Z</time>
      </trkpt>
      <trkpt lat="48.20382" lon="-3.01573">
        <ele>183</ele>
        <time>2015-10-12T08:51:50.1Z</time>
      </trkpt>
      <trkpt lat="48.20381" lon="-3.01573">
        <ele>182</ele>
        <time>2015-10-12T08:51:53.1Z</time>
      </trkpt>
      <trkpt lat="48.2038" lon="-3.01572">
        <ele>183</ele>
        <time>2015-10-12T08:51:55.1Z</time>
      </trkpt>
      <trkpt lat="48.20379" lon="-3.01572">
        <ele>183</ele>
        <time>2015-10-12T08:51:58.1Z</time>
      </trkpt>
      <trkpt lat="48.20378" lon="-3.01572">
        <ele>183</ele>
        <time>2015-10-12T08:52:00.1Z</time>
      </trkpt>
      <trkpt lat="48.20378" lon="-3.01574">
        <ele>183</ele>
        <time>2015-10-12T08:52:02.1Z</time>
      </trkpt>
      <trkpt lat="48.20378" lon="-3.01574">
        <ele>183</ele>
        <time>2015-10-12T08:52:04.1Z</time>
      </trkpt>
      <trkpt lat="48.20377" lon="-3.01574">
        <ele>183</ele>
        <time>2015-10-12T08:52:07.1Z</time>
      </trkpt>
      <trkpt lat="48.20376" lon="-3.01574">
        <ele>184</ele>
        <time>2015-10-12T08:52:09.1Z</time>
      </trkpt>
      <trkpt lat="48.20376" lon="-3.01574">
        <ele>184</ele>
        <time>2015-10-12T08:52:12.1Z</time>
      </trkpt>
      <trkpt lat="48.20376" lon="-3.01576">
        <ele>184</ele>
        <time>2015-10-12T08:52:14.1Z</time>
      </trkpt>
      <trkpt lat="48.20376" lon="-3.01576">
        <ele>184</ele>
        <time>2015-10-12T08:52:17.1Z</time>
      </trkpt>
      <trkpt lat="48.20377" lon="-3.01578">
        <ele>184</ele>
        <time>2015-10-12T08:52:19.1Z</time>
      </trkpt>
      <trkpt lat="48.20377" lon="-3.01581">
        <ele>183</ele>
        <time>2015-10-12T08:52:22.1Z</time>
      </trkpt>
      <trkpt lat="48.20377" lon="-3.01582">
        <ele>183</ele>
        <time>2015-10-12T08:52:24.1Z</time>
      </trkpt>
      <trkpt lat="48.20378" lon="-3.01585">
        <ele>184</ele>
        <time>2015-10-12T08:52:27.1Z</time>
      </trkpt>
      <trkpt lat="48.20379" lon="-3.01587">
        <ele>184</ele>
        <time>2015-10-12T08:52:29.1Z</time>
      </trkpt>
      <trkpt lat="48.20378" lon="-3.01586">
        <ele>185</ele>
        <time>2015-10-12T08:52:32.1Z</time>
      </trkpt>
      <trkpt lat="48.20378" lon="-3.01586">
        <ele>185</ele>
        <time>2015-10-12T08:52:34.1Z</time>
      </trkpt>
      <trkpt lat="48.20378" lon="-3.01587">
        <ele>185</ele>
        <time>2015-10-12T08:52:37.1Z</time>
      </trkpt>
      <trkpt lat="48.20378" lon="-3.01587">
        <ele>185</ele>
        <time>2015-10-12T08:52:39.1Z</time>
      </trkpt>
      <trkpt lat="48.20377" lon="-3.01585">
        <ele>185</ele>
        <time>2015-10-12T08:52:42.1Z</time>
      </trkpt>
      <trkpt lat="48.20377" lon="-3.01585">
        <ele>185</ele>
        <time>2015-10-12T08:52:45.1Z</time>
      </trkpt>
      <trkpt lat="48.20376" lon="-3.01586">
        <ele>185</ele>
        <time>2015-10-12T08:52:47.1Z</time>
      </trkpt>
      <trkpt lat="48.20374" lon="-3.01585">
        <ele>185</ele>
        <time>2015-10-12T08:52:50.1Z</time>
      </trkpt>
      <trkpt lat="48.20374" lon="-3.01587">
        <ele>185</ele>
        <time>2015-10-12T08:52:53.1Z</time>
      </trkpt>
      <trkpt lat="48.20375" lon="-3.0159">
        <ele>185</ele>
        <time>2015-10-12T08:52:55.1Z</time>
      </trkpt>
      <trkpt lat="48.20376" lon="-3.01594">
        <ele>185</ele>
        <time>2015-10-12T08:52:58.1Z</time>
      </trkpt>
      <trkpt lat="48.20376" lon="-3.01596">
        <ele>186</ele>
        <time>2015-10-12T08:53:00.1Z</time>
      </trkpt>
      <trkpt lat="48.20377" lon="-3.01599">
        <ele>186</ele>
        <time>2015-10-12T08:53:03.1Z</time>
      </trkpt>
      <trkpt lat="48.20377" lon="-3.01598">
        <ele>187</ele>
        <time>2015-10-12T08:53:06.1Z</time>
      </trkpt>
      <trkpt lat="48.20376" lon="-3.01599">
        <ele>187</ele>
        <time>2015-10-12T08:53:08.1Z</time>
      </trkpt>
      <trkpt lat="48.20376" lon="-3.01599">
        <ele>187</ele>
        <time>2015-10-12T08:53:10.1Z</time>
      </trkpt>
      <trkpt lat="48.20376" lon="-3.01599">
        <ele>187</ele>
        <time>2015-10-12T08:53:13.1Z</time>
      </trkpt>
      <trkpt lat="48.20375" lon="-3.01601">
        <ele>186</ele>
        <time>2015-10-12T08:53:16.1Z</time>
      </trkpt>
      <trkpt lat="48.20374" lon="-3.01603">
        <ele>187</ele>
        <time>2015-10-12T08:53:19.1Z</time>
      </trkpt>
      <trkpt lat="48.20372" lon="-3.01604">
        <ele>187</ele>
        <time>2015-10-12T08:53:23.1Z</time>
      </trkpt>
      <trkpt lat="48.20371" lon="-3.01606">
        <ele>187</ele>
        <time>2015-10-12T08:53:25.1Z</time>
      </trkpt>
      <trkpt lat="48.20371" lon="-3.01606">
        <ele>186</ele>
        <time>2015-10-12T08:53:27.1Z</time>
      </trkpt>
      <trkpt lat="48.20371" lon="-3.01606">
        <ele>185</ele>
        <time>2015-10-12T08:53:33.1Z</time>
      </trkpt>
      <trkpt lat="48.20371" lon="-3.01607">
        <ele>185</ele>
        <time>2015-10-12T08:53:36.1Z</time>
      </trkpt>
      <trkpt lat="48.20372" lon="-3.01608">
        <ele>185</ele>
        <time>2015-10-12T08:53:39.1Z</time>
      </trkpt>
      <trkpt lat="48.20371" lon="-3.0161">
        <ele>185</ele>
        <time>2015-10-12T08:53:41.1Z</time>
      </trkpt>
      <trkpt lat="48.2037" lon="-3.01613">
        <ele>185</ele>
        <time>2015-10-12T08:53:44.1Z</time>
      </trkpt>
      <trkpt lat="48.2037" lon="-3.01613">
        <ele>186</ele>
        <time>2015-10-12T08:53:46.1Z</time>
      </trkpt>
      <trkpt lat="48.20369" lon="-3.01612">
        <ele>186</ele>
        <time>2015-10-12T08:53:48.1Z</time>
      </trkpt>
      <trkpt lat="48.20369" lon="-3.01613">
        <ele>186</ele>
        <time>2015-10-12T08:53:50.1Z</time>
      </trkpt>
      <trkpt lat="48.20369" lon="-3.01613">
        <ele>186</ele>
        <time>2015-10-12T08:53:53.1Z</time>
      </trkpt>
      <trkpt lat="48.2037" lon="-3.01615">
        <ele>186</ele>
        <time>2015-10-12T08:53:55.1Z</time>
      </trkpt>
      <trkpt lat="48.2037" lon="-3.01615">
        <ele>187</ele>
        <time>2015-10-12T08:53:57.1Z</time>
      </trkpt>
      <trkpt lat="48.2037" lon="-3.01616">
        <ele>186</ele>
        <time>2015-10-12T08:53:59.1Z</time>
      </trkpt>
      <trkpt lat="48.20369" lon="-3.01615">
        <ele>186</ele>
        <time>2015-10-12T08:54:02.1Z</time>
      </trkpt>
      <trkpt lat="48.20369" lon="-3.01616">
        <ele>186</ele>
        <time>2015-10-12T08:54:04.1Z</time>
      </trkpt>
      <trkpt lat="48.20369" lon="-3.01618">
        <ele>186</ele>
        <time>2015-10-12T08:54:07.1Z</time>
      </trkpt>
      <trkpt lat="48.20369" lon="-3.01621">
        <ele>187</ele>
        <time>2015-10-12T08:54:09.1Z</time>
      </trkpt>
      <trkpt lat="48.20368" lon="-3.01624">
        <ele>187</ele>
        <time>2015-10-12T08:54:12.1Z</time>
      </trkpt>
      <trkpt lat="48.20368" lon="-3.01627">
        <ele>187</ele>
        <time>2015-10-12T08:54:14.1Z</time>
      </trkpt>
      <trkpt lat="48.20368" lon="-3.0163">
        <ele>187</ele>
        <time>2015-10-12T08:54:16.1Z</time>
      </trkpt>
      <trkpt lat="48.20369" lon="-3.01633">
        <ele>188</ele>
        <time>2015-10-12T08:54:18.1Z</time>
      </trkpt>
      <trkpt lat="48.20369" lon="-3.01636">
        <ele>188</ele>
        <time>2015-10-12T08:54:21.1Z</time>
      </trkpt>
      <trkpt lat="48.2037" lon="-3.01638">
        <ele>189</ele>
        <time>2015-10-12T08:54:23.1Z</time>
      </trkpt>
      <trkpt lat="48.20371" lon="-3.01639">
        <ele>189</ele>
        <time>2015-10-12T08:54:26.1Z</time>
      </trkpt>
      <trkpt lat="48.20372" lon="-3.01639">
        <ele>190</ele>
        <time>2015-10-12T08:54:29.1Z</time>
      </trkpt>
      <trkpt lat="48.20371" lon="-3.01638">
        <ele>190</ele>
        <time>2015-10-12T08:54:31.1Z</time>
      </trkpt>
      <trkpt lat="48.2037" lon="-3.01637">
        <ele>190</ele>
        <time>2015-10-12T08:54:34.1Z</time>
      </trkpt>
      <trkpt lat="48.20369" lon="-3.01635">
        <ele>190</ele>
        <time>2015-10-12T08:54:37.1Z</time>
      </trkpt>
      <trkpt lat="48.20369" lon="-3.01635">
        <ele>190</ele>
        <time>2015-10-12T08:54:39.1Z</time>
      </trkpt>
      <trkpt lat="48.20369" lon="-3.01635">
        <ele>190</ele>
        <time>2015-10-12T08:54:42.1Z</time>
      </trkpt>
      <trkpt lat="48.20368" lon="-3.01635">
        <ele>191</ele>
        <time>2015-10-12T08:54:44.1Z</time>
      </trkpt>
      <trkpt lat="48.20368" lon="-3.01634">
        <ele>191</ele>
        <time>2015-10-12T08:54:47.1Z</time>
      </trkpt>
      <trkpt lat="48.20368" lon="-3.01634">
        <ele>190</ele>
        <time>2015-10-12T08:54:49.1Z</time>
      </trkpt>
      <trkpt lat="48.20368" lon="-3.01633">
        <ele>190</ele>
        <time>2015-10-12T08:54:52.1Z</time>
      </trkpt>
      <trkpt lat="48.20368" lon="-3.01632">
        <ele>190</ele>
        <time>2015-10-12T08:54:55.1Z</time>
      </trkpt>
      <trkpt lat="48.20368" lon="-3.01632">
        <ele>190</ele>
        <time>2015-10-12T08:54:58.1Z</time>
      </trkpt>
      <trkpt lat="48.20368" lon="-3.01632">
        <ele>191</ele>
        <time>2015-10-12T08:55:02.1Z</time>
      </trkpt>
      <trkpt lat="48.20367" lon="-3.01632">
        <ele>190</ele>
        <time>2015-10-12T08:55:04.1Z</time>
      </trkpt>
      <trkpt lat="48.20367" lon="-3.01632">
        <ele>190</ele>
        <time>2015-10-12T08:55:07.1Z</time>
      </trkpt>
      <trkpt lat="48.20367" lon="-3.01633">
        <ele>190</ele>
        <time>2015-10-12T08:55:09.1Z</time>
      </trkpt>
      <trkpt lat="48.20368" lon="-3.01634">
        <ele>190</ele>
        <time>2015-10-12T08:55:12.1Z</time>
      </trkpt>
      <trkpt lat="48.20367" lon="-3.01634">
        <ele>190</ele>
        <time>2015-10-12T08:55:15.1Z</time>
      </trkpt>
      <trkpt lat="48.20366" lon="-3.01635">
        <ele>190</ele>
        <time>2015-10-12T08:55:18.1Z</time>
      </trkpt>
      <trkpt lat="48.20365" lon="-3.01637">
        <ele>189</ele>
        <time>2015-10-12T08:55:20.1Z</time>
      </trkpt>
      <trkpt lat="48.20364" lon="-3.01639">
        <ele>189</ele>
        <time>2015-10-12T08:55:23.1Z</time>
      </trkpt>
      <trkpt lat="48.20363" lon="-3.01643">
        <ele>189</ele>
        <time>2015-10-12T08:55:25.1Z</time>
      </trkpt>
      <trkpt lat="48.20364" lon="-3.01645">
        <ele>189</ele>
        <time>2015-10-12T08:55:27.1Z</time>
      </trkpt>
      <trkpt lat="48.20365" lon="-3.01646">
        <ele>190</ele>
        <time>2015-10-12T08:55:30.1Z</time>
      </trkpt>
      <trkpt lat="48.20364" lon="-3.01645">
        <ele>190</ele>
        <time>2015-10-12T08:55:33.1Z</time>
      </trkpt>
      <trkpt lat="48.20363" lon="-3.01648">
        <ele>190</ele>
        <time>2015-10-12T08:55:36.1Z</time>
      </trkpt>
      <trkpt lat="48.20364" lon="-3.01651">
        <ele>190</ele>
        <time>2015-10-12T08:55:39.1Z</time>
      </trkpt>
      <trkpt lat="48.20363" lon="-3.01654">
        <ele>191</ele>
        <time>2015-10-12T08:55:41.1Z</time>
      </trkpt>
      <trkpt lat="48.20362" lon="-3.01655">
        <ele>191</ele>
        <time>2015-10-12T08:55:43.1Z</time>
      </trkpt>
      <trkpt lat="48.20362" lon="-3.01655">
        <ele>191</ele>
        <time>2015-10-12T08:55:46.1Z</time>
      </trkpt>
      <trkpt lat="48.20361" lon="-3.01655">
        <ele>192</ele>
        <time>2015-10-12T08:55:49.1Z</time>
      </trkpt>
      <trkpt lat="48.20361" lon="-3.01655">
        <ele>192</ele>
        <time>2015-10-12T08:55:51.1Z</time>
      </trkpt>
      <trkpt lat="48.20361" lon="-3.01652">
        <ele>191</ele>
        <time>2015-10-12T08:55:53.1Z</time>
      </trkpt>
      <trkpt lat="48.20361" lon="-3.01648">
        <ele>190</ele>
        <time>2015-10-12T08:55:56.1Z</time>
      </trkpt>
      <trkpt lat="48.20361" lon="-3.01647">
        <ele>190</ele>
        <time>2015-10-12T08:55:58.1Z</time>
      </trkpt>
      <trkpt lat="48.20362" lon="-3.01644">
        <ele>189</ele>
        <time>2015-10-12T08:56:00.1Z</time>
      </trkpt>
      <trkpt lat="48.20364" lon="-3.01642">
        <ele>189</ele>
        <time>2015-10-12T08:56:03.1Z</time>
      </trkpt>
      <trkpt lat="48.20364" lon="-3.0164">
        <ele>189</ele>
        <time>2015-10-12T08:56:05.1Z</time>
      </trkpt>
      <trkpt lat="48.20364" lon="-3.01639">
        <ele>189</ele>
        <time>2015-10-12T08:56:07.1Z</time>
      </trkpt>
      <trkpt lat="48.20366" lon="-3.01638">
        <ele>189</ele>
        <time>2015-10-12T08:56:09.1Z</time>
      </trkpt>
      <trkpt lat="48.20368" lon="-3.01633">
        <ele>189</ele>
        <time>2015-10-12T08:56:12.1Z</time>
      </trkpt>
      <trkpt lat="48.20368" lon="-3.01632">
        <ele>189</ele>
        <time>2015-10-12T08:56:14.1Z</time>
      </trkpt>
      <trkpt lat="48.20368" lon="-3.01633">
        <ele>189</ele>
        <time>2015-10-12T08:56:18.1Z</time>
      </trkpt>
      <trkpt lat="48.20368" lon="-3.01633">
        <ele>188</ele>
        <time>2015-10-12T08:56:20.1Z</time>
      </trkpt>
      <trkpt lat="48.20368" lon="-3.01634">
        <ele>188</ele>
        <time>2015-10-12T08:56:23.1Z</time>
      </trkpt>
      <trkpt lat="48.20369" lon="-3.01634">
        <ele>188</ele>
        <time>2015-10-12T08:56:26.1Z</time>
      </trkpt>
      <trkpt lat="48.20369" lon="-3.01634">
        <ele>188</ele>
        <time>2015-10-12T08:56:29.1Z</time>
      </trkpt>
      <trkpt lat="48.20369" lon="-3.01634">
        <ele>189</ele>
        <time>2015-10-12T08:56:33.1Z</time>
      </trkpt>
      <trkpt lat="48.20369" lon="-3.01634">
        <ele>189</ele>
        <time>2015-10-12T08:56:35.1Z</time>
      </trkpt>
      <trkpt lat="48.20369" lon="-3.01634">
        <ele>188</ele>
        <time>2015-10-12T08:56:40.1Z</time>
      </trkpt>
      <trkpt lat="48.20369" lon="-3.01633">
        <ele>188</ele>
        <time>2015-10-12T08:56:42.1Z</time>
      </trkpt>
      <trkpt lat="48.20369" lon="-3.01633">
        <ele>188</ele>
        <time>2015-10-12T08:56:47.1Z</time>
      </trkpt>
      <trkpt lat="48.20369" lon="-3.01633">
        <ele>189</ele>
        <time>2015-10-12T08:56:50.1Z</time>
      </trkpt>
      <trkpt lat="48.20369" lon="-3.01633">
        <ele>188</ele>
        <time>2015-10-12T08:56:53.1Z</time>
      </trkpt>
      <trkpt lat="48.20369" lon="-3.01632">
        <ele>188</ele>
        <time>2015-10-12T08:56:57.1Z</time>
      </trkpt>
      <trkpt lat="48.20369" lon="-3.01632">
        <ele>188</ele>
        <time>2015-10-12T08:56:59.1Z</time>
      </trkpt>
      <trkpt lat="48.20369" lon="-3.01632">
        <ele>188</ele>
        <time>2015-10-12T08:57:02.1Z</time>
      </trkpt>
      <trkpt lat="48.20369" lon="-3.01632">
        <ele>189</ele>
        <time>2015-10-12T08:57:05.1Z</time>
      </trkpt>
      <trkpt lat="48.20369" lon="-3.01632">
        <ele>189</ele>
        <time>2015-10-12T08:57:07.1Z</time>
      </trkpt>
      <trkpt lat="48.20369" lon="-3.01632">
        <ele>189</ele>
        <time>2015-10-12T08:57:09.1Z</time>
      </trkpt>
      <trkpt lat="48.20369" lon="-3.01632">
        <ele>188</ele>
        <time>2015-10-12T08:57:13.1Z</time>
      </trkpt>
      <trkpt lat="48.20369" lon="-3.01633">
        <ele>188</ele>
        <time>2015-10-12T08:57:17.1Z</time>
      </trkpt>
      <trkpt lat="48.2037" lon="-3.01633">
        <ele>188</ele>
        <time>2015-10-12T08:57:19.1Z</time>
      </trkpt>
      <trkpt lat="48.20369" lon="-3.01633">
        <ele>188</ele>
        <time>2015-10-12T08:57:23.1Z</time>
      </trkpt>
      <trkpt lat="48.20369" lon="-3.01633">
        <ele>188</ele>
        <time>2015-10-12T08:57:25.1Z</time>
      </trkpt>
      <trkpt lat="48.20369" lon="-3.01633">
        <ele>188</ele>
        <time>2015-10-12T08:57:29.1Z</time>
      </trkpt>
      <trkpt lat="48.20369" lon="-3.01633">
        <ele>188</ele>
        <time>2015-10-12T08:57:32.1Z</time>
      </trkpt>
      <trkpt lat="48.20368" lon="-3.01632">
        <ele>188</ele>
        <time>2015-10-12T08:57:35.1Z</time>
      </trkpt>
      <trkpt lat="48.20368" lon="-3.01633">
        <ele>188</ele>
        <time>2015-10-12T08:57:37.1Z</time>
      </trkpt>
      <trkpt lat="48.20368" lon="-3.01632">
        <ele>188</ele>
        <time>2015-10-12T08:57:40.1Z</time>
      </trkpt>
      <trkpt lat="48.20367" lon="-3.01632">
        <ele>188</ele>
        <time>2015-10-12T08:57:43.1Z</time>
      </trkpt>
      <trkpt lat="48.20367" lon="-3.01633">
        <ele>188</ele>
        <time>2015-10-12T08:57:46.1Z</time>
      </trkpt>
      <trkpt lat="48.20367" lon="-3.01633">
        <ele>188</ele>
        <time>2015-10-12T08:57:48.1Z</time>
      </trkpt>
      <trkpt lat="48.20367" lon="-3.01632">
        <ele>188</ele>
        <time>2015-10-12T08:57:51.1Z</time>
      </trkpt>
      <trkpt lat="48.20367" lon="-3.01633">
        <ele>188</ele>
        <time>2015-10-12T08:57:53.1Z</time>
      </trkpt>
      <trkpt lat="48.20366" lon="-3.01633">
        <ele>188</ele>
        <time>2015-10-12T08:57:56.1Z</time>
      </trkpt>
      <trkpt lat="48.20366" lon="-3.01634">
        <ele>188</ele>
        <time>2015-10-12T08:58:00.1Z</time>
      </trkpt>
      <trkpt lat="48.20366" lon="-3.01634">
        <ele>188</ele>
        <time>2015-10-12T08:58:02.1Z</time>
      </trkpt>
      <trkpt lat="48.20365" lon="-3.01634">
        <ele>188</ele>
        <time>2015-10-12T08:58:04.1Z</time>
      </trkpt>
      <trkpt lat="48.20364" lon="-3.01634">
        <ele>188</ele>
        <time>2015-10-12T08:58:07.1Z</time>
      </trkpt>
      <trkpt lat="48.20364" lon="-3.01634">
        <ele>188</ele>
        <time>2015-10-12T08:58:10.1Z</time>
      </trkpt>
      <trkpt lat="48.20364" lon="-3.01634">
        <ele>188</ele>
        <time>2015-10-12T08:58:12.1Z</time>
      </trkpt>
      <trkpt lat="48.20364" lon="-3.01634">
        <ele>188</ele>
        <time>2015-10-12T08:58:14.1Z</time>
      </trkpt>
      <trkpt lat="48.20364" lon="-3.01633">
        <ele>188</ele>
        <time>2015-10-12T08:58:17.1Z</time>
      </trkpt>
      <trkpt lat="48.20364" lon="-3.01634">
        <ele>188</ele>
        <time>2015-10-12T08:58:20.1Z</time>
      </trkpt>
      <trkpt lat="48.20364" lon="-3.01634">
        <ele>188</ele>
        <time>2015-10-12T08:58:22.1Z</time>
      </trkpt>
      <trkpt lat="48.20364" lon="-3.01634">
        <ele>188</ele>
        <time>2015-10-12T08:58:25.1Z</time>
      </trkpt>
      <trkpt lat="48.20364" lon="-3.01635">
        <ele>188</ele>
        <time>2015-10-12T08:58:27.1Z</time>
      </trkpt>
      <trkpt lat="48.20364" lon="-3.01636">
        <ele>188</ele>
        <time>2015-10-12T08:58:30.1Z</time>
      </trkpt>
      <trkpt lat="48.20364" lon="-3.01636">
        <ele>188</ele>
        <time>2015-10-12T08:58:33.1Z</time>
      </trkpt>
      <trkpt lat="48.20364" lon="-3.01636">
        <ele>188</ele>
        <time>2015-10-12T08:58:36.1Z</time>
      </trkpt>
      <trkpt lat="48.20364" lon="-3.01636">
        <ele>188</ele>
        <time>2015-10-12T08:58:38.1Z</time>
      </trkpt>
      <trkpt lat="48.20364" lon="-3.01636">
        <ele>189</ele>
        <time>2015-10-12T08:58:40.1Z</time>
      </trkpt>
      <trkpt lat="48.20364" lon="-3.01636">
        <ele>189</ele>
        <time>2015-10-12T08:58:42.1Z</time>
      </trkpt>
      <trkpt lat="48.20364" lon="-3.01636">
        <ele>189</ele>
        <time>2015-10-12T08:58:45.1Z</time>
      </trkpt>
      <trkpt lat="48.20364" lon="-3.01636">
        <ele>188</ele>
        <time>2015-10-12T08:58:48.1Z</time>
      </trkpt>
      <trkpt lat="48.20366" lon="-3.0164">
        <ele>188</ele>
        <time>2015-10-12T08:58:51.1Z</time>
      </trkpt>
      <trkpt lat="48.20366" lon="-3.01641">
        <ele>189</ele>
        <time>2015-10-12T08:58:54.1Z</time>
      </trkpt>
      <trkpt lat="48.20367" lon="-3.01642">
        <ele>189</ele>
        <time>2015-10-12T08:58:57.1Z</time>
      </trkpt>
      <trkpt lat="48.20368" lon="-3.01642">
        <ele>189</ele>
        <time>2015-10-12T08:58:59.1Z</time>
      </trkpt>
      <trkpt lat="48.20369" lon="-3.01642">
        <ele>188</ele>
        <time>2015-10-12T08:59:02.1Z</time>
      </trkpt>
      <trkpt lat="48.20369" lon="-3.01642">
        <ele>188</ele>
        <time>2015-10-12T08:59:05.1Z</time>
      </trkpt>
      <trkpt lat="48.20369" lon="-3.01642">
        <ele>189</ele>
        <time>2015-10-12T08:59:08.1Z</time>
      </trkpt>
      <trkpt lat="48.2037" lon="-3.01642">
        <ele>189</ele>
        <time>2015-10-12T08:59:11.1Z</time>
      </trkpt>
      <trkpt lat="48.2037" lon="-3.01641">
        <ele>189</ele>
        <time>2015-10-12T08:59:14.1Z</time>
      </trkpt>
      <trkpt lat="48.2037" lon="-3.01641">
        <ele>189</ele>
        <time>2015-10-12T08:59:17.1Z</time>
      </trkpt>
      <trkpt lat="48.2037" lon="-3.01641">
        <ele>188</ele>
        <time>2015-10-12T08:59:19.1Z</time>
      </trkpt>
      <trkpt lat="48.2037" lon="-3.0164">
        <ele>189</ele>
        <time>2015-10-12T08:59:22.1Z</time>
      </trkpt>
      <trkpt lat="48.20371" lon="-3.0164">
        <ele>188</ele>
        <time>2015-10-12T08:59:25.1Z</time>
      </trkpt>
      <trkpt lat="48.20371" lon="-3.0164">
        <ele>189</ele>
        <time>2015-10-12T08:59:28.1Z</time>
      </trkpt>
      <trkpt lat="48.20371" lon="-3.0164">
        <ele>188</ele>
        <time>2015-10-12T08:59:30.1Z</time>
      </trkpt>
      <trkpt lat="48.20372" lon="-3.0164">
        <ele>188</ele>
        <time>2015-10-12T08:59:34.1Z</time>
      </trkpt>
      <trkpt lat="48.20372" lon="-3.0164">
        <ele>188</ele>
        <time>2015-10-12T08:59:37.1Z</time>
      </trkpt>
      <trkpt lat="48.20372" lon="-3.0164">
        <ele>188</ele>
        <time>2015-10-12T08:59:40.1Z</time>
      </trkpt>
      <trkpt lat="48.20372" lon="-3.01639">
        <ele>189</ele>
        <time>2015-10-12T08:59:43.1Z</time>
      </trkpt>
      <trkpt lat="48.20372" lon="-3.01639">
        <ele>188</ele>
        <time>2015-10-12T08:59:45.1Z</time>
      </trkpt>
      <trkpt lat="48.20371" lon="-3.01639">
        <ele>189</ele>
        <time>2015-10-12T08:59:48.1Z</time>
      </trkpt>
      <trkpt lat="48.20371" lon="-3.01639">
        <ele>188</ele>
        <time>2015-10-12T08:59:51.1Z</time>
      </trkpt>
      <trkpt lat="48.20371" lon="-3.01638">
        <ele>188</ele>
        <time>2015-10-12T08:59:53.1Z</time>
      </trkpt>
      <trkpt lat="48.20371" lon="-3.01638">
        <ele>189</ele>
        <time>2015-10-12T08:59:55.1Z</time>
      </trkpt>
      <trkpt lat="48.20371" lon="-3.01638">
        <ele>188</ele>
        <time>2015-10-12T08:59:57.1Z</time>
      </trkpt>
      <trkpt lat="48.20371" lon="-3.01638">
        <ele>188</ele>
        <time>2015-10-12T09:00:00.1Z</time>
      </trkpt>
      <trkpt lat="48.20371" lon="-3.01638">
        <ele>188</ele>
        <time>2015-10-12T09:00:02.1Z</time>
      </trkpt>
      <trkpt lat="48.20371" lon="-3.01637">
        <ele>188</ele>
        <time>2015-10-12T09:00:05.1Z</time>
      </trkpt>
      <trkpt lat="48.20371" lon="-3.01636">
        <ele>189</ele>
        <time>2015-10-12T09:00:08.1Z</time>
      </trkpt>
      <trkpt lat="48.20371" lon="-3.01636">
        <ele>189</ele>
        <time>2015-10-12T09:00:11.1Z</time>
      </trkpt>
      <trkpt lat="48.20371" lon="-3.01635">
        <ele>188</ele>
        <time>2015-10-12T09:00:13.1Z</time>
      </trkpt>
      <trkpt lat="48.2037" lon="-3.01635">
        <ele>188</ele>
        <time>2015-10-12T09:00:15.1Z</time>
      </trkpt>
      <trkpt lat="48.2037" lon="-3.01635">
        <ele>188</ele>
        <time>2015-10-12T09:00:18.1Z</time>
      </trkpt>
      <trkpt lat="48.20371" lon="-3.01637">
        <ele>188</ele>
        <time>2015-10-12T09:00:21.1Z</time>
      </trkpt>
      <trkpt lat="48.20371" lon="-3.01637">
        <ele>189</ele>
        <time>2015-10-12T09:00:23.1Z</time>
      </trkpt>
      <trkpt lat="48.20372" lon="-3.01637">
        <ele>189</ele>
        <time>2015-10-12T09:00:26.1Z</time>
      </trkpt>
      <trkpt lat="48.20371" lon="-3.01637">
        <ele>189</ele>
        <time>2015-10-12T09:00:28.1Z</time>
      </trkpt>
      <trkpt lat="48.20371" lon="-3.01636">
        <ele>189</ele>
        <time>2015-10-12T09:00:30.1Z</time>
      </trkpt>
      <trkpt lat="48.2037" lon="-3.01635">
        <ele>189</ele>
        <time>2015-10-12T09:00:32.1Z</time>
      </trkpt>
      <trkpt lat="48.20369" lon="-3.01634">
        <ele>189</ele>
        <time>2015-10-12T09:00:35.1Z</time>
      </trkpt>
      <trkpt lat="48.20369" lon="-3.01634">
        <ele>189</ele>
        <time>2015-10-12T09:00:37.1Z</time>
      </trkpt>
      <trkpt lat="48.20369" lon="-3.01634">
        <ele>189</ele>
        <time>2015-10-12T09:00:39.1Z</time>
      </trkpt>
      <trkpt lat="48.20368" lon="-3.01634">
        <ele>188</ele>
        <time>2015-10-12T09:00:42.1Z</time>
      </trkpt>
      <trkpt lat="48.20368" lon="-3.01634">
        <ele>189</ele>
        <time>2015-10-12T09:00:44.1Z</time>
      </trkpt>
      <trkpt lat="48.20368" lon="-3.01633">
        <ele>188</ele>
        <time>2015-10-12T09:00:48.1Z</time>
      </trkpt>
      <trkpt lat="48.20367" lon="-3.01632">
        <ele>189</ele>
        <time>2015-10-12T09:00:51.1Z</time>
      </trkpt>
      <trkpt lat="48.20367" lon="-3.01632">
        <ele>188</ele>
        <time>2015-10-12T09:00:54.1Z</time>
      </trkpt>
      <trkpt lat="48.20367" lon="-3.01632">
        <ele>188</ele>
        <time>2015-10-12T09:00:56.1Z</time>
      </trkpt>
      <trkpt lat="48.20367" lon="-3.01632">
        <ele>188</ele>
        <time>2015-10-12T09:00:59.1Z</time>
      </trkpt>
      <trkpt lat="48.20366" lon="-3.01632">
        <ele>188</ele>
        <time>2015-10-12T09:01:03.1Z</time>
      </trkpt>
      <trkpt lat="48.20366" lon="-3.01632">
        <ele>189</ele>
        <time>2015-10-12T09:01:05.1Z</time>
      </trkpt>
      <trkpt lat="48.20366" lon="-3.01632">
        <ele>189</ele>
        <time>2015-10-12T09:01:07.1Z</time>
      </trkpt>
      <trkpt lat="48.20366" lon="-3.01632">
        <ele>189</ele>
        <time>2015-10-12T09:01:11.1Z</time>
      </trkpt>
      <trkpt lat="48.20365" lon="-3.01631">
        <ele>188</ele>
        <time>2015-10-12T09:01:14.1Z</time>
      </trkpt>
      <trkpt lat="48.20365" lon="-3.01631">
        <ele>188</ele>
        <time>2015-10-12T09:01:16.1Z</time>
      </trkpt>
      <trkpt lat="48.20365" lon="-3.01631">
        <ele>188</ele>
        <time>2015-10-12T09:01:18.1Z</time>
      </trkpt>
      <trkpt lat="48.20365" lon="-3.01632">
        <ele>188</ele>
        <time>2015-10-12T09:01:21.1Z</time>
      </trkpt>
      <trkpt lat="48.20365" lon="-3.01632">
        <ele>188</ele>
        <time>2015-10-12T09:01:23.1Z</time>
      </trkpt>
      <trkpt lat="48.20365" lon="-3.01634">
        <ele>189</ele>
        <time>2015-10-12T09:01:27.1Z</time>
      </trkpt>
      <trkpt lat="48.20364" lon="-3.01635">
        <ele>189</ele>
        <time>2015-10-12T09:01:29.1Z</time>
      </trkpt>
      <trkpt lat="48.20364" lon="-3.01636">
        <ele>189</ele>
        <time>2015-10-12T09:01:31.1Z</time>
      </trkpt>
      <trkpt lat="48.20364" lon="-3.01637">
        <ele>189</ele>
        <time>2015-10-12T09:01:34.1Z</time>
      </trkpt>
      <trkpt lat="48.20363" lon="-3.01639">
        <ele>190</ele>
        <time>2015-10-12T09:01:36.1Z</time>
      </trkpt>
      <trkpt lat="48.20362" lon="-3.01641">
        <ele>190</ele>
        <time>2015-10-12T09:01:39.1Z</time>
      </trkpt>
      <trkpt lat="48.20362" lon="-3.01642">
        <ele>190</ele>
        <time>2015-10-12T09:01:41.1Z</time>
      </trkpt>
      <trkpt lat="48.20362" lon="-3.01643">
        <ele>190</ele>
        <time>2015-10-12T09:01:43.1Z</time>
      </trkpt>
      <trkpt lat="48.20362" lon="-3.01645">
        <ele>190</ele>
        <time>2015-10-12T09:01:46.1Z</time>
      </trkpt>
      <trkpt lat="48.20362" lon="-3.01646">
        <ele>190</ele>
        <time>2015-10-12T09:01:48.1Z</time>
      </trkpt>
      <trkpt lat="48.20362" lon="-3.01648">
        <ele>190</ele>
        <time>2015-10-12T09:01:50.1Z</time>
      </trkpt>
      <trkpt lat="48.20363" lon="-3.01651">
        <ele>190</ele>
        <time>2015-10-12T09:01:53.1Z</time>
      </trkpt>
      <trkpt lat="48.20363" lon="-3.01651">
        <ele>190</ele>
        <time>2015-10-12T09:01:56.1Z</time>
      </trkpt>
      <trkpt lat="48.20363" lon="-3.01654">
        <ele>190</ele>
        <time>2015-10-12T09:01:58.1Z</time>
      </trkpt>
      <trkpt lat="48.20364" lon="-3.01655">
        <ele>191</ele>
        <time>2015-10-12T09:02:01.1Z</time>
      </trkpt>
      <trkpt lat="48.20364" lon="-3.01655">
        <ele>191</ele>
        <time>2015-10-12T09:02:03.1Z</time>
      </trkpt>
      <trkpt lat="48.20364" lon="-3.01655">
        <ele>191</ele>
        <time>2015-10-12T09:02:06.1Z</time>
      </trkpt>
      <trkpt lat="48.20364" lon="-3.01654">
        <ele>191</ele>
        <time>2015-10-12T09:02:08.1Z</time>
      </trkpt>
      <trkpt lat="48.20364" lon="-3.01653">
        <ele>191</ele>
        <time>2015-10-12T09:02:11.1Z</time>
      </trkpt>
      <trkpt lat="48.20364" lon="-3.01653">
        <ele>191</ele>
        <time>2015-10-12T09:02:13.1Z</time>
      </trkpt>
      <trkpt lat="48.20364" lon="-3.01652">
        <ele>191</ele>
        <time>2015-10-12T09:02:15.1Z</time>
      </trkpt>
      <trkpt lat="48.20365" lon="-3.01652">
        <ele>191</ele>
        <time>2015-10-12T09:02:18.1Z</time>
      </trkpt>
      <trkpt lat="48.20364" lon="-3.01652">
        <ele>191</ele>
        <time>2015-10-12T09:02:20.1Z</time>
      </trkpt>
      <trkpt lat="48.20364" lon="-3.01651">
        <ele>191</ele>
        <time>2015-10-12T09:02:23.1Z</time>
      </trkpt>
      <trkpt lat="48.20364" lon="-3.01649">
        <ele>191</ele>
        <time>2015-10-12T09:02:26.1Z</time>
      </trkpt>
      <trkpt lat="48.20364" lon="-3.01649">
        <ele>191</ele>
        <time>2015-10-12T09:02:28.1Z</time>
      </trkpt>
      <trkpt lat="48.20364" lon="-3.01648">
        <ele>191</ele>
        <time>2015-10-12T09:02:30.1Z</time>
      </trkpt>
      <trkpt lat="48.20365" lon="-3.01647">
        <ele>191</ele>
        <time>2015-10-12T09:02:33.1Z</time>
      </trkpt>
      <trkpt lat="48.20365" lon="-3.01646">
        <ele>191</ele>
        <time>2015-10-12T09:02:35.1Z</time>
      </trkpt>
      <trkpt lat="48.20365" lon="-3.01646">
        <ele>191</ele>
        <time>2015-10-12T09:02:38.1Z</time>
      </trkpt>
      <trkpt lat="48.20364" lon="-3.01645">
        <ele>191</ele>
        <time>2015-10-12T09:02:40.1Z</time>
      </trkpt>
      <trkpt lat="48.20365" lon="-3.01645">
        <ele>191</ele>
        <time>2015-10-12T09:02:43.1Z</time>
      </trkpt>
      <trkpt lat="48.20364" lon="-3.01645">
        <ele>191</ele>
        <time>2015-10-12T09:02:45.1Z</time>
      </trkpt>
      <trkpt lat="48.20364" lon="-3.01646">
        <ele>191</ele>
        <time>2015-10-12T09:02:47.1Z</time>
      </trkpt>
      <trkpt lat="48.20364" lon="-3.01647">
        <ele>192</ele>
        <time>2015-10-12T09:02:50.1Z</time>
      </trkpt>
      <trkpt lat="48.20364" lon="-3.01647">
        <ele>192</ele>
        <time>2015-10-12T09:02:54.1Z</time>
      </trkpt>
      <trkpt lat="48.20364" lon="-3.01647">
        <ele>191</ele>
        <time>2015-10-12T09:02:58.1Z</time>
      </trkpt>
      <trkpt lat="48.20364" lon="-3.01647">
        <ele>191</ele>
        <time>2015-10-12T09:03:00.1Z</time>
      </trkpt>
      <trkpt lat="48.20364" lon="-3.01647">
        <ele>191</ele>
        <time>2015-10-12T09:03:03.1Z</time>
      </trkpt>
      <trkpt lat="48.20364" lon="-3.01647">
        <ele>191</ele>
        <time>2015-10-12T09:03:05.1Z</time>
      </trkpt>
      <trkpt lat="48.20364" lon="-3.01648">
        <ele>191</ele>
        <time>2015-10-12T09:03:08.1Z</time>
      </trkpt>
      <trkpt lat="48.20364" lon="-3.01648">
        <ele>191</ele>
        <time>2015-10-12T09:03:12.1Z</time>
      </trkpt>
      <trkpt lat="48.20364" lon="-3.01648">
        <ele>191</ele>
        <time>2015-10-12T09:03:15.1Z</time>
      </trkpt>
      <trkpt lat="48.20364" lon="-3.01647">
        <ele>191</ele>
        <time>2015-10-12T09:03:18.1Z</time>
      </trkpt>
      <trkpt lat="48.20364" lon="-3.01646">
        <ele>191</ele>
        <time>2015-10-12T09:03:20.1Z</time>
      </trkpt>
      <trkpt lat="48.20363" lon="-3.01646">
        <ele>191</ele>
        <time>2015-10-12T09:03:22.1Z</time>
      </trkpt>
      <trkpt lat="48.20363" lon="-3.01646">
        <ele>191</ele>
        <time>2015-10-12T09:03:25.1Z</time>
      </trkpt>
      <trkpt lat="48.20362" lon="-3.01645">
        <ele>191</ele>
        <time>2015-10-12T09:03:27.1Z</time>
      </trkpt>
      <trkpt lat="48.20362" lon="-3.01645">
        <ele>191</ele>
        <time>2015-10-12T09:03:30.1Z</time>
      </trkpt>
      <trkpt lat="48.20363" lon="-3.01646">
        <ele>191</ele>
        <time>2015-10-12T09:03:33.1Z</time>
      </trkpt>
      <trkpt lat="48.20363" lon="-3.01647">
        <ele>192</ele>
        <time>2015-10-12T09:03:37.1Z</time>
      </trkpt>
      <trkpt lat="48.20363" lon="-3.01646">
        <ele>192</ele>
        <time>2015-10-12T09:03:39.1Z</time>
      </trkpt>
      <trkpt lat="48.20363" lon="-3.01647">
        <ele>193</ele>
        <time>2015-10-12T09:03:42.1Z</time>
      </trkpt>
      <trkpt lat="48.20363" lon="-3.01647">
        <ele>193</ele>
        <time>2015-10-12T09:03:45.1Z</time>
      </trkpt>
      <trkpt lat="48.20363" lon="-3.01647">
        <ele>193</ele>
        <time>2015-10-12T09:03:49.1Z</time>
      </trkpt>
      <trkpt lat="48.20364" lon="-3.01647">
        <ele>192</ele>
        <time>2015-10-12T09:03:52.1Z</time>
      </trkpt>
      <trkpt lat="48.20364" lon="-3.01647">
        <ele>192</ele>
        <time>2015-10-12T09:03:54.1Z</time>
      </trkpt>
      <trkpt lat="48.20364" lon="-3.01648">
        <ele>192</ele>
        <time>2015-10-12T09:03:57.1Z</time>
      </trkpt>
      <trkpt lat="48.20364" lon="-3.01648">
        <ele>193</ele>
        <time>2015-10-12T09:03:59.1Z</time>
      </trkpt>
      <trkpt lat="48.20364" lon="-3.01649">
        <ele>193</ele>
        <time>2015-10-12T09:04:02.1Z</time>
      </trkpt>
      <trkpt lat="48.20363" lon="-3.0165">
        <ele>192</ele>
        <time>2015-10-12T09:04:04.1Z</time>
      </trkpt>
      <trkpt lat="48.20362" lon="-3.0165">
        <ele>191</ele>
        <time>2015-10-12T09:04:07.1Z</time>
      </trkpt>
      <trkpt lat="48.20362" lon="-3.0165">
        <ele>191</ele>
        <time>2015-10-12T09:04:10.1Z</time>
      </trkpt>
      <trkpt lat="48.20363" lon="-3.01648">
        <ele>190</ele>
        <time>2015-10-12T09:04:13.1Z</time>
      </trkpt>
      <trkpt lat="48.20362" lon="-3.01647">
        <ele>191</ele>
        <time>2015-10-12T09:04:15.1Z</time>
      </trkpt>
      <trkpt lat="48.20361" lon="-3.01648">
        <ele>190</ele>
        <time>2015-10-12T09:04:17.1Z</time>
      </trkpt>
      <trkpt lat="48.20361" lon="-3.01649">
        <ele>190</ele>
        <time>2015-10-12T09:04:20.1Z</time>
      </trkpt>
      <trkpt lat="48.20361" lon="-3.01649">
        <ele>189</ele>
        <time>2015-10-12T09:04:23.1Z</time>
      </trkpt>
      <trkpt lat="48.20361" lon="-3.0165">
        <ele>189</ele>
        <time>2015-10-12T09:04:25.1Z</time>
      </trkpt>
      <trkpt lat="48.2036" lon="-3.01652">
        <ele>189</ele>
        <time>2015-10-12T09:04:28.1Z</time>
      </trkpt>
      <trkpt lat="48.2036" lon="-3.01653">
        <ele>190</ele>
        <time>2015-10-12T09:04:31.1Z</time>
      </trkpt>
      <trkpt lat="48.2036" lon="-3.01653">
        <ele>190</ele>
        <time>2015-10-12T09:04:33.1Z</time>
      </trkpt>
      <trkpt lat="48.2036" lon="-3.01654">
        <ele>190</ele>
        <time>2015-10-12T09:04:36.1Z</time>
      </trkpt>
      <trkpt lat="48.2036" lon="-3.01655">
        <ele>190</ele>
        <time>2015-10-12T09:04:38.1Z</time>
      </trkpt>
      <trkpt lat="48.2036" lon="-3.01655">
        <ele>189</ele>
        <time>2015-10-12T09:04:40.1Z</time>
      </trkpt>
      <trkpt lat="48.20359" lon="-3.01658">
        <ele>189</ele>
        <time>2015-10-12T09:04:43.1Z</time>
      </trkpt>
      <trkpt lat="48.20359" lon="-3.0166">
        <ele>189</ele>
        <time>2015-10-12T09:04:46.1Z</time>
      </trkpt>
      <trkpt lat="48.2036" lon="-3.01661">
        <ele>190</ele>
        <time>2015-10-12T09:04:49.1Z</time>
      </trkpt>
      <trkpt lat="48.2036" lon="-3.01663">
        <ele>190</ele>
        <time>2015-10-12T09:04:52.1Z</time>
      </trkpt>
      <trkpt lat="48.2036" lon="-3.01664">
        <ele>190</ele>
        <time>2015-10-12T09:04:54.1Z</time>
      </trkpt>
      <trkpt lat="48.20361" lon="-3.01664">
        <ele>191</ele>
        <time>2015-10-12T09:04:58.1Z</time>
      </trkpt>
      <trkpt lat="48.2036" lon="-3.01665">
        <ele>191</ele>
        <time>2015-10-12T09:05:01.1Z</time>
      </trkpt>
      <trkpt lat="48.2036" lon="-3.01665">
        <ele>191</ele>
        <time>2015-10-12T09:05:04.1Z</time>
      </trkpt>
      <trkpt lat="48.20359" lon="-3.01666">
        <ele>191</ele>
        <time>2015-10-12T09:05:07.1Z</time>
      </trkpt>
      <trkpt lat="48.20359" lon="-3.01666">
        <ele>190</ele>
        <time>2015-10-12T09:05:09.1Z</time>
      </trkpt>
      <trkpt lat="48.20358" lon="-3.01667">
        <ele>190</ele>
        <time>2015-10-12T09:05:12.1Z</time>
      </trkpt>
      <trkpt lat="48.20359" lon="-3.01666">
        <ele>190</ele>
        <time>2015-10-12T09:05:15.1Z</time>
      </trkpt>
      <trkpt lat="48.20358" lon="-3.01665">
        <ele>190</ele>
        <time>2015-10-12T09:05:18.1Z</time>
      </trkpt>
      <trkpt lat="48.20358" lon="-3.01665">
        <ele>191</ele>
        <time>2015-10-12T09:05:21.1Z</time>
      </trkpt>
      <trkpt lat="48.20357" lon="-3.01666">
        <ele>191</ele>
        <time>2015-10-12T09:05:23.1Z</time>
      </trkpt>
      <trkpt lat="48.20357" lon="-3.01666">
        <ele>190</ele>
        <time>2015-10-12T09:05:26.1Z</time>
      </trkpt>
      <trkpt lat="48.20357" lon="-3.01666">
        <ele>190</ele>
        <time>2015-10-12T09:05:28.1Z</time>
      </trkpt>
      <trkpt lat="48.20357" lon="-3.01668">
        <ele>190</ele>
        <time>2015-10-12T09:05:31.1Z</time>
      </trkpt>
      <trkpt lat="48.20357" lon="-3.0167">
        <ele>190</ele>
        <time>2015-10-12T09:05:34.1Z</time>
      </trkpt>
      <trkpt lat="48.20356" lon="-3.01671">
        <ele>189</ele>
        <time>2015-10-12T09:05:37.1Z</time>
      </trkpt>
      <trkpt lat="48.20356" lon="-3.01672">
        <ele>189</ele>
        <time>2015-10-12T09:05:40.1Z</time>
      </trkpt>
      <trkpt lat="48.20355" lon="-3.01672">
        <ele>189</ele>
        <time>2015-10-12T09:05:42.1Z</time>
      </trkpt>
      <trkpt lat="48.20354" lon="-3.01672">
        <ele>188</ele>
        <time>2015-10-12T09:05:45.1Z</time>
      </trkpt>
      <trkpt lat="48.20353" lon="-3.01673">
        <ele>188</ele>
        <time>2015-10-12T09:05:48.1Z</time>
      </trkpt>
      <trkpt lat="48.20351" lon="-3.01674">
        <ele>188</ele>
        <time>2015-10-12T09:05:51.1Z</time>
      </trkpt>
      <trkpt lat="48.20349" lon="-3.01673">
        <ele>187</ele>
        <time>2015-10-12T09:05:53.1Z</time>
      </trkpt>
      <trkpt lat="48.20348" lon="-3.01675">
        <ele>186</ele>
        <time>2015-10-12T09:05:56.1Z</time>
      </trkpt>
      <trkpt lat="48.20347" lon="-3.01677">
        <ele>185</ele>
        <time>2015-10-12T09:05:59.1Z</time>
      </trkpt>
      <trkpt lat="48.20347" lon="-3.01677">
        <ele>185</ele>
        <time>2015-10-12T09:06:01.1Z</time>
      </trkpt>
      <trkpt lat="48.20346" lon="-3.01677">
        <ele>185</ele>
        <time>2015-10-12T09:06:04.1Z</time>
      </trkpt>
      <trkpt lat="48.20346" lon="-3.01679">
        <ele>184</ele>
        <time>2015-10-12T09:06:07.1Z</time>
      </trkpt>
      <trkpt lat="48.20344" lon="-3.0168">
        <ele>183</ele>
        <time>2015-10-12T09:06:10.1Z</time>
      </trkpt>
      <trkpt lat="48.20343" lon="-3.01684">
        <ele>182</ele>
        <time>2015-10-12T09:06:13.1Z</time>
      </trkpt>
      <trkpt lat="48.20342" lon="-3.01685">
        <ele>182</ele>
        <time>2015-10-12T09:06:16.1Z</time>
      </trkpt>
      <trkpt lat="48.20342" lon="-3.01688">
        <ele>182</ele>
        <time>2015-10-12T09:06:19.1Z</time>
      </trkpt>
      <trkpt lat="48.20341" lon="-3.01689">
        <ele>182</ele>
        <time>2015-10-12T09:06:22.1Z</time>
      </trkpt>
      <trkpt lat="48.2034" lon="-3.01689">
        <ele>181</ele>
        <time>2015-10-12T09:06:24.1Z</time>
      </trkpt>
      <trkpt lat="48.2034" lon="-3.0169">
        <ele>181</ele>
        <time>2015-10-12T09:06:27.1Z</time>
      </trkpt>
      <trkpt lat="48.2034" lon="-3.0169">
        <ele>180</ele>
        <time>2015-10-12T09:06:29.1Z</time>
      </trkpt>
      <trkpt lat="48.20338" lon="-3.01688">
        <ele>180</ele>
        <time>2015-10-12T09:06:32.1Z</time>
      </trkpt>
      <trkpt lat="48.20337" lon="-3.01687">
        <ele>179</ele>
        <time>2015-10-12T09:06:35.1Z</time>
      </trkpt>
      <trkpt lat="48.20336" lon="-3.01686">
        <ele>179</ele>
        <time>2015-10-12T09:06:38.1Z</time>
      </trkpt>
      <trkpt lat="48.20337" lon="-3.01685">
        <ele>178</ele>
        <time>2015-10-12T09:06:41.1Z</time>
      </trkpt>
      <trkpt lat="48.20336" lon="-3.01683">
        <ele>178</ele>
        <time>2015-10-12T09:06:44.1Z</time>
      </trkpt>
      <trkpt lat="48.20335" lon="-3.01684">
        <ele>178</ele>
        <time>2015-10-12T09:06:46.1Z</time>
      </trkpt>
      <trkpt lat="48.20335" lon="-3.01685">
        <ele>177</ele>
        <time>2015-10-12T09:06:48.1Z</time>
      </trkpt>
      <trkpt lat="48.20333" lon="-3.01687">
        <ele>176</ele>
        <time>2015-10-12T09:06:51.1Z</time>
      </trkpt>
      <trkpt lat="48.20332" lon="-3.01689">
        <ele>176</ele>
        <time>2015-10-12T09:06:53.1Z</time>
      </trkpt>
      <trkpt lat="48.20331" lon="-3.0169">
        <ele>176</ele>
        <time>2015-10-12T09:06:55.1Z</time>
      </trkpt>
      <trkpt lat="48.2033" lon="-3.01691">
        <ele>175</ele>
        <time>2015-10-12T09:06:58.1Z</time>
      </trkpt>
      <trkpt lat="48.2033" lon="-3.01691">
        <ele>175</ele>
        <time>2015-10-12T09:07:00.1Z</time>
      </trkpt>
      <trkpt lat="48.20329" lon="-3.01691">
        <ele>174</ele>
        <time>2015-10-12T09:07:02.1Z</time>
      </trkpt>
      <trkpt lat="48.20327" lon="-3.01692">
        <ele>174</ele>
        <time>2015-10-12T09:07:05.1Z</time>
      </trkpt>
      <trkpt lat="48.20325" lon="-3.01694">
        <ele>173</ele>
        <time>2015-10-12T09:07:08.1Z</time>
      </trkpt>
      <trkpt lat="48.20324" lon="-3.01697">
        <ele>173</ele>
        <time>2015-10-12T09:07:11.1Z</time>
      </trkpt>
      <trkpt lat="48.20324" lon="-3.017">
        <ele>173</ele>
        <time>2015-10-12T09:07:14.1Z</time>
      </trkpt>
      <trkpt lat="48.20323" lon="-3.01704">
        <ele>172</ele>
        <time>2015-10-12T09:07:17.1Z</time>
      </trkpt>
      <trkpt lat="48.20323" lon="-3.01705">
        <ele>172</ele>
        <time>2015-10-12T09:07:19.1Z</time>
      </trkpt>
      <trkpt lat="48.20322" lon="-3.01708">
        <ele>171</ele>
        <time>2015-10-12T09:07:22.1Z</time>
      </trkpt>
      <trkpt lat="48.20322" lon="-3.0171">
        <ele>172</ele>
        <time>2015-10-12T09:07:25.1Z</time>
      </trkpt>
      <trkpt lat="48.20321" lon="-3.0171">
        <ele>172</ele>
        <time>2015-10-12T09:07:28.1Z</time>
      </trkpt>
      <trkpt lat="48.2032" lon="-3.01712">
        <ele>172</ele>
        <time>2015-10-12T09:07:31.1Z</time>
      </trkpt>
      <trkpt lat="48.2032" lon="-3.01712">
        <ele>172</ele>
        <time>2015-10-12T09:07:34.1Z</time>
      </trkpt>
      <trkpt lat="48.2032" lon="-3.01713">
        <ele>172</ele>
        <time>2015-10-12T09:07:37.1Z</time>
      </trkpt>
      <trkpt lat="48.2032" lon="-3.01715">
        <ele>172</ele>
        <time>2015-10-12T09:07:40.1Z</time>
      </trkpt>
      <trkpt lat="48.20321" lon="-3.01718">
        <ele>172</ele>
        <time>2015-10-12T09:07:42.1Z</time>
      </trkpt>
      <trkpt lat="48.2032" lon="-3.01721">
        <ele>172</ele>
        <time>2015-10-12T09:07:44.1Z</time>
      </trkpt>
      <trkpt lat="48.2032" lon="-3.01723">
        <ele>172</ele>
        <time>2015-10-12T09:07:46.1Z</time>
      </trkpt>
      <trkpt lat="48.20321" lon="-3.01727">
        <ele>171</ele>
        <time>2015-10-12T09:07:49.1Z</time>
      </trkpt>
      <trkpt lat="48.20322" lon="-3.01731">
        <ele>170</ele>
        <time>2015-10-12T09:07:52.1Z</time>
      </trkpt>
      <trkpt lat="48.2032" lon="-3.01736">
        <ele>170</ele>
        <time>2015-10-12T09:07:55.1Z</time>
      </trkpt>
      <trkpt lat="48.20319" lon="-3.01739">
        <ele>170</ele>
        <time>2015-10-12T09:07:57.1Z</time>
      </trkpt>
      <trkpt lat="48.20317" lon="-3.01743">
        <ele>170</ele>
        <time>2015-10-12T09:08:00.1Z</time>
      </trkpt>
      <trkpt lat="48.20314" lon="-3.01747">
        <ele>169</ele>
        <time>2015-10-12T09:08:03.1Z</time>
      </trkpt>
      <trkpt lat="48.20312" lon="-3.01751">
        <ele>169</ele>
        <time>2015-10-12T09:08:05.1Z</time>
      </trkpt>
      <trkpt lat="48.2031" lon="-3.01754">
        <ele>168</ele>
        <time>2015-10-12T09:08:08.1Z</time>
      </trkpt>
      <trkpt lat="48.20309" lon="-3.01757">
        <ele>168</ele>
        <time>2015-10-12T09:08:10.1Z</time>
      </trkpt>
      <trkpt lat="48.20306" lon="-3.01762">
        <ele>168</ele>
        <time>2015-10-12T09:08:13.1Z</time>
      </trkpt>
      <trkpt lat="48.20306" lon="-3.01767">
        <ele>167</ele>
        <time>2015-10-12T09:08:16.1Z</time>
      </trkpt>
      <trkpt lat="48.20305" lon="-3.01772">
        <ele>167</ele>
        <time>2015-10-12T09:08:19.1Z</time>
      </trkpt>
      <trkpt lat="48.20307" lon="-3.01777">
        <ele>167</ele>
        <time>2015-10-12T09:08:22.1Z</time>
      </trkpt>
      <trkpt lat="48.20308" lon="-3.0178">
        <ele>167</ele>
        <time>2015-10-12T09:08:24.1Z</time>
      </trkpt>
      <trkpt lat="48.20309" lon="-3.01786">
        <ele>167</ele>
        <time>2015-10-12T09:08:27.1Z</time>
      </trkpt>
      <trkpt lat="48.20311" lon="-3.0179">
        <ele>167</ele>
        <time>2015-10-12T09:08:29.1Z</time>
      </trkpt>
      <trkpt lat="48.20313" lon="-3.01792">
        <ele>167</ele>
        <time>2015-10-12T09:08:31.1Z</time>
      </trkpt>
      <trkpt lat="48.20314" lon="-3.01797">
        <ele>167</ele>
        <time>2015-10-12T09:08:33.1Z</time>
      </trkpt>
      <trkpt lat="48.20315" lon="-3.01801">
        <ele>167</ele>
        <time>2015-10-12T09:08:36.1Z</time>
      </trkpt>
      <trkpt lat="48.20315" lon="-3.01807">
        <ele>168</ele>
        <time>2015-10-12T09:08:39.1Z</time>
      </trkpt>
      <trkpt lat="48.20314" lon="-3.01812">
        <ele>168</ele>
        <time>2015-10-12T09:08:42.1Z</time>
      </trkpt>
      <trkpt lat="48.20313" lon="-3.01816">
        <ele>168</ele>
        <time>2015-10-12T09:08:45.1Z</time>
      </trkpt>
      <trkpt lat="48.20311" lon="-3.01817">
        <ele>168</ele>
        <time>2015-10-12T09:08:47.1Z</time>
      </trkpt>
      <trkpt lat="48.20309" lon="-3.01821">
        <ele>167</ele>
        <time>2015-10-12T09:08:50.1Z</time>
      </trkpt>
      <trkpt lat="48.20307" lon="-3.01826">
        <ele>167</ele>
        <time>2015-10-12T09:08:53.1Z</time>
      </trkpt>
      <trkpt lat="48.20307" lon="-3.01832">
        <ele>167</ele>
        <time>2015-10-12T09:08:56.1Z</time>
      </trkpt>
      <trkpt lat="48.20307" lon="-3.01835">
        <ele>166</ele>
        <time>2015-10-12T09:08:58.1Z</time>
      </trkpt>
      <trkpt lat="48.20307" lon="-3.0184">
        <ele>166</ele>
        <time>2015-10-12T09:09:01.1Z</time>
      </trkpt>
      <trkpt lat="48.20308" lon="-3.01842">
        <ele>166</ele>
        <time>2015-10-12T09:09:03.1Z</time>
      </trkpt>
      <trkpt lat="48.20309" lon="-3.01845">
        <ele>166</ele>
        <time>2015-10-12T09:09:05.1Z</time>
      </trkpt>
      <trkpt lat="48.20308" lon="-3.01851">
        <ele>166</ele>
        <time>2015-10-12T09:09:08.1Z</time>
      </trkpt>
      <trkpt lat="48.20307" lon="-3.01853">
        <ele>167</ele>
        <time>2015-10-12T09:09:10.1Z</time>
      </trkpt>
      <trkpt lat="48.20306" lon="-3.01857">
        <ele>167</ele>
        <time>2015-10-12T09:09:13.1Z</time>
      </trkpt>
      <trkpt lat="48.20307" lon="-3.01862">
        <ele>167</ele>
        <time>2015-10-12T09:09:16.1Z</time>
      </trkpt>
      <trkpt lat="48.20308" lon="-3.01865">
        <ele>167</ele>
        <time>2015-10-12T09:09:19.1Z</time>
      </trkpt>
      <trkpt lat="48.20307" lon="-3.01869">
        <ele>167</ele>
        <time>2015-10-12T09:09:21.1Z</time>
      </trkpt>
      <trkpt lat="48.20307" lon="-3.01873">
        <ele>167</ele>
        <time>2015-10-12T09:09:24.1Z</time>
      </trkpt>
      <trkpt lat="48.20307" lon="-3.01879">
        <ele>167</ele>
        <time>2015-10-12T09:09:27.1Z</time>
      </trkpt>
      <trkpt lat="48.20308" lon="-3.01885">
        <ele>167</ele>
        <time>2015-10-12T09:09:30.1Z</time>
      </trkpt>
      <trkpt lat="48.20308" lon="-3.01889">
        <ele>167</ele>
        <time>2015-10-12T09:09:33.1Z</time>
      </trkpt>
      <trkpt lat="48.2031" lon="-3.01894">
        <ele>166</ele>
        <time>2015-10-12T09:09:36.1Z</time>
      </trkpt>
      <trkpt lat="48.2031" lon="-3.01897">
        <ele>166</ele>
        <time>2015-10-12T09:09:38.1Z</time>
      </trkpt>
      <trkpt lat="48.2031" lon="-3.019">
        <ele>166</ele>
        <time>2015-10-12T09:09:40.1Z</time>
      </trkpt>
      <trkpt lat="48.2031" lon="-3.01905">
        <ele>166</ele>
        <time>2015-10-12T09:09:43.1Z</time>
      </trkpt>
      <trkpt lat="48.2031" lon="-3.01908">
        <ele>166</ele>
        <time>2015-10-12T09:09:45.1Z</time>
      </trkpt>
      <trkpt lat="48.20311" lon="-3.01912">
        <ele>167</ele>
        <time>2015-10-12T09:09:48.1Z</time>
      </trkpt>
      <trkpt lat="48.20312" lon="-3.01915">
        <ele>166</ele>
        <time>2015-10-12T09:09:50.1Z</time>
      </trkpt>
      <trkpt lat="48.20313" lon="-3.01918">
        <ele>166</ele>
        <time>2015-10-12T09:09:52.1Z</time>
      </trkpt>
      <trkpt lat="48.20314" lon="-3.01923">
        <ele>166</ele>
        <time>2015-10-12T09:09:55.1Z</time>
      </trkpt>
      <trkpt lat="48.20315" lon="-3.01926">
        <ele>166</ele>
        <time>2015-10-12T09:09:57.1Z</time>
      </trkpt>
      <trkpt lat="48.20316" lon="-3.01929">
        <ele>166</ele>
        <time>2015-10-12T09:09:59.1Z</time>
      </trkpt>
      <trkpt lat="48.20317" lon="-3.01933">
        <ele>166</ele>
        <time>2015-10-12T09:10:02.1Z</time>
      </trkpt>
      <trkpt lat="48.20319" lon="-3.01937">
        <ele>166</ele>
        <time>2015-10-12T09:10:05.1Z</time>
      </trkpt>
      <trkpt lat="48.20319" lon="-3.01938">
        <ele>167</ele>
        <time>2015-10-12T09:10:07.1Z</time>
      </trkpt>
      <trkpt lat="48.2032" lon="-3.01941">
        <ele>167</ele>
        <time>2015-10-12T09:10:10.1Z</time>
      </trkpt>
      <trkpt lat="48.20321" lon="-3.01942">
        <ele>167</ele>
        <time>2015-10-12T09:10:12.1Z</time>
      </trkpt>
      <trkpt lat="48.20321" lon="-3.01945">
        <ele>168</ele>
        <time>2015-10-12T09:10:15.1Z</time>
      </trkpt>
      <trkpt lat="48.20321" lon="-3.01946">
        <ele>168</ele>
        <time>2015-10-12T09:10:17.1Z</time>
      </trkpt>
      <trkpt lat="48.20323" lon="-3.01949">
        <ele>169</ele>
        <time>2015-10-12T09:10:20.1Z</time>
      </trkpt>
      <trkpt lat="48.20324" lon="-3.01951">
        <ele>169</ele>
        <time>2015-10-12T09:10:23.1Z</time>
      </trkpt>
      <trkpt lat="48.20326" lon="-3.01953">
        <ele>170</ele>
        <time>2015-10-12T09:10:25.1Z</time>
      </trkpt>
      <trkpt lat="48.20326" lon="-3.01956">
        <ele>170</ele>
        <time>2015-10-12T09:10:28.1Z</time>
      </trkpt>
      <trkpt lat="48.20328" lon="-3.01958">
        <ele>171</ele>
        <time>2015-10-12T09:10:31.1Z</time>
      </trkpt>
      <trkpt lat="48.2033" lon="-3.01961">
        <ele>171</ele>
        <time>2015-10-12T09:10:33.1Z</time>
      </trkpt>
      <trkpt lat="48.20331" lon="-3.01962">
        <ele>171</ele>
        <time>2015-10-12T09:10:35.1Z</time>
      </trkpt>
      <trkpt lat="48.20332" lon="-3.01967">
        <ele>171</ele>
        <time>2015-10-12T09:10:38.1Z</time>
      </trkpt>
      <trkpt lat="48.20333" lon="-3.0197">
        <ele>171</ele>
        <time>2015-10-12T09:10:41.1Z</time>
      </trkpt>
      <trkpt lat="48.20335" lon="-3.01974">
        <ele>171</ele>
        <time>2015-10-12T09:10:43.1Z</time>
      </trkpt>
      <trkpt lat="48.20337" lon="-3.01976">
        <ele>170</ele>
        <time>2015-10-12T09:10:45.1Z</time>
      </trkpt>
      <trkpt lat="48.20337" lon="-3.01981">
        <ele>170</ele>
        <time>2015-10-12T09:10:48.1Z</time>
      </trkpt>
      <trkpt lat="48.20338" lon="-3.01986">
        <ele>170</ele>
        <time>2015-10-12T09:10:51.1Z</time>
      </trkpt>
      <trkpt lat="48.20338" lon="-3.01988">
        <ele>170</ele>
        <time>2015-10-12T09:10:53.1Z</time>
      </trkpt>
      <trkpt lat="48.20339" lon="-3.01991">
        <ele>170</ele>
        <time>2015-10-12T09:10:55.1Z</time>
      </trkpt>
      <trkpt lat="48.2034" lon="-3.01994">
        <ele>170</ele>
        <time>2015-10-12T09:10:58.1Z</time>
      </trkpt>
      <trkpt lat="48.2034" lon="-3.01999">
        <ele>170</ele>
        <time>2015-10-12T09:11:01.1Z</time>
      </trkpt>
      <trkpt lat="48.2034" lon="-3.02002">
        <ele>170</ele>
        <time>2015-10-12T09:11:03.1Z</time>
      </trkpt>
      <trkpt lat="48.20341" lon="-3.02007">
        <ele>170</ele>
        <time>2015-10-12T09:11:06.1Z</time>
      </trkpt>
      <trkpt lat="48.20342" lon="-3.0201">
        <ele>170</ele>
        <time>2015-10-12T09:11:09.1Z</time>
      </trkpt>
      <trkpt lat="48.20343" lon="-3.02014">
        <ele>170</ele>
        <time>2015-10-12T09:11:12.1Z</time>
      </trkpt>
      <trkpt lat="48.20343" lon="-3.02018">
        <ele>170</ele>
        <time>2015-10-12T09:11:15.1Z</time>
      </trkpt>
      <trkpt lat="48.20344" lon="-3.02021">
        <ele>170</ele>
        <time>2015-10-12T09:11:17.1Z</time>
      </trkpt>
      <trkpt lat="48.20346" lon="-3.02025">
        <ele>170</ele>
        <time>2015-10-12T09:11:20.1Z</time>
      </trkpt>
      <trkpt lat="48.20347" lon="-3.02028">
        <ele>170</ele>
        <time>2015-10-12T09:11:22.1Z</time>
      </trkpt>
      <trkpt lat="48.20347" lon="-3.02033">
        <ele>170</ele>
        <time>2015-10-12T09:11:25.1Z</time>
      </trkpt>
      <trkpt lat="48.20347" lon="-3.02036">
        <ele>170</ele>
        <time>2015-10-12T09:11:28.1Z</time>
      </trkpt>
      <trkpt lat="48.20346" lon="-3.02039">
        <ele>171</ele>
        <time>2015-10-12T09:11:31.1Z</time>
      </trkpt>
      <trkpt lat="48.20345" lon="-3.02042">
        <ele>171</ele>
        <time>2015-10-12T09:11:33.1Z</time>
      </trkpt>
      <trkpt lat="48.20343" lon="-3.02043">
        <ele>171</ele>
        <time>2015-10-12T09:11:35.1Z</time>
      </trkpt>
      <trkpt lat="48.20341" lon="-3.02044">
        <ele>171</ele>
        <time>2015-10-12T09:11:38.1Z</time>
      </trkpt>
      <trkpt lat="48.2034" lon="-3.02045">
        <ele>171</ele>
        <time>2015-10-12T09:11:40.1Z</time>
      </trkpt>
      <trkpt lat="48.20339" lon="-3.02045">
        <ele>171</ele>
        <time>2015-10-12T09:11:43.1Z</time>
      </trkpt>
      <trkpt lat="48.20338" lon="-3.02045">
        <ele>171</ele>
        <time>2015-10-12T09:11:46.1Z</time>
      </trkpt>
      <trkpt lat="48.20336" lon="-3.02044">
        <ele>172</ele>
        <time>2015-10-12T09:11:49.1Z</time>
      </trkpt>
      <trkpt lat="48.20334" lon="-3.02044">
        <ele>172</ele>
        <time>2015-10-12T09:11:52.1Z</time>
      </trkpt>
      <trkpt lat="48.20333" lon="-3.02042">
        <ele>172</ele>
        <time>2015-10-12T09:11:55.1Z</time>
      </trkpt>
      <trkpt lat="48.20331" lon="-3.02042">
        <ele>172</ele>
        <time>2015-10-12T09:11:57.1Z</time>
      </trkpt>
      <trkpt lat="48.20329" lon="-3.0204">
        <ele>172</ele>
        <time>2015-10-12T09:12:00.1Z</time>
      </trkpt>
      <trkpt lat="48.20326" lon="-3.02038">
        <ele>171</ele>
        <time>2015-10-12T09:12:03.1Z</time>
      </trkpt>
      <trkpt lat="48.20325" lon="-3.02036">
        <ele>171</ele>
        <time>2015-10-12T09:12:05.1Z</time>
      </trkpt>
      <trkpt lat="48.20323" lon="-3.02033">
        <ele>171</ele>
        <time>2015-10-12T09:12:08.1Z</time>
      </trkpt>
      <trkpt lat="48.20322" lon="-3.0203">
        <ele>170</ele>
        <time>2015-10-12T09:12:11.1Z</time>
      </trkpt>
      <trkpt lat="48.20321" lon="-3.02027">
        <ele>170</ele>
        <time>2015-10-12T09:12:14.1Z</time>
      </trkpt>
      <trkpt lat="48.2032" lon="-3.02025">
        <ele>169</ele>
        <time>2015-10-12T09:12:16.1Z</time>
      </trkpt>
      <trkpt lat="48.2032" lon="-3.0202">
        <ele>168</ele>
        <time>2015-10-12T09:12:19.1Z</time>
      </trkpt>
      <trkpt lat="48.20318" lon="-3.02016">
        <ele>168</ele>
        <time>2015-10-12T09:12:22.1Z</time>
      </trkpt>
      <trkpt lat="48.20317" lon="-3.02014">
        <ele>168</ele>
        <time>2015-10-12T09:12:24.1Z</time>
      </trkpt>
      <trkpt lat="48.20316" lon="-3.02011">
        <ele>168</ele>
        <time>2015-10-12T09:12:27.1Z</time>
      </trkpt>
      <trkpt lat="48.20316" lon="-3.02007">
        <ele>167</ele>
        <time>2015-10-12T09:12:30.1Z</time>
      </trkpt>
      <trkpt lat="48.20316" lon="-3.02005">
        <ele>167</ele>
        <time>2015-10-12T09:12:32.1Z</time>
      </trkpt>
      <trkpt lat="48.20315" lon="-3.02">
        <ele>167</ele>
        <time>2015-10-12T09:12:35.1Z</time>
      </trkpt>
      <trkpt lat="48.20314" lon="-3.01999">
        <ele>167</ele>
        <time>2015-10-12T09:12:37.1Z</time>
      </trkpt>
      <trkpt lat="48.20312" lon="-3.01994">
        <ele>167</ele>
        <time>2015-10-12T09:12:40.1Z</time>
      </trkpt>
      <trkpt lat="48.20311" lon="-3.01991">
        <ele>166</ele>
        <time>2015-10-12T09:12:43.1Z</time>
      </trkpt>
      <trkpt lat="48.2031" lon="-3.01988">
        <ele>166</ele>
        <time>2015-10-12T09:12:45.1Z</time>
      </trkpt>
      <trkpt lat="48.20308" lon="-3.01985">
        <ele>166</ele>
        <time>2015-10-12T09:12:48.1Z</time>
      </trkpt>
      <trkpt lat="48.20306" lon="-3.01982">
        <ele>166</ele>
        <time>2015-10-12T09:12:51.1Z</time>
      </trkpt>
      <trkpt lat="48.20304" lon="-3.01978">
        <ele>166</ele>
        <time>2015-10-12T09:12:54.1Z</time>
      </trkpt>
      <trkpt lat="48.20302" lon="-3.01973">
        <ele>166</ele>
        <time>2015-10-12T09:12:57.1Z</time>
      </trkpt>
      <trkpt lat="48.20301" lon="-3.01971">
        <ele>166</ele>
        <time>2015-10-12T09:12:59.1Z</time>
      </trkpt>
      <trkpt lat="48.20298" lon="-3.01967">
        <ele>166</ele>
        <time>2015-10-12T09:13:02.1Z</time>
      </trkpt>
      <trkpt lat="48.20297" lon="-3.01965">
        <ele>166</ele>
        <time>2015-10-12T09:13:04.1Z</time>
      </trkpt>
      <trkpt lat="48.20296" lon="-3.01963">
        <ele>166</ele>
        <time>2015-10-12T09:13:06.1Z</time>
      </trkpt>
      <trkpt lat="48.20295" lon="-3.0196">
        <ele>166</ele>
        <time>2015-10-12T09:13:09.1Z</time>
      </trkpt>
      <trkpt lat="48.20293" lon="-3.01957">
        <ele>165</ele>
        <time>2015-10-12T09:13:11.1Z</time>
      </trkpt>
      <trkpt lat="48.20291" lon="-3.01954">
        <ele>165</ele>
        <time>2015-10-12T09:13:13.1Z</time>
      </trkpt>
      <trkpt lat="48.20289" lon="-3.01952">
        <ele>165</ele>
        <time>2015-10-12T09:13:16.1Z</time>
      </trkpt>
      <trkpt lat="48.20287" lon="-3.0195">
        <ele>165</ele>
        <time>2015-10-12T09:13:19.1Z</time>
      </trkpt>
      <trkpt lat="48.20285" lon="-3.0195">
        <ele>165</ele>
        <time>2015-10-12T09:13:21.1Z</time>
      </trkpt>
      <trkpt lat="48.20284" lon="-3.01951">
        <ele>166</ele>
        <time>2015-10-12T09:13:24.1Z</time>
      </trkpt>
      <trkpt lat="48.20283" lon="-3.01951">
        <ele>166</ele>
        <time>2015-10-12T09:13:26.1Z</time>
      </trkpt>
      <trkpt lat="48.20283" lon="-3.01951">
        <ele>166</ele>
        <time>2015-10-12T09:13:28.1Z</time>
      </trkpt>
      <trkpt lat="48.20283" lon="-3.0195">
        <ele>166</ele>
        <time>2015-10-12T09:13:31.1Z</time>
      </trkpt>
      <trkpt lat="48.20282" lon="-3.01947">
        <ele>166</ele>
        <time>2015-10-12T09:13:33.1Z</time>
      </trkpt>
      <trkpt lat="48.20279" lon="-3.01946">
        <ele>166</ele>
        <time>2015-10-12T09:13:36.1Z</time>
      </trkpt>
      <trkpt lat="48.20277" lon="-3.01944">
        <ele>166</ele>
        <time>2015-10-12T09:13:38.1Z</time>
      </trkpt>
      <trkpt lat="48.20274" lon="-3.0194">
        <ele>166</ele>
        <time>2015-10-12T09:13:41.1Z</time>
      </trkpt>
      <trkpt lat="48.20271" lon="-3.01937">
        <ele>166</ele>
        <time>2015-10-12T09:13:44.1Z</time>
      </trkpt>
      <trkpt lat="48.20268" lon="-3.01934">
        <ele>166</ele>
        <time>2015-10-12T09:13:47.1Z</time>
      </trkpt>
      <trkpt lat="48.20266" lon="-3.01932">
        <ele>166</ele>
        <time>2015-10-12T09:13:50.1Z</time>
      </trkpt>
      <trkpt lat="48.20266" lon="-3.01931">
        <ele>167</ele>
        <time>2015-10-12T09:13:53.1Z</time>
      </trkpt>
      <trkpt lat="48.20264" lon="-3.01929">
        <ele>167</ele>
        <time>2015-10-12T09:13:56.1Z</time>
      </trkpt>
      <trkpt lat="48.20262" lon="-3.01927">
        <ele>167</ele>
        <time>2015-10-12T09:13:58.1Z</time>
      </trkpt>
      <trkpt lat="48.2026" lon="-3.01925">
        <ele>167</ele>
        <time>2015-10-12T09:14:00.1Z</time>
      </trkpt>
      <trkpt lat="48.20258" lon="-3.01923">
        <ele>167</ele>
        <time>2015-10-12T09:14:02.1Z</time>
      </trkpt>
      <trkpt lat="48.20255" lon="-3.01922">
        <ele>167</ele>
        <time>2015-10-12T09:14:05.1Z</time>
      </trkpt>
      <trkpt lat="48.20253" lon="-3.0192">
        <ele>168</ele>
        <time>2015-10-12T09:14:07.1Z</time>
      </trkpt>
      <trkpt lat="48.2025" lon="-3.01917">
        <ele>168</ele>
        <time>2015-10-12T09:14:10.1Z</time>
      </trkpt>
      <trkpt lat="48.2025" lon="-3.01916">
        <ele>168</ele>
        <time>2015-10-12T09:14:12.1Z</time>
      </trkpt>
      <trkpt lat="48.20249" lon="-3.01917">
        <ele>168</ele>
        <time>2015-10-12T09:14:15.1Z</time>
      </trkpt>
      <trkpt lat="48.20249" lon="-3.01916">
        <ele>168</ele>
        <time>2015-10-12T09:14:17.1Z</time>
      </trkpt>
      <trkpt lat="48.20249" lon="-3.01914">
        <ele>168</ele>
        <time>2015-10-12T09:14:20.1Z</time>
      </trkpt>
      <trkpt lat="48.20248" lon="-3.01913">
        <ele>167</ele>
        <time>2015-10-12T09:14:22.1Z</time>
      </trkpt>
      <trkpt lat="48.20248" lon="-3.0191">
        <ele>167</ele>
        <time>2015-10-12T09:14:25.1Z</time>
      </trkpt>
      <trkpt lat="48.20247" lon="-3.01909">
        <ele>167</ele>
        <time>2015-10-12T09:14:27.1Z</time>
      </trkpt>
      <trkpt lat="48.20244" lon="-3.01906">
        <ele>166</ele>
        <time>2015-10-12T09:14:30.1Z</time>
      </trkpt>
      <trkpt lat="48.20241" lon="-3.01904">
        <ele>166</ele>
        <time>2015-10-12T09:14:33.1Z</time>
      </trkpt>
      <trkpt lat="48.20239" lon="-3.01904">
        <ele>166</ele>
        <time>2015-10-12T09:14:35.1Z</time>
      </trkpt>
      <trkpt lat="48.20237" lon="-3.01905">
        <ele>166</ele>
        <time>2015-10-12T09:14:37.1Z</time>
      </trkpt>
      <trkpt lat="48.20236" lon="-3.01906">
        <ele>166</ele>
        <time>2015-10-12T09:14:39.1Z</time>
      </trkpt>
      <trkpt lat="48.20235" lon="-3.01907">
        <ele>166</ele>
        <time>2015-10-12T09:14:42.1Z</time>
      </trkpt>
      <trkpt lat="48.20233" lon="-3.01907">
        <ele>166</ele>
        <time>2015-10-12T09:14:44.1Z</time>
      </trkpt>
      <trkpt lat="48.20231" lon="-3.01909">
        <ele>167</ele>
        <time>2015-10-12T09:14:46.1Z</time>
      </trkpt>
      <trkpt lat="48.20229" lon="-3.0191">
        <ele>167</ele>
        <time>2015-10-12T09:14:48.1Z</time>
      </trkpt>
      <trkpt lat="48.20227" lon="-3.01911">
        <ele>167</ele>
        <time>2015-10-12T09:14:51.1Z</time>
      </trkpt>
      <trkpt lat="48.20224" lon="-3.01912">
        <ele>167</ele>
        <time>2015-10-12T09:14:54.1Z</time>
      </trkpt>
      <trkpt lat="48.20222" lon="-3.01912">
        <ele>167</ele>
        <time>2015-10-12T09:14:56.1Z</time>
      </trkpt>
      <trkpt lat="48.2022" lon="-3.01912">
        <ele>167</ele>
        <time>2015-10-12T09:14:58.1Z</time>
      </trkpt>
      <trkpt lat="48.20218" lon="-3.01912">
        <ele>167</ele>
        <time>2015-10-12T09:15:01.1Z</time>
      </trkpt>
      <trkpt lat="48.20216" lon="-3.01911">
        <ele>167</ele>
        <time>2015-10-12T09:15:03.1Z</time>
      </trkpt>
      <trkpt lat="48.20215" lon="-3.01911">
        <ele>167</ele>
        <time>2015-10-12T09:15:05.1Z</time>
      </trkpt>
      <trkpt lat="48.20213" lon="-3.0191">
        <ele>168</ele>
        <time>2015-10-12T09:15:08.1Z</time>
      </trkpt>
      <trkpt lat="48.20211" lon="-3.01909">
        <ele>167</ele>
        <time>2015-10-12T09:15:11.1Z</time>
      </trkpt>
      <trkpt lat="48.20209" lon="-3.0191">
        <ele>168</ele>
        <time>2015-10-12T09:15:14.1Z</time>
      </trkpt>
      <trkpt lat="48.20208" lon="-3.0191">
        <ele>168</ele>
        <time>2015-10-12T09:15:16.1Z</time>
      </trkpt>
      <trkpt lat="48.20206" lon="-3.01911">
        <ele>168</ele>
        <time>2015-10-12T09:15:18.1Z</time>
      </trkpt>
      <trkpt lat="48.20205" lon="-3.01913">
        <ele>169</ele>
        <time>2015-10-12T09:15:21.1Z</time>
      </trkpt>
      <trkpt lat="48.20205" lon="-3.01915">
        <ele>169</ele>
        <time>2015-10-12T09:15:23.1Z</time>
      </trkpt>
      <trkpt lat="48.20203" lon="-3.01918">
        <ele>169</ele>
        <time>2015-10-12T09:15:26.1Z</time>
      </trkpt>
      <trkpt lat="48.20203" lon="-3.01921">
        <ele>170</ele>
        <time>2015-10-12T09:15:29.1Z</time>
      </trkpt>
      <trkpt lat="48.20202" lon="-3.01924">
        <ele>171</ele>
        <time>2015-10-12T09:15:31.1Z</time>
      </trkpt>
      <trkpt lat="48.20202" lon="-3.01926">
        <ele>171</ele>
        <time>2015-10-12T09:15:33.1Z</time>
      </trkpt>
      <trkpt lat="48.20201" lon="-3.01929">
        <ele>172</ele>
        <time>2015-10-12T09:15:35.1Z</time>
      </trkpt>
      <trkpt lat="48.202" lon="-3.01933">
        <ele>172</ele>
        <time>2015-10-12T09:15:38.1Z</time>
      </trkpt>
      <trkpt lat="48.20199" lon="-3.01936">
        <ele>172</ele>
        <time>2015-10-12T09:15:41.1Z</time>
      </trkpt>
      <trkpt lat="48.20199" lon="-3.01937">
        <ele>172</ele>
        <time>2015-10-12T09:15:43.1Z</time>
      </trkpt>
      <trkpt lat="48.20197" lon="-3.0194">
        <ele>172</ele>
        <time>2015-10-12T09:15:46.1Z</time>
      </trkpt>
      <trkpt lat="48.20196" lon="-3.01942">
        <ele>173</ele>
        <time>2015-10-12T09:15:49.1Z</time>
      </trkpt>
      <trkpt lat="48.20195" lon="-3.01944">
        <ele>172</ele>
        <time>2015-10-12T09:15:52.1Z</time>
      </trkpt>
      <trkpt lat="48.20194" lon="-3.01944">
        <ele>172</ele>
        <time>2015-10-12T09:15:55.1Z</time>
      </trkpt>
      <trkpt lat="48.20193" lon="-3.01945">
        <ele>172</ele>
        <time>2015-10-12T09:15:57.1Z</time>
      </trkpt>
      <trkpt lat="48.20192" lon="-3.01946">
        <ele>172</ele>
        <time>2015-10-12T09:15:59.1Z</time>
      </trkpt>
      <trkpt lat="48.20191" lon="-3.01946">
        <ele>171</ele>
        <time>2015-10-12T09:16:02.1Z</time>
      </trkpt>
      <trkpt lat="48.2019" lon="-3.01946">
        <ele>171</ele>
        <time>2015-10-12T09:16:05.1Z</time>
      </trkpt>
      <trkpt lat="48.20189" lon="-3.01946">
        <ele>170</ele>
        <time>2015-10-12T09:16:09.1Z</time>
      </trkpt>
      <trkpt lat="48.20188" lon="-3.01946">
        <ele>169</ele>
        <time>2015-10-12T09:16:11.1Z</time>
      </trkpt>
      <trkpt lat="48.20185" lon="-3.01946">
        <ele>168</ele>
        <time>2015-10-12T09:16:14.1Z</time>
      </trkpt>
      <trkpt lat="48.20183" lon="-3.01945">
        <ele>168</ele>
        <time>2015-10-12T09:16:16.1Z</time>
      </trkpt>
      <trkpt lat="48.20183" lon="-3.01943">
        <ele>168</ele>
        <time>2015-10-12T09:16:18.1Z</time>
      </trkpt>
      <trkpt lat="48.20183" lon="-3.0194">
        <ele>167</ele>
        <time>2015-10-12T09:16:21.1Z</time>
      </trkpt>
      <trkpt lat="48.20184" lon="-3.01938">
        <ele>167</ele>
        <time>2015-10-12T09:16:24.1Z</time>
      </trkpt>
      <trkpt lat="48.20184" lon="-3.01936">
        <ele>167</ele>
        <time>2015-10-12T09:16:26.1Z</time>
      </trkpt>
      <trkpt lat="48.20184" lon="-3.01933">
        <ele>166</ele>
        <time>2015-10-12T09:16:29.1Z</time>
      </trkpt>
      <trkpt lat="48.20185" lon="-3.0193">
        <ele>166</ele>
        <time>2015-10-12T09:16:32.1Z</time>
      </trkpt>
      <trkpt lat="48.20185" lon="-3.01928">
        <ele>165</ele>
        <time>2015-10-12T09:16:34.1Z</time>
      </trkpt>
      <trkpt lat="48.20185" lon="-3.01928">
        <ele>165</ele>
        <time>2015-10-12T09:16:36.1Z</time>
      </trkpt>
      <trkpt lat="48.20184" lon="-3.01928">
        <ele>165</ele>
        <time>2015-10-12T09:16:38.1Z</time>
      </trkpt>
      <trkpt lat="48.20183" lon="-3.01925">
        <ele>165</ele>
        <time>2015-10-12T09:16:41.1Z</time>
      </trkpt>
      <trkpt lat="48.20183" lon="-3.01922">
        <ele>165</ele>
        <time>2015-10-12T09:16:44.1Z</time>
      </trkpt>
      <trkpt lat="48.20183" lon="-3.0192">
        <ele>165</ele>
        <time>2015-10-12T09:16:46.1Z</time>
      </trkpt>
      <trkpt lat="48.20184" lon="-3.01918">
        <ele>165</ele>
        <time>2015-10-12T09:16:49.1Z</time>
      </trkpt>
      <trkpt lat="48.20186" lon="-3.01916">
        <ele>165</ele>
        <time>2015-10-12T09:16:52.1Z</time>
      </trkpt>
      <trkpt lat="48.20187" lon="-3.01914">
        <ele>165</ele>
        <time>2015-10-12T09:16:54.1Z</time>
      </trkpt>
      <trkpt lat="48.20189" lon="-3.0191">
        <ele>165</ele>
        <time>2015-10-12T09:16:57.1Z</time>
      </trkpt>
      <trkpt lat="48.20192" lon="-3.01907">
        <ele>165</ele>
        <time>2015-10-12T09:17:00.1Z</time>
      </trkpt>
      <trkpt lat="48.20194" lon="-3.01905">
        <ele>165</ele>
        <time>2015-10-12T09:17:02.1Z</time>
      </trkpt>
      <trkpt lat="48.20196" lon="-3.019">
        <ele>165</ele>
        <time>2015-10-12T09:17:05.1Z</time>
      </trkpt>
      <trkpt lat="48.20198" lon="-3.01896">
        <ele>165</ele>
        <time>2015-10-12T09:17:08.1Z</time>
      </trkpt>
      <trkpt lat="48.20198" lon="-3.01895">
        <ele>165</ele>
        <time>2015-10-12T09:17:10.1Z</time>
      </trkpt>
      <trkpt lat="48.20199" lon="-3.0189">
        <ele>165</ele>
        <time>2015-10-12T09:17:13.1Z</time>
      </trkpt>
      <trkpt lat="48.20201" lon="-3.01888">
        <ele>165</ele>
        <time>2015-10-12T09:17:15.1Z</time>
      </trkpt>
      <trkpt lat="48.20202" lon="-3.01885">
        <ele>165</ele>
        <time>2015-10-12T09:17:17.1Z</time>
      </trkpt>
      <trkpt lat="48.20203" lon="-3.01883">
        <ele>165</ele>
        <time>2015-10-12T09:17:19.1Z</time>
      </trkpt>
      <trkpt lat="48.20205" lon="-3.01877">
        <ele>166</ele>
        <time>2015-10-12T09:17:22.1Z</time>
      </trkpt>
      <trkpt lat="48.20203" lon="-3.01874">
        <ele>166</ele>
        <time>2015-10-12T09:17:25.1Z</time>
      </trkpt>
      <trkpt lat="48.20204" lon="-3.01872">
        <ele>166</ele>
        <time>2015-10-12T09:17:27.1Z</time>
      </trkpt>
      <trkpt lat="48.20203" lon="-3.0187">
        <ele>166</ele>
        <time>2015-10-12T09:17:29.1Z</time>
      </trkpt>
      <trkpt lat="48.20204" lon="-3.01864">
        <ele>166</ele>
        <time>2015-10-12T09:17:32.1Z</time>
      </trkpt>
      <trkpt lat="48.20205" lon="-3.01861">
        <ele>166</ele>
        <time>2015-10-12T09:17:34.1Z</time>
      </trkpt>
      <trkpt lat="48.20206" lon="-3.01856">
        <ele>166</ele>
        <time>2015-10-12T09:17:37.1Z</time>
      </trkpt>
      <trkpt lat="48.20206" lon="-3.01851">
        <ele>167</ele>
        <time>2015-10-12T09:17:40.1Z</time>
      </trkpt>
      <trkpt lat="48.20207" lon="-3.01848">
        <ele>166</ele>
        <time>2015-10-12T09:17:42.1Z</time>
      </trkpt>
      <trkpt lat="48.20206" lon="-3.01844">
        <ele>167</ele>
        <time>2015-10-12T09:17:44.1Z</time>
      </trkpt>
      <trkpt lat="48.20204" lon="-3.0184">
        <ele>167</ele>
        <time>2015-10-12T09:17:47.1Z</time>
      </trkpt>
      <trkpt lat="48.20202" lon="-3.01836">
        <ele>167</ele>
        <time>2015-10-12T09:17:50.1Z</time>
      </trkpt>
      <trkpt lat="48.20201" lon="-3.01833">
        <ele>167</ele>
        <time>2015-10-12T09:17:52.1Z</time>
      </trkpt>
      <trkpt lat="48.20199" lon="-3.01829">
        <ele>168</ele>
        <time>2015-10-12T09:17:55.1Z</time>
      </trkpt>
      <trkpt lat="48.20198" lon="-3.01825">
        <ele>168</ele>
        <time>2015-10-12T09:17:57.1Z</time>
      </trkpt>
      <trkpt lat="48.20198" lon="-3.01821">
        <ele>168</ele>
        <time>2015-10-12T09:18:00.1Z</time>
      </trkpt>
      <trkpt lat="48.20197" lon="-3.01819">
        <ele>168</ele>
        <time>2015-10-12T09:18:02.1Z</time>
      </trkpt>
      <trkpt lat="48.20196" lon="-3.01815">
        <ele>168</ele>
        <time>2015-10-12T09:18:05.1Z</time>
      </trkpt>
      <trkpt lat="48.20195" lon="-3.01812">
        <ele>168</ele>
        <time>2015-10-12T09:18:07.1Z</time>
      </trkpt>
      <trkpt lat="48.20193" lon="-3.01809">
        <ele>168</ele>
        <time>2015-10-12T09:18:10.1Z</time>
      </trkpt>
      <trkpt lat="48.2019" lon="-3.01806">
        <ele>168</ele>
        <time>2015-10-12T09:18:13.1Z</time>
      </trkpt>
      <trkpt lat="48.20188" lon="-3.01803">
        <ele>168</ele>
        <time>2015-10-12T09:18:15.1Z</time>
      </trkpt>
      <trkpt lat="48.20186" lon="-3.01801">
        <ele>168</ele>
        <time>2015-10-12T09:18:17.1Z</time>
      </trkpt>
      <trkpt lat="48.20184" lon="-3.01799">
        <ele>168</ele>
        <time>2015-10-12T09:18:19.1Z</time>
      </trkpt>
      <trkpt lat="48.20181" lon="-3.01798">
        <ele>168</ele>
        <time>2015-10-12T09:18:21.1Z</time>
      </trkpt>
      <trkpt lat="48.20179" lon="-3.01798">
        <ele>168</ele>
        <time>2015-10-12T09:18:23.1Z</time>
      </trkpt>
      <trkpt lat="48.20176" lon="-3.01797">
        <ele>168</ele>
        <time>2015-10-12T09:18:26.1Z</time>
      </trkpt>
      <trkpt lat="48.20174" lon="-3.01796">
        <ele>169</ele>
        <time>2015-10-12T09:18:28.1Z</time>
      </trkpt>
      <trkpt lat="48.20173" lon="-3.01794">
        <ele>169</ele>
        <time>2015-10-12T09:18:30.1Z</time>
      </trkpt>
      <trkpt lat="48.2017" lon="-3.01794">
        <ele>169</ele>
        <time>2015-10-12T09:18:33.1Z</time>
      </trkpt>
      <trkpt lat="48.20168" lon="-3.01793">
        <ele>169</ele>
        <time>2015-10-12T09:18:35.1Z</time>
      </trkpt>
      <trkpt lat="48.20165" lon="-3.01792">
        <ele>168</ele>
        <time>2015-10-12T09:18:38.1Z</time>
      </trkpt>
      <trkpt lat="48.20163" lon="-3.01791">
        <ele>168</ele>
        <time>2015-10-12T09:18:40.1Z</time>
      </trkpt>
      <trkpt lat="48.20161" lon="-3.01789">
        <ele>168</ele>
        <time>2015-10-12T09:18:43.1Z</time>
      </trkpt>
      <trkpt lat="48.20158" lon="-3.01789">
        <ele>168</ele>
        <time>2015-10-12T09:18:46.1Z</time>
      </trkpt>
      <trkpt lat="48.20155" lon="-3.01788">
        <ele>168</ele>
        <time>2015-10-12T09:18:49.1Z</time>
      </trkpt>
      <trkpt lat="48.20152" lon="-3.01788">
        <ele>167</ele>
        <time>2015-10-12T09:18:51.1Z</time>
      </trkpt>
      <trkpt lat="48.20149" lon="-3.01785">
        <ele>168</ele>
        <time>2015-10-12T09:18:54.1Z</time>
      </trkpt>
      <trkpt lat="48.20146" lon="-3.01783">
        <ele>168</ele>
        <time>2015-10-12T09:18:57.1Z</time>
      </trkpt>
      <trkpt lat="48.20145" lon="-3.01782">
        <ele>167</ele>
        <time>2015-10-12T09:18:59.1Z</time>
      </trkpt>
      <trkpt lat="48.20142" lon="-3.01783">
        <ele>167</ele>
        <time>2015-10-12T09:19:02.1Z</time>
      </trkpt>
      <trkpt lat="48.2014" lon="-3.01781">
        <ele>167</ele>
        <time>2015-10-12T09:19:05.1Z</time>
      </trkpt>
      <trkpt lat="48.20137" lon="-3.0178">
        <ele>166</ele>
        <time>2015-10-12T09:19:08.1Z</time>
      </trkpt>
      <trkpt lat="48.20135" lon="-3.0178">
        <ele>167</ele>
        <time>2015-10-12T09:19:10.1Z</time>
      </trkpt>
      <trkpt lat="48.20133" lon="-3.01778">
        <ele>167</ele>
        <time>2015-10-12T09:19:13.1Z</time>
      </trkpt>
      <trkpt lat="48.20132" lon="-3.01777">
        <ele>167</ele>
        <time>2015-10-12T09:19:15.1Z</time>
      </trkpt>
      <trkpt lat="48.2013" lon="-3.01776">
        <ele>167</ele>
        <time>2015-10-12T09:19:18.1Z</time>
      </trkpt>
      <trkpt lat="48.20129" lon="-3.01774">
        <ele>167</ele>
        <time>2015-10-12T09:19:21.1Z</time>
      </trkpt>
      <trkpt lat="48.20129" lon="-3.01774">
        <ele>166</ele>
        <time>2015-10-12T09:19:23.1Z</time>
      </trkpt>
      <trkpt lat="48.20128" lon="-3.01773">
        <ele>166</ele>
        <time>2015-10-12T09:19:26.1Z</time>
      </trkpt>
      <trkpt lat="48.20128" lon="-3.01773">
        <ele>166</ele>
        <time>2015-10-12T09:19:28.1Z</time>
      </trkpt>
      <trkpt lat="48.20127" lon="-3.01772">
        <ele>166</ele>
        <time>2015-10-12T09:19:31.1Z</time>
      </trkpt>
      <trkpt lat="48.20126" lon="-3.01772">
        <ele>166</ele>
        <time>2015-10-12T09:19:34.1Z</time>
      </trkpt>
      <trkpt lat="48.20126" lon="-3.01772">
        <ele>166</ele>
        <time>2015-10-12T09:19:37.1Z</time>
      </trkpt>
      <trkpt lat="48.20126" lon="-3.01772">
        <ele>167</ele>
        <time>2015-10-12T09:19:40.1Z</time>
      </trkpt>
      <trkpt lat="48.20126" lon="-3.01771">
        <ele>167</ele>
        <time>2015-10-12T09:19:43.1Z</time>
      </trkpt>
      <trkpt lat="48.20125" lon="-3.01772">
        <ele>166</ele>
        <time>2015-10-12T09:19:46.1Z</time>
      </trkpt>
      <trkpt lat="48.20125" lon="-3.0177">
        <ele>166</ele>
        <time>2015-10-12T09:19:49.1Z</time>
      </trkpt>
      <trkpt lat="48.20125" lon="-3.01769">
        <ele>166</ele>
        <time>2015-10-12T09:19:51.1Z</time>
      </trkpt>
      <trkpt lat="48.20125" lon="-3.01767">
        <ele>167</ele>
        <time>2015-10-12T09:19:54.1Z</time>
      </trkpt>
      <trkpt lat="48.20126" lon="-3.01765">
        <ele>167</ele>
        <time>2015-10-12T09:19:57.1Z</time>
      </trkpt>
      <trkpt lat="48.20126" lon="-3.01765">
        <ele>167</ele>
        <time>2015-10-12T09:20:00.1Z</time>
      </trkpt>
      <trkpt lat="48.20126" lon="-3.01765">
        <ele>166</ele>
        <time>2015-10-12T09:20:02.1Z</time>
      </trkpt>
      <trkpt lat="48.20127" lon="-3.01765">
        <ele>166</ele>
        <time>2015-10-12T09:20:04.1Z</time>
      </trkpt>
      <trkpt lat="48.20127" lon="-3.01765">
        <ele>167</ele>
        <time>2015-10-12T09:20:07.1Z</time>
      </trkpt>
      <trkpt lat="48.20127" lon="-3.01766">
        <ele>167</ele>
        <time>2015-10-12T09:20:09.1Z</time>
      </trkpt>
      <trkpt lat="48.20127" lon="-3.01766">
        <ele>167</ele>
        <time>2015-10-12T09:20:11.1Z</time>
      </trkpt>
      <trkpt lat="48.20128" lon="-3.01768">
        <ele>166</ele>
        <time>2015-10-12T09:20:14.1Z</time>
      </trkpt>
      <trkpt lat="48.20128" lon="-3.01768">
        <ele>166</ele>
        <time>2015-10-12T09:20:16.1Z</time>
      </trkpt>
      <trkpt lat="48.20129" lon="-3.01767">
        <ele>166</ele>
        <time>2015-10-12T09:20:19.1Z</time>
      </trkpt>
      <trkpt lat="48.20129" lon="-3.01767">
        <ele>166</ele>
        <time>2015-10-12T09:20:21.1Z</time>
      </trkpt>
      <trkpt lat="48.20129" lon="-3.01767">
        <ele>166</ele>
        <time>2015-10-12T09:20:24.1Z</time>
      </trkpt>
      <trkpt lat="48.20129" lon="-3.01767">
        <ele>166</ele>
        <time>2015-10-12T09:20:26.1Z</time>
      </trkpt>
      <trkpt lat="48.20129" lon="-3.01767">
        <ele>166</ele>
        <time>2015-10-12T09:20:28.1Z</time>
      </trkpt>
      <trkpt lat="48.20129" lon="-3.01769">
        <ele>166</ele>
        <time>2015-10-12T09:20:31.1Z</time>
      </trkpt>
      <trkpt lat="48.20128" lon="-3.0177">
        <ele>166</ele>
        <time>2015-10-12T09:20:33.1Z</time>
      </trkpt>
      <trkpt lat="48.20127" lon="-3.01771">
        <ele>166</ele>
        <time>2015-10-12T09:20:36.1Z</time>
      </trkpt>
      <trkpt lat="48.20127" lon="-3.01771">
        <ele>166</ele>
        <time>2015-10-12T09:20:38.1Z</time>
      </trkpt>
      <trkpt lat="48.20126" lon="-3.0177">
        <ele>166</ele>
        <time>2015-10-12T09:20:41.1Z</time>
      </trkpt>
      <trkpt lat="48.20126" lon="-3.01769">
        <ele>166</ele>
        <time>2015-10-12T09:20:44.1Z</time>
      </trkpt>
      <trkpt lat="48.20125" lon="-3.01768">
        <ele>166</ele>
        <time>2015-10-12T09:20:46.1Z</time>
      </trkpt>
      <trkpt lat="48.20125" lon="-3.01766">
        <ele>166</ele>
        <time>2015-10-12T09:20:49.1Z</time>
      </trkpt>
      <trkpt lat="48.20124" lon="-3.01765">
        <ele>166</ele>
        <time>2015-10-12T09:20:51.1Z</time>
      </trkpt>
      <trkpt lat="48.20123" lon="-3.01765">
        <ele>166</ele>
        <time>2015-10-12T09:20:54.1Z</time>
      </trkpt>
      <trkpt lat="48.20121" lon="-3.01764">
        <ele>166</ele>
        <time>2015-10-12T09:20:57.1Z</time>
      </trkpt>
      <trkpt lat="48.20119" lon="-3.01764">
        <ele>166</ele>
        <time>2015-10-12T09:20:59.1Z</time>
      </trkpt>
      <trkpt lat="48.20117" lon="-3.01766">
        <ele>166</ele>
        <time>2015-10-12T09:21:01.1Z</time>
      </trkpt>
      <trkpt lat="48.20115" lon="-3.01768">
        <ele>166</ele>
        <time>2015-10-12T09:21:04.1Z</time>
      </trkpt>
      <trkpt lat="48.20114" lon="-3.01767">
        <ele>167</ele>
        <time>2015-10-12T09:21:06.1Z</time>
      </trkpt>
      <trkpt lat="48.20111" lon="-3.01767">
        <ele>167</ele>
        <time>2015-10-12T09:21:09.1Z</time>
      </trkpt>
      <trkpt lat="48.20108" lon="-3.01766">
        <ele>167</ele>
        <time>2015-10-12T09:21:11.1Z</time>
      </trkpt>
      <trkpt lat="48.20107" lon="-3.01765">
        <ele>166</ele>
        <time>2015-10-12T09:21:14.1Z</time>
      </trkpt>
      <trkpt lat="48.20105" lon="-3.01763">
        <ele>166</ele>
        <time>2015-10-12T09:21:16.1Z</time>
      </trkpt>
      <trkpt lat="48.20103" lon="-3.01762">
        <ele>166</ele>
        <time>2015-10-12T09:21:18.1Z</time>
      </trkpt>
      <trkpt lat="48.201" lon="-3.01759">
        <ele>166</ele>
        <time>2015-10-12T09:21:21.1Z</time>
      </trkpt>
      <trkpt lat="48.20098" lon="-3.01756">
        <ele>167</ele>
        <time>2015-10-12T09:21:24.1Z</time>
      </trkpt>
      <trkpt lat="48.20096" lon="-3.01755">
        <ele>167</ele>
        <time>2015-10-12T09:21:26.1Z</time>
      </trkpt>
      <trkpt lat="48.20093" lon="-3.01753">
        <ele>167</ele>
        <time>2015-10-12T09:21:29.1Z</time>
      </trkpt>
      <trkpt lat="48.20091" lon="-3.01752">
        <ele>166</ele>
        <time>2015-10-12T09:21:32.1Z</time>
      </trkpt>
      <trkpt lat="48.2009" lon="-3.01751">
        <ele>166</ele>
        <time>2015-10-12T09:21:34.1Z</time>
      </trkpt>
      <trkpt lat="48.20088" lon="-3.0175">
        <ele>166</ele>
        <time>2015-10-12T09:21:37.1Z</time>
      </trkpt>
      <trkpt lat="48.20086" lon="-3.01749">
        <ele>166</ele>
        <time>2015-10-12T09:21:40.1Z</time>
      </trkpt>
      <trkpt lat="48.20083" lon="-3.01747">
        <ele>166</ele>
        <time>2015-10-12T09:21:42.1Z</time>
      </trkpt>
      <trkpt lat="48.20081" lon="-3.01746">
        <ele>166</ele>
        <time>2015-10-12T09:21:44.1Z</time>
      </trkpt>
      <trkpt lat="48.20078" lon="-3.01746">
        <ele>166</ele>
        <time>2015-10-12T09:21:47.1Z</time>
      </trkpt>
      <trkpt lat="48.20075" lon="-3.01745">
        <ele>167</ele>
        <time>2015-10-12T09:21:50.1Z</time>
      </trkpt>
      <trkpt lat="48.20073" lon="-3.01744">
        <ele>167</ele>
        <time>2015-10-12T09:21:52.1Z</time>
      </trkpt>
      <trkpt lat="48.20071" lon="-3.01744">
        <ele>167</ele>
        <time>2015-10-12T09:21:55.1Z</time>
      </trkpt>
      <trkpt lat="48.20068" lon="-3.01743">
        <ele>168</ele>
        <time>2015-10-12T09:21:58.1Z</time>
      </trkpt>
      <trkpt lat="48.20064" lon="-3.01742">
        <ele>168</ele>
        <time>2015-10-12T09:22:01.1Z</time>
      </trkpt>
      <trkpt lat="48.20061" lon="-3.01742">
        <ele>168</ele>
        <time>2015-10-12T09:22:04.1Z</time>
      </trkpt>
      <trkpt lat="48.2006" lon="-3.01743">
        <ele>168</ele>
        <time>2015-10-12T09:22:06.1Z</time>
      </trkpt>
      <trkpt lat="48.20057" lon="-3.01741">
        <ele>167</ele>
        <time>2015-10-12T09:22:09.1Z</time>
      </trkpt>
      <trkpt lat="48.20055" lon="-3.01741">
        <ele>166</ele>
        <time>2015-10-12T09:22:11.1Z</time>
      </trkpt>
      <trkpt lat="48.20052" lon="-3.01741">
        <ele>166</ele>
        <time>2015-10-12T09:22:14.1Z</time>
      </trkpt>
      <trkpt lat="48.20049" lon="-3.01742">
        <ele>166</ele>
        <time>2015-10-12T09:22:16.1Z</time>
      </trkpt>
      <trkpt lat="48.20045" lon="-3.01741">
        <ele>166</ele>
        <time>2015-10-12T09:22:19.1Z</time>
      </trkpt>
      <trkpt lat="48.20044" lon="-3.01741">
        <ele>166</ele>
        <time>2015-10-12T09:22:22.1Z</time>
      </trkpt>
      <trkpt lat="48.20041" lon="-3.01743">
        <ele>167</ele>
        <time>2015-10-12T09:22:25.1Z</time>
      </trkpt>
      <trkpt lat="48.20039" lon="-3.01744">
        <ele>168</ele>
        <time>2015-10-12T09:22:28.1Z</time>
      </trkpt>
      <trkpt lat="48.20037" lon="-3.01743">
        <ele>168</ele>
        <time>2015-10-12T09:22:31.1Z</time>
      </trkpt>
      <trkpt lat="48.20034" lon="-3.01742">
        <ele>169</ele>
        <time>2015-10-12T09:22:34.1Z</time>
      </trkpt>
      <trkpt lat="48.20031" lon="-3.01741">
        <ele>169</ele>
        <time>2015-10-12T09:22:37.1Z</time>
      </trkpt>
      <trkpt lat="48.20029" lon="-3.0174">
        <ele>170</ele>
        <time>2015-10-12T09:22:40.1Z</time>
      </trkpt>
      <trkpt lat="48.20027" lon="-3.01739">
        <ele>170</ele>
        <time>2015-10-12T09:22:42.1Z</time>
      </trkpt>
      <trkpt lat="48.20024" lon="-3.01738">
        <ele>170</ele>
        <time>2015-10-12T09:22:45.1Z</time>
      </trkpt>
      <trkpt lat="48.20021" lon="-3.01737">
        <ele>170</ele>
        <time>2015-10-12T09:22:47.1Z</time>
      </trkpt>
      <trkpt lat="48.2002" lon="-3.01737">
        <ele>170</ele>
        <time>2015-10-12T09:22:49.1Z</time>
      </trkpt>
      <trkpt lat="48.20018" lon="-3.01736">
        <ele>170</ele>
        <time>2015-10-12T09:22:52.1Z</time>
      </trkpt>
      <trkpt lat="48.20018" lon="-3.01735">
        <ele>171</ele>
        <time>2015-10-12T09:22:54.1Z</time>
      </trkpt>
      <trkpt lat="48.20017" lon="-3.01734">
        <ele>170</ele>
        <time>2015-10-12T09:22:56.1Z</time>
      </trkpt>
      <trkpt lat="48.20015" lon="-3.01731">
        <ele>170</ele>
        <time>2015-10-12T09:22:59.1Z</time>
      </trkpt>
      <trkpt lat="48.20014" lon="-3.01729">
        <ele>170</ele>
        <time>2015-10-12T09:23:02.1Z</time>
      </trkpt>
      <trkpt lat="48.20013" lon="-3.01729">
        <ele>170</ele>
        <time>2015-10-12T09:23:04.1Z</time>
      </trkpt>
      <trkpt lat="48.20012" lon="-3.01728">
        <ele>170</ele>
        <time>2015-10-12T09:23:06.1Z</time>
      </trkpt>
      <trkpt lat="48.20012" lon="-3.01727">
        <ele>170</ele>
        <time>2015-10-12T09:23:09.1Z</time>
      </trkpt>
      <trkpt lat="48.2001" lon="-3.01726">
        <ele>169</ele>
        <time>2015-10-12T09:23:11.1Z</time>
      </trkpt>
      <trkpt lat="48.20009" lon="-3.01725">
        <ele>169</ele>
        <time>2015-10-12T09:23:14.1Z</time>
      </trkpt>
      <trkpt lat="48.20009" lon="-3.01723">
        <ele>169</ele>
        <time>2015-10-12T09:23:16.1Z</time>
      </trkpt>
      <trkpt lat="48.20007" lon="-3.01723">
        <ele>168</ele>
        <time>2015-10-12T09:23:19.1Z</time>
      </trkpt>
      <trkpt lat="48.20005" lon="-3.01723">
        <ele>168</ele>
        <time>2015-10-12T09:23:21.1Z</time>
      </trkpt>
      <trkpt lat="48.20003" lon="-3.01721">
        <ele>167</ele>
        <time>2015-10-12T09:23:24.1Z</time>
      </trkpt>
      <trkpt lat="48.20001" lon="-3.01719">
        <ele>167</ele>
        <time>2015-10-12T09:23:26.1Z</time>
      </trkpt>
      <trkpt lat="48.19999" lon="-3.01717">
        <ele>166</ele>
        <time>2015-10-12T09:23:29.1Z</time>
      </trkpt>
      <trkpt lat="48.19998" lon="-3.01715">
        <ele>166</ele>
        <time>2015-10-12T09:23:31.1Z</time>
      </trkpt>
      <trkpt lat="48.19996" lon="-3.01712">
        <ele>166</ele>
        <time>2015-10-12T09:23:34.1Z</time>
      </trkpt>
      <trkpt lat="48.19995" lon="-3.01711">
        <ele>166</ele>
        <time>2015-10-12T09:23:36.1Z</time>
      </trkpt>
      <trkpt lat="48.19992" lon="-3.01709">
        <ele>166</ele>
        <time>2015-10-12T09:23:39.1Z</time>
      </trkpt>
      <trkpt lat="48.19989" lon="-3.01707">
        <ele>166</ele>
        <time>2015-10-12T09:23:42.1Z</time>
      </trkpt>
      <trkpt lat="48.19987" lon="-3.01706">
        <ele>166</ele>
        <time>2015-10-12T09:23:45.1Z</time>
      </trkpt>
      <trkpt lat="48.19984" lon="-3.01704">
        <ele>166</ele>
        <time>2015-10-12T09:23:48.1Z</time>
      </trkpt>
      <trkpt lat="48.19983" lon="-3.01703">
        <ele>166</ele>
        <time>2015-10-12T09:23:50.1Z</time>
      </trkpt>
      <trkpt lat="48.19981" lon="-3.01702">
        <ele>167</ele>
        <time>2015-10-12T09:23:53.1Z</time>
      </trkpt>
      <trkpt lat="48.19979" lon="-3.017">
        <ele>167</ele>
        <time>2015-10-12T09:23:56.1Z</time>
      </trkpt>
      <trkpt lat="48.19978" lon="-3.017">
        <ele>167</ele>
        <time>2015-10-12T09:23:58.1Z</time>
      </trkpt>
      <trkpt lat="48.19977" lon="-3.01699">
        <ele>168</ele>
        <time>2015-10-12T09:24:01.1Z</time>
      </trkpt>
      <trkpt lat="48.19976" lon="-3.01698">
        <ele>168</ele>
        <time>2015-10-12T09:24:03.1Z</time>
      </trkpt>
      <trkpt lat="48.19976" lon="-3.01697">
        <ele>168</ele>
        <time>2015-10-12T09:24:06.1Z</time>
      </trkpt>
      <trkpt lat="48.19975" lon="-3.01695">
        <ele>167</ele>
        <time>2015-10-12T09:24:09.1Z</time>
      </trkpt>
      <trkpt lat="48.19974" lon="-3.01694">
        <ele>167</ele>
        <time>2015-10-12T09:24:11.1Z</time>
      </trkpt>
      <trkpt lat="48.19974" lon="-3.01692">
        <ele>167</ele>
        <time>2015-10-12T09:24:14.1Z</time>
      </trkpt>
      <trkpt lat="48.19972" lon="-3.01693">
        <ele>166</ele>
        <time>2015-10-12T09:24:16.1Z</time>
      </trkpt>
      <trkpt lat="48.19969" lon="-3.01693">
        <ele>166</ele>
        <time>2015-10-12T09:24:19.1Z</time>
      </trkpt>
      <trkpt lat="48.19967" lon="-3.01693">
        <ele>166</ele>
        <time>2015-10-12T09:24:21.1Z</time>
      </trkpt>
      <trkpt lat="48.19963" lon="-3.01693">
        <ele>167</ele>
        <time>2015-10-12T09:24:24.1Z</time>
      </trkpt>
      <trkpt lat="48.1996" lon="-3.01692">
        <ele>167</ele>
        <time>2015-10-12T09:24:27.1Z</time>
      </trkpt>
      <trkpt lat="48.19958" lon="-3.01692">
        <ele>167</ele>
        <time>2015-10-12T09:24:29.1Z</time>
      </trkpt>
      <trkpt lat="48.19955" lon="-3.01691">
        <ele>167</ele>
        <time>2015-10-12T09:24:32.1Z</time>
      </trkpt>
      <trkpt lat="48.19954" lon="-3.0169">
        <ele>167</ele>
        <time>2015-10-12T09:24:34.1Z</time>
      </trkpt>
      <trkpt lat="48.19951" lon="-3.0169">
        <ele>167</ele>
        <time>2015-10-12T09:24:37.1Z</time>
      </trkpt>
      <trkpt lat="48.19948" lon="-3.0169">
        <ele>167</ele>
        <time>2015-10-12T09:24:40.1Z</time>
      </trkpt>
      <trkpt lat="48.19946" lon="-3.0169">
        <ele>167</ele>
        <time>2015-10-12T09:24:42.1Z</time>
      </trkpt>
      <trkpt lat="48.19944" lon="-3.01689">
        <ele>167</ele>
        <time>2015-10-12T09:24:44.1Z</time>
      </trkpt>
      <trkpt lat="48.19941" lon="-3.01689">
        <ele>167</ele>
        <time>2015-10-12T09:24:47.1Z</time>
      </trkpt>
      <trkpt lat="48.19939" lon="-3.01689">
        <ele>167</ele>
        <time>2015-10-12T09:24:50.1Z</time>
      </trkpt>
      <trkpt lat="48.19938" lon="-3.01688">
        <ele>167</ele>
        <time>2015-10-12T09:24:52.1Z</time>
      </trkpt>
      <trkpt lat="48.19935" lon="-3.01686">
        <ele>167</ele>
        <time>2015-10-12T09:24:55.1Z</time>
      </trkpt>
      <trkpt lat="48.19935" lon="-3.01686">
        <ele>167</ele>
        <time>2015-10-12T09:24:58.1Z</time>
      </trkpt>
      <trkpt lat="48.19935" lon="-3.01684">
        <ele>167</ele>
        <time>2015-10-12T09:25:01.1Z</time>
      </trkpt>
      <trkpt lat="48.19934" lon="-3.01685">
        <ele>167</ele>
        <time>2015-10-12T09:25:04.1Z</time>
      </trkpt>
      <trkpt lat="48.19932" lon="-3.01686">
        <ele>167</ele>
        <time>2015-10-12T09:25:06.1Z</time>
      </trkpt>
      <trkpt lat="48.19931" lon="-3.01687">
        <ele>167</ele>
        <time>2015-10-12T09:25:09.1Z</time>
      </trkpt>
      <trkpt lat="48.19929" lon="-3.01688">
        <ele>168</ele>
        <time>2015-10-12T09:25:12.1Z</time>
      </trkpt>
      <trkpt lat="48.19928" lon="-3.01688">
        <ele>168</ele>
        <time>2015-10-12T09:25:15.1Z</time>
      </trkpt>
      <trkpt lat="48.19927" lon="-3.01688">
        <ele>169</ele>
        <time>2015-10-12T09:25:18.1Z</time>
      </trkpt>
      <trkpt lat="48.19926" lon="-3.01689">
        <ele>170</ele>
        <time>2015-10-12T09:25:20.1Z</time>
      </trkpt>
      <trkpt lat="48.19925" lon="-3.01689">
        <ele>169</ele>
        <time>2015-10-12T09:25:22.1Z</time>
      </trkpt>
      <trkpt lat="48.19923" lon="-3.0169">
        <ele>170</ele>
        <time>2015-10-12T09:25:25.1Z</time>
      </trkpt>
      <trkpt lat="48.19922" lon="-3.01691">
        <ele>170</ele>
        <time>2015-10-12T09:25:27.1Z</time>
      </trkpt>
      <trkpt lat="48.1992" lon="-3.01692">
        <ele>171</ele>
        <time>2015-10-12T09:25:30.1Z</time>
      </trkpt>
      <trkpt lat="48.19919" lon="-3.01693">
        <ele>171</ele>
        <time>2015-10-12T09:25:33.1Z</time>
      </trkpt>
      <trkpt lat="48.19919" lon="-3.01696">
        <ele>172</ele>
        <time>2015-10-12T09:25:36.1Z</time>
      </trkpt>
      <trkpt lat="48.19918" lon="-3.01698">
        <ele>172</ele>
        <time>2015-10-12T09:25:38.1Z</time>
      </trkpt>
      <trkpt lat="48.19918" lon="-3.01699">
        <ele>173</ele>
        <time>2015-10-12T09:25:40.1Z</time>
      </trkpt>
      <trkpt lat="48.19917" lon="-3.01701">
        <ele>173</ele>
        <time>2015-10-12T09:25:43.1Z</time>
      </trkpt>
      <trkpt lat="48.19917" lon="-3.01704">
        <ele>174</ele>
        <time>2015-10-12T09:25:46.1Z</time>
      </trkpt>
      <trkpt lat="48.19917" lon="-3.01705">
        <ele>174</ele>
        <time>2015-10-12T09:25:48.1Z</time>
      </trkpt>
      <trkpt lat="48.19916" lon="-3.01707">
        <ele>174</ele>
        <time>2015-10-12T09:25:51.1Z</time>
      </trkpt>
      <trkpt lat="48.19916" lon="-3.0171">
        <ele>174</ele>
        <time>2015-10-12T09:25:54.1Z</time>
      </trkpt>
      <trkpt lat="48.19916" lon="-3.01712">
        <ele>175</ele>
        <time>2015-10-12T09:25:56.1Z</time>
      </trkpt>
      <trkpt lat="48.19915" lon="-3.01713">
        <ele>175</ele>
        <time>2015-10-12T09:25:58.1Z</time>
      </trkpt>
      <trkpt lat="48.19915" lon="-3.01715">
        <ele>176</ele>
        <time>2015-10-12T09:26:00.1Z</time>
      </trkpt>
      <trkpt lat="48.19914" lon="-3.01718">
        <ele>176</ele>
        <time>2015-10-12T09:26:03.1Z</time>
      </trkpt>
      <trkpt lat="48.19913" lon="-3.01721">
        <ele>177</ele>
        <time>2015-10-12T09:26:06.1Z</time>
      </trkpt>
      <trkpt lat="48.1991" lon="-3.01722">
        <ele>177</ele>
        <time>2015-10-12T09:26:09.1Z</time>
      </trkpt>
      <trkpt lat="48.19909" lon="-3.01722">
        <ele>178</ele>
        <time>2015-10-12T09:26:12.1Z</time>
      </trkpt>
      <trkpt lat="48.19907" lon="-3.0172">
        <ele>177</ele>
        <time>2015-10-12T09:26:14.1Z</time>
      </trkpt>
      <trkpt lat="48.19905" lon="-3.0172">
        <ele>177</ele>
        <time>2015-10-12T09:26:17.1Z</time>
      </trkpt>
      <trkpt lat="48.19904" lon="-3.01717">
        <ele>177</ele>
        <time>2015-10-12T09:26:20.1Z</time>
      </trkpt>
      <trkpt lat="48.19902" lon="-3.01715">
        <ele>177</ele>
        <time>2015-10-12T09:26:23.1Z</time>
      </trkpt>
      <trkpt lat="48.199" lon="-3.01715">
        <ele>177</ele>
        <time>2015-10-12T09:26:26.1Z</time>
      </trkpt>
      <trkpt lat="48.199" lon="-3.01715">
        <ele>177</ele>
        <time>2015-10-12T09:26:28.1Z</time>
      </trkpt>
      <trkpt lat="48.199" lon="-3.01715">
        <ele>177</ele>
        <time>2015-10-12T09:26:30.1Z</time>
      </trkpt>
      <trkpt lat="48.199" lon="-3.01715">
        <ele>177</ele>
        <time>2015-10-12T09:26:33.1Z</time>
      </trkpt>
      <trkpt lat="48.199" lon="-3.01716">
        <ele>177</ele>
        <time>2015-10-12T09:26:35.1Z</time>
      </trkpt>
      <trkpt lat="48.19899" lon="-3.01717">
        <ele>177</ele>
        <time>2015-10-12T09:26:38.1Z</time>
      </trkpt>
      <trkpt lat="48.19899" lon="-3.01717">
        <ele>177</ele>
        <time>2015-10-12T09:26:41.1Z</time>
      </trkpt>
      <trkpt lat="48.199" lon="-3.01718">
        <ele>177</ele>
        <time>2015-10-12T09:26:44.1Z</time>
      </trkpt>
      <trkpt lat="48.19901" lon="-3.01718">
        <ele>177</ele>
        <time>2015-10-12T09:26:46.1Z</time>
      </trkpt>
      <trkpt lat="48.199" lon="-3.01718">
        <ele>177</ele>
        <time>2015-10-12T09:26:49.1Z</time>
      </trkpt>
      <trkpt lat="48.199" lon="-3.01717">
        <ele>177</ele>
        <time>2015-10-12T09:26:51.1Z</time>
      </trkpt>
      <trkpt lat="48.199" lon="-3.01717">
        <ele>177</ele>
        <time>2015-10-12T09:26:53.1Z</time>
      </trkpt>
      <trkpt lat="48.19899" lon="-3.01717">
        <ele>178</ele>
        <time>2015-10-12T09:26:56.1Z</time>
      </trkpt>
      <trkpt lat="48.19901" lon="-3.01718">
        <ele>178</ele>
        <time>2015-10-12T09:27:00.1Z</time>
      </trkpt>
      <trkpt lat="48.19902" lon="-3.0172">
        <ele>178</ele>
        <time>2015-10-12T09:27:03.1Z</time>
      </trkpt>
      <trkpt lat="48.19902" lon="-3.01722">
        <ele>178</ele>
        <time>2015-10-12T09:27:06.1Z</time>
      </trkpt>
      <trkpt lat="48.19902" lon="-3.01725">
        <ele>178</ele>
        <time>2015-10-12T09:27:09.1Z</time>
      </trkpt>
      <trkpt lat="48.19903" lon="-3.01726">
        <ele>178</ele>
        <time>2015-10-12T09:27:11.1Z</time>
      </trkpt>
      <trkpt lat="48.19903" lon="-3.01729">
        <ele>178</ele>
        <time>2015-10-12T09:27:14.1Z</time>
      </trkpt>
      <trkpt lat="48.19902" lon="-3.01729">
        <ele>178</ele>
        <time>2015-10-12T09:27:17.1Z</time>
      </trkpt>
      <trkpt lat="48.19902" lon="-3.0173">
        <ele>179</ele>
        <time>2015-10-12T09:27:19.1Z</time>
      </trkpt>
      <trkpt lat="48.19902" lon="-3.01729">
        <ele>178</ele>
        <time>2015-10-12T09:27:22.1Z</time>
      </trkpt>
      <trkpt lat="48.19903" lon="-3.01729">
        <ele>178</ele>
        <time>2015-10-12T09:27:25.1Z</time>
      </trkpt>
      <trkpt lat="48.19903" lon="-3.0173">
        <ele>178</ele>
        <time>2015-10-12T09:27:27.1Z</time>
      </trkpt>
      <trkpt lat="48.19903" lon="-3.01729">
        <ele>177</ele>
        <time>2015-10-12T09:27:32.1Z</time>
      </trkpt>
      <trkpt lat="48.19903" lon="-3.01729">
        <ele>177</ele>
        <time>2015-10-12T09:27:35.1Z</time>
      </trkpt>
      <trkpt lat="48.19904" lon="-3.01729">
        <ele>177</ele>
        <time>2015-10-12T09:27:38.1Z</time>
      </trkpt>
      <trkpt lat="48.19903" lon="-3.01728">
        <ele>177</ele>
        <time>2015-10-12T09:27:40.1Z</time>
      </trkpt>
      <trkpt lat="48.19903" lon="-3.01728">
        <ele>178</ele>
        <time>2015-10-12T09:27:42.1Z</time>
      </trkpt>
      <trkpt lat="48.19904" lon="-3.01728">
        <ele>178</ele>
        <time>2015-10-12T09:27:45.1Z</time>
      </trkpt>
      <trkpt lat="48.19904" lon="-3.01729">
        <ele>178</ele>
        <time>2015-10-12T09:27:47.1Z</time>
      </trkpt>
      <trkpt lat="48.19905" lon="-3.01728">
        <ele>178</ele>
        <time>2015-10-12T09:27:49.1Z</time>
      </trkpt>
      <trkpt lat="48.19905" lon="-3.01728">
        <ele>177</ele>
        <time>2015-10-12T09:27:52.1Z</time>
      </trkpt>
      <trkpt lat="48.19904" lon="-3.01729">
        <ele>177</ele>
        <time>2015-10-12T09:27:55.1Z</time>
      </trkpt>
      <trkpt lat="48.19904" lon="-3.01729">
        <ele>177</ele>
        <time>2015-10-12T09:27:58.1Z</time>
      </trkpt>
      <trkpt lat="48.19904" lon="-3.01729">
        <ele>177</ele>
        <time>2015-10-12T09:28:01.1Z</time>
      </trkpt>
      <trkpt lat="48.19904" lon="-3.01729">
        <ele>177</ele>
        <time>2015-10-12T09:28:03.1Z</time>
      </trkpt>
      <trkpt lat="48.19903" lon="-3.0173">
        <ele>177</ele>
        <time>2015-10-12T09:28:07.1Z</time>
      </trkpt>
      <trkpt lat="48.19904" lon="-3.01731">
        <ele>177</ele>
        <time>2015-10-12T09:28:10.1Z</time>
      </trkpt>
      <trkpt lat="48.19904" lon="-3.01733">
        <ele>177</ele>
        <time>2015-10-12T09:28:13.1Z</time>
      </trkpt>
      <trkpt lat="48.19903" lon="-3.01734">
        <ele>177</ele>
        <time>2015-10-12T09:28:15.1Z</time>
      </trkpt>
      <trkpt lat="48.19904" lon="-3.01735">
        <ele>176</ele>
        <time>2015-10-12T09:28:18.1Z</time>
      </trkpt>
      <trkpt lat="48.19904" lon="-3.01735">
        <ele>176</ele>
        <time>2015-10-12T09:28:20.1Z</time>
      </trkpt>
      <trkpt lat="48.19905" lon="-3.01736">
        <ele>177</ele>
        <time>2015-10-12T09:28:23.1Z</time>
      </trkpt>
      <trkpt lat="48.19904" lon="-3.01736">
        <ele>177</ele>
        <time>2015-10-12T09:28:25.1Z</time>
      </trkpt>
      <trkpt lat="48.19904" lon="-3.01738">
        <ele>177</ele>
        <time>2015-10-12T09:28:28.1Z</time>
      </trkpt>
      <trkpt lat="48.19903" lon="-3.0174">
        <ele>177</ele>
        <time>2015-10-12T09:28:31.1Z</time>
      </trkpt>
      <trkpt lat="48.19902" lon="-3.0174">
        <ele>177</ele>
        <time>2015-10-12T09:28:33.1Z</time>
      </trkpt>
      <trkpt lat="48.19902" lon="-3.01741">
        <ele>177</ele>
        <time>2015-10-12T09:28:37.1Z</time>
      </trkpt>
      <trkpt lat="48.19902" lon="-3.01741">
        <ele>177</ele>
        <time>2015-10-12T09:28:39.1Z</time>
      </trkpt>
      <trkpt lat="48.19902" lon="-3.01741">
        <ele>177</ele>
        <time>2015-10-12T09:28:41.1Z</time>
      </trkpt>
      <trkpt lat="48.19902" lon="-3.01741">
        <ele>176</ele>
        <time>2015-10-12T09:28:44.1Z</time>
      </trkpt>
      <trkpt lat="48.19901" lon="-3.01741">
        <ele>177</ele>
        <time>2015-10-12T09:28:46.1Z</time>
      </trkpt>
      <trkpt lat="48.19901" lon="-3.01741">
        <ele>177</ele>
        <time>2015-10-12T09:28:49.1Z</time>
      </trkpt>
      <trkpt lat="48.19902" lon="-3.01741">
        <ele>177</ele>
        <time>2015-10-12T09:28:51.1Z</time>
      </trkpt>
      <trkpt lat="48.19901" lon="-3.01741">
        <ele>177</ele>
        <time>2015-10-12T09:28:54.1Z</time>
      </trkpt>
      <trkpt lat="48.199" lon="-3.01742">
        <ele>177</ele>
        <time>2015-10-12T09:28:57.1Z</time>
      </trkpt>
      <trkpt lat="48.199" lon="-3.01741">
        <ele>177</ele>
        <time>2015-10-12T09:29:00.1Z</time>
      </trkpt>
      <trkpt lat="48.199" lon="-3.01742">
        <ele>177</ele>
        <time>2015-10-12T09:29:02.1Z</time>
      </trkpt>
      <trkpt lat="48.199" lon="-3.01742">
        <ele>177</ele>
        <time>2015-10-12T09:29:06.1Z</time>
      </trkpt>
      <trkpt lat="48.19901" lon="-3.01741">
        <ele>177</ele>
        <time>2015-10-12T09:29:09.1Z</time>
      </trkpt>
      <trkpt lat="48.19901" lon="-3.01742">
        <ele>177</ele>
        <time>2015-10-12T09:29:11.1Z</time>
      </trkpt>
      <trkpt lat="48.19901" lon="-3.01742">
        <ele>177</ele>
        <time>2015-10-12T09:29:13.1Z</time>
      </trkpt>
      <trkpt lat="48.19901" lon="-3.01743">
        <ele>177</ele>
        <time>2015-10-12T09:29:15.1Z</time>
      </trkpt>
      <trkpt lat="48.19901" lon="-3.01743">
        <ele>177</ele>
        <time>2015-10-12T09:29:17.1Z</time>
      </trkpt>
      <trkpt lat="48.19901" lon="-3.01743">
        <ele>177</ele>
        <time>2015-10-12T09:29:19.1Z</time>
      </trkpt>
      <trkpt lat="48.19901" lon="-3.01744">
        <ele>177</ele>
        <time>2015-10-12T09:29:22.1Z</time>
      </trkpt>
      <trkpt lat="48.19901" lon="-3.01744">
        <ele>177</ele>
        <time>2015-10-12T09:29:25.1Z</time>
      </trkpt>
      <trkpt lat="48.199" lon="-3.01744">
        <ele>177</ele>
        <time>2015-10-12T09:29:28.1Z</time>
      </trkpt>
      <trkpt lat="48.199" lon="-3.01744">
        <ele>177</ele>
        <time>2015-10-12T09:29:31.1Z</time>
      </trkpt>
      <trkpt lat="48.199" lon="-3.01743">
        <ele>177</ele>
        <time>2015-10-12T09:29:34.1Z</time>
      </trkpt>
      <trkpt lat="48.19901" lon="-3.01741">
        <ele>177</ele>
        <time>2015-10-12T09:29:37.1Z</time>
      </trkpt>
      <trkpt lat="48.19901" lon="-3.0174">
        <ele>177</ele>
        <time>2015-10-12T09:29:40.1Z</time>
      </trkpt>
      <trkpt lat="48.19901" lon="-3.0174">
        <ele>177</ele>
        <time>2015-10-12T09:29:43.1Z</time>
      </trkpt>
      <trkpt lat="48.19901" lon="-3.0174">
        <ele>177</ele>
        <time>2015-10-12T09:29:46.1Z</time>
      </trkpt>
      <trkpt lat="48.19901" lon="-3.01739">
        <ele>177</ele>
        <time>2015-10-12T09:29:49.1Z</time>
      </trkpt>
      <trkpt lat="48.199" lon="-3.0174">
        <ele>177</ele>
        <time>2015-10-12T09:29:52.1Z</time>
      </trkpt>
      <trkpt lat="48.199" lon="-3.01739">
        <ele>177</ele>
        <time>2015-10-12T09:29:55.1Z</time>
      </trkpt>
      <trkpt lat="48.199" lon="-3.01739">
        <ele>177</ele>
        <time>2015-10-12T09:29:57.1Z</time>
      </trkpt>
      <trkpt lat="48.19902" lon="-3.01738">
        <ele>176</ele>
        <time>2015-10-12T09:30:00.1Z</time>
      </trkpt>
      <trkpt lat="48.19904" lon="-3.01738">
        <ele>176</ele>
        <time>2015-10-12T09:30:02.1Z</time>
      </trkpt>
      <trkpt lat="48.19905" lon="-3.01739">
        <ele>176</ele>
        <time>2015-10-12T09:30:05.1Z</time>
      </trkpt>
      <trkpt lat="48.19906" lon="-3.01739">
        <ele>177</ele>
        <time>2015-10-12T09:30:08.1Z</time>
      </trkpt>
      <trkpt lat="48.19908" lon="-3.01739">
        <ele>177</ele>
        <time>2015-10-12T09:30:11.1Z</time>
      </trkpt>
      <trkpt lat="48.19909" lon="-3.01739">
        <ele>177</ele>
        <time>2015-10-12T09:30:14.1Z</time>
      </trkpt>
      <trkpt lat="48.1991" lon="-3.01741">
        <ele>177</ele>
        <time>2015-10-12T09:30:17.1Z</time>
      </trkpt>
      <trkpt lat="48.19911" lon="-3.01742">
        <ele>177</ele>
        <time>2015-10-12T09:30:19.1Z</time>
      </trkpt>
      <trkpt lat="48.19911" lon="-3.01744">
        <ele>177</ele>
        <time>2015-10-12T09:30:21.1Z</time>
      </trkpt>
      <trkpt lat="48.19911" lon="-3.01744">
        <ele>178</ele>
        <time>2015-10-12T09:30:23.1Z</time>
      </trkpt>
      <trkpt lat="48.19912" lon="-3.01745">
        <ele>178</ele>
        <time>2015-10-12T09:30:26.1Z</time>
      </trkpt>
      <trkpt lat="48.19914" lon="-3.01746">
        <ele>178</ele>
        <time>2015-10-12T09:30:29.1Z</time>
      </trkpt>
      <trkpt lat="48.19914" lon="-3.01747">
        <ele>178</ele>
        <time>2015-10-12T09:30:31.1Z</time>
      </trkpt>
      <trkpt lat="48.19915" lon="-3.01749">
        <ele>178</ele>
        <time>2015-10-12T09:30:34.1Z</time>
      </trkpt>
      <trkpt lat="48.19916" lon="-3.0175">
        <ele>178</ele>
        <time>2015-10-12T09:30:36.1Z</time>
      </trkpt>
      <trkpt lat="48.19916" lon="-3.01752">
        <ele>179</ele>
        <time>2015-10-12T09:30:39.1Z</time>
      </trkpt>
      <trkpt lat="48.19916" lon="-3.01756">
        <ele>179</ele>
        <time>2015-10-12T09:30:42.1Z</time>
      </trkpt>
      <trkpt lat="48.19916" lon="-3.01757">
        <ele>179</ele>
        <time>2015-10-12T09:30:44.1Z</time>
      </trkpt>
      <trkpt lat="48.19916" lon="-3.01758">
        <ele>180</ele>
        <time>2015-10-12T09:30:46.1Z</time>
      </trkpt>
      <trkpt lat="48.19917" lon="-3.0176">
        <ele>180</ele>
        <time>2015-10-12T09:30:49.1Z</time>
      </trkpt>
      <trkpt lat="48.19917" lon="-3.01761">
        <ele>181</ele>
        <time>2015-10-12T09:30:51.1Z</time>
      </trkpt>
      <trkpt lat="48.19917" lon="-3.01764">
        <ele>181</ele>
        <time>2015-10-12T09:30:53.1Z</time>
      </trkpt>
      <trkpt lat="48.19917" lon="-3.01765">
        <ele>181</ele>
        <time>2015-10-12T09:30:55.1Z</time>
      </trkpt>
      <trkpt lat="48.19917" lon="-3.01769">
        <ele>181</ele>
        <time>2015-10-12T09:30:58.1Z</time>
      </trkpt>
      <trkpt lat="48.19917" lon="-3.01771">
        <ele>181</ele>
        <time>2015-10-12T09:31:01.1Z</time>
      </trkpt>
      <trkpt lat="48.19917" lon="-3.01774">
        <ele>182</ele>
        <time>2015-10-12T09:31:04.1Z</time>
      </trkpt>
      <trkpt lat="48.19918" lon="-3.01776">
        <ele>182</ele>
        <time>2015-10-12T09:31:06.1Z</time>
      </trkpt>
      <trkpt lat="48.19919" lon="-3.01778">
        <ele>182</ele>
        <time>2015-10-12T09:31:08.1Z</time>
      </trkpt>
      <trkpt lat="48.19921" lon="-3.0178">
        <ele>182</ele>
        <time>2015-10-12T09:31:11.1Z</time>
      </trkpt>
      <trkpt lat="48.19921" lon="-3.01781">
        <ele>182</ele>
        <time>2015-10-12T09:31:13.1Z</time>
      </trkpt>
      <trkpt lat="48.19923" lon="-3.01783">
        <ele>182</ele>
        <time>2015-10-12T09:31:16.1Z</time>
      </trkpt>
      <trkpt lat="48.19923" lon="-3.01786">
        <ele>183</ele>
        <time>2015-10-12T09:31:19.1Z</time>
      </trkpt>
      <trkpt lat="48.19924" lon="-3.01788">
        <ele>183</ele>
        <time>2015-10-12T09:31:21.1Z</time>
      </trkpt>
      <trkpt lat="48.19925" lon="-3.01791">
        <ele>184</ele>
        <time>2015-10-12T09:31:24.1Z</time>
      </trkpt>
      <trkpt lat="48.19926" lon="-3.01794">
        <ele>184</ele>
        <time>2015-10-12T09:31:26.1Z</time>
      </trkpt>
      <trkpt lat="48.19927" lon="-3.01795">
        <ele>184</ele>
        <time>2015-10-12T09:31:28.1Z</time>
      </trkpt>
      <trkpt lat="48.19929" lon="-3.01797">
        <ele>184</ele>
        <time>2015-10-12T09:31:31.1Z</time>
      </trkpt>
      <trkpt lat="48.19929" lon="-3.01799">
        <ele>184</ele>
        <time>2015-10-12T09:31:33.1Z</time>
      </trkpt>
      <trkpt lat="48.1993" lon="-3.01802">
        <ele>185</ele>
        <time>2015-10-12T09:31:36.1Z</time>
      </trkpt>
      <trkpt lat="48.1993" lon="-3.01804">
        <ele>186</ele>
        <time>2015-10-12T09:31:39.1Z</time>
      </trkpt>
      <trkpt lat="48.19931" lon="-3.01805">
        <ele>186</ele>
        <time>2015-10-12T09:31:41.1Z</time>
      </trkpt>
      <trkpt lat="48.19932" lon="-3.01807">
        <ele>186</ele>
        <time>2015-10-12T09:31:44.1Z</time>
      </trkpt>
      <trkpt lat="48.19932" lon="-3.01809">
        <ele>187</ele>
        <time>2015-10-12T09:31:47.1Z</time>
      </trkpt>
      <trkpt lat="48.19933" lon="-3.0181">
        <ele>187</ele>
        <time>2015-10-12T09:31:49.1Z</time>
      </trkpt>
      <trkpt lat="48.19933" lon="-3.01813">
        <ele>188</ele>
        <time>2015-10-12T09:31:51.1Z</time>
      </trkpt>
      <trkpt lat="48.19933" lon="-3.01814">
        <ele>188</ele>
        <time>2015-10-12T09:31:54.1Z</time>
      </trkpt>
      <trkpt lat="48.19934" lon="-3.01815">
        <ele>188</ele>
        <time>2015-10-12T09:31:56.1Z</time>
      </trkpt>
      <trkpt lat="48.19934" lon="-3.01816">
        <ele>189</ele>
        <time>2015-10-12T09:31:59.1Z</time>
      </trkpt>
      <trkpt lat="48.19935" lon="-3.01817">
        <ele>189</ele>
        <time>2015-10-12T09:32:01.1Z</time>
      </trkpt>
      <trkpt lat="48.19935" lon="-3.01819">
        <ele>190</ele>
        <time>2015-10-12T09:32:04.1Z</time>
      </trkpt>
      <trkpt lat="48.19936" lon="-3.01821">
        <ele>190</ele>
        <time>2015-10-12T09:32:07.1Z</time>
      </trkpt>
      <trkpt lat="48.19936" lon="-3.0182">
        <ele>190</ele>
        <time>2015-10-12T09:32:09.1Z</time>
      </trkpt>
      <trkpt lat="48.19938" lon="-3.01818">
        <ele>190</ele>
        <time>2015-10-12T09:32:12.1Z</time>
      </trkpt>
      <trkpt lat="48.19939" lon="-3.01817">
        <ele>190</ele>
        <time>2015-10-12T09:32:14.1Z</time>
      </trkpt>
      <trkpt lat="48.19941" lon="-3.01817">
        <ele>190</ele>
        <time>2015-10-12T09:32:17.1Z</time>
      </trkpt>
      <trkpt lat="48.19943" lon="-3.01818">
        <ele>190</ele>
        <time>2015-10-12T09:32:20.1Z</time>
      </trkpt>
      <trkpt lat="48.19945" lon="-3.01819">
        <ele>190</ele>
        <time>2015-10-12T09:32:22.1Z</time>
      </trkpt>
      <trkpt lat="48.19947" lon="-3.0182">
        <ele>190</ele>
        <time>2015-10-12T09:32:25.1Z</time>
      </trkpt>
      <trkpt lat="48.19948" lon="-3.01821">
        <ele>190</ele>
        <time>2015-10-12T09:32:27.1Z</time>
      </trkpt>
      <trkpt lat="48.1995" lon="-3.01823">
        <ele>189</ele>
        <time>2015-10-12T09:32:30.1Z</time>
      </trkpt>
      <trkpt lat="48.19951" lon="-3.01824">
        <ele>189</ele>
        <time>2015-10-12T09:32:33.1Z</time>
      </trkpt>
      <trkpt lat="48.19951" lon="-3.01825">
        <ele>189</ele>
        <time>2015-10-12T09:32:35.1Z</time>
      </trkpt>
      <trkpt lat="48.19951" lon="-3.01825">
        <ele>189</ele>
        <time>2015-10-12T09:32:37.1Z</time>
      </trkpt>
      <trkpt lat="48.19952" lon="-3.01825">
        <ele>189</ele>
        <time>2015-10-12T09:32:40.1Z</time>
      </trkpt>
      <trkpt lat="48.19952" lon="-3.01826">
        <ele>189</ele>
        <time>2015-10-12T09:32:42.1Z</time>
      </trkpt>
      <trkpt lat="48.19951" lon="-3.0183">
        <ele>189</ele>
        <time>2015-10-12T09:32:45.1Z</time>
      </trkpt>
      <trkpt lat="48.19951" lon="-3.01832">
        <ele>189</ele>
        <time>2015-10-12T09:32:47.1Z</time>
      </trkpt>
      <trkpt lat="48.1995" lon="-3.01834">
        <ele>190</ele>
        <time>2015-10-12T09:32:49.1Z</time>
      </trkpt>
      <trkpt lat="48.1995" lon="-3.01835">
        <ele>190</ele>
        <time>2015-10-12T09:32:51.1Z</time>
      </trkpt>
      <trkpt lat="48.19948" lon="-3.01835">
        <ele>191</ele>
        <time>2015-10-12T09:32:54.1Z</time>
      </trkpt>
      <trkpt lat="48.19947" lon="-3.01834">
        <ele>191</ele>
        <time>2015-10-12T09:32:56.1Z</time>
      </trkpt>
      <trkpt lat="48.19945" lon="-3.01833">
        <ele>191</ele>
        <time>2015-10-12T09:32:58.1Z</time>
      </trkpt>
      <trkpt lat="48.19944" lon="-3.01831">
        <ele>192</ele>
        <time>2015-10-12T09:33:00.1Z</time>
      </trkpt>
      <trkpt lat="48.19944" lon="-3.01829">
        <ele>192</ele>
        <time>2015-10-12T09:33:03.1Z</time>
      </trkpt>
      <trkpt lat="48.19944" lon="-3.01828">
        <ele>192</ele>
        <time>2015-10-12T09:33:06.1Z</time>
      </trkpt>
      <trkpt lat="48.19944" lon="-3.01828">
        <ele>192</ele>
        <time>2015-10-12T09:33:08.1Z</time>
      </trkpt>
      <trkpt lat="48.19944" lon="-3.01829">
        <ele>192</ele>
        <time>2015-10-12T09:33:11.1Z</time>
      </trkpt>
      <trkpt lat="48.19944" lon="-3.0183">
        <ele>192</ele>
        <time>2015-10-12T09:33:14.1Z</time>
      </trkpt>
      <trkpt lat="48.19945" lon="-3.01831">
        <ele>192</ele>
        <time>2015-10-12T09:33:16.1Z</time>
      </trkpt>
      <trkpt lat="48.19946" lon="-3.01833">
        <ele>191</ele>
        <time>2015-10-12T09:33:19.1Z</time>
      </trkpt>
      <trkpt lat="48.19947" lon="-3.01834">
        <ele>191</ele>
        <time>2015-10-12T09:33:21.1Z</time>
      </trkpt>
      <trkpt lat="48.19948" lon="-3.01833">
        <ele>190</ele>
        <time>2015-10-12T09:33:23.1Z</time>
      </trkpt>
      <trkpt lat="48.1995" lon="-3.01832">
        <ele>190</ele>
        <time>2015-10-12T09:33:26.1Z</time>
      </trkpt>
      <trkpt lat="48.19951" lon="-3.01833">
        <ele>190</ele>
        <time>2015-10-12T09:33:28.1Z</time>
      </trkpt>
      <trkpt lat="48.19952" lon="-3.01832">
        <ele>190</ele>
        <time>2015-10-12T09:33:31.1Z</time>
      </trkpt>
      <trkpt lat="48.19953" lon="-3.01832">
        <ele>189</ele>
        <time>2015-10-12T09:33:33.1Z</time>
      </trkpt>
      <trkpt lat="48.19954" lon="-3.01832">
        <ele>189</ele>
        <time>2015-10-12T09:33:36.1Z</time>
      </trkpt>
      <trkpt lat="48.19955" lon="-3.0183">
        <ele>189</ele>
        <time>2015-10-12T09:33:39.1Z</time>
      </trkpt>
      <trkpt lat="48.19954" lon="-3.01829">
        <ele>189</ele>
        <time>2015-10-12T09:33:42.1Z</time>
      </trkpt>
      <trkpt lat="48.19954" lon="-3.01828">
        <ele>189</ele>
        <time>2015-10-12T09:33:44.1Z</time>
      </trkpt>
      <trkpt lat="48.19955" lon="-3.01827">
        <ele>189</ele>
        <time>2015-10-12T09:33:46.1Z</time>
      </trkpt>
      <trkpt lat="48.19955" lon="-3.01824">
        <ele>189</ele>
        <time>2015-10-12T09:33:49.1Z</time>
      </trkpt>
      <trkpt lat="48.19956" lon="-3.0182">
        <ele>189</ele>
        <time>2015-10-12T09:33:51.1Z</time>
      </trkpt>
      <trkpt lat="48.19956" lon="-3.01817">
        <ele>189</ele>
        <time>2015-10-12T09:33:53.1Z</time>
      </trkpt>
      <trkpt lat="48.19957" lon="-3.01813">
        <ele>189</ele>
        <time>2015-10-12T09:33:56.1Z</time>
      </trkpt>
      <trkpt lat="48.19958" lon="-3.0181">
        <ele>189</ele>
        <time>2015-10-12T09:33:58.1Z</time>
      </trkpt>
      <trkpt lat="48.19958" lon="-3.01808">
        <ele>189</ele>
        <time>2015-10-12T09:34:00.1Z</time>
      </trkpt>
      <trkpt lat="48.19959" lon="-3.01805">
        <ele>188</ele>
        <time>2015-10-12T09:34:03.1Z</time>
      </trkpt>
      <trkpt lat="48.1996" lon="-3.01803">
        <ele>188</ele>
        <time>2015-10-12T09:34:05.1Z</time>
      </trkpt>
      <trkpt lat="48.19959" lon="-3.018">
        <ele>188</ele>
        <time>2015-10-12T09:34:07.1Z</time>
      </trkpt>
      <trkpt lat="48.19958" lon="-3.01798">
        <ele>188</ele>
        <time>2015-10-12T09:34:10.1Z</time>
      </trkpt>
      <trkpt lat="48.19957" lon="-3.018">
        <ele>188</ele>
        <time>2015-10-12T09:34:12.1Z</time>
      </trkpt>
      <trkpt lat="48.19956" lon="-3.01799">
        <ele>188</ele>
        <time>2015-10-12T09:34:14.1Z</time>
      </trkpt>
      <trkpt lat="48.19956" lon="-3.018">
        <ele>188</ele>
        <time>2015-10-12T09:34:16.1Z</time>
      </trkpt>
      <trkpt lat="48.19956" lon="-3.01799">
        <ele>188</ele>
        <time>2015-10-12T09:34:19.1Z</time>
      </trkpt>
      <trkpt lat="48.19956" lon="-3.01799">
        <ele>188</ele>
        <time>2015-10-12T09:34:22.1Z</time>
      </trkpt>
      <trkpt lat="48.19957" lon="-3.01797">
        <ele>188</ele>
        <time>2015-10-12T09:34:25.1Z</time>
      </trkpt>
      <trkpt lat="48.19958" lon="-3.01797">
        <ele>188</ele>
        <time>2015-10-12T09:34:28.1Z</time>
      </trkpt>
      <trkpt lat="48.19958" lon="-3.01798">
        <ele>188</ele>
        <time>2015-10-12T09:34:30.1Z</time>
      </trkpt>
      <trkpt lat="48.19958" lon="-3.01801">
        <ele>187</ele>
        <time>2015-10-12T09:34:33.1Z</time>
      </trkpt>
      <trkpt lat="48.19957" lon="-3.01802">
        <ele>186</ele>
        <time>2015-10-12T09:34:36.1Z</time>
      </trkpt>
      <trkpt lat="48.19956" lon="-3.01802">
        <ele>186</ele>
        <time>2015-10-12T09:34:39.1Z</time>
      </trkpt>
      <trkpt lat="48.19956" lon="-3.01802">
        <ele>186</ele>
        <time>2015-10-12T09:34:41.1Z</time>
      </trkpt>
      <trkpt lat="48.19955" lon="-3.01803">
        <ele>185</ele>
        <time>2015-10-12T09:34:43.1Z</time>
      </trkpt>
      <trkpt lat="48.19954" lon="-3.01803">
        <ele>185</ele>
        <time>2015-10-12T09:34:46.1Z</time>
      </trkpt>
      <trkpt lat="48.19953" lon="-3.01803">
        <ele>184</ele>
        <time>2015-10-12T09:34:49.1Z</time>
      </trkpt>
      <trkpt lat="48.19953" lon="-3.01802">
        <ele>184</ele>
        <time>2015-10-12T09:34:52.1Z</time>
      </trkpt>
      <trkpt lat="48.19956" lon="-3.018">
        <ele>184</ele>
        <time>2015-10-12T09:34:55.1Z</time>
      </trkpt>
      <trkpt lat="48.19957" lon="-3.018">
        <ele>184</ele>
        <time>2015-10-12T09:34:57.1Z</time>
      </trkpt>
      <trkpt lat="48.19957" lon="-3.018">
        <ele>185</ele>
        <time>2015-10-12T09:34:59.1Z</time>
      </trkpt>
      <trkpt lat="48.19958" lon="-3.01798">
        <ele>186</ele>
        <time>2015-10-12T09:35:02.1Z</time>
      </trkpt>
      <trkpt lat="48.19958" lon="-3.01796">
        <ele>187</ele>
        <time>2015-10-12T09:35:04.1Z</time>
      </trkpt>
      <trkpt lat="48.19958" lon="-3.01796">
        <ele>187</ele>
        <time>2015-10-12T09:35:07.1Z</time>
      </trkpt>
      <trkpt lat="48.19958" lon="-3.01797">
        <ele>187</ele>
        <time>2015-10-12T09:35:09.1Z</time>
      </trkpt>
      <trkpt lat="48.19957" lon="-3.01798">
        <ele>188</ele>
        <time>2015-10-12T09:35:11.1Z</time>
      </trkpt>
      <trkpt lat="48.19956" lon="-3.01799">
        <ele>188</ele>
        <time>2015-10-12T09:35:13.1Z</time>
      </trkpt>
      <trkpt lat="48.19955" lon="-3.01801">
        <ele>189</ele>
        <time>2015-10-12T09:35:16.1Z</time>
      </trkpt>
      <trkpt lat="48.19954" lon="-3.01804">
        <ele>189</ele>
        <time>2015-10-12T09:35:19.1Z</time>
      </trkpt>
      <trkpt lat="48.19953" lon="-3.01806">
        <ele>190</ele>
        <time>2015-10-12T09:35:21.1Z</time>
      </trkpt>
      <trkpt lat="48.19952" lon="-3.01809">
        <ele>190</ele>
        <time>2015-10-12T09:35:24.1Z</time>
      </trkpt>
      <trkpt lat="48.19952" lon="-3.01809">
        <ele>191</ele>
        <time>2015-10-12T09:35:26.1Z</time>
      </trkpt>
      <trkpt lat="48.1995" lon="-3.01811">
        <ele>191</ele>
        <time>2015-10-12T09:35:29.1Z</time>
      </trkpt>
      <trkpt lat="48.19947" lon="-3.01813">
        <ele>191</ele>
        <time>2015-10-12T09:35:32.1Z</time>
      </trkpt>
      <trkpt lat="48.19947" lon="-3.01815">
        <ele>190</ele>
        <time>2015-10-12T09:35:35.1Z</time>
      </trkpt>
      <trkpt lat="48.19945" lon="-3.01816">
        <ele>190</ele>
        <time>2015-10-12T09:35:38.1Z</time>
      </trkpt>
      <trkpt lat="48.19944" lon="-3.01817">
        <ele>190</ele>
        <time>2015-10-12T09:35:40.1Z</time>
      </trkpt>
      <trkpt lat="48.19942" lon="-3.01817">
        <ele>190</ele>
        <time>2015-10-12T09:35:43.1Z</time>
      </trkpt>
      <trkpt lat="48.19942" lon="-3.01816">
        <ele>190</ele>
        <time>2015-10-12T09:35:45.1Z</time>
      </trkpt>
      <trkpt lat="48.19941" lon="-3.01816">
        <ele>190</ele>
        <time>2015-10-12T09:35:48.1Z</time>
      </trkpt>
      <trkpt lat="48.1994" lon="-3.01817">
        <ele>190</ele>
        <time>2015-10-12T09:35:51.1Z</time>
      </trkpt>
      <trkpt lat="48.1994" lon="-3.01818">
        <ele>190</ele>
        <time>2015-10-12T09:35:53.1Z</time>
      </trkpt>
      <trkpt lat="48.19939" lon="-3.0182">
        <ele>190</ele>
        <time>2015-10-12T09:35:56.1Z</time>
      </trkpt>
      <trkpt lat="48.19938" lon="-3.01823">
        <ele>190</ele>
        <time>2015-10-12T09:35:58.1Z</time>
      </trkpt>
      <trkpt lat="48.19936" lon="-3.01826">
        <ele>190</ele>
        <time>2015-10-12T09:36:00.1Z</time>
      </trkpt>
      <trkpt lat="48.19935" lon="-3.01828">
        <ele>190</ele>
        <time>2015-10-12T09:36:02.1Z</time>
      </trkpt>
      <trkpt lat="48.19933" lon="-3.01831">
        <ele>190</ele>
        <time>2015-10-12T09:36:05.1Z</time>
      </trkpt>
      <trkpt lat="48.19931" lon="-3.01834">
        <ele>189</ele>
        <time>2015-10-12T09:36:08.1Z</time>
      </trkpt>
      <trkpt lat="48.19931" lon="-3.01835">
        <ele>189</ele>
        <time>2015-10-12T09:36:10.1Z</time>
      </trkpt>
      <trkpt lat="48.19931" lon="-3.01836">
        <ele>188</ele>
        <time>2015-10-12T09:36:12.1Z</time>
      </trkpt>
      <trkpt lat="48.1993" lon="-3.01838">
        <ele>188</ele>
        <time>2015-10-12T09:36:15.1Z</time>
      </trkpt>
      <trkpt lat="48.1993" lon="-3.01839">
        <ele>187</ele>
        <time>2015-10-12T09:36:17.1Z</time>
      </trkpt>
      <trkpt lat="48.19929" lon="-3.0184">
        <ele>187</ele>
        <time>2015-10-12T09:36:20.1Z</time>
      </trkpt>
      <trkpt lat="48.19928" lon="-3.01842">
        <ele>187</ele>
        <time>2015-10-12T09:36:22.1Z</time>
      </trkpt>
      <trkpt lat="48.19927" lon="-3.01843">
        <ele>186</ele>
        <time>2015-10-12T09:36:25.1Z</time>
      </trkpt>
      <trkpt lat="48.19926" lon="-3.01845">
        <ele>185</ele>
        <time>2015-10-12T09:36:27.1Z</time>
      </trkpt>
      <trkpt lat="48.19924" lon="-3.01846">
        <ele>185</ele>
        <time>2015-10-12T09:36:29.1Z</time>
      </trkpt>
      <trkpt lat="48.19922" lon="-3.01848">
        <ele>185</ele>
        <time>2015-10-12T09:36:32.1Z</time>
      </trkpt>
      <trkpt lat="48.19921" lon="-3.01852">
        <ele>184</ele>
        <time>2015-10-12T09:36:35.1Z</time>
      </trkpt>
      <trkpt lat="48.1992" lon="-3.01856">
        <ele>185</ele>
        <time>2015-10-12T09:36:38.1Z</time>
      </trkpt>
      <trkpt lat="48.1992" lon="-3.01858">
        <ele>184</ele>
        <time>2015-10-12T09:36:40.1Z</time>
      </trkpt>
      <trkpt lat="48.1992" lon="-3.01861">
        <ele>184</ele>
        <time>2015-10-12T09:36:42.1Z</time>
      </trkpt>
      <trkpt lat="48.1992" lon="-3.01864">
        <ele>184</ele>
        <time>2015-10-12T09:36:45.1Z</time>
      </trkpt>
      <trkpt lat="48.1992" lon="-3.01867">
        <ele>184</ele>
        <time>2015-10-12T09:36:47.1Z</time>
      </trkpt>
      <trkpt lat="48.19919" lon="-3.0187">
        <ele>184</ele>
        <time>2015-10-12T09:36:49.1Z</time>
      </trkpt>
      <trkpt lat="48.19919" lon="-3.01873">
        <ele>185</ele>
        <time>2015-10-12T09:36:51.1Z</time>
      </trkpt>
      <trkpt lat="48.19919" lon="-3.01876">
        <ele>185</ele>
        <time>2015-10-12T09:36:53.1Z</time>
      </trkpt>
      <trkpt lat="48.19919" lon="-3.01882">
        <ele>185</ele>
        <time>2015-10-12T09:36:56.1Z</time>
      </trkpt>
      <trkpt lat="48.19919" lon="-3.01886">
        <ele>185</ele>
        <time>2015-10-12T09:36:58.1Z</time>
      </trkpt>
      <trkpt lat="48.19918" lon="-3.01891">
        <ele>185</ele>
        <time>2015-10-12T09:37:01.1Z</time>
      </trkpt>
      <trkpt lat="48.19918" lon="-3.01895">
        <ele>185</ele>
        <time>2015-10-12T09:37:03.1Z</time>
      </trkpt>
      <trkpt lat="48.19918" lon="-3.019">
        <ele>185</ele>
        <time>2015-10-12T09:37:06.1Z</time>
      </trkpt>
      <trkpt lat="48.19918" lon="-3.01903">
        <ele>185</ele>
        <time>2015-10-12T09:37:08.1Z</time>
      </trkpt>
      <trkpt lat="48.19918" lon="-3.01906">
        <ele>185</ele>
        <time>2015-10-12T09:37:10.1Z</time>
      </trkpt>
      <trkpt lat="48.19918" lon="-3.0191">
        <ele>185</ele>
        <time>2015-10-12T09:37:13.1Z</time>
      </trkpt>
      <trkpt lat="48.19918" lon="-3.01913">
        <ele>186</ele>
        <time>2015-10-12T09:37:15.1Z</time>
      </trkpt>
      <trkpt lat="48.19918" lon="-3.01918">
        <ele>186</ele>
        <time>2015-10-12T09:37:18.1Z</time>
      </trkpt>
      <trkpt lat="48.19918" lon="-3.01921">
        <ele>186</ele>
        <time>2015-10-12T09:37:20.1Z</time>
      </trkpt>
      <trkpt lat="48.19919" lon="-3.01923">
        <ele>186</ele>
        <time>2015-10-12T09:37:22.1Z</time>
      </trkpt>
      <trkpt lat="48.1992" lon="-3.01928">
        <ele>186</ele>
        <time>2015-10-12T09:37:25.1Z</time>
      </trkpt>
      <trkpt lat="48.1992" lon="-3.0193">
        <ele>186</ele>
        <time>2015-10-12T09:37:27.1Z</time>
      </trkpt>
      <trkpt lat="48.1992" lon="-3.01933">
        <ele>186</ele>
        <time>2015-10-12T09:37:30.1Z</time>
      </trkpt>
      <trkpt lat="48.1992" lon="-3.01936">
        <ele>186</ele>
        <time>2015-10-12T09:37:32.1Z</time>
      </trkpt>
      <trkpt lat="48.19919" lon="-3.01939">
        <ele>186</ele>
        <time>2015-10-12T09:37:34.1Z</time>
      </trkpt>
      <trkpt lat="48.19919" lon="-3.01944">
        <ele>186</ele>
        <time>2015-10-12T09:37:37.1Z</time>
      </trkpt>
      <trkpt lat="48.19918" lon="-3.01948">
        <ele>186</ele>
        <time>2015-10-12T09:37:40.1Z</time>
      </trkpt>
      <trkpt lat="48.19918" lon="-3.01952">
        <ele>186</ele>
        <time>2015-10-12T09:37:43.1Z</time>
      </trkpt>
      <trkpt lat="48.19916" lon="-3.01955">
        <ele>186</ele>
        <time>2015-10-12T09:37:46.1Z</time>
      </trkpt>
      <trkpt lat="48.19914" lon="-3.01957">
        <ele>185</ele>
        <time>2015-10-12T09:37:48.1Z</time>
      </trkpt>
      <trkpt lat="48.19913" lon="-3.01958">
        <ele>185</ele>
        <time>2015-10-12T09:37:50.1Z</time>
      </trkpt>
      <trkpt lat="48.19911" lon="-3.0196">
        <ele>185</ele>
        <time>2015-10-12T09:37:53.1Z</time>
      </trkpt>
      <trkpt lat="48.1991" lon="-3.01961">
        <ele>184</ele>
        <time>2015-10-12T09:37:55.1Z</time>
      </trkpt>
      <trkpt lat="48.19909" lon="-3.01962">
        <ele>184</ele>
        <time>2015-10-12T09:37:57.1Z</time>
      </trkpt>
      <trkpt lat="48.19907" lon="-3.01963">
        <ele>183</ele>
        <time>2015-10-12T09:37:59.1Z</time>
      </trkpt>
      <trkpt lat="48.19906" lon="-3.01964">
        <ele>183</ele>
        <time>2015-10-12T09:38:02.1Z</time>
      </trkpt>
      <trkpt lat="48.19906" lon="-3.01966">
        <ele>183</ele>
        <time>2015-10-12T09:38:05.1Z</time>
      </trkpt>
      <trkpt lat="48.19906" lon="-3.01967">
        <ele>183</ele>
        <time>2015-10-12T09:38:07.1Z</time>
      </trkpt>
      <trkpt lat="48.19906" lon="-3.01971">
        <ele>183</ele>
        <time>2015-10-12T09:38:10.1Z</time>
      </trkpt>
      <trkpt lat="48.19904" lon="-3.01972">
        <ele>183</ele>
        <time>2015-10-12T09:38:12.1Z</time>
      </trkpt>
      <trkpt lat="48.19902" lon="-3.01975">
        <ele>182</ele>
        <time>2015-10-12T09:38:15.1Z</time>
      </trkpt>
      <trkpt lat="48.19902" lon="-3.01978">
        <ele>182</ele>
        <time>2015-10-12T09:38:17.1Z</time>
      </trkpt>
      <trkpt lat="48.19901" lon="-3.01982">
        <ele>182</ele>
        <time>2015-10-12T09:38:20.1Z</time>
      </trkpt>
      <trkpt lat="48.19901" lon="-3.01987">
        <ele>182</ele>
        <time>2015-10-12T09:38:23.1Z</time>
      </trkpt>
      <trkpt lat="48.19902" lon="-3.01991">
        <ele>181</ele>
        <time>2015-10-12T09:38:26.1Z</time>
      </trkpt>
      <trkpt lat="48.19902" lon="-3.01993">
        <ele>180</ele>
        <time>2015-10-12T09:38:28.1Z</time>
      </trkpt>
      <trkpt lat="48.19902" lon="-3.01996">
        <ele>179</ele>
        <time>2015-10-12T09:38:31.1Z</time>
      </trkpt>
      <trkpt lat="48.19901" lon="-3.02">
        <ele>179</ele>
        <time>2015-10-12T09:38:34.1Z</time>
      </trkpt>
      <trkpt lat="48.19901" lon="-3.02001">
        <ele>178</ele>
        <time>2015-10-12T09:38:36.1Z</time>
      </trkpt>
      <trkpt lat="48.19899" lon="-3.02002">
        <ele>178</ele>
        <time>2015-10-12T09:38:38.1Z</time>
      </trkpt>
      <trkpt lat="48.19898" lon="-3.02004">
        <ele>178</ele>
        <time>2015-10-12T09:38:41.1Z</time>
      </trkpt>
      <trkpt lat="48.19897" lon="-3.02005">
        <ele>177</ele>
        <time>2015-10-12T09:38:44.1Z</time>
      </trkpt>
      <trkpt lat="48.19895" lon="-3.02007">
        <ele>176</ele>
        <time>2015-10-12T09:38:47.1Z</time>
      </trkpt>
      <trkpt lat="48.19894" lon="-3.02008">
        <ele>176</ele>
        <time>2015-10-12T09:38:49.1Z</time>
      </trkpt>
      <trkpt lat="48.19893" lon="-3.02008">
        <ele>175</ele>
        <time>2015-10-12T09:38:52.1Z</time>
      </trkpt>
      <trkpt lat="48.19891" lon="-3.02009">
        <ele>174</ele>
        <time>2015-10-12T09:38:55.1Z</time>
      </trkpt>
      <trkpt lat="48.19891" lon="-3.0201">
        <ele>173</ele>
        <time>2015-10-12T09:38:57.1Z</time>
      </trkpt>
      <trkpt lat="48.1989" lon="-3.0201">
        <ele>173</ele>
        <time>2015-10-12T09:38:59.1Z</time>
      </trkpt>
      <trkpt lat="48.19889" lon="-3.0201">
        <ele>172</ele>
        <time>2015-10-12T09:39:02.1Z</time>
      </trkpt>
      <trkpt lat="48.19888" lon="-3.0201">
        <ele>171</ele>
        <time>2015-10-12T09:39:05.1Z</time>
      </trkpt>
      <trkpt lat="48.19887" lon="-3.02012">
        <ele>171</ele>
        <time>2015-10-12T09:39:08.1Z</time>
      </trkpt>
      <trkpt lat="48.19887" lon="-3.02017">
        <ele>171</ele>
        <time>2015-10-12T09:39:11.1Z</time>
      </trkpt>
      <trkpt lat="48.19887" lon="-3.02021">
        <ele>170</ele>
        <time>2015-10-12T09:39:13.1Z</time>
      </trkpt>
      <trkpt lat="48.19887" lon="-3.02024">
        <ele>169</ele>
        <time>2015-10-12T09:39:16.1Z</time>
      </trkpt>
      <trkpt lat="48.19887" lon="-3.02026">
        <ele>169</ele>
        <time>2015-10-12T09:39:18.1Z</time>
      </trkpt>
      <trkpt lat="48.19886" lon="-3.02027">
        <ele>168</ele>
        <time>2015-10-12T09:39:21.1Z</time>
      </trkpt>
      <trkpt lat="48.19885" lon="-3.02029">
        <ele>168</ele>
        <time>2015-10-12T09:39:23.1Z</time>
      </trkpt>
      <trkpt lat="48.19885" lon="-3.02031">
        <ele>168</ele>
        <time>2015-10-12T09:39:25.1Z</time>
      </trkpt>
      <trkpt lat="48.19884" lon="-3.02033">
        <ele>168</ele>
        <time>2015-10-12T09:39:28.1Z</time>
      </trkpt>
      <trkpt lat="48.19885" lon="-3.02034">
        <ele>167</ele>
        <time>2015-10-12T09:39:31.1Z</time>
      </trkpt>
      <trkpt lat="48.19884" lon="-3.02035">
        <ele>167</ele>
        <time>2015-10-12T09:39:33.1Z</time>
      </trkpt>
      <trkpt lat="48.19883" lon="-3.02038">
        <ele>166</ele>
        <time>2015-10-12T09:39:36.1Z</time>
      </trkpt>
      <trkpt lat="48.19883" lon="-3.02041">
        <ele>166</ele>
        <time>2015-10-12T09:39:38.1Z</time>
      </trkpt>
      <trkpt lat="48.19884" lon="-3.02043">
        <ele>166</ele>
        <time>2015-10-12T09:39:40.1Z</time>
      </trkpt>
      <trkpt lat="48.19884" lon="-3.02048">
        <ele>166</ele>
        <time>2015-10-12T09:39:43.1Z</time>
      </trkpt>
      <trkpt lat="48.19883" lon="-3.0205">
        <ele>166</ele>
        <time>2015-10-12T09:39:45.1Z</time>
      </trkpt>
      <trkpt lat="48.19883" lon="-3.02051">
        <ele>166</ele>
        <time>2015-10-12T09:39:47.1Z</time>
      </trkpt>
      <trkpt lat="48.19882" lon="-3.02053">
        <ele>165</ele>
        <time>2015-10-12T09:39:50.1Z</time>
      </trkpt>
      <trkpt lat="48.19883" lon="-3.02056">
        <ele>165</ele>
        <time>2015-10-12T09:39:52.1Z</time>
      </trkpt>
      <trkpt lat="48.19883" lon="-3.02057">
        <ele>165</ele>
        <time>2015-10-12T09:39:54.1Z</time>
      </trkpt>
      <trkpt lat="48.19883" lon="-3.02062">
        <ele>165</ele>
        <time>2015-10-12T09:39:57.1Z</time>
      </trkpt>
      <trkpt lat="48.19883" lon="-3.02066">
        <ele>165</ele>
        <time>2015-10-12T09:40:00.1Z</time>
      </trkpt>
      <trkpt lat="48.19884" lon="-3.02067">
        <ele>165</ele>
        <time>2015-10-12T09:40:02.1Z</time>
      </trkpt>
      <trkpt lat="48.19884" lon="-3.02072">
        <ele>165</ele>
        <time>2015-10-12T09:40:05.1Z</time>
      </trkpt>
      <trkpt lat="48.19885" lon="-3.02074">
        <ele>165</ele>
        <time>2015-10-12T09:40:07.1Z</time>
      </trkpt>
      <trkpt lat="48.19885" lon="-3.02075">
        <ele>165</ele>
        <time>2015-10-12T09:40:09.1Z</time>
      </trkpt>
      <trkpt lat="48.19886" lon="-3.02076">
        <ele>165</ele>
        <time>2015-10-12T09:40:11.1Z</time>
      </trkpt>
      <trkpt lat="48.19885" lon="-3.02077">
        <ele>165</ele>
        <time>2015-10-12T09:40:14.1Z</time>
      </trkpt>
      <trkpt lat="48.19884" lon="-3.02078">
        <ele>165</ele>
        <time>2015-10-12T09:40:17.1Z</time>
      </trkpt>
      <trkpt lat="48.19884" lon="-3.0208">
        <ele>165</ele>
        <time>2015-10-12T09:40:20.1Z</time>
      </trkpt>
      <trkpt lat="48.19883" lon="-3.02082">
        <ele>165</ele>
        <time>2015-10-12T09:40:22.1Z</time>
      </trkpt>
      <trkpt lat="48.19884" lon="-3.02083">
        <ele>165</ele>
        <time>2015-10-12T09:40:24.1Z</time>
      </trkpt>
      <trkpt lat="48.19885" lon="-3.02084">
        <ele>165</ele>
        <time>2015-10-12T09:40:26.1Z</time>
      </trkpt>
      <trkpt lat="48.19887" lon="-3.02087">
        <ele>165</ele>
        <time>2015-10-12T09:40:28.1Z</time>
      </trkpt>
      <trkpt lat="48.19888" lon="-3.02089">
        <ele>166</ele>
        <time>2015-10-12T09:40:30.1Z</time>
      </trkpt>
      <trkpt lat="48.19888" lon="-3.02093">
        <ele>165</ele>
        <time>2015-10-12T09:40:33.1Z</time>
      </trkpt>
      <trkpt lat="48.19888" lon="-3.02095">
        <ele>165</ele>
        <time>2015-10-12T09:40:35.1Z</time>
      </trkpt>
      <trkpt lat="48.19889" lon="-3.02097">
        <ele>165</ele>
        <time>2015-10-12T09:40:37.1Z</time>
      </trkpt>
      <trkpt lat="48.1989" lon="-3.021">
        <ele>165</ele>
        <time>2015-10-12T09:40:40.1Z</time>
      </trkpt>
      <trkpt lat="48.19891" lon="-3.02104">
        <ele>165</ele>
        <time>2015-10-12T09:40:43.1Z</time>
      </trkpt>
      <trkpt lat="48.19891" lon="-3.02106">
        <ele>166</ele>
        <time>2015-10-12T09:40:45.1Z</time>
      </trkpt>
      <trkpt lat="48.1989" lon="-3.02108">
        <ele>166</ele>
        <time>2015-10-12T09:40:47.1Z</time>
      </trkpt>
      <trkpt lat="48.19889" lon="-3.02112">
        <ele>166</ele>
        <time>2015-10-12T09:40:50.1Z</time>
      </trkpt>
      <trkpt lat="48.19889" lon="-3.02114">
        <ele>166</ele>
        <time>2015-10-12T09:40:52.1Z</time>
      </trkpt>
      <trkpt lat="48.19889" lon="-3.02117">
        <ele>165</ele>
        <time>2015-10-12T09:40:55.1Z</time>
      </trkpt>
      <trkpt lat="48.19888" lon="-3.02119">
        <ele>165</ele>
        <time>2015-10-12T09:40:58.1Z</time>
      </trkpt>
      <trkpt lat="48.19887" lon="-3.02122">
        <ele>165</ele>
        <time>2015-10-12T09:41:00.1Z</time>
      </trkpt>
      <trkpt lat="48.19887" lon="-3.02124">
        <ele>164</ele>
        <time>2015-10-12T09:41:02.1Z</time>
      </trkpt>
      <trkpt lat="48.19886" lon="-3.02128">
        <ele>163</ele>
        <time>2015-10-12T09:41:05.1Z</time>
      </trkpt>
      <trkpt lat="48.19887" lon="-3.02133">
        <ele>163</ele>
        <time>2015-10-12T09:41:08.1Z</time>
      </trkpt>
      <trkpt lat="48.19887" lon="-3.02138">
        <ele>164</ele>
        <time>2015-10-12T09:41:11.1Z</time>
      </trkpt>
      <trkpt lat="48.19885" lon="-3.02143">
        <ele>164</ele>
        <time>2015-10-12T09:41:14.1Z</time>
      </trkpt>
      <trkpt lat="48.19883" lon="-3.02148">
        <ele>164</ele>
        <time>2015-10-12T09:41:16.1Z</time>
      </trkpt>
      <trkpt lat="48.19883" lon="-3.02153">
        <ele>165</ele>
        <time>2015-10-12T09:41:19.1Z</time>
      </trkpt>
      <trkpt lat="48.19882" lon="-3.02157">
        <ele>164</ele>
        <time>2015-10-12T09:41:21.1Z</time>
      </trkpt>
      <trkpt lat="48.19883" lon="-3.02161">
        <ele>164</ele>
        <time>2015-10-12T09:41:24.1Z</time>
      </trkpt>
      <trkpt lat="48.19883" lon="-3.02164">
        <ele>165</ele>
        <time>2015-10-12T09:41:27.1Z</time>
      </trkpt>
      <trkpt lat="48.19884" lon="-3.02168">
        <ele>165</ele>
        <time>2015-10-12T09:41:29.1Z</time>
      </trkpt>
      <trkpt lat="48.19885" lon="-3.02171">
        <ele>166</ele>
        <time>2015-10-12T09:41:31.1Z</time>
      </trkpt>
      <trkpt lat="48.19885" lon="-3.02174">
        <ele>166</ele>
        <time>2015-10-12T09:41:33.1Z</time>
      </trkpt>
      <trkpt lat="48.19884" lon="-3.02177">
        <ele>166</ele>
        <time>2015-10-12T09:41:35.1Z</time>
      </trkpt>
      <trkpt lat="48.19882" lon="-3.02182">
        <ele>166</ele>
        <time>2015-10-12T09:41:38.1Z</time>
      </trkpt>
      <trkpt lat="48.19879" lon="-3.02186">
        <ele>166</ele>
        <time>2015-10-12T09:41:41.1Z</time>
      </trkpt>
      <trkpt lat="48.19877" lon="-3.0219">
        <ele>165</ele>
        <time>2015-10-12T09:41:44.1Z</time>
      </trkpt>
      <trkpt lat="48.19876" lon="-3.02193">
        <ele>165</ele>
        <time>2015-10-12T09:41:46.1Z</time>
      </trkpt>
      <trkpt lat="48.19876" lon="-3.02197">
        <ele>165</ele>
        <time>2015-10-12T09:41:49.1Z</time>
      </trkpt>
      <trkpt lat="48.19876" lon="-3.022">
        <ele>164</ele>
        <time>2015-10-12T09:41:52.1Z</time>
      </trkpt>
      <trkpt lat="48.19877" lon="-3.02203">
        <ele>164</ele>
        <time>2015-10-12T09:41:54.1Z</time>
      </trkpt>
      <trkpt lat="48.19877" lon="-3.02207">
        <ele>165</ele>
        <time>2015-10-12T09:41:57.1Z</time>
      </trkpt>
      <trkpt lat="48.19876" lon="-3.02212">
        <ele>165</ele>
        <time>2015-10-12T09:42:00.1Z</time>
      </trkpt>
      <trkpt lat="48.19876" lon="-3.02216">
        <ele>165</ele>
        <time>2015-10-12T09:42:03.1Z</time>
      </trkpt>
      <trkpt lat="48.19875" lon="-3.0222">
        <ele>164</ele>
        <time>2015-10-12T09:42:06.1Z</time>
      </trkpt>
      <trkpt lat="48.19874" lon="-3.02221">
        <ele>164</ele>
        <time>2015-10-12T09:42:08.1Z</time>
      </trkpt>
      <trkpt lat="48.19873" lon="-3.02224">
        <ele>164</ele>
        <time>2015-10-12T09:42:11.1Z</time>
      </trkpt>
      <trkpt lat="48.19873" lon="-3.02228">
        <ele>164</ele>
        <time>2015-10-12T09:42:14.1Z</time>
      </trkpt>
      <trkpt lat="48.19874" lon="-3.02231">
        <ele>164</ele>
        <time>2015-10-12T09:42:16.1Z</time>
      </trkpt>
      <trkpt lat="48.19874" lon="-3.02236">
        <ele>165</ele>
        <time>2015-10-12T09:42:19.1Z</time>
      </trkpt>
      <trkpt lat="48.19875" lon="-3.0224">
        <ele>165</ele>
        <time>2015-10-12T09:42:22.1Z</time>
      </trkpt>
      <trkpt lat="48.19875" lon="-3.02244">
        <ele>165</ele>
        <time>2015-10-12T09:42:24.1Z</time>
      </trkpt>
      <trkpt lat="48.19876" lon="-3.02248">
        <ele>165</ele>
        <time>2015-10-12T09:42:26.1Z</time>
      </trkpt>
      <trkpt lat="48.19876" lon="-3.02254">
        <ele>165</ele>
        <time>2015-10-12T09:42:29.1Z</time>
      </trkpt>
      <trkpt lat="48.19876" lon="-3.02257">
        <ele>165</ele>
        <time>2015-10-12T09:42:31.1Z</time>
      </trkpt>
      <trkpt lat="48.19876" lon="-3.02264">
        <ele>165</ele>
        <time>2015-10-12T09:42:34.1Z</time>
      </trkpt>
      <trkpt lat="48.19875" lon="-3.02269">
        <ele>165</ele>
        <time>2015-10-12T09:42:37.1Z</time>
      </trkpt>
      <trkpt lat="48.19875" lon="-3.02272">
        <ele>165</ele>
        <time>2015-10-12T09:42:39.1Z</time>
      </trkpt>
      <trkpt lat="48.19875" lon="-3.02275">
        <ele>165</ele>
        <time>2015-10-12T09:42:42.1Z</time>
      </trkpt>
      <trkpt lat="48.19874" lon="-3.02278">
        <ele>166</ele>
        <time>2015-10-12T09:42:44.1Z</time>
      </trkpt>
      <trkpt lat="48.19873" lon="-3.02281">
        <ele>166</ele>
        <time>2015-10-12T09:42:46.1Z</time>
      </trkpt>
      <trkpt lat="48.19872" lon="-3.02283">
        <ele>166</ele>
        <time>2015-10-12T09:42:49.1Z</time>
      </trkpt>
      <trkpt lat="48.19871" lon="-3.02283">
        <ele>166</ele>
        <time>2015-10-12T09:42:51.1Z</time>
      </trkpt>
      <trkpt lat="48.19871" lon="-3.02283">
        <ele>166</ele>
        <time>2015-10-12T09:42:54.1Z</time>
      </trkpt>
      <trkpt lat="48.1987" lon="-3.02281">
        <ele>166</ele>
        <time>2015-10-12T09:42:57.1Z</time>
      </trkpt>
      <trkpt lat="48.1987" lon="-3.02281">
        <ele>166</ele>
        <time>2015-10-12T09:43:00.1Z</time>
      </trkpt>
      <trkpt lat="48.19872" lon="-3.02279">
        <ele>166</ele>
        <time>2015-10-12T09:43:03.1Z</time>
      </trkpt>
      <trkpt lat="48.19874" lon="-3.0228">
        <ele>166</ele>
        <time>2015-10-12T09:43:06.1Z</time>
      </trkpt>
      <trkpt lat="48.19875" lon="-3.02283">
        <ele>166</ele>
        <time>2015-10-12T09:43:09.1Z</time>
      </trkpt>
      <trkpt lat="48.19877" lon="-3.02286">
        <ele>167</ele>
        <time>2015-10-12T09:43:12.1Z</time>
      </trkpt>
      <trkpt lat="48.19878" lon="-3.02289">
        <ele>168</ele>
        <time>2015-10-12T09:43:14.1Z</time>
      </trkpt>
      <trkpt lat="48.19878" lon="-3.02292">
        <ele>168</ele>
        <time>2015-10-12T09:43:17.1Z</time>
      </trkpt>
      <trkpt lat="48.19879" lon="-3.02295">
        <ele>169</ele>
        <time>2015-10-12T09:43:20.1Z</time>
      </trkpt>
      <trkpt lat="48.1988" lon="-3.02298">
        <ele>169</ele>
        <time>2015-10-12T09:43:23.1Z</time>
      </trkpt>
      <trkpt lat="48.19881" lon="-3.023">
        <ele>170</ele>
        <time>2015-10-12T09:43:25.1Z</time>
      </trkpt>
      <trkpt lat="48.19882" lon="-3.02302">
        <ele>170</ele>
        <time>2015-10-12T09:43:27.1Z</time>
      </trkpt>
      <trkpt lat="48.19883" lon="-3.02304">
        <ele>170</ele>
        <time>2015-10-12T09:43:29.1Z</time>
      </trkpt>
      <trkpt lat="48.19884" lon="-3.02305">
        <ele>171</ele>
        <time>2015-10-12T09:43:31.1Z</time>
      </trkpt>
      <trkpt lat="48.19885" lon="-3.02307">
        <ele>171</ele>
        <time>2015-10-12T09:43:34.1Z</time>
      </trkpt>
      <trkpt lat="48.19886" lon="-3.0231">
        <ele>172</ele>
        <time>2015-10-12T09:43:37.1Z</time>
      </trkpt>
      <trkpt lat="48.19887" lon="-3.02313">
        <ele>173</ele>
        <time>2015-10-12T09:43:40.1Z</time>
      </trkpt>
      <trkpt lat="48.19888" lon="-3.02315">
        <ele>173</ele>
        <time>2015-10-12T09:43:43.1Z</time>
      </trkpt>
      <trkpt lat="48.19889" lon="-3.02317">
        <ele>174</ele>
        <time>2015-10-12T09:43:45.1Z</time>
      </trkpt>
      <trkpt lat="48.19889" lon="-3.02319">
        <ele>174</ele>
        <time>2015-10-12T09:43:47.1Z</time>
      </trkpt>
      <trkpt lat="48.19891" lon="-3.02322">
        <ele>174</ele>
        <time>2015-10-12T09:43:50.1Z</time>
      </trkpt>
      <trkpt lat="48.19891" lon="-3.02323">
        <ele>174</ele>
        <time>2015-10-12T09:43:52.1Z</time>
      </trkpt>
      <trkpt lat="48.19893" lon="-3.02325">
        <ele>175</ele>
        <time>2015-10-12T09:43:55.1Z</time>
      </trkpt>
      <trkpt lat="48.19894" lon="-3.02326">
        <ele>176</ele>
        <time>2015-10-12T09:43:58.1Z</time>
      </trkpt>
      <trkpt lat="48.19894" lon="-3.02328">
        <ele>177</ele>
        <time>2015-10-12T09:44:00.1Z</time>
      </trkpt>
      <trkpt lat="48.19896" lon="-3.0233">
        <ele>178</ele>
        <time>2015-10-12T09:44:03.1Z</time>
      </trkpt>
      <trkpt lat="48.19898" lon="-3.02332">
        <ele>178</ele>
        <time>2015-10-12T09:44:06.1Z</time>
      </trkpt>
      <trkpt lat="48.19899" lon="-3.02332">
        <ele>179</ele>
        <time>2015-10-12T09:44:08.1Z</time>
      </trkpt>
      <trkpt lat="48.199" lon="-3.02331">
        <ele>179</ele>
        <time>2015-10-12T09:44:11.1Z</time>
      </trkpt>
      <trkpt lat="48.19901" lon="-3.0233">
        <ele>179</ele>
        <time>2015-10-12T09:44:14.1Z</time>
      </trkpt>
      <trkpt lat="48.19901" lon="-3.02328">
        <ele>179</ele>
        <time>2015-10-12T09:44:17.1Z</time>
      </trkpt>
      <trkpt lat="48.19902" lon="-3.02327">
        <ele>179</ele>
        <time>2015-10-12T09:44:19.1Z</time>
      </trkpt>
      <trkpt lat="48.19901" lon="-3.02326">
        <ele>179</ele>
        <time>2015-10-12T09:44:22.1Z</time>
      </trkpt>
      <trkpt lat="48.19901" lon="-3.02324">
        <ele>180</ele>
        <time>2015-10-12T09:44:25.1Z</time>
      </trkpt>
      <trkpt lat="48.199" lon="-3.02323">
        <ele>180</ele>
        <time>2015-10-12T09:44:28.1Z</time>
      </trkpt>
      <trkpt lat="48.19901" lon="-3.02322">
        <ele>179</ele>
        <time>2015-10-12T09:44:31.1Z</time>
      </trkpt>
      <trkpt lat="48.19902" lon="-3.02323">
        <ele>179</ele>
        <time>2015-10-12T09:44:34.1Z</time>
      </trkpt>
      <trkpt lat="48.19902" lon="-3.02324">
        <ele>179</ele>
        <time>2015-10-12T09:44:37.1Z</time>
      </trkpt>
      <trkpt lat="48.19902" lon="-3.02328">
        <ele>179</ele>
        <time>2015-10-12T09:44:40.1Z</time>
      </trkpt>
      <trkpt lat="48.19903" lon="-3.02331">
        <ele>179</ele>
        <time>2015-10-12T09:44:43.1Z</time>
      </trkpt>
      <trkpt lat="48.19904" lon="-3.02332">
        <ele>179</ele>
        <time>2015-10-12T09:44:45.1Z</time>
      </trkpt>
      <trkpt lat="48.19906" lon="-3.02333">
        <ele>179</ele>
        <time>2015-10-12T09:44:48.1Z</time>
      </trkpt>
      <trkpt lat="48.19906" lon="-3.02335">
        <ele>179</ele>
        <time>2015-10-12T09:44:51.1Z</time>
      </trkpt>
      <trkpt lat="48.19907" lon="-3.02336">
        <ele>179</ele>
        <time>2015-10-12T09:44:53.1Z</time>
      </trkpt>
      <trkpt lat="48.19908" lon="-3.02337">
        <ele>179</ele>
        <time>2015-10-12T09:44:56.1Z</time>
      </trkpt>
      <trkpt lat="48.19909" lon="-3.02338">
        <ele>179</ele>
        <time>2015-10-12T09:44:59.1Z</time>
      </trkpt>
      <trkpt lat="48.1991" lon="-3.02339">
        <ele>179</ele>
        <time>2015-10-12T09:45:02.1Z</time>
      </trkpt>
      <trkpt lat="48.19911" lon="-3.0234">
        <ele>179</ele>
        <time>2015-10-12T09:45:05.1Z</time>
      </trkpt>
      <trkpt lat="48.19912" lon="-3.02342">
        <ele>179</ele>
        <time>2015-10-12T09:45:07.1Z</time>
      </trkpt>
      <trkpt lat="48.1991" lon="-3.02342">
        <ele>179</ele>
        <time>2015-10-12T09:45:10.1Z</time>
      </trkpt>
      <trkpt lat="48.19909" lon="-3.02341">
        <ele>179</ele>
        <time>2015-10-12T09:45:12.1Z</time>
      </trkpt>
      <trkpt lat="48.19909" lon="-3.02338">
        <ele>178</ele>
        <time>2015-10-12T09:45:15.1Z</time>
      </trkpt>
      <trkpt lat="48.19909" lon="-3.02336">
        <ele>179</ele>
        <time>2015-10-12T09:45:18.1Z</time>
      </trkpt>
      <trkpt lat="48.19909" lon="-3.02333">
        <ele>179</ele>
        <time>2015-10-12T09:45:21.1Z</time>
      </trkpt>
      <trkpt lat="48.1991" lon="-3.02331">
        <ele>179</ele>
        <time>2015-10-12T09:45:24.1Z</time>
      </trkpt>
      <trkpt lat="48.19911" lon="-3.0233">
        <ele>179</ele>
        <time>2015-10-12T09:45:27.1Z</time>
      </trkpt>
      <trkpt lat="48.19912" lon="-3.0233">
        <ele>179</ele>
        <time>2015-10-12T09:45:29.1Z</time>
      </trkpt>
      <trkpt lat="48.19912" lon="-3.02329">
        <ele>179</ele>
        <time>2015-10-12T09:45:32.1Z</time>
      </trkpt>
      <trkpt lat="48.19913" lon="-3.02327">
        <ele>179</ele>
        <time>2015-10-12T09:45:34.1Z</time>
      </trkpt>
      <trkpt lat="48.19915" lon="-3.02325">
        <ele>180</ele>
        <time>2015-10-12T09:45:37.1Z</time>
      </trkpt>
      <trkpt lat="48.19915" lon="-3.02325">
        <ele>179</ele>
        <time>2015-10-12T09:45:39.1Z</time>
      </trkpt>
      <trkpt lat="48.19914" lon="-3.02324">
        <ele>180</ele>
        <time>2015-10-12T09:45:42.1Z</time>
      </trkpt>
      <trkpt lat="48.19913" lon="-3.02323">
        <ele>180</ele>
        <time>2015-10-12T09:45:45.1Z</time>
      </trkpt>
      <trkpt lat="48.19913" lon="-3.02322">
        <ele>180</ele>
        <time>2015-10-12T09:45:48.1Z</time>
      </trkpt>
      <trkpt lat="48.19912" lon="-3.02323">
        <ele>180</ele>
        <time>2015-10-12T09:45:51.1Z</time>
      </trkpt>
      <trkpt lat="48.19912" lon="-3.02323">
        <ele>180</ele>
        <time>2015-10-12T09:45:53.1Z</time>
      </trkpt>
      <trkpt lat="48.19911" lon="-3.02324">
        <ele>180</ele>
        <time>2015-10-12T09:45:56.1Z</time>
      </trkpt>
      <trkpt lat="48.19911" lon="-3.02326">
        <ele>180</ele>
        <time>2015-10-12T09:45:59.1Z</time>
      </trkpt>
      <trkpt lat="48.19911" lon="-3.02328">
        <ele>179</ele>
        <time>2015-10-12T09:46:01.1Z</time>
      </trkpt>
      <trkpt lat="48.1991" lon="-3.02329">
        <ele>179</ele>
        <time>2015-10-12T09:46:04.1Z</time>
      </trkpt>
      <trkpt lat="48.1991" lon="-3.0233">
        <ele>179</ele>
        <time>2015-10-12T09:46:07.1Z</time>
      </trkpt>
      <trkpt lat="48.1991" lon="-3.0233">
        <ele>179</ele>
        <time>2015-10-12T09:46:10.1Z</time>
      </trkpt>
      <trkpt lat="48.1991" lon="-3.0233">
        <ele>179</ele>
        <time>2015-10-12T09:46:13.1Z</time>
      </trkpt>
      <trkpt lat="48.1991" lon="-3.02329">
        <ele>179</ele>
        <time>2015-10-12T09:46:15.1Z</time>
      </trkpt>
      <trkpt lat="48.19909" lon="-3.02328">
        <ele>179</ele>
        <time>2015-10-12T09:46:18.1Z</time>
      </trkpt>
      <trkpt lat="48.19908" lon="-3.02328">
        <ele>179</ele>
        <time>2015-10-12T09:46:21.1Z</time>
      </trkpt>
      <trkpt lat="48.19908" lon="-3.02328">
        <ele>179</ele>
        <time>2015-10-12T09:46:28.1Z</time>
      </trkpt>
      <trkpt lat="48.19908" lon="-3.02327">
        <ele>179</ele>
        <time>2015-10-12T09:46:30.1Z</time>
      </trkpt>
      <trkpt lat="48.19909" lon="-3.02326">
        <ele>179</ele>
        <time>2015-10-12T09:46:34.1Z</time>
      </trkpt>
      <trkpt lat="48.19908" lon="-3.02325">
        <ele>179</ele>
        <time>2015-10-12T09:46:37.1Z</time>
      </trkpt>
      <trkpt lat="48.19908" lon="-3.02325">
        <ele>179</ele>
        <time>2015-10-12T09:46:39.1Z</time>
      </trkpt>
      <trkpt lat="48.19908" lon="-3.02324">
        <ele>179</ele>
        <time>2015-10-12T09:46:42.1Z</time>
      </trkpt>
      <trkpt lat="48.19908" lon="-3.02324">
        <ele>179</ele>
        <time>2015-10-12T09:46:44.1Z</time>
      </trkpt>
      <trkpt lat="48.19909" lon="-3.02324">
        <ele>179</ele>
        <time>2015-10-12T09:46:46.1Z</time>
      </trkpt>
      <trkpt lat="48.19909" lon="-3.02323">
        <ele>179</ele>
        <time>2015-10-12T09:46:49.1Z</time>
      </trkpt>
      <trkpt lat="48.1991" lon="-3.02323">
        <ele>178</ele>
        <time>2015-10-12T09:46:53.1Z</time>
      </trkpt>
      <trkpt lat="48.1991" lon="-3.02323">
        <ele>178</ele>
        <time>2015-10-12T09:46:55.1Z</time>
      </trkpt>
      <trkpt lat="48.1991" lon="-3.02322">
        <ele>178</ele>
        <time>2015-10-12T09:46:57.1Z</time>
      </trkpt>
      <trkpt lat="48.1991" lon="-3.02322">
        <ele>178</ele>
        <time>2015-10-12T09:47:01.1Z</time>
      </trkpt>
      <trkpt lat="48.1991" lon="-3.02323">
        <ele>179</ele>
        <time>2015-10-12T09:47:04.1Z</time>
      </trkpt>
      <trkpt lat="48.1991" lon="-3.02323">
        <ele>179</ele>
        <time>2015-10-12T09:47:08.1Z</time>
      </trkpt>
      <trkpt lat="48.1991" lon="-3.02323">
        <ele>179</ele>
        <time>2015-10-12T09:47:10.1Z</time>
      </trkpt>
      <trkpt lat="48.19911" lon="-3.02324">
        <ele>179</ele>
        <time>2015-10-12T09:47:12.1Z</time>
      </trkpt>
      <trkpt lat="48.19912" lon="-3.02326">
        <ele>179</ele>
        <time>2015-10-12T09:47:15.1Z</time>
      </trkpt>
      <trkpt lat="48.19913" lon="-3.02327">
        <ele>179</ele>
        <time>2015-10-12T09:47:17.1Z</time>
      </trkpt>
      <trkpt lat="48.19913" lon="-3.02327">
        <ele>179</ele>
        <time>2015-10-12T09:47:19.1Z</time>
      </trkpt>
      <trkpt lat="48.19913" lon="-3.02326">
        <ele>179</ele>
        <time>2015-10-12T09:47:21.1Z</time>
      </trkpt>
      <trkpt lat="48.19911" lon="-3.02326">
        <ele>179</ele>
        <time>2015-10-12T09:47:24.1Z</time>
      </trkpt>
      <trkpt lat="48.1991" lon="-3.02325">
        <ele>178</ele>
        <time>2015-10-12T09:47:26.1Z</time>
      </trkpt>
      <trkpt lat="48.19909" lon="-3.02323">
        <ele>178</ele>
        <time>2015-10-12T09:47:29.1Z</time>
      </trkpt>
      <trkpt lat="48.19907" lon="-3.02321">
        <ele>177</ele>
        <time>2015-10-12T09:47:32.1Z</time>
      </trkpt>
      <trkpt lat="48.19906" lon="-3.02318">
        <ele>176</ele>
        <time>2015-10-12T09:47:35.1Z</time>
      </trkpt>
      <trkpt lat="48.19906" lon="-3.02315">
        <ele>175</ele>
        <time>2015-10-12T09:47:37.1Z</time>
      </trkpt>
      <trkpt lat="48.19906" lon="-3.02312">
        <ele>175</ele>
        <time>2015-10-12T09:47:39.1Z</time>
      </trkpt>
      <trkpt lat="48.19904" lon="-3.02309">
        <ele>174</ele>
        <time>2015-10-12T09:47:42.1Z</time>
      </trkpt>
      <trkpt lat="48.19903" lon="-3.02308">
        <ele>174</ele>
        <time>2015-10-12T09:47:44.1Z</time>
      </trkpt>
      <trkpt lat="48.19902" lon="-3.02304">
        <ele>173</ele>
        <time>2015-10-12T09:47:47.1Z</time>
      </trkpt>
      <trkpt lat="48.199" lon="-3.02303">
        <ele>173</ele>
        <time>2015-10-12T09:47:49.1Z</time>
      </trkpt>
      <trkpt lat="48.19898" lon="-3.02301">
        <ele>172</ele>
        <time>2015-10-12T09:47:51.1Z</time>
      </trkpt>
      <trkpt lat="48.19896" lon="-3.023">
        <ele>172</ele>
        <time>2015-10-12T09:47:53.1Z</time>
      </trkpt>
      <trkpt lat="48.19894" lon="-3.02299">
        <ele>171</ele>
        <time>2015-10-12T09:47:56.1Z</time>
      </trkpt>
      <trkpt lat="48.19894" lon="-3.02297">
        <ele>170</ele>
        <time>2015-10-12T09:47:58.1Z</time>
      </trkpt>
      <trkpt lat="48.19892" lon="-3.02294">
        <ele>169</ele>
        <time>2015-10-12T09:48:01.1Z</time>
      </trkpt>
      <trkpt lat="48.19891" lon="-3.02292">
        <ele>169</ele>
        <time>2015-10-12T09:48:03.1Z</time>
      </trkpt>
      <trkpt lat="48.19889" lon="-3.0229">
        <ele>168</ele>
        <time>2015-10-12T09:48:06.1Z</time>
      </trkpt>
      <trkpt lat="48.19888" lon="-3.02287">
        <ele>167</ele>
        <time>2015-10-12T09:48:09.1Z</time>
      </trkpt>
      <trkpt lat="48.19886" lon="-3.02286">
        <ele>167</ele>
        <time>2015-10-12T09:48:11.1Z</time>
      </trkpt>
      <trkpt lat="48.19882" lon="-3.02286">
        <ele>166</ele>
        <time>2015-10-12T09:48:14.1Z</time>
      </trkpt>
      <trkpt lat="48.19878" lon="-3.02285">
        <ele>166</ele>
        <time>2015-10-12T09:48:17.1Z</time>
      </trkpt>
      <trkpt lat="48.19875" lon="-3.02285">
        <ele>165</ele>
        <time>2015-10-12T09:48:19.1Z</time>
      </trkpt>
      <trkpt lat="48.19871" lon="-3.02286">
        <ele>165</ele>
        <time>2015-10-12T09:48:22.1Z</time>
      </trkpt>
      <trkpt lat="48.19869" lon="-3.02288">
        <ele>165</ele>
        <time>2015-10-12T09:48:24.1Z</time>
      </trkpt>
      <trkpt lat="48.19866" lon="-3.02292">
        <ele>165</ele>
        <time>2015-10-12T09:48:27.1Z</time>
      </trkpt>
      <trkpt lat="48.19863" lon="-3.02294">
        <ele>165</ele>
        <time>2015-10-12T09:48:30.1Z</time>
      </trkpt>
      <trkpt lat="48.1986" lon="-3.02297">
        <ele>165</ele>
        <time>2015-10-12T09:48:33.1Z</time>
      </trkpt>
      <trkpt lat="48.19859" lon="-3.02299">
        <ele>165</ele>
        <time>2015-10-12T09:48:35.1Z</time>
      </trkpt>
      <trkpt lat="48.19857" lon="-3.02303">
        <ele>165</ele>
        <time>2015-10-12T09:48:37.1Z</time>
      </trkpt>
      <trkpt lat="48.19855" lon="-3.02306">
        <ele>165</ele>
        <time>2015-10-12T09:48:39.1Z</time>
      </trkpt>
      <trkpt lat="48.19853" lon="-3.02309">
        <ele>166</ele>
        <time>2015-10-12T09:48:42.1Z</time>
      </trkpt>
      <trkpt lat="48.1985" lon="-3.02311">
        <ele>166</ele>
        <time>2015-10-12T09:48:45.1Z</time>
      </trkpt>
      <trkpt lat="48.19848" lon="-3.02312">
        <ele>166</ele>
        <time>2015-10-12T09:48:47.1Z</time>
      </trkpt>
      <trkpt lat="48.19846" lon="-3.02312">
        <ele>166</ele>
        <time>2015-10-12T09:48:50.1Z</time>
      </trkpt>
      <trkpt lat="48.19844" lon="-3.02313">
        <ele>165</ele>
        <time>2015-10-12T09:48:52.1Z</time>
      </trkpt>
      <trkpt lat="48.19841" lon="-3.02314">
        <ele>165</ele>
        <time>2015-10-12T09:48:55.1Z</time>
      </trkpt>
      <trkpt lat="48.19839" lon="-3.02315">
        <ele>164</ele>
        <time>2015-10-12T09:48:58.1Z</time>
      </trkpt>
      <trkpt lat="48.19837" lon="-3.02318">
        <ele>164</ele>
        <time>2015-10-12T09:49:01.1Z</time>
      </trkpt>
      <trkpt lat="48.19835" lon="-3.02321">
        <ele>164</ele>
        <time>2015-10-12T09:49:04.1Z</time>
      </trkpt>
      <trkpt lat="48.19834" lon="-3.02324">
        <ele>164</ele>
        <time>2015-10-12T09:49:07.1Z</time>
      </trkpt>
      <trkpt lat="48.19833" lon="-3.02326">
        <ele>164</ele>
        <time>2015-10-12T09:49:09.1Z</time>
      </trkpt>
      <trkpt lat="48.19832" lon="-3.0233">
        <ele>165</ele>
        <time>2015-10-12T09:49:11.1Z</time>
      </trkpt>
      <trkpt lat="48.1983" lon="-3.02332">
        <ele>165</ele>
        <time>2015-10-12T09:49:14.1Z</time>
      </trkpt>
      <trkpt lat="48.19828" lon="-3.02335">
        <ele>165</ele>
        <time>2015-10-12T09:49:17.1Z</time>
      </trkpt>
      <trkpt lat="48.19826" lon="-3.02337">
        <ele>166</ele>
        <time>2015-10-12T09:49:20.1Z</time>
      </trkpt>
      <trkpt lat="48.19823" lon="-3.02339">
        <ele>166</ele>
        <time>2015-10-12T09:49:23.1Z</time>
      </trkpt>
      <trkpt lat="48.19821" lon="-3.02342">
        <ele>166</ele>
        <time>2015-10-12T09:49:26.1Z</time>
      </trkpt>
      <trkpt lat="48.19819" lon="-3.02344">
        <ele>166</ele>
        <time>2015-10-12T09:49:29.1Z</time>
      </trkpt>
      <trkpt lat="48.19817" lon="-3.02348">
        <ele>165</ele>
        <time>2015-10-12T09:49:32.1Z</time>
      </trkpt>
      <trkpt lat="48.19815" lon="-3.02351">
        <ele>166</ele>
        <time>2015-10-12T09:49:34.1Z</time>
      </trkpt>
      <trkpt lat="48.19814" lon="-3.02356">
        <ele>166</ele>
        <time>2015-10-12T09:49:37.1Z</time>
      </trkpt>
      <trkpt lat="48.19814" lon="-3.02359">
        <ele>166</ele>
        <time>2015-10-12T09:49:39.1Z</time>
      </trkpt>
      <trkpt lat="48.19813" lon="-3.02361">
        <ele>166</ele>
        <time>2015-10-12T09:49:41.1Z</time>
      </trkpt>
      <trkpt lat="48.19813" lon="-3.02364">
        <ele>166</ele>
        <time>2015-10-12T09:49:43.1Z</time>
      </trkpt>
      <trkpt lat="48.19814" lon="-3.02368">
        <ele>166</ele>
        <time>2015-10-12T09:49:45.1Z</time>
      </trkpt>
      <trkpt lat="48.19814" lon="-3.02371">
        <ele>166</ele>
        <time>2015-10-12T09:49:47.1Z</time>
      </trkpt>
      <trkpt lat="48.19814" lon="-3.02375">
        <ele>166</ele>
        <time>2015-10-12T09:49:50.1Z</time>
      </trkpt>
      <trkpt lat="48.19813" lon="-3.02377">
        <ele>166</ele>
        <time>2015-10-12T09:49:53.1Z</time>
      </trkpt>
      <trkpt lat="48.1981" lon="-3.02379">
        <ele>166</ele>
        <time>2015-10-12T09:49:56.1Z</time>
      </trkpt>
      <trkpt lat="48.19809" lon="-3.02383">
        <ele>166</ele>
        <time>2015-10-12T09:49:59.1Z</time>
      </trkpt>
      <trkpt lat="48.19808" lon="-3.02386">
        <ele>166</ele>
        <time>2015-10-12T09:50:02.1Z</time>
      </trkpt>
      <trkpt lat="48.19808" lon="-3.02389">
        <ele>166</ele>
        <time>2015-10-12T09:50:04.1Z</time>
      </trkpt>
      <trkpt lat="48.19808" lon="-3.02391">
        <ele>166</ele>
        <time>2015-10-12T09:50:06.1Z</time>
      </trkpt>
      <trkpt lat="48.19808" lon="-3.02395">
        <ele>166</ele>
        <time>2015-10-12T09:50:09.1Z</time>
      </trkpt>
      <trkpt lat="48.19808" lon="-3.024">
        <ele>166</ele>
        <time>2015-10-12T09:50:11.1Z</time>
      </trkpt>
      <trkpt lat="48.19808" lon="-3.02403">
        <ele>166</ele>
        <time>2015-10-12T09:50:13.1Z</time>
      </trkpt>
      <trkpt lat="48.19807" lon="-3.02407">
        <ele>166</ele>
        <time>2015-10-12T09:50:16.1Z</time>
      </trkpt>
      <trkpt lat="48.19807" lon="-3.0241">
        <ele>167</ele>
        <time>2015-10-12T09:50:19.1Z</time>
      </trkpt>
      <trkpt lat="48.19807" lon="-3.02413">
        <ele>167</ele>
        <time>2015-10-12T09:50:21.1Z</time>
      </trkpt>
      <trkpt lat="48.19807" lon="-3.02416">
        <ele>167</ele>
        <time>2015-10-12T09:50:23.1Z</time>
      </trkpt>
      <trkpt lat="48.19806" lon="-3.02421">
        <ele>167</ele>
        <time>2015-10-12T09:50:26.1Z</time>
      </trkpt>
      <trkpt lat="48.19805" lon="-3.02424">
        <ele>166</ele>
        <time>2015-10-12T09:50:28.1Z</time>
      </trkpt>
      <trkpt lat="48.19804" lon="-3.02428">
        <ele>166</ele>
        <time>2015-10-12T09:50:31.1Z</time>
      </trkpt>
      <trkpt lat="48.19804" lon="-3.02432">
        <ele>166</ele>
        <time>2015-10-12T09:50:33.1Z</time>
      </trkpt>
      <trkpt lat="48.19803" lon="-3.02435">
        <ele>167</ele>
        <time>2015-10-12T09:50:35.1Z</time>
      </trkpt>
      <trkpt lat="48.19802" lon="-3.0244">
        <ele>167</ele>
        <time>2015-10-12T09:50:38.1Z</time>
      </trkpt>
      <trkpt lat="48.19801" lon="-3.02445">
        <ele>167</ele>
        <time>2015-10-12T09:50:40.1Z</time>
      </trkpt>
      <trkpt lat="48.19801" lon="-3.02449">
        <ele>166</ele>
        <time>2015-10-12T09:50:43.1Z</time>
      </trkpt>
      <trkpt lat="48.19801" lon="-3.02452">
        <ele>166</ele>
        <time>2015-10-12T09:50:45.1Z</time>
      </trkpt>
      <trkpt lat="48.19799" lon="-3.02457">
        <ele>166</ele>
        <time>2015-10-12T09:50:48.1Z</time>
      </trkpt>
      <trkpt lat="48.19799" lon="-3.0246">
        <ele>166</ele>
        <time>2015-10-12T09:50:50.1Z</time>
      </trkpt>
      <trkpt lat="48.19799" lon="-3.02463">
        <ele>166</ele>
        <time>2015-10-12T09:50:53.1Z</time>
      </trkpt>
      <trkpt lat="48.198" lon="-3.02464">
        <ele>166</ele>
        <time>2015-10-12T09:50:55.1Z</time>
      </trkpt>
      <trkpt lat="48.19801" lon="-3.02469">
        <ele>166</ele>
        <time>2015-10-12T09:50:58.1Z</time>
      </trkpt>
      <trkpt lat="48.19801" lon="-3.02472">
        <ele>166</ele>
        <time>2015-10-12T09:51:00.1Z</time>
      </trkpt>
      <trkpt lat="48.19801" lon="-3.02476">
        <ele>166</ele>
        <time>2015-10-12T09:51:02.1Z</time>
      </trkpt>
      <trkpt lat="48.198" lon="-3.02479">
        <ele>167</ele>
        <time>2015-10-12T09:51:04.1Z</time>
      </trkpt>
      <trkpt lat="48.198" lon="-3.02484">
        <ele>167</ele>
        <time>2015-10-12T09:51:07.1Z</time>
      </trkpt>
      <trkpt lat="48.19801" lon="-3.02487">
        <ele>167</ele>
        <time>2015-10-12T09:51:09.1Z</time>
      </trkpt>
      <trkpt lat="48.19801" lon="-3.0249">
        <ele>167</ele>
        <time>2015-10-12T09:51:11.1Z</time>
      </trkpt>
      <trkpt lat="48.198" lon="-3.02493">
        <ele>167</ele>
        <time>2015-10-12T09:51:13.1Z</time>
      </trkpt>
      <trkpt lat="48.19799" lon="-3.02498">
        <ele>168</ele>
        <time>2015-10-12T09:51:16.1Z</time>
      </trkpt>
      <trkpt lat="48.19799" lon="-3.025">
        <ele>168</ele>
        <time>2015-10-12T09:51:18.1Z</time>
      </trkpt>
      <trkpt lat="48.19799" lon="-3.02504">
        <ele>167</ele>
        <time>2015-10-12T09:51:21.1Z</time>
      </trkpt>
      <trkpt lat="48.19798" lon="-3.02509">
        <ele>167</ele>
        <time>2015-10-12T09:51:24.1Z</time>
      </trkpt>
      <trkpt lat="48.19796" lon="-3.02513">
        <ele>167</ele>
        <time>2015-10-12T09:51:27.1Z</time>
      </trkpt>
      <trkpt lat="48.19795" lon="-3.02518">
        <ele>167</ele>
        <time>2015-10-12T09:51:30.1Z</time>
      </trkpt>
      <trkpt lat="48.19794" lon="-3.02521">
        <ele>166</ele>
        <time>2015-10-12T09:51:32.1Z</time>
      </trkpt>
      <trkpt lat="48.19794" lon="-3.02523">
        <ele>166</ele>
        <time>2015-10-12T09:51:34.1Z</time>
      </trkpt>
      <trkpt lat="48.19794" lon="-3.02527">
        <ele>166</ele>
        <time>2015-10-12T09:51:37.1Z</time>
      </trkpt>
      <trkpt lat="48.19792" lon="-3.02533">
        <ele>166</ele>
        <time>2015-10-12T09:51:40.1Z</time>
      </trkpt>
      <trkpt lat="48.19792" lon="-3.02538">
        <ele>166</ele>
        <time>2015-10-12T09:51:43.1Z</time>
      </trkpt>
      <trkpt lat="48.19792" lon="-3.02541">
        <ele>166</ele>
        <time>2015-10-12T09:51:45.1Z</time>
      </trkpt>
      <trkpt lat="48.19792" lon="-3.02544">
        <ele>165</ele>
        <time>2015-10-12T09:51:47.1Z</time>
      </trkpt>
      <trkpt lat="48.19792" lon="-3.02548">
        <ele>165</ele>
        <time>2015-10-12T09:51:50.1Z</time>
      </trkpt>
      <trkpt lat="48.19791" lon="-3.02551">
        <ele>165</ele>
        <time>2015-10-12T09:51:52.1Z</time>
      </trkpt>
      <trkpt lat="48.19791" lon="-3.02555">
        <ele>165</ele>
        <time>2015-10-12T09:51:55.1Z</time>
      </trkpt>
      <trkpt lat="48.19791" lon="-3.02557">
        <ele>164</ele>
        <time>2015-10-12T09:51:57.1Z</time>
      </trkpt>
      <trkpt lat="48.19792" lon="-3.02561">
        <ele>164</ele>
        <time>2015-10-12T09:51:59.1Z</time>
      </trkpt>
      <trkpt lat="48.19792" lon="-3.02564">
        <ele>165</ele>
        <time>2015-10-12T09:52:01.1Z</time>
      </trkpt>
      <trkpt lat="48.19792" lon="-3.02566">
        <ele>165</ele>
        <time>2015-10-12T09:52:03.1Z</time>
      </trkpt>
      <trkpt lat="48.19793" lon="-3.02571">
        <ele>165</ele>
        <time>2015-10-12T09:52:06.1Z</time>
      </trkpt>
      <trkpt lat="48.19793" lon="-3.02574">
        <ele>165</ele>
        <time>2015-10-12T09:52:09.1Z</time>
      </trkpt>
      <trkpt lat="48.19794" lon="-3.02577">
        <ele>165</ele>
        <time>2015-10-12T09:52:12.1Z</time>
      </trkpt>
      <trkpt lat="48.19794" lon="-3.0258">
        <ele>165</ele>
        <time>2015-10-12T09:52:14.1Z</time>
      </trkpt>
      <trkpt lat="48.19793" lon="-3.02583">
        <ele>165</ele>
        <time>2015-10-12T09:52:16.1Z</time>
      </trkpt>
      <trkpt lat="48.19794" lon="-3.02586">
        <ele>165</ele>
        <time>2015-10-12T09:52:18.1Z</time>
      </trkpt>
      <trkpt lat="48.19794" lon="-3.02588">
        <ele>165</ele>
        <time>2015-10-12T09:52:20.1Z</time>
      </trkpt>
      <trkpt lat="48.19796" lon="-3.02592">
        <ele>165</ele>
        <time>2015-10-12T09:52:23.1Z</time>
      </trkpt>
      <trkpt lat="48.19796" lon="-3.02593">
        <ele>165</ele>
        <time>2015-10-12T09:52:25.1Z</time>
      </trkpt>
      <trkpt lat="48.19798" lon="-3.02597">
        <ele>165</ele>
        <time>2015-10-12T09:52:28.1Z</time>
      </trkpt>
      <trkpt lat="48.19799" lon="-3.02601">
        <ele>165</ele>
        <time>2015-10-12T09:52:31.1Z</time>
      </trkpt>
      <trkpt lat="48.198" lon="-3.02607">
        <ele>165</ele>
        <time>2015-10-12T09:52:34.1Z</time>
      </trkpt>
      <trkpt lat="48.19801" lon="-3.02609">
        <ele>165</ele>
        <time>2015-10-12T09:52:36.1Z</time>
      </trkpt>
      <trkpt lat="48.19803" lon="-3.02613">
        <ele>166</ele>
        <time>2015-10-12T09:52:39.1Z</time>
      </trkpt>
      <trkpt lat="48.19804" lon="-3.02616">
        <ele>166</ele>
        <time>2015-10-12T09:52:41.1Z</time>
      </trkpt>
      <trkpt lat="48.19805" lon="-3.02622">
        <ele>166</ele>
        <time>2015-10-12T09:52:44.1Z</time>
      </trkpt>
      <trkpt lat="48.19806" lon="-3.02628">
        <ele>166</ele>
        <time>2015-10-12T09:52:47.1Z</time>
      </trkpt>
      <trkpt lat="48.19807" lon="-3.02631">
        <ele>166</ele>
        <time>2015-10-12T09:52:49.1Z</time>
      </trkpt>
      <trkpt lat="48.19808" lon="-3.02636">
        <ele>165</ele>
        <time>2015-10-12T09:52:52.1Z</time>
      </trkpt>
      <trkpt lat="48.19808" lon="-3.02641">
        <ele>165</ele>
        <time>2015-10-12T09:52:55.1Z</time>
      </trkpt>
      <trkpt lat="48.19808" lon="-3.02646">
        <ele>165</ele>
        <time>2015-10-12T09:52:58.1Z</time>
      </trkpt>
      <trkpt lat="48.19808" lon="-3.0265">
        <ele>165</ele>
        <time>2015-10-12T09:53:00.1Z</time>
      </trkpt>
      <trkpt lat="48.19809" lon="-3.02653">
        <ele>165</ele>
        <time>2015-10-12T09:53:02.1Z</time>
      </trkpt>
      <trkpt lat="48.1981" lon="-3.02656">
        <ele>165</ele>
        <time>2015-10-12T09:53:04.1Z</time>
      </trkpt>
      <trkpt lat="48.19812" lon="-3.0266">
        <ele>165</ele>
        <time>2015-10-12T09:53:07.1Z</time>
      </trkpt>
      <trkpt lat="48.19813" lon="-3.02662">
        <ele>165</ele>
        <time>2015-10-12T09:53:09.1Z</time>
      </trkpt>
      <trkpt lat="48.19814" lon="-3.02667">
        <ele>165</ele>
        <time>2015-10-12T09:53:12.1Z</time>
      </trkpt>
      <trkpt lat="48.19815" lon="-3.02672">
        <ele>164</ele>
        <time>2015-10-12T09:53:15.1Z</time>
      </trkpt>
      <trkpt lat="48.19815" lon="-3.02676">
        <ele>165</ele>
        <time>2015-10-12T09:53:18.1Z</time>
      </trkpt>
      <trkpt lat="48.19816" lon="-3.02679">
        <ele>164</ele>
        <time>2015-10-12T09:53:20.1Z</time>
      </trkpt>
      <trkpt lat="48.19817" lon="-3.02682">
        <ele>164</ele>
        <time>2015-10-12T09:53:22.1Z</time>
      </trkpt>
      <trkpt lat="48.19817" lon="-3.02688">
        <ele>164</ele>
        <time>2015-10-12T09:53:25.1Z</time>
      </trkpt>
      <trkpt lat="48.19819" lon="-3.02691">
        <ele>163</ele>
        <time>2015-10-12T09:53:28.1Z</time>
      </trkpt>
      <trkpt lat="48.1982" lon="-3.02693">
        <ele>163</ele>
        <time>2015-10-12T09:53:30.1Z</time>
      </trkpt>
      <trkpt lat="48.19821" lon="-3.02695">
        <ele>163</ele>
        <time>2015-10-12T09:53:32.1Z</time>
      </trkpt>
      <trkpt lat="48.19822" lon="-3.02697">
        <ele>163</ele>
        <time>2015-10-12T09:53:34.1Z</time>
      </trkpt>
      <trkpt lat="48.19824" lon="-3.027">
        <ele>163</ele>
        <time>2015-10-12T09:53:37.1Z</time>
      </trkpt>
      <trkpt lat="48.19825" lon="-3.02706">
        <ele>163</ele>
        <time>2015-10-12T09:53:40.1Z</time>
      </trkpt>
      <trkpt lat="48.19826" lon="-3.02708">
        <ele>163</ele>
        <time>2015-10-12T09:53:42.1Z</time>
      </trkpt>
      <trkpt lat="48.19828" lon="-3.02711">
        <ele>163</ele>
        <time>2015-10-12T09:53:44.1Z</time>
      </trkpt>
      <trkpt lat="48.19829" lon="-3.02713">
        <ele>163</ele>
        <time>2015-10-12T09:53:46.1Z</time>
      </trkpt>
      <trkpt lat="48.19831" lon="-3.02715">
        <ele>163</ele>
        <time>2015-10-12T09:53:49.1Z</time>
      </trkpt>
      <trkpt lat="48.19833" lon="-3.02716">
        <ele>163</ele>
        <time>2015-10-12T09:53:51.1Z</time>
      </trkpt>
      <trkpt lat="48.19834" lon="-3.02718">
        <ele>163</ele>
        <time>2015-10-12T09:53:53.1Z</time>
      </trkpt>
      <trkpt lat="48.19836" lon="-3.0272">
        <ele>163</ele>
        <time>2015-10-12T09:53:56.1Z</time>
      </trkpt>
      <trkpt lat="48.19837" lon="-3.02722">
        <ele>163</ele>
        <time>2015-10-12T09:53:58.1Z</time>
      </trkpt>
      <trkpt lat="48.19837" lon="-3.02724">
        <ele>163</ele>
        <time>2015-10-12T09:54:00.1Z</time>
      </trkpt>
      <trkpt lat="48.19839" lon="-3.02727">
        <ele>163</ele>
        <time>2015-10-12T09:54:03.1Z</time>
      </trkpt>
      <trkpt lat="48.19841" lon="-3.02729">
        <ele>163</ele>
        <time>2015-10-12T09:54:05.1Z</time>
      </trkpt>
      <trkpt lat="48.19842" lon="-3.02731">
        <ele>163</ele>
        <time>2015-10-12T09:54:07.1Z</time>
      </trkpt>
      <trkpt lat="48.19843" lon="-3.02735">
        <ele>163</ele>
        <time>2015-10-12T09:54:10.1Z</time>
      </trkpt>
      <trkpt lat="48.19845" lon="-3.02736">
        <ele>163</ele>
        <time>2015-10-12T09:54:12.1Z</time>
      </trkpt>
      <trkpt lat="48.19846" lon="-3.02736">
        <ele>163</ele>
        <time>2015-10-12T09:54:14.1Z</time>
      </trkpt>
      <trkpt lat="48.19848" lon="-3.02737">
        <ele>163</ele>
        <time>2015-10-12T09:54:16.1Z</time>
      </trkpt>
      <trkpt lat="48.19849" lon="-3.02737">
        <ele>163</ele>
        <time>2015-10-12T09:54:18.1Z</time>
      </trkpt>
      <trkpt lat="48.19852" lon="-3.02737">
        <ele>163</ele>
        <time>2015-10-12T09:54:21.1Z</time>
      </trkpt>
      <trkpt lat="48.19854" lon="-3.02736">
        <ele>164</ele>
        <time>2015-10-12T09:54:23.1Z</time>
      </trkpt>
      <trkpt lat="48.19857" lon="-3.02736">
        <ele>164</ele>
        <time>2015-10-12T09:54:26.1Z</time>
      </trkpt>
      <trkpt lat="48.19859" lon="-3.02735">
        <ele>164</ele>
        <time>2015-10-12T09:54:28.1Z</time>
      </trkpt>
      <trkpt lat="48.19862" lon="-3.02736">
        <ele>164</ele>
        <time>2015-10-12T09:54:31.1Z</time>
      </trkpt>
      <trkpt lat="48.19866" lon="-3.02738">
        <ele>165</ele>
        <time>2015-10-12T09:54:34.1Z</time>
      </trkpt>
      <trkpt lat="48.19868" lon="-3.02739">
        <ele>165</ele>
        <time>2015-10-12T09:54:36.1Z</time>
      </trkpt>
      <trkpt lat="48.19871" lon="-3.0274">
        <ele>165</ele>
        <time>2015-10-12T09:54:39.1Z</time>
      </trkpt>
      <trkpt lat="48.19873" lon="-3.02742">
        <ele>165</ele>
        <time>2015-10-12T09:54:41.1Z</time>
      </trkpt>
      <trkpt lat="48.19875" lon="-3.02744">
        <ele>164</ele>
        <time>2015-10-12T09:54:43.1Z</time>
      </trkpt>
      <trkpt lat="48.19878" lon="-3.02746">
        <ele>164</ele>
        <time>2015-10-12T09:54:46.1Z</time>
      </trkpt>
      <trkpt lat="48.19879" lon="-3.02747">
        <ele>164</ele>
        <time>2015-10-12T09:54:48.1Z</time>
      </trkpt>
      <trkpt lat="48.1988" lon="-3.02749">
        <ele>164</ele>
        <time>2015-10-12T09:54:50.1Z</time>
      </trkpt>
      <trkpt lat="48.19882" lon="-3.0275">
        <ele>164</ele>
        <time>2015-10-12T09:54:52.1Z</time>
      </trkpt>
      <trkpt lat="48.19883" lon="-3.02755">
        <ele>164</ele>
        <time>2015-10-12T09:54:55.1Z</time>
      </trkpt>
      <trkpt lat="48.19883" lon="-3.02759">
        <ele>164</ele>
        <time>2015-10-12T09:54:57.1Z</time>
      </trkpt>
      <trkpt lat="48.19884" lon="-3.02762">
        <ele>165</ele>
        <time>2015-10-12T09:55:00.1Z</time>
      </trkpt>
      <trkpt lat="48.19883" lon="-3.02765">
        <ele>165</ele>
        <time>2015-10-12T09:55:03.1Z</time>
      </trkpt>
      <trkpt lat="48.19883" lon="-3.02767">
        <ele>165</ele>
        <time>2015-10-12T09:55:06.1Z</time>
      </trkpt>
      <trkpt lat="48.19882" lon="-3.0277">
        <ele>165</ele>
        <time>2015-10-12T09:55:08.1Z</time>
      </trkpt>
      <trkpt lat="48.19882" lon="-3.02772">
        <ele>164</ele>
        <time>2015-10-12T09:55:10.1Z</time>
      </trkpt>
      <trkpt lat="48.19881" lon="-3.02777">
        <ele>164</ele>
        <time>2015-10-12T09:55:13.1Z</time>
      </trkpt>
      <trkpt lat="48.1988" lon="-3.02781">
        <ele>164</ele>
        <time>2015-10-12T09:55:16.1Z</time>
      </trkpt>
      <trkpt lat="48.1988" lon="-3.02785">
        <ele>163</ele>
        <time>2015-10-12T09:55:19.1Z</time>
      </trkpt>
      <trkpt lat="48.19879" lon="-3.02788">
        <ele>163</ele>
        <time>2015-10-12T09:55:21.1Z</time>
      </trkpt>
      <trkpt lat="48.19878" lon="-3.02791">
        <ele>163</ele>
        <time>2015-10-12T09:55:23.1Z</time>
      </trkpt>
      <trkpt lat="48.19877" lon="-3.02793">
        <ele>163</ele>
        <time>2015-10-12T09:55:25.1Z</time>
      </trkpt>
      <trkpt lat="48.19876" lon="-3.02795">
        <ele>163</ele>
        <time>2015-10-12T09:55:27.1Z</time>
      </trkpt>
      <trkpt lat="48.19876" lon="-3.02797">
        <ele>163</ele>
        <time>2015-10-12T09:55:29.1Z</time>
      </trkpt>
      <trkpt lat="48.19876" lon="-3.028">
        <ele>163</ele>
        <time>2015-10-12T09:55:32.1Z</time>
      </trkpt>
      <trkpt lat="48.19876" lon="-3.02803">
        <ele>163</ele>
        <time>2015-10-12T09:55:34.1Z</time>
      </trkpt>
      <trkpt lat="48.19875" lon="-3.02806">
        <ele>163</ele>
        <time>2015-10-12T09:55:36.1Z</time>
      </trkpt>
      <trkpt lat="48.19875" lon="-3.0281">
        <ele>163</ele>
        <time>2015-10-12T09:55:39.1Z</time>
      </trkpt>
      <trkpt lat="48.19874" lon="-3.02812">
        <ele>163</ele>
        <time>2015-10-12T09:55:41.1Z</time>
      </trkpt>
      <trkpt lat="48.19874" lon="-3.02816">
        <ele>163</ele>
        <time>2015-10-12T09:55:44.1Z</time>
      </trkpt>
      <trkpt lat="48.19873" lon="-3.02821">
        <ele>164</ele>
        <time>2015-10-12T09:55:47.1Z</time>
      </trkpt>
      <trkpt lat="48.19873" lon="-3.02823">
        <ele>164</ele>
        <time>2015-10-12T09:55:49.1Z</time>
      </trkpt>
      <trkpt lat="48.19872" lon="-3.02825">
        <ele>164</ele>
        <time>2015-10-12T09:55:51.1Z</time>
      </trkpt>
      <trkpt lat="48.19871" lon="-3.0283">
        <ele>164</ele>
        <time>2015-10-12T09:55:54.1Z</time>
      </trkpt>
      <trkpt lat="48.1987" lon="-3.02832">
        <ele>164</ele>
        <time>2015-10-12T09:55:56.1Z</time>
      </trkpt>
      <trkpt lat="48.1987" lon="-3.02835">
        <ele>164</ele>
        <time>2015-10-12T09:55:58.1Z</time>
      </trkpt>
      <trkpt lat="48.19871" lon="-3.02839">
        <ele>164</ele>
        <time>2015-10-12T09:56:01.1Z</time>
      </trkpt>
      <trkpt lat="48.1987" lon="-3.02842">
        <ele>164</ele>
        <time>2015-10-12T09:56:04.1Z</time>
      </trkpt>
      <trkpt lat="48.19869" lon="-3.02845">
        <ele>164</ele>
        <time>2015-10-12T09:56:06.1Z</time>
      </trkpt>
      <trkpt lat="48.19868" lon="-3.0285">
        <ele>164</ele>
        <time>2015-10-12T09:56:09.1Z</time>
      </trkpt>
      <trkpt lat="48.19868" lon="-3.02853">
        <ele>164</ele>
        <time>2015-10-12T09:56:11.1Z</time>
      </trkpt>
      <trkpt lat="48.19867" lon="-3.02857">
        <ele>164</ele>
        <time>2015-10-12T09:56:14.1Z</time>
      </trkpt>
      <trkpt lat="48.19866" lon="-3.02859">
        <ele>163</ele>
        <time>2015-10-12T09:56:16.1Z</time>
      </trkpt>
      <trkpt lat="48.19865" lon="-3.02864">
        <ele>163</ele>
        <time>2015-10-12T09:56:19.1Z</time>
      </trkpt>
      <trkpt lat="48.19865" lon="-3.02867">
        <ele>163</ele>
        <time>2015-10-12T09:56:21.1Z</time>
      </trkpt>
      <trkpt lat="48.19865" lon="-3.02869">
        <ele>163</ele>
        <time>2015-10-12T09:56:23.1Z</time>
      </trkpt>
      <trkpt lat="48.19865" lon="-3.02871">
        <ele>163</ele>
        <time>2015-10-12T09:56:25.1Z</time>
      </trkpt>
      <trkpt lat="48.19864" lon="-3.02875">
        <ele>163</ele>
        <time>2015-10-12T09:56:28.1Z</time>
      </trkpt>
      <trkpt lat="48.19863" lon="-3.02878">
        <ele>163</ele>
        <time>2015-10-12T09:56:30.1Z</time>
      </trkpt>
      <trkpt lat="48.19862" lon="-3.02882">
        <ele>162</ele>
        <time>2015-10-12T09:56:32.1Z</time>
      </trkpt>
      <trkpt lat="48.19862" lon="-3.02885">
        <ele>162</ele>
        <time>2015-10-12T09:56:35.1Z</time>
      </trkpt>
      <trkpt lat="48.19864" lon="-3.02887">
        <ele>162</ele>
        <time>2015-10-12T09:56:38.1Z</time>
      </trkpt>
      <trkpt lat="48.19864" lon="-3.02891">
        <ele>162</ele>
        <time>2015-10-12T09:56:41.1Z</time>
      </trkpt>
      <trkpt lat="48.19864" lon="-3.02894">
        <ele>162</ele>
        <time>2015-10-12T09:56:43.1Z</time>
      </trkpt>
      <trkpt lat="48.19865" lon="-3.02899">
        <ele>162</ele>
        <time>2015-10-12T09:56:46.1Z</time>
      </trkpt>
      <trkpt lat="48.19866" lon="-3.02903">
        <ele>162</ele>
        <time>2015-10-12T09:56:49.1Z</time>
      </trkpt>
      <trkpt lat="48.19866" lon="-3.02907">
        <ele>162</ele>
        <time>2015-10-12T09:56:52.1Z</time>
      </trkpt>
      <trkpt lat="48.19867" lon="-3.02911">
        <ele>162</ele>
        <time>2015-10-12T09:56:54.1Z</time>
      </trkpt>
      <trkpt lat="48.19868" lon="-3.02913">
        <ele>162</ele>
        <time>2015-10-12T09:56:56.1Z</time>
      </trkpt>
      <trkpt lat="48.19868" lon="-3.02918">
        <ele>162</ele>
        <time>2015-10-12T09:56:59.1Z</time>
      </trkpt>
      <trkpt lat="48.1987" lon="-3.02922">
        <ele>162</ele>
        <time>2015-10-12T09:57:02.1Z</time>
      </trkpt>
      <trkpt lat="48.19871" lon="-3.02923">
        <ele>162</ele>
        <time>2015-10-12T09:57:04.1Z</time>
      </trkpt>
      <trkpt lat="48.19872" lon="-3.02925">
        <ele>163</ele>
        <time>2015-10-12T09:57:06.1Z</time>
      </trkpt>
      <trkpt lat="48.19874" lon="-3.02929">
        <ele>163</ele>
        <time>2015-10-12T09:57:09.1Z</time>
      </trkpt>
      <trkpt lat="48.19876" lon="-3.0293">
        <ele>163</ele>
        <time>2015-10-12T09:57:11.1Z</time>
      </trkpt>
      <trkpt lat="48.19877" lon="-3.02935">
        <ele>163</ele>
        <time>2015-10-12T09:57:14.1Z</time>
      </trkpt>
      <trkpt lat="48.19877" lon="-3.02938">
        <ele>163</ele>
        <time>2015-10-12T09:57:16.1Z</time>
      </trkpt>
      <trkpt lat="48.19878" lon="-3.02939">
        <ele>163</ele>
        <time>2015-10-12T09:57:18.1Z</time>
      </trkpt>
      <trkpt lat="48.19879" lon="-3.02943">
        <ele>162</ele>
        <time>2015-10-12T09:57:21.1Z</time>
      </trkpt>
      <trkpt lat="48.1988" lon="-3.02946">
        <ele>163</ele>
        <time>2015-10-12T09:57:24.1Z</time>
      </trkpt>
      <trkpt lat="48.1988" lon="-3.02949">
        <ele>163</ele>
        <time>2015-10-12T09:57:26.1Z</time>
      </trkpt>
      <trkpt lat="48.19881" lon="-3.02955">
        <ele>163</ele>
        <time>2015-10-12T09:57:29.1Z</time>
      </trkpt>
      <trkpt lat="48.19881" lon="-3.02957">
        <ele>163</ele>
        <time>2015-10-12T09:57:32.1Z</time>
      </trkpt>
      <trkpt lat="48.19883" lon="-3.02958">
        <ele>163</ele>
        <time>2015-10-12T09:57:34.1Z</time>
      </trkpt>
      <trkpt lat="48.19885" lon="-3.0296">
        <ele>163</ele>
        <time>2015-10-12T09:57:36.1Z</time>
      </trkpt>
      <trkpt lat="48.19888" lon="-3.02962">
        <ele>163</ele>
        <time>2015-10-12T09:57:39.1Z</time>
      </trkpt>
      <trkpt lat="48.19888" lon="-3.02965">
        <ele>163</ele>
        <time>2015-10-12T09:57:41.1Z</time>
      </trkpt>
      <trkpt lat="48.1989" lon="-3.02969">
        <ele>163</ele>
        <time>2015-10-12T09:57:44.1Z</time>
      </trkpt>
      <trkpt lat="48.1989" lon="-3.02971">
        <ele>163</ele>
        <time>2015-10-12T09:57:46.1Z</time>
      </trkpt>
      <trkpt lat="48.19892" lon="-3.02974">
        <ele>163</ele>
        <time>2015-10-12T09:57:48.1Z</time>
      </trkpt>
      <trkpt lat="48.19893" lon="-3.02977">
        <ele>163</ele>
        <time>2015-10-12T09:57:51.1Z</time>
      </trkpt>
      <trkpt lat="48.19895" lon="-3.0298">
        <ele>163</ele>
        <time>2015-10-12T09:57:54.1Z</time>
      </trkpt>
      <trkpt lat="48.19896" lon="-3.02981">
        <ele>163</ele>
        <time>2015-10-12T09:57:56.1Z</time>
      </trkpt>
      <trkpt lat="48.19899" lon="-3.02985">
        <ele>163</ele>
        <time>2015-10-12T09:57:59.1Z</time>
      </trkpt>
      <trkpt lat="48.199" lon="-3.02987">
        <ele>163</ele>
        <time>2015-10-12T09:58:01.1Z</time>
      </trkpt>
      <trkpt lat="48.19902" lon="-3.02989">
        <ele>163</ele>
        <time>2015-10-12T09:58:03.1Z</time>
      </trkpt>
      <trkpt lat="48.19903" lon="-3.02992">
        <ele>163</ele>
        <time>2015-10-12T09:58:06.1Z</time>
      </trkpt>
      <trkpt lat="48.19905" lon="-3.02996">
        <ele>163</ele>
        <time>2015-10-12T09:58:09.1Z</time>
      </trkpt>
      <trkpt lat="48.19907" lon="-3.02996">
        <ele>163</ele>
        <time>2015-10-12T09:58:11.1Z</time>
      </trkpt>
      <trkpt lat="48.19908" lon="-3.02998">
        <ele>163</ele>
        <time>2015-10-12T09:58:13.1Z</time>
      </trkpt>
      <trkpt lat="48.1991" lon="-3.03001">
        <ele>163</ele>
        <time>2015-10-12T09:58:16.1Z</time>
      </trkpt>
      <trkpt lat="48.19911" lon="-3.03003">
        <ele>163</ele>
        <time>2015-10-12T09:58:18.1Z</time>
      </trkpt>
      <trkpt lat="48.19912" lon="-3.03005">
        <ele>164</ele>
        <time>2015-10-12T09:58:21.1Z</time>
      </trkpt>
      <trkpt lat="48.19915" lon="-3.03006">
        <ele>164</ele>
        <time>2015-10-12T09:58:24.1Z</time>
      </trkpt>
      <trkpt lat="48.19916" lon="-3.03007">
        <ele>164</ele>
        <time>2015-10-12T09:58:26.1Z</time>
      </trkpt>
      <trkpt lat="48.19917" lon="-3.03008">
        <ele>164</ele>
        <time>2015-10-12T09:58:29.1Z</time>
      </trkpt>
      <trkpt lat="48.19918" lon="-3.03009">
        <ele>164</ele>
        <time>2015-10-12T09:58:31.1Z</time>
      </trkpt>
      <trkpt lat="48.1992" lon="-3.03009">
        <ele>164</ele>
        <time>2015-10-12T09:58:33.1Z</time>
      </trkpt>
      <trkpt lat="48.19922" lon="-3.0301">
        <ele>165</ele>
        <time>2015-10-12T09:58:36.1Z</time>
      </trkpt>
      <trkpt lat="48.19923" lon="-3.03013">
        <ele>165</ele>
        <time>2015-10-12T09:58:39.1Z</time>
      </trkpt>
      <trkpt lat="48.19925" lon="-3.03016">
        <ele>166</ele>
        <time>2015-10-12T09:58:42.1Z</time>
      </trkpt>
      <trkpt lat="48.19927" lon="-3.03019">
        <ele>166</ele>
        <time>2015-10-12T09:58:45.1Z</time>
      </trkpt>
      <trkpt lat="48.19928" lon="-3.03022">
        <ele>166</ele>
        <time>2015-10-12T09:58:48.1Z</time>
      </trkpt>
      <trkpt lat="48.1993" lon="-3.03023">
        <ele>166</ele>
        <time>2015-10-12T09:58:50.1Z</time>
      </trkpt>
      <trkpt lat="48.19932" lon="-3.03025">
        <ele>166</ele>
        <time>2015-10-12T09:58:52.1Z</time>
      </trkpt>
      <trkpt lat="48.19934" lon="-3.03026">
        <ele>166</ele>
        <time>2015-10-12T09:58:54.1Z</time>
      </trkpt>
      <trkpt lat="48.19935" lon="-3.03029">
        <ele>166</ele>
        <time>2015-10-12T09:58:57.1Z</time>
      </trkpt>
      <trkpt lat="48.19937" lon="-3.0303">
        <ele>166</ele>
        <time>2015-10-12T09:58:59.1Z</time>
      </trkpt>
      <trkpt lat="48.19939" lon="-3.03031">
        <ele>166</ele>
        <time>2015-10-12T09:59:02.1Z</time>
      </trkpt>
      <trkpt lat="48.19942" lon="-3.03032">
        <ele>166</ele>
        <time>2015-10-12T09:59:05.1Z</time>
      </trkpt>
      <trkpt lat="48.19944" lon="-3.03035">
        <ele>166</ele>
        <time>2015-10-12T09:59:08.1Z</time>
      </trkpt>
      <trkpt lat="48.19945" lon="-3.03039">
        <ele>166</ele>
        <time>2015-10-12T09:59:11.1Z</time>
      </trkpt>
      <trkpt lat="48.19946" lon="-3.0304">
        <ele>166</ele>
        <time>2015-10-12T09:59:13.1Z</time>
      </trkpt>
      <trkpt lat="48.19946" lon="-3.03042">
        <ele>166</ele>
        <time>2015-10-12T09:59:15.1Z</time>
      </trkpt>
      <trkpt lat="48.19947" lon="-3.03046">
        <ele>166</ele>
        <time>2015-10-12T09:59:18.1Z</time>
      </trkpt>
      <trkpt lat="48.1995" lon="-3.03047">
        <ele>166</ele>
        <time>2015-10-12T09:59:21.1Z</time>
      </trkpt>
      <trkpt lat="48.19952" lon="-3.0305">
        <ele>166</ele>
        <time>2015-10-12T09:59:24.1Z</time>
      </trkpt>
      <trkpt lat="48.19955" lon="-3.0305">
        <ele>166</ele>
        <time>2015-10-12T09:59:27.1Z</time>
      </trkpt>
      <trkpt lat="48.19958" lon="-3.03051">
        <ele>166</ele>
        <time>2015-10-12T09:59:30.1Z</time>
      </trkpt>
      <trkpt lat="48.1996" lon="-3.03052">
        <ele>166</ele>
        <time>2015-10-12T09:59:33.1Z</time>
      </trkpt>
      <trkpt lat="48.19961" lon="-3.03055">
        <ele>166</ele>
        <time>2015-10-12T09:59:36.1Z</time>
      </trkpt>
      <trkpt lat="48.19962" lon="-3.03056">
        <ele>167</ele>
        <time>2015-10-12T09:59:38.1Z</time>
      </trkpt>
      <trkpt lat="48.19964" lon="-3.03058">
        <ele>166</ele>
        <time>2015-10-12T09:59:41.1Z</time>
      </trkpt>
      <trkpt lat="48.19966" lon="-3.03059">
        <ele>167</ele>
        <time>2015-10-12T09:59:43.1Z</time>
      </trkpt>
      <trkpt lat="48.19968" lon="-3.03062">
        <ele>166</ele>
        <time>2015-10-12T09:59:46.1Z</time>
      </trkpt>
      <trkpt lat="48.19968" lon="-3.03065">
        <ele>166</ele>
        <time>2015-10-12T09:59:48.1Z</time>
      </trkpt>
      <trkpt lat="48.1997" lon="-3.03067">
        <ele>166</ele>
        <time>2015-10-12T09:59:51.1Z</time>
      </trkpt>
      <trkpt lat="48.1997" lon="-3.03069">
        <ele>166</ele>
        <time>2015-10-12T09:59:54.1Z</time>
      </trkpt>
      <trkpt lat="48.1997" lon="-3.03071">
        <ele>165</ele>
        <time>2015-10-12T09:59:57.1Z</time>
      </trkpt>
      <trkpt lat="48.19972" lon="-3.03072">
        <ele>165</ele>
        <time>2015-10-12T10:00:00.1Z</time>
      </trkpt>
      <trkpt lat="48.19972" lon="-3.03074">
        <ele>166</ele>
        <time>2015-10-12T10:00:02.1Z</time>
      </trkpt>
      <trkpt lat="48.19973" lon="-3.03075">
        <ele>166</ele>
        <time>2015-10-12T10:00:05.1Z</time>
      </trkpt>
      <trkpt lat="48.19973" lon="-3.03075">
        <ele>165</ele>
        <time>2015-10-12T10:00:07.1Z</time>
      </trkpt>
      <trkpt lat="48.19973" lon="-3.03075">
        <ele>166</ele>
        <time>2015-10-12T10:00:09.1Z</time>
      </trkpt>
      <trkpt lat="48.19975" lon="-3.03075">
        <ele>166</ele>
        <time>2015-10-12T10:00:12.1Z</time>
      </trkpt>
      <trkpt lat="48.19976" lon="-3.03074">
        <ele>166</ele>
        <time>2015-10-12T10:00:14.1Z</time>
      </trkpt>
      <trkpt lat="48.19978" lon="-3.03073">
        <ele>166</ele>
        <time>2015-10-12T10:00:17.1Z</time>
      </trkpt>
      <trkpt lat="48.1998" lon="-3.03074">
        <ele>167</ele>
        <time>2015-10-12T10:00:19.1Z</time>
      </trkpt>
      <trkpt lat="48.1998" lon="-3.03075">
        <ele>166</ele>
        <time>2015-10-12T10:00:22.1Z</time>
      </trkpt>
      <trkpt lat="48.19979" lon="-3.03076">
        <ele>166</ele>
        <time>2015-10-12T10:00:24.1Z</time>
      </trkpt>
      <trkpt lat="48.19979" lon="-3.03076">
        <ele>166</ele>
        <time>2015-10-12T10:00:26.1Z</time>
      </trkpt>
      <trkpt lat="48.19979" lon="-3.03077">
        <ele>166</ele>
        <time>2015-10-12T10:00:28.1Z</time>
      </trkpt>
      <trkpt lat="48.19979" lon="-3.03078">
        <ele>166</ele>
        <time>2015-10-12T10:00:31.1Z</time>
      </trkpt>
      <trkpt lat="48.19981" lon="-3.03079">
        <ele>166</ele>
        <time>2015-10-12T10:00:33.1Z</time>
      </trkpt>
      <trkpt lat="48.1998" lon="-3.0308">
        <ele>166</ele>
        <time>2015-10-12T10:00:36.1Z</time>
      </trkpt>
      <trkpt lat="48.1998" lon="-3.03081">
        <ele>166</ele>
        <time>2015-10-12T10:00:40.1Z</time>
      </trkpt>
      <trkpt lat="48.19981" lon="-3.0308">
        <ele>166</ele>
        <time>2015-10-12T10:00:43.1Z</time>
      </trkpt>
      <trkpt lat="48.19982" lon="-3.0308">
        <ele>166</ele>
        <time>2015-10-12T10:00:46.1Z</time>
      </trkpt>
      <trkpt lat="48.19983" lon="-3.0308">
        <ele>165</ele>
        <time>2015-10-12T10:00:49.1Z</time>
      </trkpt>
      <trkpt lat="48.19982" lon="-3.03081">
        <ele>165</ele>
        <time>2015-10-12T10:00:52.1Z</time>
      </trkpt>
      <trkpt lat="48.19982" lon="-3.0308">
        <ele>165</ele>
        <time>2015-10-12T10:00:54.1Z</time>
      </trkpt>
      <trkpt lat="48.19981" lon="-3.03079">
        <ele>166</ele>
        <time>2015-10-12T10:00:56.1Z</time>
      </trkpt>
      <trkpt lat="48.1998" lon="-3.03081">
        <ele>166</ele>
        <time>2015-10-12T10:00:59.1Z</time>
      </trkpt>
      <trkpt lat="48.1998" lon="-3.03081">
        <ele>166</ele>
        <time>2015-10-12T10:01:01.1Z</time>
      </trkpt>
      <trkpt lat="48.19981" lon="-3.03081">
        <ele>166</ele>
        <time>2015-10-12T10:01:04.1Z</time>
      </trkpt>
      <trkpt lat="48.19982" lon="-3.03082">
        <ele>166</ele>
        <time>2015-10-12T10:01:06.1Z</time>
      </trkpt>
      <trkpt lat="48.19983" lon="-3.03084">
        <ele>166</ele>
        <time>2015-10-12T10:01:09.1Z</time>
      </trkpt>
      <trkpt lat="48.19984" lon="-3.03085">
        <ele>166</ele>
        <time>2015-10-12T10:01:12.1Z</time>
      </trkpt>
      <trkpt lat="48.19984" lon="-3.03085">
        <ele>166</ele>
        <time>2015-10-12T10:01:15.1Z</time>
      </trkpt>
      <trkpt lat="48.19985" lon="-3.03085">
        <ele>166</ele>
        <time>2015-10-12T10:01:18.1Z</time>
      </trkpt>
      <trkpt lat="48.19986" lon="-3.03085">
        <ele>166</ele>
        <time>2015-10-12T10:01:20.1Z</time>
      </trkpt>
      <trkpt lat="48.19986" lon="-3.03085">
        <ele>166</ele>
        <time>2015-10-12T10:01:22.1Z</time>
      </trkpt>
      <trkpt lat="48.19987" lon="-3.03085">
        <ele>166</ele>
        <time>2015-10-12T10:01:25.1Z</time>
      </trkpt>
      <trkpt lat="48.19987" lon="-3.03084">
        <ele>166</ele>
        <time>2015-10-12T10:01:28.1Z</time>
      </trkpt>
      <trkpt lat="48.19987" lon="-3.03084">
        <ele>166</ele>
        <time>2015-10-12T10:01:30.1Z</time>
      </trkpt>
      <trkpt lat="48.19988" lon="-3.03084">
        <ele>165</ele>
        <time>2015-10-12T10:01:37.1Z</time>
      </trkpt>
      <trkpt lat="48.19988" lon="-3.03085">
        <ele>165</ele>
        <time>2015-10-12T10:01:40.1Z</time>
      </trkpt>
      <trkpt lat="48.19987" lon="-3.03085">
        <ele>165</ele>
        <time>2015-10-12T10:01:42.1Z</time>
      </trkpt>
      <trkpt lat="48.19987" lon="-3.03084">
        <ele>165</ele>
        <time>2015-10-12T10:01:45.1Z</time>
      </trkpt>
      <trkpt lat="48.19987" lon="-3.03084">
        <ele>165</ele>
        <time>2015-10-12T10:01:47.1Z</time>
      </trkpt>
      <trkpt lat="48.19987" lon="-3.03084">
        <ele>165</ele>
        <time>2015-10-12T10:01:49.1Z</time>
      </trkpt>
      <trkpt lat="48.19987" lon="-3.03084">
        <ele>165</ele>
        <time>2015-10-12T10:01:51.1Z</time>
      </trkpt>
      <trkpt lat="48.19987" lon="-3.03084">
        <ele>165</ele>
        <time>2015-10-12T10:01:54.1Z</time>
      </trkpt>
      <trkpt lat="48.19986" lon="-3.03084">
        <ele>165</ele>
        <time>2015-10-12T10:01:57.1Z</time>
      </trkpt>
      <trkpt lat="48.19987" lon="-3.03084">
        <ele>165</ele>
        <time>2015-10-12T10:02:00.1Z</time>
      </trkpt>
      <trkpt lat="48.19987" lon="-3.03083">
        <ele>165</ele>
        <time>2015-10-12T10:02:02.1Z</time>
      </trkpt>
      <trkpt lat="48.19986" lon="-3.03084">
        <ele>166</ele>
        <time>2015-10-12T10:02:05.1Z</time>
      </trkpt>
      <trkpt lat="48.19986" lon="-3.03084">
        <ele>166</ele>
        <time>2015-10-12T10:02:07.1Z</time>
      </trkpt>
      <trkpt lat="48.19987" lon="-3.03086">
        <ele>166</ele>
        <time>2015-10-12T10:02:10.1Z</time>
      </trkpt>
      <trkpt lat="48.19987" lon="-3.03086">
        <ele>166</ele>
        <time>2015-10-12T10:02:12.1Z</time>
      </trkpt>
      <trkpt lat="48.19988" lon="-3.03087">
        <ele>166</ele>
        <time>2015-10-12T10:02:15.1Z</time>
      </trkpt>
      <trkpt lat="48.19988" lon="-3.03088">
        <ele>166</ele>
        <time>2015-10-12T10:02:18.1Z</time>
      </trkpt>
      <trkpt lat="48.19988" lon="-3.03088">
        <ele>166</ele>
        <time>2015-10-12T10:02:20.1Z</time>
      </trkpt>
      <trkpt lat="48.19988" lon="-3.03088">
        <ele>166</ele>
        <time>2015-10-12T10:02:23.1Z</time>
      </trkpt>
      <trkpt lat="48.19988" lon="-3.03089">
        <ele>166</ele>
        <time>2015-10-12T10:02:26.1Z</time>
      </trkpt>
      <trkpt lat="48.19986" lon="-3.03091">
        <ele>166</ele>
        <time>2015-10-12T10:02:28.1Z</time>
      </trkpt>
      <trkpt lat="48.19985" lon="-3.03092">
        <ele>166</ele>
        <time>2015-10-12T10:02:31.1Z</time>
      </trkpt>
      <trkpt lat="48.19984" lon="-3.03093">
        <ele>166</ele>
        <time>2015-10-12T10:02:34.1Z</time>
      </trkpt>
      <trkpt lat="48.19984" lon="-3.03093">
        <ele>166</ele>
        <time>2015-10-12T10:02:36.1Z</time>
      </trkpt>
      <trkpt lat="48.19984" lon="-3.03094">
        <ele>166</ele>
        <time>2015-10-12T10:02:39.1Z</time>
      </trkpt>
      <trkpt lat="48.19983" lon="-3.03094">
        <ele>166</ele>
        <time>2015-10-12T10:02:42.1Z</time>
      </trkpt>
      <trkpt lat="48.19983" lon="-3.03095">
        <ele>165</ele>
        <time>2015-10-12T10:02:45.1Z</time>
      </trkpt>
      <trkpt lat="48.19982" lon="-3.03096">
        <ele>165</ele>
        <time>2015-10-12T10:02:48.1Z</time>
      </trkpt>
      <trkpt lat="48.19981" lon="-3.03096">
        <ele>165</ele>
        <time>2015-10-12T10:02:50.1Z</time>
      </trkpt>
      <trkpt lat="48.19981" lon="-3.03097">
        <ele>165</ele>
        <time>2015-10-12T10:02:52.1Z</time>
      </trkpt>
      <trkpt lat="48.19981" lon="-3.03097">
        <ele>165</ele>
        <time>2015-10-12T10:02:54.1Z</time>
      </trkpt>
      <trkpt lat="48.19981" lon="-3.03097">
        <ele>165</ele>
        <time>2015-10-12T10:02:57.1Z</time>
      </trkpt>
      <trkpt lat="48.19981" lon="-3.03098">
        <ele>165</ele>
        <time>2015-10-12T10:03:00.1Z</time>
      </trkpt>
      <trkpt lat="48.19982" lon="-3.03099">
        <ele>165</ele>
        <time>2015-10-12T10:03:03.1Z</time>
      </trkpt>
      <trkpt lat="48.19983" lon="-3.031">
        <ele>165</ele>
        <time>2015-10-12T10:03:05.1Z</time>
      </trkpt>
      <trkpt lat="48.19983" lon="-3.031">
        <ele>165</ele>
        <time>2015-10-12T10:03:07.1Z</time>
      </trkpt>
      <trkpt lat="48.19985" lon="-3.03101">
        <ele>165</ele>
        <time>2015-10-12T10:03:10.1Z</time>
      </trkpt>
      <trkpt lat="48.19987" lon="-3.03101">
        <ele>166</ele>
        <time>2015-10-12T10:03:13.1Z</time>
      </trkpt>
      <trkpt lat="48.19989" lon="-3.03101">
        <ele>166</ele>
        <time>2015-10-12T10:03:16.1Z</time>
      </trkpt>
      <trkpt lat="48.19991" lon="-3.03101">
        <ele>166</ele>
        <time>2015-10-12T10:03:18.1Z</time>
      </trkpt>
      <trkpt lat="48.19992" lon="-3.03101">
        <ele>166</ele>
        <time>2015-10-12T10:03:20.1Z</time>
      </trkpt>
      <trkpt lat="48.19993" lon="-3.03102">
        <ele>166</ele>
        <time>2015-10-12T10:03:23.1Z</time>
      </trkpt>
      <trkpt lat="48.19994" lon="-3.03102">
        <ele>166</ele>
        <time>2015-10-12T10:03:25.1Z</time>
      </trkpt>
      <trkpt lat="48.19995" lon="-3.03102">
        <ele>166</ele>
        <time>2015-10-12T10:03:28.1Z</time>
      </trkpt>
      <trkpt lat="48.19996" lon="-3.03103">
        <ele>166</ele>
        <time>2015-10-12T10:03:31.1Z</time>
      </trkpt>
      <trkpt lat="48.19997" lon="-3.03103">
        <ele>166</ele>
        <time>2015-10-12T10:03:33.1Z</time>
      </trkpt>
      <trkpt lat="48.19999" lon="-3.03103">
        <ele>166</ele>
        <time>2015-10-12T10:03:36.1Z</time>
      </trkpt>
      <trkpt lat="48.20001" lon="-3.03104">
        <ele>166</ele>
        <time>2015-10-12T10:03:39.1Z</time>
      </trkpt>
      <trkpt lat="48.20002" lon="-3.03104">
        <ele>167</ele>
        <time>2015-10-12T10:03:41.1Z</time>
      </trkpt>
      <trkpt lat="48.20003" lon="-3.03103">
        <ele>167</ele>
        <time>2015-10-12T10:03:44.1Z</time>
      </trkpt>
      <trkpt lat="48.20005" lon="-3.03103">
        <ele>167</ele>
        <time>2015-10-12T10:03:46.1Z</time>
      </trkpt>
      <trkpt lat="48.20007" lon="-3.03103">
        <ele>167</ele>
        <time>2015-10-12T10:03:49.1Z</time>
      </trkpt>
      <trkpt lat="48.20009" lon="-3.03102">
        <ele>168</ele>
        <time>2015-10-12T10:03:51.1Z</time>
      </trkpt>
      <trkpt lat="48.2001" lon="-3.03102">
        <ele>168</ele>
        <time>2015-10-12T10:03:53.1Z</time>
      </trkpt>
      <trkpt lat="48.20012" lon="-3.03102">
        <ele>169</ele>
        <time>2015-10-12T10:03:56.1Z</time>
      </trkpt>
      <trkpt lat="48.20013" lon="-3.03103">
        <ele>169</ele>
        <time>2015-10-12T10:03:58.1Z</time>
      </trkpt>
      <trkpt lat="48.20014" lon="-3.03104">
        <ele>169</ele>
        <time>2015-10-12T10:04:01.1Z</time>
      </trkpt>
      <trkpt lat="48.20017" lon="-3.03105">
        <ele>169</ele>
        <time>2015-10-12T10:04:04.1Z</time>
      </trkpt>
      <trkpt lat="48.20019" lon="-3.03106">
        <ele>169</ele>
        <time>2015-10-12T10:04:07.1Z</time>
      </trkpt>
      <trkpt lat="48.2002" lon="-3.03107">
        <ele>170</ele>
        <time>2015-10-12T10:04:09.1Z</time>
      </trkpt>
      <trkpt lat="48.20021" lon="-3.0311">
        <ele>170</ele>
        <time>2015-10-12T10:04:12.1Z</time>
      </trkpt>
      <trkpt lat="48.20022" lon="-3.03111">
        <ele>170</ele>
        <time>2015-10-12T10:04:15.1Z</time>
      </trkpt>
      <trkpt lat="48.20024" lon="-3.03112">
        <ele>170</ele>
        <time>2015-10-12T10:04:18.1Z</time>
      </trkpt>
      <trkpt lat="48.20026" lon="-3.03113">
        <ele>170</ele>
        <time>2015-10-12T10:04:20.1Z</time>
      </trkpt>
      <trkpt lat="48.20027" lon="-3.03115">
        <ele>170</ele>
        <time>2015-10-12T10:04:23.1Z</time>
      </trkpt>
      <trkpt lat="48.20028" lon="-3.03117">
        <ele>170</ele>
        <time>2015-10-12T10:04:25.1Z</time>
      </trkpt>
      <trkpt lat="48.20031" lon="-3.03119">
        <ele>170</ele>
        <time>2015-10-12T10:04:28.1Z</time>
      </trkpt>
      <trkpt lat="48.20033" lon="-3.03121">
        <ele>170</ele>
        <time>2015-10-12T10:04:31.1Z</time>
      </trkpt>
      <trkpt lat="48.20034" lon="-3.03123">
        <ele>170</ele>
        <time>2015-10-12T10:04:33.1Z</time>
      </trkpt>
      <trkpt lat="48.20035" lon="-3.03124">
        <ele>170</ele>
        <time>2015-10-12T10:04:35.1Z</time>
      </trkpt>
      <trkpt lat="48.20037" lon="-3.03126">
        <ele>170</ele>
        <time>2015-10-12T10:04:38.1Z</time>
      </trkpt>
      <trkpt lat="48.20038" lon="-3.03128">
        <ele>170</ele>
        <time>2015-10-12T10:04:40.1Z</time>
      </trkpt>
      <trkpt lat="48.20039" lon="-3.0313">
        <ele>170</ele>
        <time>2015-10-12T10:04:42.1Z</time>
      </trkpt>
      <trkpt lat="48.2004" lon="-3.03131">
        <ele>170</ele>
        <time>2015-10-12T10:04:45.1Z</time>
      </trkpt>
      <trkpt lat="48.20042" lon="-3.03133">
        <ele>170</ele>
        <time>2015-10-12T10:04:47.1Z</time>
      </trkpt>
      <trkpt lat="48.20044" lon="-3.03134">
        <ele>170</ele>
        <time>2015-10-12T10:04:50.1Z</time>
      </trkpt>
      <trkpt lat="48.20045" lon="-3.03136">
        <ele>169</ele>
        <time>2015-10-12T10:04:52.1Z</time>
      </trkpt>
      <trkpt lat="48.20047" lon="-3.03137">
        <ele>169</ele>
        <time>2015-10-12T10:04:54.1Z</time>
      </trkpt>
      <trkpt lat="48.20048" lon="-3.03138">
        <ele>169</ele>
        <time>2015-10-12T10:04:57.1Z</time>
      </trkpt>
      <trkpt lat="48.2005" lon="-3.03139">
        <ele>170</ele>
        <time>2015-10-12T10:05:00.1Z</time>
      </trkpt>
      <trkpt lat="48.20051" lon="-3.03139">
        <ele>170</ele>
        <time>2015-10-12T10:05:03.1Z</time>
      </trkpt>
      <trkpt lat="48.20053" lon="-3.03139">
        <ele>170</ele>
        <time>2015-10-12T10:05:05.1Z</time>
      </trkpt>
      <trkpt lat="48.20055" lon="-3.03139">
        <ele>170</ele>
        <time>2015-10-12T10:05:07.1Z</time>
      </trkpt>
      <trkpt lat="48.20057" lon="-3.0314">
        <ele>170</ele>
        <time>2015-10-12T10:05:10.1Z</time>
      </trkpt>
      <trkpt lat="48.20058" lon="-3.03141">
        <ele>171</ele>
        <time>2015-10-12T10:05:12.1Z</time>
      </trkpt>
      <trkpt lat="48.20061" lon="-3.03142">
        <ele>171</ele>
        <time>2015-10-12T10:05:15.1Z</time>
      </trkpt>
      <trkpt lat="48.20064" lon="-3.03145">
        <ele>171</ele>
        <time>2015-10-12T10:05:18.1Z</time>
      </trkpt>
      <trkpt lat="48.20066" lon="-3.03145">
        <ele>171</ele>
        <time>2015-10-12T10:05:21.1Z</time>
      </trkpt>
      <trkpt lat="48.20069" lon="-3.03146">
        <ele>171</ele>
        <time>2015-10-12T10:05:24.1Z</time>
      </trkpt>
      <trkpt lat="48.20071" lon="-3.03147">
        <ele>171</ele>
        <time>2015-10-12T10:05:26.1Z</time>
      </trkpt>
      <trkpt lat="48.20074" lon="-3.03149">
        <ele>170</ele>
        <time>2015-10-12T10:05:29.1Z</time>
      </trkpt>
      <trkpt lat="48.20076" lon="-3.0315">
        <ele>170</ele>
        <time>2015-10-12T10:05:32.1Z</time>
      </trkpt>
      <trkpt lat="48.20077" lon="-3.03151">
        <ele>171</ele>
        <time>2015-10-12T10:05:34.1Z</time>
      </trkpt>
      <trkpt lat="48.20079" lon="-3.03151">
        <ele>171</ele>
        <time>2015-10-12T10:05:37.1Z</time>
      </trkpt>
      <trkpt lat="48.2008" lon="-3.03153">
        <ele>171</ele>
        <time>2015-10-12T10:05:39.1Z</time>
      </trkpt>
      <trkpt lat="48.20081" lon="-3.03154">
        <ele>171</ele>
        <time>2015-10-12T10:05:41.1Z</time>
      </trkpt>
      <trkpt lat="48.20083" lon="-3.03155">
        <ele>171</ele>
        <time>2015-10-12T10:05:43.1Z</time>
      </trkpt>
      <trkpt lat="48.20086" lon="-3.03156">
        <ele>172</ele>
        <time>2015-10-12T10:05:46.1Z</time>
      </trkpt>
      <trkpt lat="48.20089" lon="-3.03156">
        <ele>172</ele>
        <time>2015-10-12T10:05:48.1Z</time>
      </trkpt>
      <trkpt lat="48.20091" lon="-3.03157">
        <ele>172</ele>
        <time>2015-10-12T10:05:51.1Z</time>
      </trkpt>
      <trkpt lat="48.20094" lon="-3.03158">
        <ele>173</ele>
        <time>2015-10-12T10:05:54.1Z</time>
      </trkpt>
      <trkpt lat="48.20096" lon="-3.03159">
        <ele>174</ele>
        <time>2015-10-12T10:05:56.1Z</time>
      </trkpt>
      <trkpt lat="48.20098" lon="-3.03161">
        <ele>174</ele>
        <time>2015-10-12T10:05:59.1Z</time>
      </trkpt>
      <trkpt lat="48.201" lon="-3.03163">
        <ele>174</ele>
        <time>2015-10-12T10:06:02.1Z</time>
      </trkpt>
      <trkpt lat="48.20102" lon="-3.03165">
        <ele>174</ele>
        <time>2015-10-12T10:06:04.1Z</time>
      </trkpt>
      <trkpt lat="48.20105" lon="-3.03169">
        <ele>173</ele>
        <time>2015-10-12T10:06:07.1Z</time>
      </trkpt>
      <trkpt lat="48.20107" lon="-3.03172">
        <ele>173</ele>
        <time>2015-10-12T10:06:10.1Z</time>
      </trkpt>
      <trkpt lat="48.20109" lon="-3.03173">
        <ele>173</ele>
        <time>2015-10-12T10:06:12.1Z</time>
      </trkpt>
      <trkpt lat="48.20111" lon="-3.03175">
        <ele>173</ele>
        <time>2015-10-12T10:06:15.1Z</time>
      </trkpt>
      <trkpt lat="48.20112" lon="-3.03178">
        <ele>173</ele>
        <time>2015-10-12T10:06:17.1Z</time>
      </trkpt>
      <trkpt lat="48.20112" lon="-3.0318">
        <ele>173</ele>
        <time>2015-10-12T10:06:19.1Z</time>
      </trkpt>
      <trkpt lat="48.20113" lon="-3.03183">
        <ele>173</ele>
        <time>2015-10-12T10:06:22.1Z</time>
      </trkpt>
      <trkpt lat="48.20115" lon="-3.03185">
        <ele>173</ele>
        <time>2015-10-12T10:06:25.1Z</time>
      </trkpt>
      <trkpt lat="48.20117" lon="-3.03188">
        <ele>174</ele>
        <time>2015-10-12T10:06:28.1Z</time>
      </trkpt>
      <trkpt lat="48.20119" lon="-3.03192">
        <ele>174</ele>
        <time>2015-10-12T10:06:31.1Z</time>
      </trkpt>
      <trkpt lat="48.20121" lon="-3.03195">
        <ele>174</ele>
        <time>2015-10-12T10:06:33.1Z</time>
      </trkpt>
      <trkpt lat="48.20122" lon="-3.03198">
        <ele>173</ele>
        <time>2015-10-12T10:06:35.1Z</time>
      </trkpt>
      <trkpt lat="48.20124" lon="-3.03201">
        <ele>173</ele>
        <time>2015-10-12T10:06:38.1Z</time>
      </trkpt>
      <trkpt lat="48.20126" lon="-3.03204">
        <ele>173</ele>
        <time>2015-10-12T10:06:40.1Z</time>
      </trkpt>
      <trkpt lat="48.20127" lon="-3.03206">
        <ele>173</ele>
        <time>2015-10-12T10:06:42.1Z</time>
      </trkpt>
      <trkpt lat="48.20129" lon="-3.03209">
        <ele>173</ele>
        <time>2015-10-12T10:06:44.1Z</time>
      </trkpt>
      <trkpt lat="48.2013" lon="-3.03211">
        <ele>173</ele>
        <time>2015-10-12T10:06:46.1Z</time>
      </trkpt>
      <trkpt lat="48.20133" lon="-3.03212">
        <ele>173</ele>
        <time>2015-10-12T10:06:49.1Z</time>
      </trkpt>
      <trkpt lat="48.20135" lon="-3.03213">
        <ele>172</ele>
        <time>2015-10-12T10:06:51.1Z</time>
      </trkpt>
      <trkpt lat="48.20137" lon="-3.03215">
        <ele>173</ele>
        <time>2015-10-12T10:06:54.1Z</time>
      </trkpt>
      <trkpt lat="48.20139" lon="-3.03216">
        <ele>173</ele>
        <time>2015-10-12T10:06:56.1Z</time>
      </trkpt>
      <trkpt lat="48.2014" lon="-3.03218">
        <ele>173</ele>
        <time>2015-10-12T10:06:59.1Z</time>
      </trkpt>
      <trkpt lat="48.20143" lon="-3.0322">
        <ele>174</ele>
        <time>2015-10-12T10:07:02.1Z</time>
      </trkpt>
      <trkpt lat="48.20144" lon="-3.03222">
        <ele>174</ele>
        <time>2015-10-12T10:07:05.1Z</time>
      </trkpt>
      <trkpt lat="48.20146" lon="-3.03226">
        <ele>173</ele>
        <time>2015-10-12T10:07:08.1Z</time>
      </trkpt>
      <trkpt lat="48.20148" lon="-3.03229">
        <ele>173</ele>
        <time>2015-10-12T10:07:11.1Z</time>
      </trkpt>
      <trkpt lat="48.20151" lon="-3.0323">
        <ele>173</ele>
        <time>2015-10-12T10:07:14.1Z</time>
      </trkpt>
      <trkpt lat="48.20153" lon="-3.03231">
        <ele>173</ele>
        <time>2015-10-12T10:07:16.1Z</time>
      </trkpt>
      <trkpt lat="48.20155" lon="-3.03232">
        <ele>173</ele>
        <time>2015-10-12T10:07:18.1Z</time>
      </trkpt>
      <trkpt lat="48.20157" lon="-3.03235">
        <ele>173</ele>
        <time>2015-10-12T10:07:21.1Z</time>
      </trkpt>
      <trkpt lat="48.20159" lon="-3.03238">
        <ele>173</ele>
        <time>2015-10-12T10:07:24.1Z</time>
      </trkpt>
      <trkpt lat="48.20161" lon="-3.03241">
        <ele>173</ele>
        <time>2015-10-12T10:07:27.1Z</time>
      </trkpt>
      <trkpt lat="48.20163" lon="-3.03243">
        <ele>173</ele>
        <time>2015-10-12T10:07:30.1Z</time>
      </trkpt>
      <trkpt lat="48.20166" lon="-3.03245">
        <ele>174</ele>
        <time>2015-10-12T10:07:33.1Z</time>
      </trkpt>
      <trkpt lat="48.20169" lon="-3.03246">
        <ele>173</ele>
        <time>2015-10-12T10:07:36.1Z</time>
      </trkpt>
      <trkpt lat="48.2017" lon="-3.03248">
        <ele>173</ele>
        <time>2015-10-12T10:07:38.1Z</time>
      </trkpt>
      <trkpt lat="48.20173" lon="-3.0325">
        <ele>173</ele>
        <time>2015-10-12T10:07:41.1Z</time>
      </trkpt>
      <trkpt lat="48.20175" lon="-3.0325">
        <ele>173</ele>
        <time>2015-10-12T10:07:43.1Z</time>
      </trkpt>
      <trkpt lat="48.20178" lon="-3.03251">
        <ele>173</ele>
        <time>2015-10-12T10:07:46.1Z</time>
      </trkpt>
      <trkpt lat="48.20181" lon="-3.03252">
        <ele>173</ele>
        <time>2015-10-12T10:07:49.1Z</time>
      </trkpt>
      <trkpt lat="48.20183" lon="-3.03254">
        <ele>173</ele>
        <time>2015-10-12T10:07:52.1Z</time>
      </trkpt>
      <trkpt lat="48.20185" lon="-3.03255">
        <ele>174</ele>
        <time>2015-10-12T10:07:54.1Z</time>
      </trkpt>
      <trkpt lat="48.20187" lon="-3.03258">
        <ele>174</ele>
        <time>2015-10-12T10:07:57.1Z</time>
      </trkpt>
      <trkpt lat="48.20188" lon="-3.03259">
        <ele>174</ele>
        <time>2015-10-12T10:07:59.1Z</time>
      </trkpt>
      <trkpt lat="48.2019" lon="-3.03261">
        <ele>173</ele>
        <time>2015-10-12T10:08:02.1Z</time>
      </trkpt>
      <trkpt lat="48.20192" lon="-3.03263">
        <ele>173</ele>
        <time>2015-10-12T10:08:05.1Z</time>
      </trkpt>
      <trkpt lat="48.20195" lon="-3.03263">
        <ele>173</ele>
        <time>2015-10-12T10:08:08.1Z</time>
      </trkpt>
      <trkpt lat="48.20196" lon="-3.03264">
        <ele>173</ele>
        <time>2015-10-12T10:08:10.1Z</time>
      </trkpt>
      <trkpt lat="48.20198" lon="-3.03267">
        <ele>172</ele>
        <time>2015-10-12T10:08:13.1Z</time>
      </trkpt>
      <trkpt lat="48.202" lon="-3.03268">
        <ele>172</ele>
        <time>2015-10-12T10:08:15.1Z</time>
      </trkpt>
      <trkpt lat="48.20203" lon="-3.0327">
        <ele>173</ele>
        <time>2015-10-12T10:08:18.1Z</time>
      </trkpt>
      <trkpt lat="48.20204" lon="-3.03272">
        <ele>173</ele>
        <time>2015-10-12T10:08:21.1Z</time>
      </trkpt>
      <trkpt lat="48.20206" lon="-3.03274">
        <ele>172</ele>
        <time>2015-10-12T10:08:23.1Z</time>
      </trkpt>
      <trkpt lat="48.20207" lon="-3.03276">
        <ele>172</ele>
        <time>2015-10-12T10:08:25.1Z</time>
      </trkpt>
      <trkpt lat="48.20209" lon="-3.03277">
        <ele>171</ele>
        <time>2015-10-12T10:08:27.1Z</time>
      </trkpt>
      <trkpt lat="48.2021" lon="-3.03278">
        <ele>171</ele>
        <time>2015-10-12T10:08:29.1Z</time>
      </trkpt>
      <trkpt lat="48.20211" lon="-3.03281">
        <ele>171</ele>
        <time>2015-10-12T10:08:32.1Z</time>
      </trkpt>
      <trkpt lat="48.20211" lon="-3.03282">
        <ele>171</ele>
        <time>2015-10-12T10:08:34.1Z</time>
      </trkpt>
      <trkpt lat="48.20212" lon="-3.03284">
        <ele>171</ele>
        <time>2015-10-12T10:08:37.1Z</time>
      </trkpt>
      <trkpt lat="48.20213" lon="-3.03286">
        <ele>171</ele>
        <time>2015-10-12T10:08:40.1Z</time>
      </trkpt>
      <trkpt lat="48.20214" lon="-3.0329">
        <ele>171</ele>
        <time>2015-10-12T10:08:43.1Z</time>
      </trkpt>
      <trkpt lat="48.20216" lon="-3.0329">
        <ele>171</ele>
        <time>2015-10-12T10:08:45.1Z</time>
      </trkpt>
      <trkpt lat="48.20218" lon="-3.03291">
        <ele>171</ele>
        <time>2015-10-12T10:08:47.1Z</time>
      </trkpt>
      <trkpt lat="48.20219" lon="-3.03294">
        <ele>171</ele>
        <time>2015-10-12T10:08:50.1Z</time>
      </trkpt>
      <trkpt lat="48.2022" lon="-3.03295">
        <ele>171</ele>
        <time>2015-10-12T10:08:52.1Z</time>
      </trkpt>
      <trkpt lat="48.20221" lon="-3.03297">
        <ele>171</ele>
        <time>2015-10-12T10:08:54.1Z</time>
      </trkpt>
      <trkpt lat="48.20222" lon="-3.03299">
        <ele>171</ele>
        <time>2015-10-12T10:08:56.1Z</time>
      </trkpt>
      <trkpt lat="48.20223" lon="-3.033">
        <ele>170</ele>
        <time>2015-10-12T10:08:59.1Z</time>
      </trkpt>
      <trkpt lat="48.20223" lon="-3.03301">
        <ele>170</ele>
        <time>2015-10-12T10:09:01.1Z</time>
      </trkpt>
      <trkpt lat="48.20223" lon="-3.03302">
        <ele>170</ele>
        <time>2015-10-12T10:09:03.1Z</time>
      </trkpt>
      <trkpt lat="48.20223" lon="-3.03303">
        <ele>170</ele>
        <time>2015-10-12T10:09:05.1Z</time>
      </trkpt>
      <trkpt lat="48.20223" lon="-3.03305">
        <ele>170</ele>
        <time>2015-10-12T10:09:08.1Z</time>
      </trkpt>
      <trkpt lat="48.20223" lon="-3.03306">
        <ele>170</ele>
        <time>2015-10-12T10:09:10.1Z</time>
      </trkpt>
      <trkpt lat="48.20224" lon="-3.03306">
        <ele>170</ele>
        <time>2015-10-12T10:09:12.1Z</time>
      </trkpt>
      <trkpt lat="48.20226" lon="-3.03308">
        <ele>171</ele>
        <time>2015-10-12T10:09:15.1Z</time>
      </trkpt>
      <trkpt lat="48.20227" lon="-3.03309">
        <ele>171</ele>
        <time>2015-10-12T10:09:17.1Z</time>
      </trkpt>
      <trkpt lat="48.20229" lon="-3.0331">
        <ele>171</ele>
        <time>2015-10-12T10:09:20.1Z</time>
      </trkpt>
      <trkpt lat="48.2023" lon="-3.03311">
        <ele>172</ele>
        <time>2015-10-12T10:09:23.1Z</time>
      </trkpt>
      <trkpt lat="48.20232" lon="-3.0331">
        <ele>172</ele>
        <time>2015-10-12T10:09:26.1Z</time>
      </trkpt>
      <trkpt lat="48.20234" lon="-3.0331">
        <ele>172</ele>
        <time>2015-10-12T10:09:29.1Z</time>
      </trkpt>
      <trkpt lat="48.20235" lon="-3.03311">
        <ele>172</ele>
        <time>2015-10-12T10:09:32.1Z</time>
      </trkpt>
      <trkpt lat="48.20236" lon="-3.03311">
        <ele>172</ele>
        <time>2015-10-12T10:09:35.1Z</time>
      </trkpt>
      <trkpt lat="48.20236" lon="-3.03311">
        <ele>172</ele>
        <time>2015-10-12T10:09:37.1Z</time>
      </trkpt>
      <trkpt lat="48.20236" lon="-3.03312">
        <ele>172</ele>
        <time>2015-10-12T10:09:40.1Z</time>
      </trkpt>
      <trkpt lat="48.20236" lon="-3.03313">
        <ele>173</ele>
        <time>2015-10-12T10:09:42.1Z</time>
      </trkpt>
      <trkpt lat="48.20236" lon="-3.03313">
        <ele>172</ele>
        <time>2015-10-12T10:09:45.1Z</time>
      </trkpt>
      <trkpt lat="48.20236" lon="-3.03313">
        <ele>172</ele>
        <time>2015-10-12T10:09:48.1Z</time>
      </trkpt>
      <trkpt lat="48.20236" lon="-3.03313">
        <ele>172</ele>
        <time>2015-10-12T10:09:51.1Z</time>
      </trkpt>
      <trkpt lat="48.20236" lon="-3.03315">
        <ele>172</ele>
        <time>2015-10-12T10:09:54.1Z</time>
      </trkpt>
      <trkpt lat="48.20236" lon="-3.03314">
        <ele>173</ele>
        <time>2015-10-12T10:09:57.1Z</time>
      </trkpt>
      <trkpt lat="48.20237" lon="-3.03315">
        <ele>173</ele>
        <time>2015-10-12T10:09:59.1Z</time>
      </trkpt>
      <trkpt lat="48.20237" lon="-3.03315">
        <ele>172</ele>
        <time>2015-10-12T10:10:01.1Z</time>
      </trkpt>
      <trkpt lat="48.20238" lon="-3.03315">
        <ele>172</ele>
        <time>2015-10-12T10:10:04.1Z</time>
      </trkpt>
      <trkpt lat="48.20238" lon="-3.03316">
        <ele>173</ele>
        <time>2015-10-12T10:10:07.1Z</time>
      </trkpt>
      <trkpt lat="48.20238" lon="-3.03317">
        <ele>173</ele>
        <time>2015-10-12T10:10:09.1Z</time>
      </trkpt>
      <trkpt lat="48.20238" lon="-3.03316">
        <ele>172</ele>
        <time>2015-10-12T10:10:12.1Z</time>
      </trkpt>
      <trkpt lat="48.20239" lon="-3.03316">
        <ele>172</ele>
        <time>2015-10-12T10:10:14.1Z</time>
      </trkpt>
      <trkpt lat="48.2024" lon="-3.03315">
        <ele>172</ele>
        <time>2015-10-12T10:10:16.1Z</time>
      </trkpt>
      <trkpt lat="48.20241" lon="-3.03315">
        <ele>172</ele>
        <time>2015-10-12T10:10:19.1Z</time>
      </trkpt>
      <trkpt lat="48.20241" lon="-3.03315">
        <ele>173</ele>
        <time>2015-10-12T10:10:21.1Z</time>
      </trkpt>
      <trkpt lat="48.20241" lon="-3.03315">
        <ele>172</ele>
        <time>2015-10-12T10:10:23.1Z</time>
      </trkpt>
      <trkpt lat="48.20241" lon="-3.03315">
        <ele>173</ele>
        <time>2015-10-12T10:10:26.1Z</time>
      </trkpt>
      <trkpt lat="48.2024" lon="-3.03315">
        <ele>173</ele>
        <time>2015-10-12T10:10:29.1Z</time>
      </trkpt>
      <trkpt lat="48.2024" lon="-3.03314">
        <ele>173</ele>
        <time>2015-10-12T10:10:32.1Z</time>
      </trkpt>
      <trkpt lat="48.2024" lon="-3.03314">
        <ele>173</ele>
        <time>2015-10-12T10:10:37.1Z</time>
      </trkpt>
      <trkpt lat="48.2024" lon="-3.03315">
        <ele>173</ele>
        <time>2015-10-12T10:10:40.1Z</time>
      </trkpt>
      <trkpt lat="48.2024" lon="-3.03316">
        <ele>173</ele>
        <time>2015-10-12T10:10:42.1Z</time>
      </trkpt>
      <trkpt lat="48.20239" lon="-3.03318">
        <ele>173</ele>
        <time>2015-10-12T10:10:45.1Z</time>
      </trkpt>
      <trkpt lat="48.20238" lon="-3.03319">
        <ele>173</ele>
        <time>2015-10-12T10:10:48.1Z</time>
      </trkpt>
      <trkpt lat="48.20239" lon="-3.0332">
        <ele>173</ele>
        <time>2015-10-12T10:10:50.1Z</time>
      </trkpt>
      <trkpt lat="48.20239" lon="-3.03321">
        <ele>173</ele>
        <time>2015-10-12T10:10:53.1Z</time>
      </trkpt>
      <trkpt lat="48.20239" lon="-3.03323">
        <ele>173</ele>
        <time>2015-10-12T10:10:56.1Z</time>
      </trkpt>
      <trkpt lat="48.2024" lon="-3.03323">
        <ele>173</ele>
        <time>2015-10-12T10:10:58.1Z</time>
      </trkpt>
      <trkpt lat="48.20241" lon="-3.03324">
        <ele>174</ele>
        <time>2015-10-12T10:11:01.1Z</time>
      </trkpt>
      <trkpt lat="48.20242" lon="-3.03324">
        <ele>174</ele>
        <time>2015-10-12T10:11:03.1Z</time>
      </trkpt>
      <trkpt lat="48.20244" lon="-3.03325">
        <ele>174</ele>
        <time>2015-10-12T10:11:05.1Z</time>
      </trkpt>
      <trkpt lat="48.20245" lon="-3.03325">
        <ele>174</ele>
        <time>2015-10-12T10:11:08.1Z</time>
      </trkpt>
      <trkpt lat="48.20247" lon="-3.03326">
        <ele>175</ele>
        <time>2015-10-12T10:11:11.1Z</time>
      </trkpt>
      <trkpt lat="48.20249" lon="-3.03326">
        <ele>175</ele>
        <time>2015-10-12T10:11:14.1Z</time>
      </trkpt>
      <trkpt lat="48.2025" lon="-3.03327">
        <ele>176</ele>
        <time>2015-10-12T10:11:17.1Z</time>
      </trkpt>
      <trkpt lat="48.20252" lon="-3.03327">
        <ele>176</ele>
        <time>2015-10-12T10:11:19.1Z</time>
      </trkpt>
      <trkpt lat="48.20254" lon="-3.03328">
        <ele>176</ele>
        <time>2015-10-12T10:11:22.1Z</time>
      </trkpt>
      <trkpt lat="48.20255" lon="-3.03328">
        <ele>176</ele>
        <time>2015-10-12T10:11:24.1Z</time>
      </trkpt>
      <trkpt lat="48.20258" lon="-3.03329">
        <ele>177</ele>
        <time>2015-10-12T10:11:27.1Z</time>
      </trkpt>
      <trkpt lat="48.20259" lon="-3.0333">
        <ele>177</ele>
        <time>2015-10-12T10:11:29.1Z</time>
      </trkpt>
      <trkpt lat="48.20261" lon="-3.03332">
        <ele>177</ele>
        <time>2015-10-12T10:11:32.1Z</time>
      </trkpt>
      <trkpt lat="48.20263" lon="-3.03334">
        <ele>177</ele>
        <time>2015-10-12T10:11:35.1Z</time>
      </trkpt>
      <trkpt lat="48.20264" lon="-3.03337">
        <ele>177</ele>
        <time>2015-10-12T10:11:38.1Z</time>
      </trkpt>
      <trkpt lat="48.20266" lon="-3.03339">
        <ele>177</ele>
        <time>2015-10-12T10:11:41.1Z</time>
      </trkpt>
      <trkpt lat="48.20266" lon="-3.03342">
        <ele>177</ele>
        <time>2015-10-12T10:11:43.1Z</time>
      </trkpt>
      <trkpt lat="48.20266" lon="-3.03344">
        <ele>177</ele>
        <time>2015-10-12T10:11:45.1Z</time>
      </trkpt>
      <trkpt lat="48.20266" lon="-3.03345">
        <ele>176</ele>
        <time>2015-10-12T10:11:47.1Z</time>
      </trkpt>
      <trkpt lat="48.20266" lon="-3.03347">
        <ele>176</ele>
        <time>2015-10-12T10:11:50.1Z</time>
      </trkpt>
      <trkpt lat="48.20266" lon="-3.03348">
        <ele>175</ele>
        <time>2015-10-12T10:11:52.1Z</time>
      </trkpt>
      <trkpt lat="48.20266" lon="-3.0335">
        <ele>175</ele>
        <time>2015-10-12T10:11:54.1Z</time>
      </trkpt>
      <trkpt lat="48.20266" lon="-3.03353">
        <ele>175</ele>
        <time>2015-10-12T10:11:57.1Z</time>
      </trkpt>
      <trkpt lat="48.20267" lon="-3.03355">
        <ele>174</ele>
        <time>2015-10-12T10:12:00.1Z</time>
      </trkpt>
      <trkpt lat="48.20267" lon="-3.03357">
        <ele>174</ele>
        <time>2015-10-12T10:12:03.1Z</time>
      </trkpt>
      <trkpt lat="48.20268" lon="-3.03359">
        <ele>173</ele>
        <time>2015-10-12T10:12:06.1Z</time>
      </trkpt>
      <trkpt lat="48.20267" lon="-3.0336">
        <ele>173</ele>
        <time>2015-10-12T10:12:09.1Z</time>
      </trkpt>
      <trkpt lat="48.20267" lon="-3.03361">
        <ele>173</ele>
        <time>2015-10-12T10:12:11.1Z</time>
      </trkpt>
      <trkpt lat="48.20267" lon="-3.03361">
        <ele>173</ele>
        <time>2015-10-12T10:12:14.1Z</time>
      </trkpt>
      <trkpt lat="48.20267" lon="-3.03363">
        <ele>172</ele>
        <time>2015-10-12T10:12:17.1Z</time>
      </trkpt>
      <trkpt lat="48.20268" lon="-3.03362">
        <ele>173</ele>
        <time>2015-10-12T10:12:19.1Z</time>
      </trkpt>
      <trkpt lat="48.20268" lon="-3.03362">
        <ele>173</ele>
        <time>2015-10-12T10:12:21.1Z</time>
      </trkpt>
      <trkpt lat="48.20268" lon="-3.03364">
        <ele>173</ele>
        <time>2015-10-12T10:12:24.1Z</time>
      </trkpt>
      <trkpt lat="48.20267" lon="-3.03366">
        <ele>173</ele>
        <time>2015-10-12T10:12:27.1Z</time>
      </trkpt>
      <trkpt lat="48.20268" lon="-3.03368">
        <ele>173</ele>
        <time>2015-10-12T10:12:30.1Z</time>
      </trkpt>
      <trkpt lat="48.20269" lon="-3.0337">
        <ele>173</ele>
        <time>2015-10-12T10:12:33.1Z</time>
      </trkpt>
      <trkpt lat="48.2027" lon="-3.03372">
        <ele>172</ele>
        <time>2015-10-12T10:12:36.1Z</time>
      </trkpt>
      <trkpt lat="48.20272" lon="-3.03374">
        <ele>171</ele>
        <time>2015-10-12T10:12:39.1Z</time>
      </trkpt>
      <trkpt lat="48.20273" lon="-3.03375">
        <ele>170</ele>
        <time>2015-10-12T10:12:41.1Z</time>
      </trkpt>
      <trkpt lat="48.20275" lon="-3.03376">
        <ele>170</ele>
        <time>2015-10-12T10:12:44.1Z</time>
      </trkpt>
      <trkpt lat="48.20276" lon="-3.03377">
        <ele>170</ele>
        <time>2015-10-12T10:12:47.1Z</time>
      </trkpt>
      <trkpt lat="48.20277" lon="-3.0338">
        <ele>170</ele>
        <time>2015-10-12T10:12:50.1Z</time>
      </trkpt>
      <trkpt lat="48.20278" lon="-3.03382">
        <ele>169</ele>
        <time>2015-10-12T10:12:53.1Z</time>
      </trkpt>
      <trkpt lat="48.20279" lon="-3.03383">
        <ele>169</ele>
        <time>2015-10-12T10:12:55.1Z</time>
      </trkpt>
      <trkpt lat="48.2028" lon="-3.03385">
        <ele>168</ele>
        <time>2015-10-12T10:12:57.1Z</time>
      </trkpt>
      <trkpt lat="48.2028" lon="-3.03387">
        <ele>168</ele>
        <time>2015-10-12T10:13:00.1Z</time>
      </trkpt>
      <trkpt lat="48.20281" lon="-3.0339">
        <ele>167</ele>
        <time>2015-10-12T10:13:03.1Z</time>
      </trkpt>
      <trkpt lat="48.20282" lon="-3.03392">
        <ele>167</ele>
        <time>2015-10-12T10:13:06.1Z</time>
      </trkpt>
      <trkpt lat="48.20283" lon="-3.03394">
        <ele>166</ele>
        <time>2015-10-12T10:13:09.1Z</time>
      </trkpt>
      <trkpt lat="48.20283" lon="-3.03396">
        <ele>166</ele>
        <time>2015-10-12T10:13:11.1Z</time>
      </trkpt>
      <trkpt lat="48.20283" lon="-3.03398">
        <ele>166</ele>
        <time>2015-10-12T10:13:13.1Z</time>
      </trkpt>
      <trkpt lat="48.20285" lon="-3.03401">
        <ele>165</ele>
        <time>2015-10-12T10:13:16.1Z</time>
      </trkpt>
      <trkpt lat="48.20286" lon="-3.03402">
        <ele>165</ele>
        <time>2015-10-12T10:13:19.1Z</time>
      </trkpt>
      <trkpt lat="48.20287" lon="-3.03404">
        <ele>164</ele>
        <time>2015-10-12T10:13:22.1Z</time>
      </trkpt>
      <trkpt lat="48.20288" lon="-3.03404">
        <ele>164</ele>
        <time>2015-10-12T10:13:25.1Z</time>
      </trkpt>
      <trkpt lat="48.20289" lon="-3.03404">
        <ele>164</ele>
        <time>2015-10-12T10:13:28.1Z</time>
      </trkpt>
      <trkpt lat="48.2029" lon="-3.03405">
        <ele>163</ele>
        <time>2015-10-12T10:13:30.1Z</time>
      </trkpt>
      <trkpt lat="48.2029" lon="-3.03406">
        <ele>163</ele>
        <time>2015-10-12T10:13:33.1Z</time>
      </trkpt>
      <trkpt lat="48.2029" lon="-3.03407">
        <ele>163</ele>
        <time>2015-10-12T10:13:35.1Z</time>
      </trkpt>
      <trkpt lat="48.20293" lon="-3.03405">
        <ele>163</ele>
        <time>2015-10-12T10:13:38.1Z</time>
      </trkpt>
      <trkpt lat="48.20295" lon="-3.03404">
        <ele>163</ele>
        <time>2015-10-12T10:13:40.1Z</time>
      </trkpt>
      <trkpt lat="48.20296" lon="-3.03403">
        <ele>163</ele>
        <time>2015-10-12T10:13:42.1Z</time>
      </trkpt>
      <trkpt lat="48.20297" lon="-3.03403">
        <ele>163</ele>
        <time>2015-10-12T10:13:45.1Z</time>
      </trkpt>
      <trkpt lat="48.20298" lon="-3.03403">
        <ele>163</ele>
        <time>2015-10-12T10:13:48.1Z</time>
      </trkpt>
      <trkpt lat="48.20298" lon="-3.03403">
        <ele>163</ele>
        <time>2015-10-12T10:13:50.1Z</time>
      </trkpt>
      <trkpt lat="48.20298" lon="-3.03403">
        <ele>163</ele>
        <time>2015-10-12T10:13:52.1Z</time>
      </trkpt>
      <trkpt lat="48.20299" lon="-3.03403">
        <ele>163</ele>
        <time>2015-10-12T10:13:54.1Z</time>
      </trkpt>
      <trkpt lat="48.203" lon="-3.03402">
        <ele>163</ele>
        <time>2015-10-12T10:13:57.1Z</time>
      </trkpt>
      <trkpt lat="48.203" lon="-3.03403">
        <ele>163</ele>
        <time>2015-10-12T10:13:59.1Z</time>
      </trkpt>
      <trkpt lat="48.203" lon="-3.03403">
        <ele>163</ele>
        <time>2015-10-12T10:14:02.1Z</time>
      </trkpt>
      <trkpt lat="48.20299" lon="-3.03403">
        <ele>163</ele>
        <time>2015-10-12T10:14:04.1Z</time>
      </trkpt>
      <trkpt lat="48.203" lon="-3.03403">
        <ele>162</ele>
        <time>2015-10-12T10:14:06.1Z</time>
      </trkpt>
      <trkpt lat="48.203" lon="-3.03402">
        <ele>163</ele>
        <time>2015-10-12T10:14:08.1Z</time>
      </trkpt>
      <trkpt lat="48.203" lon="-3.03402">
        <ele>163</ele>
        <time>2015-10-12T10:14:12.1Z</time>
      </trkpt>
      <trkpt lat="48.203" lon="-3.03402">
        <ele>163</ele>
        <time>2015-10-12T10:14:15.1Z</time>
      </trkpt>
      <trkpt lat="48.20299" lon="-3.03402">
        <ele>163</ele>
        <time>2015-10-12T10:14:17.1Z</time>
      </trkpt>
      <trkpt lat="48.20299" lon="-3.03402">
        <ele>163</ele>
        <time>2015-10-12T10:14:19.1Z</time>
      </trkpt>
      <trkpt lat="48.20298" lon="-3.03402">
        <ele>163</ele>
        <time>2015-10-12T10:14:22.1Z</time>
      </trkpt>
      <trkpt lat="48.20298" lon="-3.03402">
        <ele>163</ele>
        <time>2015-10-12T10:14:25.1Z</time>
      </trkpt>
      <trkpt lat="48.20297" lon="-3.03402">
        <ele>163</ele>
        <time>2015-10-12T10:14:28.1Z</time>
      </trkpt>
      <trkpt lat="48.20297" lon="-3.03402">
        <ele>162</ele>
        <time>2015-10-12T10:14:30.1Z</time>
      </trkpt>
      <trkpt lat="48.20296" lon="-3.03402">
        <ele>163</ele>
        <time>2015-10-12T10:14:32.1Z</time>
      </trkpt>
      <trkpt lat="48.20296" lon="-3.03402">
        <ele>163</ele>
        <time>2015-10-12T10:14:35.1Z</time>
      </trkpt>
      <trkpt lat="48.20295" lon="-3.03402">
        <ele>163</ele>
        <time>2015-10-12T10:14:37.1Z</time>
      </trkpt>
      <trkpt lat="48.20295" lon="-3.03403">
        <ele>163</ele>
        <time>2015-10-12T10:14:39.1Z</time>
      </trkpt>
      <trkpt lat="48.20294" lon="-3.03403">
        <ele>163</ele>
        <time>2015-10-12T10:14:42.1Z</time>
      </trkpt>
      <trkpt lat="48.20294" lon="-3.03404">
        <ele>163</ele>
        <time>2015-10-12T10:14:45.1Z</time>
      </trkpt>
      <trkpt lat="48.20294" lon="-3.03403">
        <ele>163</ele>
        <time>2015-10-12T10:14:47.1Z</time>
      </trkpt>
      <trkpt lat="48.20294" lon="-3.03403">
        <ele>163</ele>
        <time>2015-10-12T10:14:50.1Z</time>
      </trkpt>
      <trkpt lat="48.20293" lon="-3.03403">
        <ele>163</ele>
        <time>2015-10-12T10:14:53.1Z</time>
      </trkpt>
      <trkpt lat="48.20294" lon="-3.03403">
        <ele>163</ele>
        <time>2015-10-12T10:14:56.1Z</time>
      </trkpt>
      <trkpt lat="48.20294" lon="-3.03403">
        <ele>163</ele>
        <time>2015-10-12T10:14:59.1Z</time>
      </trkpt>
      <trkpt lat="48.20294" lon="-3.03404">
        <ele>163</ele>
        <time>2015-10-12T10:15:02.1Z</time>
      </trkpt>
      <trkpt lat="48.20294" lon="-3.03404">
        <ele>163</ele>
        <time>2015-10-12T10:15:05.1Z</time>
      </trkpt>
      <trkpt lat="48.20295" lon="-3.03404">
        <ele>164</ele>
        <time>2015-10-12T10:15:07.1Z</time>
      </trkpt>
      <trkpt lat="48.20295" lon="-3.03403">
        <ele>164</ele>
        <time>2015-10-12T10:15:09.1Z</time>
      </trkpt>
      <trkpt lat="48.20296" lon="-3.03403">
        <ele>164</ele>
        <time>2015-10-12T10:15:13.1Z</time>
      </trkpt>
      <trkpt lat="48.20297" lon="-3.03403">
        <ele>163</ele>
        <time>2015-10-12T10:15:15.1Z</time>
      </trkpt>
      <trkpt lat="48.20296" lon="-3.03404">
        <ele>163</ele>
        <time>2015-10-12T10:15:18.1Z</time>
      </trkpt>
      <trkpt lat="48.20297" lon="-3.03404">
        <ele>163</ele>
        <time>2015-10-12T10:15:20.1Z</time>
      </trkpt>
      <trkpt lat="48.20297" lon="-3.03403">
        <ele>163</ele>
        <time>2015-10-12T10:15:22.1Z</time>
      </trkpt>
      <trkpt lat="48.20297" lon="-3.03405">
        <ele>163</ele>
        <time>2015-10-12T10:15:25.1Z</time>
      </trkpt>
      <trkpt lat="48.20298" lon="-3.03406">
        <ele>163</ele>
        <time>2015-10-12T10:15:28.1Z</time>
      </trkpt>
      <trkpt lat="48.20297" lon="-3.03407">
        <ele>163</ele>
        <time>2015-10-12T10:15:30.1Z</time>
      </trkpt>
      <trkpt lat="48.20297" lon="-3.03408">
        <ele>162</ele>
        <time>2015-10-12T10:15:33.1Z</time>
      </trkpt>
      <trkpt lat="48.20298" lon="-3.03408">
        <ele>162</ele>
        <time>2015-10-12T10:15:35.1Z</time>
      </trkpt>
      <trkpt lat="48.20298" lon="-3.03409">
        <ele>162</ele>
        <time>2015-10-12T10:15:37.1Z</time>
      </trkpt>
      <trkpt lat="48.20298" lon="-3.03409">
        <ele>161</ele>
        <time>2015-10-12T10:15:40.1Z</time>
      </trkpt>
      <trkpt lat="48.20298" lon="-3.0341">
        <ele>161</ele>
        <time>2015-10-12T10:15:43.1Z</time>
      </trkpt>
      <trkpt lat="48.20298" lon="-3.0341">
        <ele>160</ele>
        <time>2015-10-12T10:15:45.1Z</time>
      </trkpt>
      <trkpt lat="48.20298" lon="-3.03411">
        <ele>160</ele>
        <time>2015-10-12T10:15:48.1Z</time>
      </trkpt>
      <trkpt lat="48.20298" lon="-3.03411">
        <ele>160</ele>
        <time>2015-10-12T10:15:50.1Z</time>
      </trkpt>
      <trkpt lat="48.20298" lon="-3.03412">
        <ele>160</ele>
        <time>2015-10-12T10:15:52.1Z</time>
      </trkpt>
      <trkpt lat="48.20299" lon="-3.03412">
        <ele>160</ele>
        <time>2015-10-12T10:15:55.1Z</time>
      </trkpt>
      <trkpt lat="48.203" lon="-3.03413">
        <ele>160</ele>
        <time>2015-10-12T10:15:58.1Z</time>
      </trkpt>
      <trkpt lat="48.203" lon="-3.03414">
        <ele>160</ele>
        <time>2015-10-12T10:16:00.1Z</time>
      </trkpt>
      <trkpt lat="48.20301" lon="-3.03415">
        <ele>160</ele>
        <time>2015-10-12T10:16:03.1Z</time>
      </trkpt>
      <trkpt lat="48.20301" lon="-3.03415">
        <ele>159</ele>
        <time>2015-10-12T10:16:05.1Z</time>
      </trkpt>
      <trkpt lat="48.20303" lon="-3.03416">
        <ele>159</ele>
        <time>2015-10-12T10:16:07.1Z</time>
      </trkpt>
      <trkpt lat="48.20304" lon="-3.03418">
        <ele>159</ele>
        <time>2015-10-12T10:16:10.1Z</time>
      </trkpt>
      <trkpt lat="48.20305" lon="-3.03419">
        <ele>158</ele>
        <time>2015-10-12T10:16:13.1Z</time>
      </trkpt>
      <trkpt lat="48.20306" lon="-3.0342">
        <ele>158</ele>
        <time>2015-10-12T10:16:16.1Z</time>
      </trkpt>
      <trkpt lat="48.20308" lon="-3.03421">
        <ele>158</ele>
        <time>2015-10-12T10:16:18.1Z</time>
      </trkpt>
      <trkpt lat="48.20307" lon="-3.03421">
        <ele>158</ele>
        <time>2015-10-12T10:16:20.1Z</time>
      </trkpt>
      <trkpt lat="48.20308" lon="-3.03425">
        <ele>158</ele>
        <time>2015-10-12T10:16:23.1Z</time>
      </trkpt>
      <trkpt lat="48.20308" lon="-3.03428">
        <ele>158</ele>
        <time>2015-10-12T10:16:25.1Z</time>
      </trkpt>
      <trkpt lat="48.2031" lon="-3.03431">
        <ele>157</ele>
        <time>2015-10-12T10:16:28.1Z</time>
      </trkpt>
      <trkpt lat="48.20311" lon="-3.03435">
        <ele>157</ele>
        <time>2015-10-12T10:16:31.1Z</time>
      </trkpt>
      <trkpt lat="48.20313" lon="-3.03437">
        <ele>157</ele>
        <time>2015-10-12T10:16:34.1Z</time>
      </trkpt>
      <trkpt lat="48.20314" lon="-3.03438">
        <ele>157</ele>
        <time>2015-10-12T10:16:36.1Z</time>
      </trkpt>
      <trkpt lat="48.20313" lon="-3.03439">
        <ele>157</ele>
        <time>2015-10-12T10:16:39.1Z</time>
      </trkpt>
      <trkpt lat="48.20313" lon="-3.03439">
        <ele>156</ele>
        <time>2015-10-12T10:16:43.1Z</time>
      </trkpt>
      <trkpt lat="48.20313" lon="-3.03439">
        <ele>156</ele>
        <time>2015-10-12T10:16:46.1Z</time>
      </trkpt>
      <trkpt lat="48.20312" lon="-3.03438">
        <ele>156</ele>
        <time>2015-10-12T10:16:48.1Z</time>
      </trkpt>
      <trkpt lat="48.20312" lon="-3.03437">
        <ele>156</ele>
        <time>2015-10-12T10:16:51.1Z</time>
      </trkpt>
      <trkpt lat="48.20312" lon="-3.03437">
        <ele>156</ele>
        <time>2015-10-12T10:16:53.1Z</time>
      </trkpt>
      <trkpt lat="48.20311" lon="-3.03435">
        <ele>156</ele>
        <time>2015-10-12T10:16:56.1Z</time>
      </trkpt>
      <trkpt lat="48.20311" lon="-3.03433">
        <ele>156</ele>
        <time>2015-10-12T10:16:59.1Z</time>
      </trkpt>
      <trkpt lat="48.20311" lon="-3.03432">
        <ele>156</ele>
        <time>2015-10-12T10:17:02.1Z</time>
      </trkpt>
      <trkpt lat="48.20312" lon="-3.03432">
        <ele>156</ele>
        <time>2015-10-12T10:17:05.1Z</time>
      </trkpt>
      <trkpt lat="48.20313" lon="-3.03433">
        <ele>156</ele>
        <time>2015-10-12T10:17:08.1Z</time>
      </trkpt>
      <trkpt lat="48.20314" lon="-3.03432">
        <ele>156</ele>
        <time>2015-10-12T10:17:10.1Z</time>
      </trkpt>
      <trkpt lat="48.20315" lon="-3.03431">
        <ele>156</ele>
        <time>2015-10-12T10:17:13.1Z</time>
      </trkpt>
      <trkpt lat="48.20315" lon="-3.03431">
        <ele>156</ele>
        <time>2015-10-12T10:17:16.1Z</time>
      </trkpt>
      <trkpt lat="48.20316" lon="-3.03431">
        <ele>156</ele>
        <time>2015-10-12T10:17:18.1Z</time>
      </trkpt>
      <trkpt lat="48.20316" lon="-3.03432">
        <ele>155</ele>
        <time>2015-10-12T10:17:21.1Z</time>
      </trkpt>
      <trkpt lat="48.20316" lon="-3.03432">
        <ele>156</ele>
        <time>2015-10-12T10:17:23.1Z</time>
      </trkpt>
      <trkpt lat="48.20316" lon="-3.03432">
        <ele>156</ele>
        <time>2015-10-12T10:17:26.1Z</time>
      </trkpt>
      <trkpt lat="48.20316" lon="-3.03432">
        <ele>156</ele>
        <time>2015-10-12T10:17:29.1Z</time>
      </trkpt>
      <trkpt lat="48.20316" lon="-3.03432">
        <ele>155</ele>
        <time>2015-10-12T10:17:31.1Z</time>
      </trkpt>
      <trkpt lat="48.20317" lon="-3.03435">
        <ele>155</ele>
        <time>2015-10-12T10:17:34.1Z</time>
      </trkpt>
      <trkpt lat="48.20317" lon="-3.03436">
        <ele>155</ele>
        <time>2015-10-12T10:17:36.1Z</time>
      </trkpt>
      <trkpt lat="48.20318" lon="-3.03439">
        <ele>154</ele>
        <time>2015-10-12T10:17:39.1Z</time>
      </trkpt>
      <trkpt lat="48.20319" lon="-3.03441">
        <ele>154</ele>
        <time>2015-10-12T10:17:42.1Z</time>
      </trkpt>
      <trkpt lat="48.2032" lon="-3.03442">
        <ele>154</ele>
        <time>2015-10-12T10:17:45.1Z</time>
      </trkpt>
      <trkpt lat="48.20321" lon="-3.03443">
        <ele>154</ele>
        <time>2015-10-12T10:17:47.1Z</time>
      </trkpt>
      <trkpt lat="48.20322" lon="-3.03445">
        <ele>153</ele>
        <time>2015-10-12T10:17:50.1Z</time>
      </trkpt>
      <trkpt lat="48.20323" lon="-3.03446">
        <ele>153</ele>
        <time>2015-10-12T10:17:53.1Z</time>
      </trkpt>
      <trkpt lat="48.20324" lon="-3.03447">
        <ele>152</ele>
        <time>2015-10-12T10:17:56.1Z</time>
      </trkpt>
      <trkpt lat="48.20323" lon="-3.03447">
        <ele>152</ele>
        <time>2015-10-12T10:17:58.1Z</time>
      </trkpt>
      <trkpt lat="48.20323" lon="-3.03447">
        <ele>152</ele>
        <time>2015-10-12T10:18:02.1Z</time>
      </trkpt>
      <trkpt lat="48.20323" lon="-3.03447">
        <ele>152</ele>
        <time>2015-10-12T10:18:04.1Z</time>
      </trkpt>
      <trkpt lat="48.20323" lon="-3.03446">
        <ele>153</ele>
        <time>2015-10-12T10:18:07.1Z</time>
      </trkpt>
      <trkpt lat="48.20323" lon="-3.03446">
        <ele>153</ele>
        <time>2015-10-12T10:18:10.1Z</time>
      </trkpt>
      <trkpt lat="48.20323" lon="-3.03446">
        <ele>153</ele>
        <time>2015-10-12T10:18:12.1Z</time>
      </trkpt>
      <trkpt lat="48.20323" lon="-3.03447">
        <ele>152</ele>
        <time>2015-10-12T10:18:15.1Z</time>
      </trkpt>
      <trkpt lat="48.20323" lon="-3.03446">
        <ele>152</ele>
        <time>2015-10-12T10:18:17.1Z</time>
      </trkpt>
      <trkpt lat="48.20324" lon="-3.03446">
        <ele>151</ele>
        <time>2015-10-12T10:18:19.1Z</time>
      </trkpt>
      <trkpt lat="48.20324" lon="-3.03446">
        <ele>151</ele>
        <time>2015-10-12T10:18:22.1Z</time>
      </trkpt>
      <trkpt lat="48.20325" lon="-3.03446">
        <ele>151</ele>
        <time>2015-10-12T10:18:25.1Z</time>
      </trkpt>
      <trkpt lat="48.20326" lon="-3.03448">
        <ele>151</ele>
        <time>2015-10-12T10:18:27.1Z</time>
      </trkpt>
      <trkpt lat="48.20327" lon="-3.0345">
        <ele>151</ele>
        <time>2015-10-12T10:18:30.1Z</time>
      </trkpt>
      <trkpt lat="48.20328" lon="-3.03453">
        <ele>150</ele>
        <time>2015-10-12T10:18:33.1Z</time>
      </trkpt>
      <trkpt lat="48.20329" lon="-3.03455">
        <ele>149</ele>
        <time>2015-10-12T10:18:35.1Z</time>
      </trkpt>
      <trkpt lat="48.2033" lon="-3.03457">
        <ele>149</ele>
        <time>2015-10-12T10:18:38.1Z</time>
      </trkpt>
      <trkpt lat="48.20332" lon="-3.03458">
        <ele>149</ele>
        <time>2015-10-12T10:18:41.1Z</time>
      </trkpt>
      <trkpt lat="48.20332" lon="-3.03459">
        <ele>149</ele>
        <time>2015-10-12T10:18:43.1Z</time>
      </trkpt>
      <trkpt lat="48.20332" lon="-3.0346">
        <ele>149</ele>
        <time>2015-10-12T10:18:45.1Z</time>
      </trkpt>
      <trkpt lat="48.20331" lon="-3.03461">
        <ele>149</ele>
        <time>2015-10-12T10:18:47.1Z</time>
      </trkpt>
      <trkpt lat="48.2033" lon="-3.03462">
        <ele>149</ele>
        <time>2015-10-12T10:18:50.1Z</time>
      </trkpt>
      <trkpt lat="48.20329" lon="-3.03463">
        <ele>149</ele>
        <time>2015-10-12T10:18:53.1Z</time>
      </trkpt>
      <trkpt lat="48.20328" lon="-3.03463">
        <ele>148</ele>
        <time>2015-10-12T10:18:55.1Z</time>
      </trkpt>
      <trkpt lat="48.20327" lon="-3.03464">
        <ele>148</ele>
        <time>2015-10-12T10:18:58.1Z</time>
      </trkpt>
      <trkpt lat="48.20326" lon="-3.03463">
        <ele>147</ele>
        <time>2015-10-12T10:19:00.1Z</time>
      </trkpt>
      <trkpt lat="48.20326" lon="-3.03463">
        <ele>147</ele>
        <time>2015-10-12T10:19:02.1Z</time>
      </trkpt>
      <trkpt lat="48.20326" lon="-3.03462">
        <ele>146</ele>
        <time>2015-10-12T10:19:05.1Z</time>
      </trkpt>
      <trkpt lat="48.20326" lon="-3.03462">
        <ele>146</ele>
        <time>2015-10-12T10:19:08.1Z</time>
      </trkpt>
      <trkpt lat="48.20325" lon="-3.03463">
        <ele>146</ele>
        <time>2015-10-12T10:19:10.1Z</time>
      </trkpt>
      <trkpt lat="48.20325" lon="-3.03462">
        <ele>146</ele>
        <time>2015-10-12T10:19:13.1Z</time>
      </trkpt>
      <trkpt lat="48.20326" lon="-3.03462">
        <ele>146</ele>
        <time>2015-10-12T10:19:16.1Z</time>
      </trkpt>
      <trkpt lat="48.20325" lon="-3.03461">
        <ele>145</ele>
        <time>2015-10-12T10:19:18.1Z</time>
      </trkpt>
      <trkpt lat="48.20324" lon="-3.03461">
        <ele>145</ele>
        <time>2015-10-12T10:19:21.1Z</time>
      </trkpt>
      <trkpt lat="48.20324" lon="-3.0346">
        <ele>144</ele>
        <time>2015-10-12T10:19:24.1Z</time>
      </trkpt>
      <trkpt lat="48.20324" lon="-3.0346">
        <ele>144</ele>
        <time>2015-10-12T10:19:26.1Z</time>
      </trkpt>
      <trkpt lat="48.20324" lon="-3.03461">
        <ele>144</ele>
        <time>2015-10-12T10:19:29.1Z</time>
      </trkpt>
      <trkpt lat="48.20325" lon="-3.03461">
        <ele>144</ele>
        <time>2015-10-12T10:19:31.1Z</time>
      </trkpt>
      <trkpt lat="48.20324" lon="-3.03462">
        <ele>145</ele>
        <time>2015-10-12T10:19:34.1Z</time>
      </trkpt>
      <trkpt lat="48.20324" lon="-3.03461">
        <ele>145</ele>
        <time>2015-10-12T10:19:37.1Z</time>
      </trkpt>
      <trkpt lat="48.20324" lon="-3.03462">
        <ele>144</ele>
        <time>2015-10-12T10:19:39.1Z</time>
      </trkpt>
      <trkpt lat="48.20324" lon="-3.03463">
        <ele>144</ele>
        <time>2015-10-12T10:19:42.1Z</time>
      </trkpt>
      <trkpt lat="48.20324" lon="-3.03463">
        <ele>144</ele>
        <time>2015-10-12T10:19:45.1Z</time>
      </trkpt>
      <trkpt lat="48.20324" lon="-3.03464">
        <ele>144</ele>
        <time>2015-10-12T10:19:48.1Z</time>
      </trkpt>
      <trkpt lat="48.20324" lon="-3.03464">
        <ele>144</ele>
        <time>2015-10-12T10:19:51.1Z</time>
      </trkpt>
      <trkpt lat="48.20324" lon="-3.03465">
        <ele>144</ele>
        <time>2015-10-12T10:19:54.1Z</time>
      </trkpt>
      <trkpt lat="48.20325" lon="-3.03465">
        <ele>144</ele>
        <time>2015-10-12T10:19:56.1Z</time>
      </trkpt>
      <trkpt lat="48.20325" lon="-3.03465">
        <ele>144</ele>
        <time>2015-10-12T10:19:58.1Z</time>
      </trkpt>
      <trkpt lat="48.20324" lon="-3.03466">
        <ele>144</ele>
        <time>2015-10-12T10:20:01.1Z</time>
      </trkpt>
      <trkpt lat="48.20324" lon="-3.03466">
        <ele>144</ele>
        <time>2015-10-12T10:20:03.1Z</time>
      </trkpt>
      <trkpt lat="48.20324" lon="-3.03466">
        <ele>144</ele>
        <time>2015-10-12T10:20:06.1Z</time>
      </trkpt>
      <trkpt lat="48.20324" lon="-3.03466">
        <ele>144</ele>
        <time>2015-10-12T10:20:09.1Z</time>
      </trkpt>
      <trkpt lat="48.20325" lon="-3.03466">
        <ele>144</ele>
        <time>2015-10-12T10:20:15.1Z</time>
      </trkpt>
      <trkpt lat="48.20325" lon="-3.03466">
        <ele>144</ele>
        <time>2015-10-12T10:20:17.1Z</time>
      </trkpt>
      <trkpt lat="48.20325" lon="-3.03465">
        <ele>144</ele>
        <time>2015-10-12T10:20:20.1Z</time>
      </trkpt>
      <trkpt lat="48.20325" lon="-3.03465">
        <ele>144</ele>
        <time>2015-10-12T10:20:22.1Z</time>
      </trkpt>
      <trkpt lat="48.20325" lon="-3.03466">
        <ele>144</ele>
        <time>2015-10-12T10:20:25.1Z</time>
      </trkpt>
      <trkpt lat="48.20325" lon="-3.03467">
        <ele>144</ele>
        <time>2015-10-12T10:20:27.1Z</time>
      </trkpt>
      <trkpt lat="48.20325" lon="-3.03468">
        <ele>144</ele>
        <time>2015-10-12T10:20:29.1Z</time>
      </trkpt>
      <trkpt lat="48.20324" lon="-3.03468">
        <ele>144</ele>
        <time>2015-10-12T10:20:31.1Z</time>
      </trkpt>
      <trkpt lat="48.20324" lon="-3.03469">
        <ele>144</ele>
        <time>2015-10-12T10:20:33.1Z</time>
      </trkpt>
      <trkpt lat="48.20324" lon="-3.0347">
        <ele>144</ele>
        <time>2015-10-12T10:20:36.1Z</time>
      </trkpt>
      <trkpt lat="48.20325" lon="-3.0347">
        <ele>144</ele>
        <time>2015-10-12T10:20:39.1Z</time>
      </trkpt>
      <trkpt lat="48.20325" lon="-3.0347">
        <ele>144</ele>
        <time>2015-10-12T10:20:42.1Z</time>
      </trkpt>
      <trkpt lat="48.20325" lon="-3.0347">
        <ele>144</ele>
        <time>2015-10-12T10:20:45.1Z</time>
      </trkpt>
      <trkpt lat="48.20325" lon="-3.0347">
        <ele>144</ele>
        <time>2015-10-12T10:20:47.1Z</time>
      </trkpt>
      <trkpt lat="48.20324" lon="-3.0347">
        <ele>143</ele>
        <time>2015-10-12T10:20:50.1Z</time>
      </trkpt>
      <trkpt lat="48.20324" lon="-3.03471">
        <ele>144</ele>
        <time>2015-10-12T10:20:53.1Z</time>
      </trkpt>
      <trkpt lat="48.20324" lon="-3.03471">
        <ele>143</ele>
        <time>2015-10-12T10:20:56.1Z</time>
      </trkpt>
      <trkpt lat="48.20324" lon="-3.03471">
        <ele>143</ele>
        <time>2015-10-12T10:20:58.1Z</time>
      </trkpt>
      <trkpt lat="48.20324" lon="-3.03471">
        <ele>143</ele>
        <time>2015-10-12T10:21:01.1Z</time>
      </trkpt>
      <trkpt lat="48.20324" lon="-3.0347">
        <ele>144</ele>
        <time>2015-10-12T10:21:04.1Z</time>
      </trkpt>
      <trkpt lat="48.20324" lon="-3.03471">
        <ele>144</ele>
        <time>2015-10-12T10:21:08.1Z</time>
      </trkpt>
      <trkpt lat="48.20324" lon="-3.03471">
        <ele>144</ele>
        <time>2015-10-12T10:21:10.1Z</time>
      </trkpt>
      <trkpt lat="48.20324" lon="-3.03471">
        <ele>144</ele>
        <time>2015-10-12T10:21:13.1Z</time>
      </trkpt>
      <trkpt lat="48.20324" lon="-3.03472">
        <ele>145</ele>
        <time>2015-10-12T10:21:16.1Z</time>
      </trkpt>
      <trkpt lat="48.20323" lon="-3.03472">
        <ele>145</ele>
        <time>2015-10-12T10:21:18.1Z</time>
      </trkpt>
      <trkpt lat="48.20324" lon="-3.03472">
        <ele>145</ele>
        <time>2015-10-12T10:21:20.1Z</time>
      </trkpt>
      <trkpt lat="48.20324" lon="-3.03472">
        <ele>144</ele>
        <time>2015-10-12T10:21:23.1Z</time>
      </trkpt>
      <trkpt lat="48.20324" lon="-3.03471">
        <ele>144</ele>
        <time>2015-10-12T10:21:26.1Z</time>
      </trkpt>
      <trkpt lat="48.20324" lon="-3.0347">
        <ele>144</ele>
        <time>2015-10-12T10:21:28.1Z</time>
      </trkpt>
      <trkpt lat="48.20324" lon="-3.0347">
        <ele>144</ele>
        <time>2015-10-12T10:21:31.1Z</time>
      </trkpt>
      <trkpt lat="48.20325" lon="-3.0347">
        <ele>144</ele>
        <time>2015-10-12T10:21:35.1Z</time>
      </trkpt>
      <trkpt lat="48.20325" lon="-3.03469">
        <ele>144</ele>
        <time>2015-10-12T10:21:38.1Z</time>
      </trkpt>
      <trkpt lat="48.20325" lon="-3.03469">
        <ele>144</ele>
        <time>2015-10-12T10:21:40.1Z</time>
      </trkpt>
      <trkpt lat="48.20325" lon="-3.03469">
        <ele>144</ele>
        <time>2015-10-12T10:21:42.1Z</time>
      </trkpt>
      <trkpt lat="48.20325" lon="-3.03468">
        <ele>144</ele>
        <time>2015-10-12T10:21:44.1Z</time>
      </trkpt>
      <trkpt lat="48.20325" lon="-3.03468">
        <ele>144</ele>
        <time>2015-10-12T10:21:46.1Z</time>
      </trkpt>
      <trkpt lat="48.20326" lon="-3.03468">
        <ele>144</ele>
        <time>2015-10-12T10:21:49.1Z</time>
      </trkpt>
      <trkpt lat="48.20326" lon="-3.03467">
        <ele>144</ele>
        <time>2015-10-12T10:21:51.1Z</time>
      </trkpt>
      <trkpt lat="48.20326" lon="-3.03467">
        <ele>144</ele>
        <time>2015-10-12T10:21:54.1Z</time>
      </trkpt>
      <trkpt lat="48.20326" lon="-3.03467">
        <ele>144</ele>
        <time>2015-10-12T10:21:57.1Z</time>
      </trkpt>
      <trkpt lat="48.20326" lon="-3.03466">
        <ele>144</ele>
        <time>2015-10-12T10:21:59.1Z</time>
      </trkpt>
      <trkpt lat="48.20326" lon="-3.03466">
        <ele>144</ele>
        <time>2015-10-12T10:22:02.1Z</time>
      </trkpt>
      <trkpt lat="48.20327" lon="-3.03465">
        <ele>144</ele>
        <time>2015-10-12T10:22:04.1Z</time>
      </trkpt>
      <trkpt lat="48.20327" lon="-3.03465">
        <ele>144</ele>
        <time>2015-10-12T10:22:07.1Z</time>
      </trkpt>
      <trkpt lat="48.20327" lon="-3.03464">
        <ele>144</ele>
        <time>2015-10-12T10:22:10.1Z</time>
      </trkpt>
      <trkpt lat="48.20327" lon="-3.03464">
        <ele>144</ele>
        <time>2015-10-12T10:22:14.1Z</time>
      </trkpt>
      <trkpt lat="48.20327" lon="-3.03464">
        <ele>144</ele>
        <time>2015-10-12T10:22:17.1Z</time>
      </trkpt>
      <trkpt lat="48.20327" lon="-3.03464">
        <ele>144</ele>
        <time>2015-10-12T10:22:19.1Z</time>
      </trkpt>
      <trkpt lat="48.20327" lon="-3.03464">
        <ele>143</ele>
        <time>2015-10-12T10:22:23.1Z</time>
      </trkpt>
      <trkpt lat="48.20327" lon="-3.03465">
        <ele>143</ele>
        <time>2015-10-12T10:22:25.1Z</time>
      </trkpt>
      <trkpt lat="48.20326" lon="-3.03465">
        <ele>143</ele>
        <time>2015-10-12T10:22:27.1Z</time>
      </trkpt>
      <trkpt lat="48.20326" lon="-3.03465">
        <ele>143</ele>
        <time>2015-10-12T10:22:29.1Z</time>
      </trkpt>
      <trkpt lat="48.20326" lon="-3.03465">
        <ele>143</ele>
        <time>2015-10-12T10:22:32.1Z</time>
      </trkpt>
      <trkpt lat="48.20326" lon="-3.03465">
        <ele>144</ele>
        <time>2015-10-12T10:22:35.1Z</time>
      </trkpt>
      <trkpt lat="48.20326" lon="-3.03465">
        <ele>144</ele>
        <time>2015-10-12T10:22:39.1Z</time>
      </trkpt>
      <trkpt lat="48.20326" lon="-3.03465">
        <ele>144</ele>
        <time>2015-10-12T10:22:45.1Z</time>
      </trkpt>
      <trkpt lat="48.20326" lon="-3.03465">
        <ele>144</ele>
        <time>2015-10-12T10:22:47.1Z</time>
      </trkpt>
      <trkpt lat="48.20325" lon="-3.03466">
        <ele>144</ele>
        <time>2015-10-12T10:22:51.1Z</time>
      </trkpt>
      <trkpt lat="48.20326" lon="-3.03465">
        <ele>144</ele>
        <time>2015-10-12T10:22:56.1Z</time>
      </trkpt>
      <trkpt lat="48.20325" lon="-3.03465">
        <ele>144</ele>
        <time>2015-10-12T10:22:58.1Z</time>
      </trkpt>
      <trkpt lat="48.20326" lon="-3.03465">
        <ele>144</ele>
        <time>2015-10-12T10:23:01.1Z</time>
      </trkpt>
      <trkpt lat="48.20326" lon="-3.03464">
        <ele>144</ele>
        <time>2015-10-12T10:23:05.1Z</time>
      </trkpt>
      <trkpt lat="48.20326" lon="-3.03464">
        <ele>144</ele>
        <time>2015-10-12T10:23:08.1Z</time>
      </trkpt>
      <trkpt lat="48.20326" lon="-3.03465">
        <ele>144</ele>
        <time>2015-10-12T10:23:10.1Z</time>
      </trkpt>
      <trkpt lat="48.20327" lon="-3.03465">
        <ele>145</ele>
        <time>2015-10-12T10:23:13.1Z</time>
      </trkpt>
      <trkpt lat="48.20327" lon="-3.03465">
        <ele>145</ele>
        <time>2015-10-12T10:23:16.1Z</time>
      </trkpt>
      <trkpt lat="48.20326" lon="-3.03466">
        <ele>145</ele>
        <time>2015-10-12T10:23:18.1Z</time>
      </trkpt>
      <trkpt lat="48.20325" lon="-3.03467">
        <ele>144</ele>
        <time>2015-10-12T10:23:21.1Z</time>
      </trkpt>
      <trkpt lat="48.20325" lon="-3.03467">
        <ele>144</ele>
        <time>2015-10-12T10:23:23.1Z</time>
      </trkpt>
      <trkpt lat="48.20324" lon="-3.03467">
        <ele>144</ele>
        <time>2015-10-12T10:23:27.1Z</time>
      </trkpt>
      <trkpt lat="48.20324" lon="-3.03467">
        <ele>144</ele>
        <time>2015-10-12T10:23:29.1Z</time>
      </trkpt>
      <trkpt lat="48.20324" lon="-3.03468">
        <ele>144</ele>
        <time>2015-10-12T10:23:31.1Z</time>
      </trkpt>
      <trkpt lat="48.20324" lon="-3.03469">
        <ele>144</ele>
        <time>2015-10-12T10:23:33.1Z</time>
      </trkpt>
      <trkpt lat="48.20323" lon="-3.0347">
        <ele>144</ele>
        <time>2015-10-12T10:23:36.1Z</time>
      </trkpt>
      <trkpt lat="48.20322" lon="-3.03471">
        <ele>143</ele>
        <time>2015-10-12T10:23:38.1Z</time>
      </trkpt>
      <trkpt lat="48.20322" lon="-3.03472">
        <ele>142</ele>
        <time>2015-10-12T10:23:40.1Z</time>
      </trkpt>
      <trkpt lat="48.20321" lon="-3.03472">
        <ele>141</ele>
        <time>2015-10-12T10:23:43.1Z</time>
      </trkpt>
      <trkpt lat="48.20321" lon="-3.03472">
        <ele>141</ele>
        <time>2015-10-12T10:23:46.1Z</time>
      </trkpt>
      <trkpt lat="48.2032" lon="-3.03473">
        <ele>141</ele>
        <time>2015-10-12T10:23:48.1Z</time>
      </trkpt>
      <trkpt lat="48.2032" lon="-3.03474">
        <ele>140</ele>
        <time>2015-10-12T10:23:51.1Z</time>
      </trkpt>
      <trkpt lat="48.2032" lon="-3.03475">
        <ele>140</ele>
        <time>2015-10-12T10:23:54.1Z</time>
      </trkpt>
      <trkpt lat="48.20319" lon="-3.03476">
        <ele>139</ele>
        <time>2015-10-12T10:23:56.1Z</time>
      </trkpt>
      <trkpt lat="48.20319" lon="-3.03476">
        <ele>139</ele>
        <time>2015-10-12T10:23:59.1Z</time>
      </trkpt>
      <trkpt lat="48.20319" lon="-3.03477">
        <ele>138</ele>
        <time>2015-10-12T10:24:01.1Z</time>
      </trkpt>
      <trkpt lat="48.20318" lon="-3.03477">
        <ele>138</ele>
        <time>2015-10-12T10:24:04.1Z</time>
      </trkpt>
      <trkpt lat="48.20317" lon="-3.03478">
        <ele>137</ele>
        <time>2015-10-12T10:24:06.1Z</time>
      </trkpt>
      <trkpt lat="48.20316" lon="-3.03478">
        <ele>137</ele>
        <time>2015-10-12T10:24:09.1Z</time>
      </trkpt>
      <trkpt lat="48.20316" lon="-3.03479">
        <ele>137</ele>
        <time>2015-10-12T10:24:11.1Z</time>
      </trkpt>
      <trkpt lat="48.20315" lon="-3.03479">
        <ele>137</ele>
        <time>2015-10-12T10:24:14.1Z</time>
      </trkpt>
      <trkpt lat="48.20314" lon="-3.03479">
        <ele>137</ele>
        <time>2015-10-12T10:24:17.1Z</time>
      </trkpt>
      <trkpt lat="48.20314" lon="-3.03481">
        <ele>136</ele>
        <time>2015-10-12T10:24:19.1Z</time>
      </trkpt>
      <trkpt lat="48.20314" lon="-3.03481">
        <ele>136</ele>
        <time>2015-10-12T10:24:24.1Z</time>
      </trkpt>
      <trkpt lat="48.20313" lon="-3.03482">
        <ele>136</ele>
        <time>2015-10-12T10:24:26.1Z</time>
      </trkpt>
      <trkpt lat="48.20313" lon="-3.03481">
        <ele>136</ele>
        <time>2015-10-12T10:24:28.1Z</time>
      </trkpt>
      <trkpt lat="48.20313" lon="-3.03481">
        <ele>136</ele>
        <time>2015-10-12T10:24:31.1Z</time>
      </trkpt>
      <trkpt lat="48.20313" lon="-3.0348">
        <ele>135</ele>
        <time>2015-10-12T10:24:33.1Z</time>
      </trkpt>
      <trkpt lat="48.20312" lon="-3.0348">
        <ele>135</ele>
        <time>2015-10-12T10:24:36.1Z</time>
      </trkpt>
      <trkpt lat="48.2031" lon="-3.03481">
        <ele>135</ele>
        <time>2015-10-12T10:24:38.1Z</time>
      </trkpt>
      <trkpt lat="48.20309" lon="-3.03482">
        <ele>134</ele>
        <time>2015-10-12T10:24:41.1Z</time>
      </trkpt>
      <trkpt lat="48.20308" lon="-3.03484">
        <ele>134</ele>
        <time>2015-10-12T10:24:45.1Z</time>
      </trkpt>
      <trkpt lat="48.20307" lon="-3.03486">
        <ele>133</ele>
        <time>2015-10-12T10:24:47.1Z</time>
      </trkpt>
      <trkpt lat="48.20307" lon="-3.03486">
        <ele>133</ele>
        <time>2015-10-12T10:24:50.1Z</time>
      </trkpt>
      <trkpt lat="48.20307" lon="-3.03486">
        <ele>133</ele>
        <time>2015-10-12T10:24:52.1Z</time>
      </trkpt>
      <trkpt lat="48.20307" lon="-3.03487">
        <ele>133</ele>
        <time>2015-10-12T10:24:54.1Z</time>
      </trkpt>
      <trkpt lat="48.20306" lon="-3.03488">
        <ele>133</ele>
        <time>2015-10-12T10:24:56.1Z</time>
      </trkpt>
      <trkpt lat="48.20306" lon="-3.03488">
        <ele>133</ele>
        <time>2015-10-12T10:24:59.1Z</time>
      </trkpt>
      <trkpt lat="48.20306" lon="-3.03488">
        <ele>134</ele>
        <time>2015-10-12T10:25:01.1Z</time>
      </trkpt>
      <trkpt lat="48.20306" lon="-3.03489">
        <ele>133</ele>
        <time>2015-10-12T10:25:05.1Z</time>
      </trkpt>
      <trkpt lat="48.20306" lon="-3.03489">
        <ele>134</ele>
        <time>2015-10-12T10:25:07.1Z</time>
      </trkpt>
      <trkpt lat="48.20306" lon="-3.0349">
        <ele>133</ele>
        <time>2015-10-12T10:25:09.1Z</time>
      </trkpt>
      <trkpt lat="48.20305" lon="-3.03491">
        <ele>133</ele>
        <time>2015-10-12T10:25:11.1Z</time>
      </trkpt>
      <trkpt lat="48.20305" lon="-3.03491">
        <ele>133</ele>
        <time>2015-10-12T10:25:13.1Z</time>
      </trkpt>
      <trkpt lat="48.20305" lon="-3.0349">
        <ele>133</ele>
        <time>2015-10-12T10:25:16.1Z</time>
      </trkpt>
      <trkpt lat="48.20304" lon="-3.0349">
        <ele>133</ele>
        <time>2015-10-12T10:25:20.1Z</time>
      </trkpt>
      <trkpt lat="48.20305" lon="-3.03489">
        <ele>133</ele>
        <time>2015-10-12T10:25:23.1Z</time>
      </trkpt>
      <trkpt lat="48.20305" lon="-3.03489">
        <ele>133</ele>
        <time>2015-10-12T10:25:25.1Z</time>
      </trkpt>
      <trkpt lat="48.20305" lon="-3.03488">
        <ele>133</ele>
        <time>2015-10-12T10:25:28.1Z</time>
      </trkpt>
      <trkpt lat="48.20305" lon="-3.03488">
        <ele>133</ele>
        <time>2015-10-12T10:25:31.1Z</time>
      </trkpt>
      <trkpt lat="48.20305" lon="-3.03488">
        <ele>133</ele>
        <time>2015-10-12T10:25:34.1Z</time>
      </trkpt>
      <trkpt lat="48.20306" lon="-3.03489">
        <ele>133</ele>
        <time>2015-10-12T10:25:36.1Z</time>
      </trkpt>
      <trkpt lat="48.20306" lon="-3.03489">
        <ele>134</ele>
        <time>2015-10-12T10:25:39.1Z</time>
      </trkpt>
      <trkpt lat="48.20306" lon="-3.03489">
        <ele>134</ele>
        <time>2015-10-12T10:25:41.1Z</time>
      </trkpt>
      <trkpt lat="48.20306" lon="-3.03489">
        <ele>134</ele>
        <time>2015-10-12T10:25:44.1Z</time>
      </trkpt>
      <trkpt lat="48.20306" lon="-3.03491">
        <ele>134</ele>
        <time>2015-10-12T10:25:46.1Z</time>
      </trkpt>
      <trkpt lat="48.20305" lon="-3.03493">
        <ele>134</ele>
        <time>2015-10-12T10:25:48.1Z</time>
      </trkpt>
      <trkpt lat="48.20304" lon="-3.03495">
        <ele>133</ele>
        <time>2015-10-12T10:25:51.1Z</time>
      </trkpt>
      <trkpt lat="48.20303" lon="-3.03499">
        <ele>132</ele>
        <time>2015-10-12T10:25:53.1Z</time>
      </trkpt>
      <trkpt lat="48.20302" lon="-3.03501">
        <ele>132</ele>
        <time>2015-10-12T10:25:55.1Z</time>
      </trkpt>
      <trkpt lat="48.20301" lon="-3.03502">
        <ele>131</ele>
        <time>2015-10-12T10:25:58.1Z</time>
      </trkpt>
      <trkpt lat="48.203" lon="-3.03503">
        <ele>131</ele>
        <time>2015-10-12T10:26:00.1Z</time>
      </trkpt>
      <trkpt lat="48.20299" lon="-3.03507">
        <ele>130</ele>
        <time>2015-10-12T10:26:02.1Z</time>
      </trkpt>
      <trkpt lat="48.20301" lon="-3.03507">
        <ele>129</ele>
        <time>2015-10-12T10:26:05.1Z</time>
      </trkpt>
      <trkpt lat="48.20302" lon="-3.03508">
        <ele>129</ele>
        <time>2015-10-12T10:26:07.1Z</time>
      </trkpt>
      <trkpt lat="48.20305" lon="-3.0351">
        <ele>129</ele>
        <time>2015-10-12T10:26:11.1Z</time>
      </trkpt>
      <trkpt lat="48.20307" lon="-3.03512">
        <ele>129</ele>
        <time>2015-10-12T10:26:13.1Z</time>
      </trkpt>
      <trkpt lat="48.20309" lon="-3.03514">
        <ele>129</ele>
        <time>2015-10-12T10:26:15.1Z</time>
      </trkpt>
      <trkpt lat="48.20311" lon="-3.03516">
        <ele>129</ele>
        <time>2015-10-12T10:26:17.1Z</time>
      </trkpt>
      <trkpt lat="48.20314" lon="-3.03518">
        <ele>129</ele>
        <time>2015-10-12T10:26:20.1Z</time>
      </trkpt>
      <trkpt lat="48.20316" lon="-3.0352">
        <ele>129</ele>
        <time>2015-10-12T10:26:22.1Z</time>
      </trkpt>
      <trkpt lat="48.20319" lon="-3.03522">
        <ele>129</ele>
        <time>2015-10-12T10:26:25.1Z</time>
      </trkpt>
      <trkpt lat="48.20322" lon="-3.03524">
        <ele>129</ele>
        <time>2015-10-12T10:26:28.1Z</time>
      </trkpt>
      <trkpt lat="48.20325" lon="-3.03527">
        <ele>129</ele>
        <time>2015-10-12T10:26:31.1Z</time>
      </trkpt>
      <trkpt lat="48.20326" lon="-3.0353">
        <ele>129</ele>
        <time>2015-10-12T10:26:34.1Z</time>
      </trkpt>
      <trkpt lat="48.20327" lon="-3.03532">
        <ele>129</ele>
        <time>2015-10-12T10:26:36.1Z</time>
      </trkpt>
      <trkpt lat="48.2033" lon="-3.03535">
        <ele>129</ele>
        <time>2015-10-12T10:26:40.1Z</time>
      </trkpt>
      <trkpt lat="48.20332" lon="-3.03538">
        <ele>129</ele>
        <time>2015-10-12T10:26:42.1Z</time>
      </trkpt>
      <trkpt lat="48.20334" lon="-3.03541">
        <ele>129</ele>
        <time>2015-10-12T10:26:45.1Z</time>
      </trkpt>
      <trkpt lat="48.20338" lon="-3.03544">
        <ele>129</ele>
        <time>2015-10-12T10:26:47.1Z</time>
      </trkpt>
      <trkpt lat="48.20339" lon="-3.03546">
        <ele>129</ele>
        <time>2015-10-12T10:26:50.1Z</time>
      </trkpt>
      <trkpt lat="48.20343" lon="-3.03549">
        <ele>129</ele>
        <time>2015-10-12T10:26:52.1Z</time>
      </trkpt>
      <trkpt lat="48.20345" lon="-3.03551">
        <ele>129</ele>
        <time>2015-10-12T10:26:55.1Z</time>
      </trkpt>
      <trkpt lat="48.20347" lon="-3.03553">
        <ele>129</ele>
        <time>2015-10-12T10:26:58.1Z</time>
      </trkpt>
      <trkpt lat="48.2035" lon="-3.03555">
        <ele>128</ele>
        <time>2015-10-12T10:27:00.1Z</time>
      </trkpt>
      <trkpt lat="48.20353" lon="-3.03558">
        <ele>128</ele>
        <time>2015-10-12T10:27:03.1Z</time>
      </trkpt>
      <trkpt lat="48.20355" lon="-3.03559">
        <ele>129</ele>
        <time>2015-10-12T10:27:05.1Z</time>
      </trkpt>
      <trkpt lat="48.20357" lon="-3.0356">
        <ele>129</ele>
        <time>2015-10-12T10:27:07.1Z</time>
      </trkpt>
      <trkpt lat="48.2036" lon="-3.03561">
        <ele>128</ele>
        <time>2015-10-12T10:27:11.1Z</time>
      </trkpt>
      <trkpt lat="48.20363" lon="-3.03563">
        <ele>128</ele>
        <time>2015-10-12T10:27:14.1Z</time>
      </trkpt>
      <trkpt lat="48.20365" lon="-3.03565">
        <ele>128</ele>
        <time>2015-10-12T10:27:16.1Z</time>
      </trkpt>
      <trkpt lat="48.20369" lon="-3.03568">
        <ele>128</ele>
        <time>2015-10-12T10:27:18.1Z</time>
      </trkpt>
      <trkpt lat="48.20372" lon="-3.0357">
        <ele>129</ele>
        <time>2015-10-12T10:27:21.1Z</time>
      </trkpt>
      <trkpt lat="48.20374" lon="-3.03572">
        <ele>128</ele>
        <time>2015-10-12T10:27:23.1Z</time>
      </trkpt>
      <trkpt lat="48.20377" lon="-3.03573">
        <ele>129</ele>
        <time>2015-10-12T10:27:26.1Z</time>
      </trkpt>
      <trkpt lat="48.20379" lon="-3.03576">
        <ele>128</ele>
        <time>2015-10-12T10:27:28.1Z</time>
      </trkpt>
      <trkpt lat="48.20382" lon="-3.0358">
        <ele>128</ele>
        <time>2015-10-12T10:27:32.1Z</time>
      </trkpt>
      <trkpt lat="48.20384" lon="-3.03584">
        <ele>128</ele>
        <time>2015-10-12T10:27:34.1Z</time>
      </trkpt>
      <trkpt lat="48.20386" lon="-3.03588">
        <ele>128</ele>
        <time>2015-10-12T10:27:37.1Z</time>
      </trkpt>
      <trkpt lat="48.20388" lon="-3.03591">
        <ele>128</ele>
        <time>2015-10-12T10:27:40.1Z</time>
      </trkpt>
      <trkpt lat="48.2039" lon="-3.03595">
        <ele>128</ele>
        <time>2015-10-12T10:27:43.1Z</time>
      </trkpt>
      <trkpt lat="48.20392" lon="-3.03599">
        <ele>128</ele>
        <time>2015-10-12T10:27:45.1Z</time>
      </trkpt>
      <trkpt lat="48.20393" lon="-3.03603">
        <ele>128</ele>
        <time>2015-10-12T10:27:48.1Z</time>
      </trkpt>
      <trkpt lat="48.20394" lon="-3.03606">
        <ele>128</ele>
        <time>2015-10-12T10:27:51.1Z</time>
      </trkpt>
      <trkpt lat="48.20396" lon="-3.03611">
        <ele>128</ele>
        <time>2015-10-12T10:27:54.1Z</time>
      </trkpt>
      <trkpt lat="48.20398" lon="-3.03615">
        <ele>128</ele>
        <time>2015-10-12T10:27:56.1Z</time>
      </trkpt>
      <trkpt lat="48.20399" lon="-3.03618">
        <ele>128</ele>
        <time>2015-10-12T10:27:58.1Z</time>
      </trkpt>
      <trkpt lat="48.20401" lon="-3.03621">
        <ele>128</ele>
        <time>2015-10-12T10:28:01.1Z</time>
      </trkpt>
      <trkpt lat="48.20402" lon="-3.03625">
        <ele>129</ele>
        <time>2015-10-12T10:28:03.1Z</time>
      </trkpt>
      <trkpt lat="48.20404" lon="-3.0363">
        <ele>129</ele>
        <time>2015-10-12T10:28:06.1Z</time>
      </trkpt>
      <trkpt lat="48.20406" lon="-3.03633">
        <ele>129</ele>
        <time>2015-10-12T10:28:09.1Z</time>
      </trkpt>
      <trkpt lat="48.20407" lon="-3.03638">
        <ele>128</ele>
        <time>2015-10-12T10:28:11.1Z</time>
      </trkpt>
      <trkpt lat="48.20408" lon="-3.03642">
        <ele>128</ele>
        <time>2015-10-12T10:28:14.1Z</time>
      </trkpt>
      <trkpt lat="48.20409" lon="-3.03645">
        <ele>128</ele>
        <time>2015-10-12T10:28:16.1Z</time>
      </trkpt>
      <trkpt lat="48.20411" lon="-3.03649">
        <ele>128</ele>
        <time>2015-10-12T10:28:20.1Z</time>
      </trkpt>
      <trkpt lat="48.20411" lon="-3.03651">
        <ele>129</ele>
        <time>2015-10-12T10:28:22.1Z</time>
      </trkpt>
      <trkpt lat="48.20412" lon="-3.03653">
        <ele>129</ele>
        <time>2015-10-12T10:28:25.1Z</time>
      </trkpt>
      <trkpt lat="48.20411" lon="-3.03653">
        <ele>129</ele>
        <time>2015-10-12T10:28:27.1Z</time>
      </trkpt>
      <trkpt lat="48.20412" lon="-3.03655">
        <ele>129</ele>
        <time>2015-10-12T10:28:30.1Z</time>
      </trkpt>
      <trkpt lat="48.20412" lon="-3.03658">
        <ele>128</ele>
        <time>2015-10-12T10:28:32.1Z</time>
      </trkpt>
      <trkpt lat="48.20414" lon="-3.03661">
        <ele>128</ele>
        <time>2015-10-12T10:28:34.1Z</time>
      </trkpt>
      <trkpt lat="48.20414" lon="-3.03666">
        <ele>128</ele>
        <time>2015-10-12T10:28:37.1Z</time>
      </trkpt>
      <trkpt lat="48.20414" lon="-3.03669">
        <ele>128</ele>
        <time>2015-10-12T10:28:40.1Z</time>
      </trkpt>
      <trkpt lat="48.20414" lon="-3.03673">
        <ele>128</ele>
        <time>2015-10-12T10:28:42.1Z</time>
      </trkpt>
      <trkpt lat="48.20414" lon="-3.03678">
        <ele>128</ele>
        <time>2015-10-12T10:28:44.1Z</time>
      </trkpt>
      <trkpt lat="48.20413" lon="-3.03682">
        <ele>129</ele>
        <time>2015-10-12T10:28:46.1Z</time>
      </trkpt>
      <trkpt lat="48.20412" lon="-3.03686">
        <ele>128</ele>
        <time>2015-10-12T10:28:49.1Z</time>
      </trkpt>
      <trkpt lat="48.20412" lon="-3.0369">
        <ele>128</ele>
        <time>2015-10-12T10:28:51.1Z</time>
      </trkpt>
      <trkpt lat="48.20412" lon="-3.03693">
        <ele>128</ele>
        <time>2015-10-12T10:28:53.1Z</time>
      </trkpt>
      <trkpt lat="48.20411" lon="-3.03696">
        <ele>128</ele>
        <time>2015-10-12T10:28:55.1Z</time>
      </trkpt>
      <trkpt lat="48.2041" lon="-3.037">
        <ele>128</ele>
        <time>2015-10-12T10:28:57.1Z</time>
      </trkpt>
      <trkpt lat="48.20409" lon="-3.03703">
        <ele>128</ele>
        <time>2015-10-12T10:28:59.1Z</time>
      </trkpt>
      <trkpt lat="48.20409" lon="-3.03707">
        <ele>128</ele>
        <time>2015-10-12T10:29:01.1Z</time>
      </trkpt>
      <trkpt lat="48.20407" lon="-3.03713">
        <ele>128</ele>
        <time>2015-10-12T10:29:03.1Z</time>
      </trkpt>
      <trkpt lat="48.20406" lon="-3.03716">
        <ele>128</ele>
        <time>2015-10-12T10:29:05.1Z</time>
      </trkpt>
      <trkpt lat="48.20404" lon="-3.03722">
        <ele>128</ele>
        <time>2015-10-12T10:29:09.1Z</time>
      </trkpt>
      <trkpt lat="48.20403" lon="-3.03728">
        <ele>128</ele>
        <time>2015-10-12T10:29:12.1Z</time>
      </trkpt>
      <trkpt lat="48.20401" lon="-3.03732">
        <ele>128</ele>
        <time>2015-10-12T10:29:14.1Z</time>
      </trkpt>
      <trkpt lat="48.204" lon="-3.03737">
        <ele>128</ele>
        <time>2015-10-12T10:29:17.1Z</time>
      </trkpt>
      <trkpt lat="48.20399" lon="-3.03743">
        <ele>128</ele>
        <time>2015-10-12T10:29:19.1Z</time>
      </trkpt>
      <trkpt lat="48.20398" lon="-3.03747">
        <ele>128</ele>
        <time>2015-10-12T10:29:23.1Z</time>
      </trkpt>
      <trkpt lat="48.20397" lon="-3.03753">
        <ele>127</ele>
        <time>2015-10-12T10:29:26.1Z</time>
      </trkpt>
      <trkpt lat="48.20396" lon="-3.03757">
        <ele>128</ele>
        <time>2015-10-12T10:29:28.1Z</time>
      </trkpt>
      <trkpt lat="48.20395" lon="-3.03762">
        <ele>128</ele>
        <time>2015-10-12T10:29:30.1Z</time>
      </trkpt>
      <trkpt lat="48.20395" lon="-3.03765">
        <ele>128</ele>
        <time>2015-10-12T10:29:32.1Z</time>
      </trkpt>
      <trkpt lat="48.20394" lon="-3.0377">
        <ele>128</ele>
        <time>2015-10-12T10:29:36.1Z</time>
      </trkpt>
      <trkpt lat="48.20392" lon="-3.03776">
        <ele>128</ele>
        <time>2015-10-12T10:29:38.1Z</time>
      </trkpt>
      <trkpt lat="48.20392" lon="-3.03779">
        <ele>127</ele>
        <time>2015-10-12T10:29:41.1Z</time>
      </trkpt>
      <trkpt lat="48.20392" lon="-3.03782">
        <ele>127</ele>
        <time>2015-10-12T10:29:43.1Z</time>
      </trkpt>
      <trkpt lat="48.20391" lon="-3.03788">
        <ele>127</ele>
        <time>2015-10-12T10:29:45.1Z</time>
      </trkpt>
      <trkpt lat="48.2039" lon="-3.03791">
        <ele>128</ele>
        <time>2015-10-12T10:29:48.1Z</time>
      </trkpt>
      <trkpt lat="48.20389" lon="-3.03796">
        <ele>128</ele>
        <time>2015-10-12T10:29:51.1Z</time>
      </trkpt>
      <trkpt lat="48.20387" lon="-3.03802">
        <ele>128</ele>
        <time>2015-10-12T10:29:53.1Z</time>
      </trkpt>
      <trkpt lat="48.20386" lon="-3.03806">
        <ele>127</ele>
        <time>2015-10-12T10:29:56.1Z</time>
      </trkpt>
      <trkpt lat="48.20385" lon="-3.03811">
        <ele>127</ele>
        <time>2015-10-12T10:29:58.1Z</time>
      </trkpt>
      <trkpt lat="48.20385" lon="-3.03815">
        <ele>127</ele>
        <time>2015-10-12T10:30:00.1Z</time>
      </trkpt>
      <trkpt lat="48.20384" lon="-3.03819">
        <ele>127</ele>
        <time>2015-10-12T10:30:03.1Z</time>
      </trkpt>
      <trkpt lat="48.20383" lon="-3.03824">
        <ele>127</ele>
        <time>2015-10-12T10:30:05.1Z</time>
      </trkpt>
      <trkpt lat="48.20383" lon="-3.03828">
        <ele>127</ele>
        <time>2015-10-12T10:30:07.1Z</time>
      </trkpt>
      <trkpt lat="48.20382" lon="-3.03832">
        <ele>127</ele>
        <time>2015-10-12T10:30:09.1Z</time>
      </trkpt>
      <trkpt lat="48.20382" lon="-3.03835">
        <ele>127</ele>
        <time>2015-10-12T10:30:12.1Z</time>
      </trkpt>
      <trkpt lat="48.20381" lon="-3.0384">
        <ele>127</ele>
        <time>2015-10-12T10:30:15.1Z</time>
      </trkpt>
      <trkpt lat="48.20381" lon="-3.03843">
        <ele>127</ele>
        <time>2015-10-12T10:30:17.1Z</time>
      </trkpt>
      <trkpt lat="48.2038" lon="-3.03848">
        <ele>127</ele>
        <time>2015-10-12T10:30:19.1Z</time>
      </trkpt>
      <trkpt lat="48.2038" lon="-3.03852">
        <ele>127</ele>
        <time>2015-10-12T10:30:21.1Z</time>
      </trkpt>
      <trkpt lat="48.20379" lon="-3.03855">
        <ele>127</ele>
        <time>2015-10-12T10:30:23.1Z</time>
      </trkpt>
      <trkpt lat="48.20378" lon="-3.0386">
        <ele>127</ele>
        <time>2015-10-12T10:30:27.1Z</time>
      </trkpt>
      <trkpt lat="48.20377" lon="-3.03866">
        <ele>127</ele>
        <time>2015-10-12T10:30:29.1Z</time>
      </trkpt>
      <trkpt lat="48.20376" lon="-3.03872">
        <ele>127</ele>
        <time>2015-10-12T10:30:33.1Z</time>
      </trkpt>
      <trkpt lat="48.20375" lon="-3.03876">
        <ele>127</ele>
        <time>2015-10-12T10:30:35.1Z</time>
      </trkpt>
      <trkpt lat="48.20374" lon="-3.03881">
        <ele>127</ele>
        <time>2015-10-12T10:30:37.1Z</time>
      </trkpt>
      <trkpt lat="48.20373" lon="-3.03887">
        <ele>127</ele>
        <time>2015-10-12T10:30:41.1Z</time>
      </trkpt>
      <trkpt lat="48.20372" lon="-3.03892">
        <ele>127</ele>
        <time>2015-10-12T10:30:43.1Z</time>
      </trkpt>
      <trkpt lat="48.20371" lon="-3.03896">
        <ele>127</ele>
        <time>2015-10-12T10:30:45.1Z</time>
      </trkpt>
      <trkpt lat="48.2037" lon="-3.03902">
        <ele>127</ele>
        <time>2015-10-12T10:30:49.1Z</time>
      </trkpt>
      <trkpt lat="48.20368" lon="-3.03907">
        <ele>127</ele>
        <time>2015-10-12T10:30:51.1Z</time>
      </trkpt>
      <trkpt lat="48.20367" lon="-3.03911">
        <ele>127</ele>
        <time>2015-10-12T10:30:54.1Z</time>
      </trkpt>
      <trkpt lat="48.20365" lon="-3.03917">
        <ele>127</ele>
        <time>2015-10-12T10:30:56.1Z</time>
      </trkpt>
      <trkpt lat="48.20365" lon="-3.03921">
        <ele>127</ele>
        <time>2015-10-12T10:30:58.1Z</time>
      </trkpt>
      <trkpt lat="48.20364" lon="-3.03925">
        <ele>127</ele>
        <time>2015-10-12T10:31:02.1Z</time>
      </trkpt>
      <trkpt lat="48.20364" lon="-3.03929">
        <ele>127</ele>
        <time>2015-10-12T10:31:04.1Z</time>
      </trkpt>
      <trkpt lat="48.20363" lon="-3.03934">
        <ele>127</ele>
        <time>2015-10-12T10:31:06.1Z</time>
      </trkpt>
      <trkpt lat="48.20361" lon="-3.03939">
        <ele>127</ele>
        <time>2015-10-12T10:31:09.1Z</time>
      </trkpt>
      <trkpt lat="48.20361" lon="-3.03943">
        <ele>127</ele>
        <time>2015-10-12T10:31:12.1Z</time>
      </trkpt>
      <trkpt lat="48.2036" lon="-3.03948">
        <ele>127</ele>
        <time>2015-10-12T10:31:14.1Z</time>
      </trkpt>
      <trkpt lat="48.20359" lon="-3.03952">
        <ele>127</ele>
        <time>2015-10-12T10:31:17.1Z</time>
      </trkpt>
      <trkpt lat="48.20358" lon="-3.03958">
        <ele>127</ele>
        <time>2015-10-12T10:31:19.1Z</time>
      </trkpt>
      <trkpt lat="48.20357" lon="-3.03963">
        <ele>127</ele>
        <time>2015-10-12T10:31:22.1Z</time>
      </trkpt>
      <trkpt lat="48.20356" lon="-3.03968">
        <ele>127</ele>
        <time>2015-10-12T10:31:25.1Z</time>
      </trkpt>
      <trkpt lat="48.20355" lon="-3.03972">
        <ele>127</ele>
        <time>2015-10-12T10:31:27.1Z</time>
      </trkpt>
      <trkpt lat="48.20353" lon="-3.03977">
        <ele>128</ele>
        <time>2015-10-12T10:31:31.1Z</time>
      </trkpt>
      <trkpt lat="48.20353" lon="-3.03981">
        <ele>128</ele>
        <time>2015-10-12T10:31:33.1Z</time>
      </trkpt>
      <trkpt lat="48.20352" lon="-3.03985">
        <ele>127</ele>
        <time>2015-10-12T10:31:35.1Z</time>
      </trkpt>
      <trkpt lat="48.20351" lon="-3.0399">
        <ele>127</ele>
        <time>2015-10-12T10:31:37.1Z</time>
      </trkpt>
      <trkpt lat="48.20349" lon="-3.03995">
        <ele>127</ele>
        <time>2015-10-12T10:31:40.1Z</time>
      </trkpt>
      <trkpt lat="48.20348" lon="-3.03999">
        <ele>127</ele>
        <time>2015-10-12T10:31:42.1Z</time>
      </trkpt>
      <trkpt lat="48.20348" lon="-3.04004">
        <ele>127</ele>
        <time>2015-10-12T10:31:46.1Z</time>
      </trkpt>
      <trkpt lat="48.20346" lon="-3.0401">
        <ele>127</ele>
        <time>2015-10-12T10:31:49.1Z</time>
      </trkpt>
      <trkpt lat="48.20345" lon="-3.04015">
        <ele>128</ele>
        <time>2015-10-12T10:31:51.1Z</time>
      </trkpt>
      <trkpt lat="48.20343" lon="-3.0402">
        <ele>128</ele>
        <time>2015-10-12T10:31:54.1Z</time>
      </trkpt>
      <trkpt lat="48.20343" lon="-3.04024">
        <ele>128</ele>
        <time>2015-10-12T10:31:56.1Z</time>
      </trkpt>
      <trkpt lat="48.20341" lon="-3.04029">
        <ele>127</ele>
        <time>2015-10-12T10:31:59.1Z</time>
      </trkpt>
      <trkpt lat="48.20341" lon="-3.04033">
        <ele>127</ele>
        <time>2015-10-12T10:32:01.1Z</time>
      </trkpt>
      <trkpt lat="48.2034" lon="-3.04038">
        <ele>127</ele>
        <time>2015-10-12T10:32:04.1Z</time>
      </trkpt>
      <trkpt lat="48.20339" lon="-3.04042">
        <ele>127</ele>
        <time>2015-10-12T10:32:06.1Z</time>
      </trkpt>
      <trkpt lat="48.20338" lon="-3.04047">
        <ele>127</ele>
        <time>2015-10-12T10:32:09.1Z</time>
      </trkpt>
      <trkpt lat="48.20337" lon="-3.04051">
        <ele>127</ele>
        <time>2015-10-12T10:32:11.1Z</time>
      </trkpt>
      <trkpt lat="48.20336" lon="-3.04056">
        <ele>128</ele>
        <time>2015-10-12T10:32:14.1Z</time>
      </trkpt>
      <trkpt lat="48.20335" lon="-3.04059">
        <ele>128</ele>
        <time>2015-10-12T10:32:17.1Z</time>
      </trkpt>
      <trkpt lat="48.20334" lon="-3.04064">
        <ele>128</ele>
        <time>2015-10-12T10:32:19.1Z</time>
      </trkpt>
      <trkpt lat="48.20333" lon="-3.04068">
        <ele>127</ele>
        <time>2015-10-12T10:32:21.1Z</time>
      </trkpt>
      <trkpt lat="48.20332" lon="-3.04073">
        <ele>126</ele>
        <time>2015-10-12T10:32:24.1Z</time>
      </trkpt>
      <trkpt lat="48.20332" lon="-3.04078">
        <ele>126</ele>
        <time>2015-10-12T10:32:27.1Z</time>
      </trkpt>
      <trkpt lat="48.20332" lon="-3.04082">
        <ele>125</ele>
        <time>2015-10-12T10:32:30.1Z</time>
      </trkpt>
      <trkpt lat="48.20331" lon="-3.04087">
        <ele>125</ele>
        <time>2015-10-12T10:32:32.1Z</time>
      </trkpt>
      <trkpt lat="48.2033" lon="-3.04091">
        <ele>126</ele>
        <time>2015-10-12T10:32:35.1Z</time>
      </trkpt>
      <trkpt lat="48.2033" lon="-3.04095">
        <ele>127</ele>
        <time>2015-10-12T10:32:37.1Z</time>
      </trkpt>
      <trkpt lat="48.20329" lon="-3.041">
        <ele>127</ele>
        <time>2015-10-12T10:32:40.1Z</time>
      </trkpt>
      <trkpt lat="48.20328" lon="-3.04103">
        <ele>127</ele>
        <time>2015-10-12T10:32:43.1Z</time>
      </trkpt>
      <trkpt lat="48.20328" lon="-3.04109">
        <ele>127</ele>
        <time>2015-10-12T10:32:45.1Z</time>
      </trkpt>
      <trkpt lat="48.20327" lon="-3.04114">
        <ele>127</ele>
        <time>2015-10-12T10:32:48.1Z</time>
      </trkpt>
      <trkpt lat="48.20326" lon="-3.04117">
        <ele>127</ele>
        <time>2015-10-12T10:32:50.1Z</time>
      </trkpt>
      <trkpt lat="48.20326" lon="-3.04122">
        <ele>127</ele>
        <time>2015-10-12T10:32:53.1Z</time>
      </trkpt>
      <trkpt lat="48.20325" lon="-3.04126">
        <ele>127</ele>
        <time>2015-10-12T10:32:56.1Z</time>
      </trkpt>
      <trkpt lat="48.20324" lon="-3.0413">
        <ele>127</ele>
        <time>2015-10-12T10:32:58.1Z</time>
      </trkpt>
      <trkpt lat="48.20323" lon="-3.04135">
        <ele>128</ele>
        <time>2015-10-12T10:33:01.1Z</time>
      </trkpt>
      <trkpt lat="48.20322" lon="-3.0414">
        <ele>127</ele>
        <time>2015-10-12T10:33:04.1Z</time>
      </trkpt>
      <trkpt lat="48.20321" lon="-3.04144">
        <ele>127</ele>
        <time>2015-10-12T10:33:07.1Z</time>
      </trkpt>
      <trkpt lat="48.20319" lon="-3.04149">
        <ele>127</ele>
        <time>2015-10-12T10:33:09.1Z</time>
      </trkpt>
      <trkpt lat="48.20318" lon="-3.04155">
        <ele>127</ele>
        <time>2015-10-12T10:33:12.1Z</time>
      </trkpt>
      <trkpt lat="48.20317" lon="-3.04159">
        <ele>127</ele>
        <time>2015-10-12T10:33:14.1Z</time>
      </trkpt>
      <trkpt lat="48.20316" lon="-3.04164">
        <ele>126</ele>
        <time>2015-10-12T10:33:17.1Z</time>
      </trkpt>
      <trkpt lat="48.20315" lon="-3.04168">
        <ele>126</ele>
        <time>2015-10-12T10:33:19.1Z</time>
      </trkpt>
      <trkpt lat="48.20314" lon="-3.0417">
        <ele>126</ele>
        <time>2015-10-12T10:33:21.1Z</time>
      </trkpt>
      <trkpt lat="48.20312" lon="-3.04176">
        <ele>126</ele>
        <time>2015-10-12T10:33:24.1Z</time>
      </trkpt>
      <trkpt lat="48.20311" lon="-3.04179">
        <ele>126</ele>
        <time>2015-10-12T10:33:26.1Z</time>
      </trkpt>
      <trkpt lat="48.20309" lon="-3.04183">
        <ele>126</ele>
        <time>2015-10-12T10:33:29.1Z</time>
      </trkpt>
      <trkpt lat="48.20309" lon="-3.04187">
        <ele>127</ele>
        <time>2015-10-12T10:33:31.1Z</time>
      </trkpt>
      <trkpt lat="48.20308" lon="-3.0419">
        <ele>126</ele>
        <time>2015-10-12T10:33:33.1Z</time>
      </trkpt>
      <trkpt lat="48.20307" lon="-3.04193">
        <ele>126</ele>
        <time>2015-10-12T10:33:36.1Z</time>
      </trkpt>
      <trkpt lat="48.20306" lon="-3.04199">
        <ele>126</ele>
        <time>2015-10-12T10:33:38.1Z</time>
      </trkpt>
      <trkpt lat="48.20304" lon="-3.04204">
        <ele>126</ele>
        <time>2015-10-12T10:33:41.1Z</time>
      </trkpt>
      <trkpt lat="48.20303" lon="-3.04207">
        <ele>126</ele>
        <time>2015-10-12T10:33:43.1Z</time>
      </trkpt>
      <trkpt lat="48.20303" lon="-3.04213">
        <ele>126</ele>
        <time>2015-10-12T10:33:46.1Z</time>
      </trkpt>
      <trkpt lat="48.20301" lon="-3.04216">
        <ele>126</ele>
        <time>2015-10-12T10:33:48.1Z</time>
      </trkpt>
      <trkpt lat="48.203" lon="-3.04221">
        <ele>126</ele>
        <time>2015-10-12T10:33:51.1Z</time>
      </trkpt>
      <trkpt lat="48.203" lon="-3.04226">
        <ele>126</ele>
        <time>2015-10-12T10:33:54.1Z</time>
      </trkpt>
      <trkpt lat="48.20299" lon="-3.04229">
        <ele>126</ele>
        <time>2015-10-12T10:33:56.1Z</time>
      </trkpt>
      <trkpt lat="48.20298" lon="-3.04235">
        <ele>126</ele>
        <time>2015-10-12T10:33:59.1Z</time>
      </trkpt>
      <trkpt lat="48.20297" lon="-3.0424">
        <ele>126</ele>
        <time>2015-10-12T10:34:02.1Z</time>
      </trkpt>
      <trkpt lat="48.20296" lon="-3.04245">
        <ele>126</ele>
        <time>2015-10-12T10:34:05.1Z</time>
      </trkpt>
      <trkpt lat="48.20295" lon="-3.04249">
        <ele>126</ele>
        <time>2015-10-12T10:34:07.1Z</time>
      </trkpt>
      <trkpt lat="48.20295" lon="-3.04253">
        <ele>126</ele>
        <time>2015-10-12T10:34:09.1Z</time>
      </trkpt>
      <trkpt lat="48.20294" lon="-3.04256">
        <ele>126</ele>
        <time>2015-10-12T10:34:11.1Z</time>
      </trkpt>
      <trkpt lat="48.20293" lon="-3.0426">
        <ele>127</ele>
        <time>2015-10-12T10:34:13.1Z</time>
      </trkpt>
      <trkpt lat="48.20292" lon="-3.04264">
        <ele>127</ele>
        <time>2015-10-12T10:34:16.1Z</time>
      </trkpt>
      <trkpt lat="48.20291" lon="-3.04268">
        <ele>127</ele>
        <time>2015-10-12T10:34:19.1Z</time>
      </trkpt>
      <trkpt lat="48.20291" lon="-3.04271">
        <ele>126</ele>
        <time>2015-10-12T10:34:22.1Z</time>
      </trkpt>
      <trkpt lat="48.20291" lon="-3.04271">
        <ele>126</ele>
        <time>2015-10-12T10:34:24.1Z</time>
      </trkpt>
      <trkpt lat="48.20291" lon="-3.04271">
        <ele>126</ele>
        <time>2015-10-12T10:34:26.1Z</time>
      </trkpt>
      <trkpt lat="48.20292" lon="-3.04271">
        <ele>125</ele>
        <time>2015-10-12T10:34:29.1Z</time>
      </trkpt>
      <trkpt lat="48.20292" lon="-3.04273">
        <ele>125</ele>
        <time>2015-10-12T10:34:32.1Z</time>
      </trkpt>
      <trkpt lat="48.20292" lon="-3.04272">
        <ele>125</ele>
        <time>2015-10-12T10:34:35.1Z</time>
      </trkpt>
      <trkpt lat="48.20293" lon="-3.04272">
        <ele>125</ele>
        <time>2015-10-12T10:34:37.1Z</time>
      </trkpt>
      <trkpt lat="48.20293" lon="-3.04273">
        <ele>125</ele>
        <time>2015-10-12T10:34:40.1Z</time>
      </trkpt>
      <trkpt lat="48.20293" lon="-3.04277">
        <ele>125</ele>
        <time>2015-10-12T10:34:43.1Z</time>
      </trkpt>
      <trkpt lat="48.20292" lon="-3.04282">
        <ele>125</ele>
        <time>2015-10-12T10:34:46.1Z</time>
      </trkpt>
      <trkpt lat="48.20291" lon="-3.04286">
        <ele>125</ele>
        <time>2015-10-12T10:34:48.1Z</time>
      </trkpt>
      <trkpt lat="48.2029" lon="-3.04291">
        <ele>125</ele>
        <time>2015-10-12T10:34:51.1Z</time>
      </trkpt>
      <trkpt lat="48.2029" lon="-3.04295">
        <ele>125</ele>
        <time>2015-10-12T10:34:53.1Z</time>
      </trkpt>
      <trkpt lat="48.20289" lon="-3.04298">
        <ele>125</ele>
        <time>2015-10-12T10:34:55.1Z</time>
      </trkpt>
      <trkpt lat="48.20287" lon="-3.04303">
        <ele>125</ele>
        <time>2015-10-12T10:34:58.1Z</time>
      </trkpt>
      <trkpt lat="48.20287" lon="-3.04306">
        <ele>125</ele>
        <time>2015-10-12T10:35:00.1Z</time>
      </trkpt>
      <trkpt lat="48.20287" lon="-3.0431">
        <ele>124</ele>
        <time>2015-10-12T10:35:02.1Z</time>
      </trkpt>
      <trkpt lat="48.20286" lon="-3.04315">
        <ele>124</ele>
        <time>2015-10-12T10:35:05.1Z</time>
      </trkpt>
      <trkpt lat="48.20286" lon="-3.0432">
        <ele>124</ele>
        <time>2015-10-12T10:35:08.1Z</time>
      </trkpt>
      <trkpt lat="48.20286" lon="-3.04325">
        <ele>124</ele>
        <time>2015-10-12T10:35:11.1Z</time>
      </trkpt>
      <trkpt lat="48.20286" lon="-3.04331">
        <ele>124</ele>
        <time>2015-10-12T10:35:14.1Z</time>
      </trkpt>
      <trkpt lat="48.20285" lon="-3.04337">
        <ele>124</ele>
        <time>2015-10-12T10:35:17.1Z</time>
      </trkpt>
      <trkpt lat="48.20285" lon="-3.0434">
        <ele>125</ele>
        <time>2015-10-12T10:35:20.1Z</time>
      </trkpt>
      <trkpt lat="48.20285" lon="-3.04346">
        <ele>125</ele>
        <time>2015-10-12T10:35:22.1Z</time>
      </trkpt>
      <trkpt lat="48.20285" lon="-3.0435">
        <ele>125</ele>
        <time>2015-10-12T10:35:24.1Z</time>
      </trkpt>
      <trkpt lat="48.20284" lon="-3.04355">
        <ele>125</ele>
        <time>2015-10-12T10:35:27.1Z</time>
      </trkpt>
      <trkpt lat="48.20283" lon="-3.04359">
        <ele>125</ele>
        <time>2015-10-12T10:35:29.1Z</time>
      </trkpt>
      <trkpt lat="48.20282" lon="-3.04364">
        <ele>125</ele>
        <time>2015-10-12T10:35:32.1Z</time>
      </trkpt>
      <trkpt lat="48.20282" lon="-3.0437">
        <ele>125</ele>
        <time>2015-10-12T10:35:35.1Z</time>
      </trkpt>
      <trkpt lat="48.20282" lon="-3.04376">
        <ele>125</ele>
        <time>2015-10-12T10:35:38.1Z</time>
      </trkpt>
      <trkpt lat="48.20282" lon="-3.04381">
        <ele>125</ele>
        <time>2015-10-12T10:35:41.1Z</time>
      </trkpt>
      <trkpt lat="48.20282" lon="-3.04387">
        <ele>125</ele>
        <time>2015-10-12T10:35:44.1Z</time>
      </trkpt>
      <trkpt lat="48.20281" lon="-3.04393">
        <ele>125</ele>
        <time>2015-10-12T10:35:47.1Z</time>
      </trkpt>
      <trkpt lat="48.20282" lon="-3.04397">
        <ele>125</ele>
        <time>2015-10-12T10:35:50.1Z</time>
      </trkpt>
      <trkpt lat="48.20281" lon="-3.04402">
        <ele>125</ele>
        <time>2015-10-12T10:35:52.1Z</time>
      </trkpt>
      <trkpt lat="48.20282" lon="-3.04408">
        <ele>125</ele>
        <time>2015-10-12T10:35:55.1Z</time>
      </trkpt>
      <trkpt lat="48.20281" lon="-3.04411">
        <ele>125</ele>
        <time>2015-10-12T10:35:57.1Z</time>
      </trkpt>
      <trkpt lat="48.20281" lon="-3.04414">
        <ele>125</ele>
        <time>2015-10-12T10:35:59.1Z</time>
      </trkpt>
      <trkpt lat="48.20281" lon="-3.04417">
        <ele>125</ele>
        <time>2015-10-12T10:36:01.1Z</time>
      </trkpt>
      <trkpt lat="48.20281" lon="-3.04423">
        <ele>125</ele>
        <time>2015-10-12T10:36:04.1Z</time>
      </trkpt>
      <trkpt lat="48.2028" lon="-3.04427">
        <ele>125</ele>
        <time>2015-10-12T10:36:07.1Z</time>
      </trkpt>
      <trkpt lat="48.20281" lon="-3.04432">
        <ele>125</ele>
        <time>2015-10-12T10:36:10.1Z</time>
      </trkpt>
      <trkpt lat="48.20281" lon="-3.04435">
        <ele>125</ele>
        <time>2015-10-12T10:36:12.1Z</time>
      </trkpt>
      <trkpt lat="48.2028" lon="-3.04439">
        <ele>126</ele>
        <time>2015-10-12T10:36:14.1Z</time>
      </trkpt>
      <trkpt lat="48.2028" lon="-3.04443">
        <ele>126</ele>
        <time>2015-10-12T10:36:16.1Z</time>
      </trkpt>
      <trkpt lat="48.2028" lon="-3.04446">
        <ele>126</ele>
        <time>2015-10-12T10:36:18.1Z</time>
      </trkpt>
      <trkpt lat="48.2028" lon="-3.04449">
        <ele>126</ele>
        <time>2015-10-12T10:36:20.1Z</time>
      </trkpt>
      <trkpt lat="48.2028" lon="-3.04454">
        <ele>126</ele>
        <time>2015-10-12T10:36:23.1Z</time>
      </trkpt>
      <trkpt lat="48.2028" lon="-3.04457">
        <ele>126</ele>
        <time>2015-10-12T10:36:25.1Z</time>
      </trkpt>
      <trkpt lat="48.2028" lon="-3.04461">
        <ele>126</ele>
        <time>2015-10-12T10:36:27.1Z</time>
      </trkpt>
      <trkpt lat="48.2028" lon="-3.04465">
        <ele>126</ele>
        <time>2015-10-12T10:36:29.1Z</time>
      </trkpt>
      <trkpt lat="48.2028" lon="-3.04468">
        <ele>125</ele>
        <time>2015-10-12T10:36:31.1Z</time>
      </trkpt>
      <trkpt lat="48.2028" lon="-3.04473">
        <ele>125</ele>
        <time>2015-10-12T10:36:34.1Z</time>
      </trkpt>
      <trkpt lat="48.2028" lon="-3.04478">
        <ele>125</ele>
        <time>2015-10-12T10:36:36.1Z</time>
      </trkpt>
      <trkpt lat="48.20281" lon="-3.04481">
        <ele>125</ele>
        <time>2015-10-12T10:36:38.1Z</time>
      </trkpt>
      <trkpt lat="48.20281" lon="-3.04486">
        <ele>125</ele>
        <time>2015-10-12T10:36:41.1Z</time>
      </trkpt>
      <trkpt lat="48.20281" lon="-3.04491">
        <ele>125</ele>
        <time>2015-10-12T10:36:44.1Z</time>
      </trkpt>
      <trkpt lat="48.20281" lon="-3.04495">
        <ele>125</ele>
        <time>2015-10-12T10:36:46.1Z</time>
      </trkpt>
      <trkpt lat="48.20281" lon="-3.04499">
        <ele>125</ele>
        <time>2015-10-12T10:36:48.1Z</time>
      </trkpt>
      <trkpt lat="48.20282" lon="-3.04503">
        <ele>125</ele>
        <time>2015-10-12T10:36:50.1Z</time>
      </trkpt>
      <trkpt lat="48.20282" lon="-3.04505">
        <ele>125</ele>
        <time>2015-10-12T10:36:52.1Z</time>
      </trkpt>
      <trkpt lat="48.20282" lon="-3.04511">
        <ele>125</ele>
        <time>2015-10-12T10:36:55.1Z</time>
      </trkpt>
      <trkpt lat="48.20282" lon="-3.04515">
        <ele>125</ele>
        <time>2015-10-12T10:36:57.1Z</time>
      </trkpt>
      <trkpt lat="48.20282" lon="-3.0452">
        <ele>125</ele>
        <time>2015-10-12T10:37:00.1Z</time>
      </trkpt>
      <trkpt lat="48.20283" lon="-3.04523">
        <ele>125</ele>
        <time>2015-10-12T10:37:02.1Z</time>
      </trkpt>
      <trkpt lat="48.20283" lon="-3.04528">
        <ele>125</ele>
        <time>2015-10-12T10:37:05.1Z</time>
      </trkpt>
      <trkpt lat="48.20283" lon="-3.04533">
        <ele>125</ele>
        <time>2015-10-12T10:37:08.1Z</time>
      </trkpt>
      <trkpt lat="48.20283" lon="-3.04536">
        <ele>125</ele>
        <time>2015-10-12T10:37:10.1Z</time>
      </trkpt>
      <trkpt lat="48.20283" lon="-3.04539">
        <ele>125</ele>
        <time>2015-10-12T10:37:12.1Z</time>
      </trkpt>
      <trkpt lat="48.20283" lon="-3.04543">
        <ele>125</ele>
        <time>2015-10-12T10:37:14.1Z</time>
      </trkpt>
      <trkpt lat="48.20283" lon="-3.04548">
        <ele>125</ele>
        <time>2015-10-12T10:37:17.1Z</time>
      </trkpt>
      <trkpt lat="48.20283" lon="-3.04553">
        <ele>126</ele>
        <time>2015-10-12T10:37:20.1Z</time>
      </trkpt>
      <trkpt lat="48.20282" lon="-3.04557">
        <ele>126</ele>
        <time>2015-10-12T10:37:22.1Z</time>
      </trkpt>
      <trkpt lat="48.20282" lon="-3.0456">
        <ele>126</ele>
        <time>2015-10-12T10:37:24.1Z</time>
      </trkpt>
      <trkpt lat="48.20282" lon="-3.04564">
        <ele>126</ele>
        <time>2015-10-12T10:37:27.1Z</time>
      </trkpt>
      <trkpt lat="48.20283" lon="-3.04569">
        <ele>127</ele>
        <time>2015-10-12T10:37:30.1Z</time>
      </trkpt>
      <trkpt lat="48.20283" lon="-3.04571">
        <ele>127</ele>
        <time>2015-10-12T10:37:32.1Z</time>
      </trkpt>
      <trkpt lat="48.20282" lon="-3.04574">
        <ele>127</ele>
        <time>2015-10-12T10:37:35.1Z</time>
      </trkpt>
      <trkpt lat="48.20282" lon="-3.04578">
        <ele>127</ele>
        <time>2015-10-12T10:37:37.1Z</time>
      </trkpt>
      <trkpt lat="48.20282" lon="-3.04582">
        <ele>127</ele>
        <time>2015-10-12T10:37:40.1Z</time>
      </trkpt>
      <trkpt lat="48.20282" lon="-3.04585">
        <ele>127</ele>
        <time>2015-10-12T10:37:42.1Z</time>
      </trkpt>
      <trkpt lat="48.20283" lon="-3.04588">
        <ele>127</ele>
        <time>2015-10-12T10:37:45.1Z</time>
      </trkpt>
      <trkpt lat="48.20282" lon="-3.04591">
        <ele>128</ele>
        <time>2015-10-12T10:37:48.1Z</time>
      </trkpt>
      <trkpt lat="48.2028" lon="-3.04595">
        <ele>128</ele>
        <time>2015-10-12T10:37:51.1Z</time>
      </trkpt>
      <trkpt lat="48.20279" lon="-3.04598">
        <ele>128</ele>
        <time>2015-10-12T10:37:54.1Z</time>
      </trkpt>
      <trkpt lat="48.20279" lon="-3.04601">
        <ele>128</ele>
        <time>2015-10-12T10:37:56.1Z</time>
      </trkpt>
      <trkpt lat="48.20278" lon="-3.04604">
        <ele>128</ele>
        <time>2015-10-12T10:37:58.1Z</time>
      </trkpt>
      <trkpt lat="48.20277" lon="-3.04607">
        <ele>128</ele>
        <time>2015-10-12T10:38:01.1Z</time>
      </trkpt>
      <trkpt lat="48.20275" lon="-3.04609">
        <ele>128</ele>
        <time>2015-10-12T10:38:03.1Z</time>
      </trkpt>
      <trkpt lat="48.20275" lon="-3.04612">
        <ele>129</ele>
        <time>2015-10-12T10:38:06.1Z</time>
      </trkpt>
      <trkpt lat="48.20274" lon="-3.04615">
        <ele>129</ele>
        <time>2015-10-12T10:38:08.1Z</time>
      </trkpt>
      <trkpt lat="48.20275" lon="-3.0462">
        <ele>129</ele>
        <time>2015-10-12T10:38:11.1Z</time>
      </trkpt>
      <trkpt lat="48.20275" lon="-3.04623">
        <ele>128</ele>
        <time>2015-10-12T10:38:14.1Z</time>
      </trkpt>
      <trkpt lat="48.20275" lon="-3.04623">
        <ele>128</ele>
        <time>2015-10-12T10:38:16.1Z</time>
      </trkpt>
      <trkpt lat="48.20276" lon="-3.04625">
        <ele>128</ele>
        <time>2015-10-12T10:38:19.1Z</time>
      </trkpt>
      <trkpt lat="48.20277" lon="-3.04626">
        <ele>128</ele>
        <time>2015-10-12T10:38:21.1Z</time>
      </trkpt>
      <trkpt lat="48.20276" lon="-3.04627">
        <ele>128</ele>
        <time>2015-10-12T10:38:23.1Z</time>
      </trkpt>
      <trkpt lat="48.20276" lon="-3.04628">
        <ele>128</ele>
        <time>2015-10-12T10:38:25.1Z</time>
      </trkpt>
      <trkpt lat="48.20277" lon="-3.04629">
        <ele>128</ele>
        <time>2015-10-12T10:38:28.1Z</time>
      </trkpt>
      <trkpt lat="48.20277" lon="-3.04629">
        <ele>128</ele>
        <time>2015-10-12T10:38:30.1Z</time>
      </trkpt>
      <trkpt lat="48.20278" lon="-3.04629">
        <ele>128</ele>
        <time>2015-10-12T10:38:33.1Z</time>
      </trkpt>
      <trkpt lat="48.20278" lon="-3.04629">
        <ele>128</ele>
        <time>2015-10-12T10:38:36.1Z</time>
      </trkpt>
      <trkpt lat="48.20277" lon="-3.04631">
        <ele>128</ele>
        <time>2015-10-12T10:38:39.1Z</time>
      </trkpt>
      <trkpt lat="48.20277" lon="-3.04632">
        <ele>128</ele>
        <time>2015-10-12T10:38:41.1Z</time>
      </trkpt>
      <trkpt lat="48.20277" lon="-3.04632">
        <ele>128</ele>
        <time>2015-10-12T10:38:44.1Z</time>
      </trkpt>
      <trkpt lat="48.20279" lon="-3.04633">
        <ele>128</ele>
        <time>2015-10-12T10:38:46.1Z</time>
      </trkpt>
      <trkpt lat="48.20281" lon="-3.04634">
        <ele>128</ele>
        <time>2015-10-12T10:38:49.1Z</time>
      </trkpt>
      <trkpt lat="48.20284" lon="-3.04634">
        <ele>128</ele>
        <time>2015-10-12T10:38:51.1Z</time>
      </trkpt>
      <trkpt lat="48.20286" lon="-3.04636">
        <ele>128</ele>
        <time>2015-10-12T10:38:54.1Z</time>
      </trkpt>
      <trkpt lat="48.20289" lon="-3.04637">
        <ele>128</ele>
        <time>2015-10-12T10:38:56.1Z</time>
      </trkpt>
      <trkpt lat="48.2029" lon="-3.04638">
        <ele>128</ele>
        <time>2015-10-12T10:38:58.1Z</time>
      </trkpt>
      <trkpt lat="48.20293" lon="-3.04639">
        <ele>128</ele>
        <time>2015-10-12T10:39:01.1Z</time>
      </trkpt>
      <trkpt lat="48.20294" lon="-3.04639">
        <ele>128</ele>
        <time>2015-10-12T10:39:03.1Z</time>
      </trkpt>
      <trkpt lat="48.20295" lon="-3.0464">
        <ele>128</ele>
        <time>2015-10-12T10:39:05.1Z</time>
      </trkpt>
      <trkpt lat="48.20298" lon="-3.0464">
        <ele>128</ele>
        <time>2015-10-12T10:39:08.1Z</time>
      </trkpt>
      <trkpt lat="48.20301" lon="-3.0464">
        <ele>128</ele>
        <time>2015-10-12T10:39:10.1Z</time>
      </trkpt>
      <trkpt lat="48.20303" lon="-3.0464">
        <ele>128</ele>
        <time>2015-10-12T10:39:12.1Z</time>
      </trkpt>
      <trkpt lat="48.20305" lon="-3.04641">
        <ele>129</ele>
        <time>2015-10-12T10:39:15.1Z</time>
      </trkpt>
      <trkpt lat="48.20307" lon="-3.04641">
        <ele>129</ele>
        <time>2015-10-12T10:39:17.1Z</time>
      </trkpt>
      <trkpt lat="48.20311" lon="-3.04642">
        <ele>129</ele>
        <time>2015-10-12T10:39:20.1Z</time>
      </trkpt>
      <trkpt lat="48.20314" lon="-3.04643">
        <ele>129</ele>
        <time>2015-10-12T10:39:23.1Z</time>
      </trkpt>
      <trkpt lat="48.20316" lon="-3.04643">
        <ele>130</ele>
        <time>2015-10-12T10:39:26.1Z</time>
      </trkpt>
      <trkpt lat="48.20319" lon="-3.04643">
        <ele>130</ele>
        <time>2015-10-12T10:39:29.1Z</time>
      </trkpt>
      <trkpt lat="48.2032" lon="-3.04644">
        <ele>131</ele>
        <time>2015-10-12T10:39:31.1Z</time>
      </trkpt>
      <trkpt lat="48.20322" lon="-3.04644">
        <ele>131</ele>
        <time>2015-10-12T10:39:34.1Z</time>
      </trkpt>
      <trkpt lat="48.20325" lon="-3.04644">
        <ele>132</ele>
        <time>2015-10-12T10:39:37.1Z</time>
      </trkpt>
      <trkpt lat="48.20327" lon="-3.04644">
        <ele>133</ele>
        <time>2015-10-12T10:39:39.1Z</time>
      </trkpt>
      <trkpt lat="48.20328" lon="-3.04644">
        <ele>133</ele>
        <time>2015-10-12T10:39:41.1Z</time>
      </trkpt>
      <trkpt lat="48.20331" lon="-3.04643">
        <ele>134</ele>
        <time>2015-10-12T10:39:44.1Z</time>
      </trkpt>
      <trkpt lat="48.20333" lon="-3.04643">
        <ele>134</ele>
        <time>2015-10-12T10:39:47.1Z</time>
      </trkpt>
      <trkpt lat="48.20336" lon="-3.04643">
        <ele>135</ele>
        <time>2015-10-12T10:39:50.1Z</time>
      </trkpt>
      <trkpt lat="48.20338" lon="-3.04643">
        <ele>135</ele>
        <time>2015-10-12T10:39:53.1Z</time>
      </trkpt>
      <trkpt lat="48.20341" lon="-3.04643">
        <ele>136</ele>
        <time>2015-10-12T10:39:56.1Z</time>
      </trkpt>
      <trkpt lat="48.20343" lon="-3.04643">
        <ele>136</ele>
        <time>2015-10-12T10:39:59.1Z</time>
      </trkpt>
      <trkpt lat="48.20346" lon="-3.04644">
        <ele>137</ele>
        <time>2015-10-12T10:40:02.1Z</time>
      </trkpt>
      <trkpt lat="48.20349" lon="-3.04643">
        <ele>137</ele>
        <time>2015-10-12T10:40:05.1Z</time>
      </trkpt>
      <trkpt lat="48.20351" lon="-3.04644">
        <ele>137</ele>
        <time>2015-10-12T10:40:07.1Z</time>
      </trkpt>
      <trkpt lat="48.20353" lon="-3.04644">
        <ele>137</ele>
        <time>2015-10-12T10:40:09.1Z</time>
      </trkpt>
      <trkpt lat="48.20355" lon="-3.04644">
        <ele>138</ele>
        <time>2015-10-12T10:40:11.1Z</time>
      </trkpt>
      <trkpt lat="48.20358" lon="-3.04644">
        <ele>139</ele>
        <time>2015-10-12T10:40:14.1Z</time>
      </trkpt>
      <trkpt lat="48.2036" lon="-3.04644">
        <ele>139</ele>
        <time>2015-10-12T10:40:16.1Z</time>
      </trkpt>
      <trkpt lat="48.20362" lon="-3.04643">
        <ele>139</ele>
        <time>2015-10-12T10:40:19.1Z</time>
      </trkpt>
      <trkpt lat="48.20364" lon="-3.04643">
        <ele>139</ele>
        <time>2015-10-12T10:40:21.1Z</time>
      </trkpt>
      <trkpt lat="48.20367" lon="-3.04643">
        <ele>140</ele>
        <time>2015-10-12T10:40:24.1Z</time>
      </trkpt>
      <trkpt lat="48.2037" lon="-3.04642">
        <ele>141</ele>
        <time>2015-10-12T10:40:27.1Z</time>
      </trkpt>
      <trkpt lat="48.20372" lon="-3.04642">
        <ele>141</ele>
        <time>2015-10-12T10:40:29.1Z</time>
      </trkpt>
      <trkpt lat="48.20374" lon="-3.04642">
        <ele>141</ele>
        <time>2015-10-12T10:40:31.1Z</time>
      </trkpt>
      <trkpt lat="48.20377" lon="-3.04642">
        <ele>142</ele>
        <time>2015-10-12T10:40:34.1Z</time>
      </trkpt>
      <trkpt lat="48.2038" lon="-3.04642">
        <ele>142</ele>
        <time>2015-10-12T10:40:37.1Z</time>
      </trkpt>
      <trkpt lat="48.20382" lon="-3.04642">
        <ele>143</ele>
        <time>2015-10-12T10:40:40.1Z</time>
      </trkpt>
      <trkpt lat="48.20384" lon="-3.04642">
        <ele>143</ele>
        <time>2015-10-12T10:40:42.1Z</time>
      </trkpt>
      <trkpt lat="48.20386" lon="-3.04642">
        <ele>143</ele>
        <time>2015-10-12T10:40:44.1Z</time>
      </trkpt>
      <trkpt lat="48.20388" lon="-3.04642">
        <ele>144</ele>
        <time>2015-10-12T10:40:47.1Z</time>
      </trkpt>
      <trkpt lat="48.2039" lon="-3.04642">
        <ele>144</ele>
        <time>2015-10-12T10:40:49.1Z</time>
      </trkpt>
      <trkpt lat="48.20393" lon="-3.04642">
        <ele>144</ele>
        <time>2015-10-12T10:40:52.1Z</time>
      </trkpt>
      <trkpt lat="48.20394" lon="-3.04642">
        <ele>144</ele>
        <time>2015-10-12T10:40:54.1Z</time>
      </trkpt>
      <trkpt lat="48.20396" lon="-3.04642">
        <ele>144</ele>
        <time>2015-10-12T10:40:56.1Z</time>
      </trkpt>
      <trkpt lat="48.20399" lon="-3.04641">
        <ele>145</ele>
        <time>2015-10-12T10:40:59.1Z</time>
      </trkpt>
      <trkpt lat="48.20402" lon="-3.04641">
        <ele>145</ele>
        <time>2015-10-12T10:41:02.1Z</time>
      </trkpt>
      <trkpt lat="48.20405" lon="-3.04641">
        <ele>145</ele>
        <time>2015-10-12T10:41:05.1Z</time>
      </trkpt>
      <trkpt lat="48.20406" lon="-3.0464">
        <ele>145</ele>
        <time>2015-10-12T10:41:07.1Z</time>
      </trkpt>
      <trkpt lat="48.20408" lon="-3.0464">
        <ele>146</ele>
        <time>2015-10-12T10:41:09.1Z</time>
      </trkpt>
      <trkpt lat="48.20411" lon="-3.0464">
        <ele>146</ele>
        <time>2015-10-12T10:41:12.1Z</time>
      </trkpt>
      <trkpt lat="48.20413" lon="-3.0464">
        <ele>146</ele>
        <time>2015-10-12T10:41:14.1Z</time>
      </trkpt>
      <trkpt lat="48.20416" lon="-3.04639">
        <ele>146</ele>
        <time>2015-10-12T10:41:17.1Z</time>
      </trkpt>
      <trkpt lat="48.20418" lon="-3.04639">
        <ele>147</ele>
        <time>2015-10-12T10:41:19.1Z</time>
      </trkpt>
      <trkpt lat="48.20419" lon="-3.04639">
        <ele>147</ele>
        <time>2015-10-12T10:41:21.1Z</time>
      </trkpt>
      <trkpt lat="48.20422" lon="-3.04639">
        <ele>147</ele>
        <time>2015-10-12T10:41:24.1Z</time>
      </trkpt>
      <trkpt lat="48.20424" lon="-3.04638">
        <ele>147</ele>
        <time>2015-10-12T10:41:26.1Z</time>
      </trkpt>
      <trkpt lat="48.20427" lon="-3.04638">
        <ele>148</ele>
        <time>2015-10-12T10:41:29.1Z</time>
      </trkpt>
      <trkpt lat="48.2043" lon="-3.04638">
        <ele>148</ele>
        <time>2015-10-12T10:41:32.1Z</time>
      </trkpt>
      <trkpt lat="48.20432" lon="-3.04637">
        <ele>148</ele>
        <time>2015-10-12T10:41:34.1Z</time>
      </trkpt>
      <trkpt lat="48.20435" lon="-3.04637">
        <ele>148</ele>
        <time>2015-10-12T10:41:37.1Z</time>
      </trkpt>
      <trkpt lat="48.20436" lon="-3.04637">
        <ele>149</ele>
        <time>2015-10-12T10:41:39.1Z</time>
      </trkpt>
      <trkpt lat="48.20439" lon="-3.04637">
        <ele>149</ele>
        <time>2015-10-12T10:41:42.1Z</time>
      </trkpt>
      <trkpt lat="48.20441" lon="-3.04636">
        <ele>149</ele>
        <time>2015-10-12T10:41:44.1Z</time>
      </trkpt>
      <trkpt lat="48.20444" lon="-3.04636">
        <ele>149</ele>
        <time>2015-10-12T10:41:47.1Z</time>
      </trkpt>
      <trkpt lat="48.20447" lon="-3.04636">
        <ele>150</ele>
        <time>2015-10-12T10:41:49.1Z</time>
      </trkpt>
      <trkpt lat="48.20449" lon="-3.04636">
        <ele>150</ele>
        <time>2015-10-12T10:41:51.1Z</time>
      </trkpt>
      <trkpt lat="48.20451" lon="-3.04636">
        <ele>150</ele>
        <time>2015-10-12T10:41:54.1Z</time>
      </trkpt>
      <trkpt lat="48.20454" lon="-3.04636">
        <ele>150</ele>
        <time>2015-10-12T10:41:57.1Z</time>
      </trkpt>
      <trkpt lat="48.20456" lon="-3.04636">
        <ele>151</ele>
        <time>2015-10-12T10:41:59.1Z</time>
      </trkpt>
      <trkpt lat="48.20459" lon="-3.04636">
        <ele>151</ele>
        <time>2015-10-12T10:42:02.1Z</time>
      </trkpt>
      <trkpt lat="48.20461" lon="-3.04636">
        <ele>151</ele>
        <time>2015-10-12T10:42:04.1Z</time>
      </trkpt>
      <trkpt lat="48.20464" lon="-3.04635">
        <ele>152</ele>
        <time>2015-10-12T10:42:07.1Z</time>
      </trkpt>
      <trkpt lat="48.20466" lon="-3.04635">
        <ele>152</ele>
        <time>2015-10-12T10:42:09.1Z</time>
      </trkpt>
      <trkpt lat="48.20468" lon="-3.04636">
        <ele>152</ele>
        <time>2015-10-12T10:42:11.1Z</time>
      </trkpt>
      <trkpt lat="48.20471" lon="-3.04635">
        <ele>153</ele>
        <time>2015-10-12T10:42:14.1Z</time>
      </trkpt>
      <trkpt lat="48.20473" lon="-3.04635">
        <ele>153</ele>
        <time>2015-10-12T10:42:16.1Z</time>
      </trkpt>
      <trkpt lat="48.20476" lon="-3.04636">
        <ele>153</ele>
        <time>2015-10-12T10:42:19.1Z</time>
      </trkpt>
      <trkpt lat="48.20478" lon="-3.04636">
        <ele>153</ele>
        <time>2015-10-12T10:42:21.1Z</time>
      </trkpt>
      <trkpt lat="48.2048" lon="-3.04637">
        <ele>153</ele>
        <time>2015-10-12T10:42:23.1Z</time>
      </trkpt>
      <trkpt lat="48.20482" lon="-3.04637">
        <ele>153</ele>
        <time>2015-10-12T10:42:26.1Z</time>
      </trkpt>
      <trkpt lat="48.20484" lon="-3.04638">
        <ele>153</ele>
        <time>2015-10-12T10:42:28.1Z</time>
      </trkpt>
      <trkpt lat="48.20486" lon="-3.04638">
        <ele>153</ele>
        <time>2015-10-12T10:42:30.1Z</time>
      </trkpt>
      <trkpt lat="48.20488" lon="-3.04639">
        <ele>154</ele>
        <time>2015-10-12T10:42:33.1Z</time>
      </trkpt>
      <trkpt lat="48.2049" lon="-3.04639">
        <ele>154</ele>
        <time>2015-10-12T10:42:36.1Z</time>
      </trkpt>
      <trkpt lat="48.20493" lon="-3.0464">
        <ele>154</ele>
        <time>2015-10-12T10:42:39.1Z</time>
      </trkpt>
      <trkpt lat="48.20495" lon="-3.04642">
        <ele>154</ele>
        <time>2015-10-12T10:42:42.1Z</time>
      </trkpt>
      <trkpt lat="48.20497" lon="-3.04645">
        <ele>154</ele>
        <time>2015-10-12T10:42:45.1Z</time>
      </trkpt>
      <trkpt lat="48.20499" lon="-3.04647">
        <ele>155</ele>
        <time>2015-10-12T10:42:47.1Z</time>
      </trkpt>
      <trkpt lat="48.205" lon="-3.04649">
        <ele>155</ele>
        <time>2015-10-12T10:42:49.1Z</time>
      </trkpt>
      <trkpt lat="48.20501" lon="-3.04651">
        <ele>155</ele>
        <time>2015-10-12T10:42:51.1Z</time>
      </trkpt>
      <trkpt lat="48.20503" lon="-3.04654">
        <ele>155</ele>
        <time>2015-10-12T10:42:54.1Z</time>
      </trkpt>
      <trkpt lat="48.20505" lon="-3.04655">
        <ele>155</ele>
        <time>2015-10-12T10:42:56.1Z</time>
      </trkpt>
      <trkpt lat="48.20506" lon="-3.04656">
        <ele>156</ele>
        <time>2015-10-12T10:42:58.1Z</time>
      </trkpt>
      <trkpt lat="48.20508" lon="-3.04658">
        <ele>156</ele>
        <time>2015-10-12T10:43:00.1Z</time>
      </trkpt>
      <trkpt lat="48.20509" lon="-3.04659">
        <ele>156</ele>
        <time>2015-10-12T10:43:02.1Z</time>
      </trkpt>
      <trkpt lat="48.20512" lon="-3.0466">
        <ele>156</ele>
        <time>2015-10-12T10:43:05.1Z</time>
      </trkpt>
      <trkpt lat="48.20514" lon="-3.04662">
        <ele>157</ele>
        <time>2015-10-12T10:43:08.1Z</time>
      </trkpt>
      <trkpt lat="48.20516" lon="-3.04663">
        <ele>157</ele>
        <time>2015-10-12T10:43:10.1Z</time>
      </trkpt>
      <trkpt lat="48.20518" lon="-3.04665">
        <ele>157</ele>
        <time>2015-10-12T10:43:13.1Z</time>
      </trkpt>
      <trkpt lat="48.20521" lon="-3.04667">
        <ele>158</ele>
        <time>2015-10-12T10:43:16.1Z</time>
      </trkpt>
      <trkpt lat="48.20522" lon="-3.04668">
        <ele>158</ele>
        <time>2015-10-12T10:43:18.1Z</time>
      </trkpt>
      <trkpt lat="48.20525" lon="-3.04669">
        <ele>158</ele>
        <time>2015-10-12T10:43:21.1Z</time>
      </trkpt>
      <trkpt lat="48.20527" lon="-3.04671">
        <ele>159</ele>
        <time>2015-10-12T10:43:24.1Z</time>
      </trkpt>
      <trkpt lat="48.20529" lon="-3.04672">
        <ele>159</ele>
        <time>2015-10-12T10:43:26.1Z</time>
      </trkpt>
      <trkpt lat="48.20531" lon="-3.04673">
        <ele>159</ele>
        <time>2015-10-12T10:43:29.1Z</time>
      </trkpt>
      <trkpt lat="48.20534" lon="-3.04674">
        <ele>159</ele>
        <time>2015-10-12T10:43:32.1Z</time>
      </trkpt>
      <trkpt lat="48.20536" lon="-3.04676">
        <ele>159</ele>
        <time>2015-10-12T10:43:35.1Z</time>
      </trkpt>
      <trkpt lat="48.20538" lon="-3.04678">
        <ele>159</ele>
        <time>2015-10-12T10:43:38.1Z</time>
      </trkpt>
      <trkpt lat="48.20539" lon="-3.04679">
        <ele>159</ele>
        <time>2015-10-12T10:43:40.1Z</time>
      </trkpt>
      <trkpt lat="48.2054" lon="-3.0468">
        <ele>160</ele>
        <time>2015-10-12T10:43:42.1Z</time>
      </trkpt>
      <trkpt lat="48.20542" lon="-3.04681">
        <ele>160</ele>
        <time>2015-10-12T10:43:45.1Z</time>
      </trkpt>
      <trkpt lat="48.20544" lon="-3.04682">
        <ele>160</ele>
        <time>2015-10-12T10:43:47.1Z</time>
      </trkpt>
      <trkpt lat="48.20546" lon="-3.04684">
        <ele>160</ele>
        <time>2015-10-12T10:43:50.1Z</time>
      </trkpt>
      <trkpt lat="48.20547" lon="-3.04685">
        <ele>161</ele>
        <time>2015-10-12T10:43:52.1Z</time>
      </trkpt>
      <trkpt lat="48.20549" lon="-3.04686">
        <ele>161</ele>
        <time>2015-10-12T10:43:55.1Z</time>
      </trkpt>
      <trkpt lat="48.2055" lon="-3.04688">
        <ele>161</ele>
        <time>2015-10-12T10:43:58.1Z</time>
      </trkpt>
      <trkpt lat="48.20551" lon="-3.04687">
        <ele>161</ele>
        <time>2015-10-12T10:44:01.1Z</time>
      </trkpt>
      <trkpt lat="48.20552" lon="-3.04685">
        <ele>161</ele>
        <time>2015-10-12T10:44:03.1Z</time>
      </trkpt>
      <trkpt lat="48.20552" lon="-3.04684">
        <ele>161</ele>
        <time>2015-10-12T10:44:06.1Z</time>
      </trkpt>
      <trkpt lat="48.20554" lon="-3.0468">
        <ele>161</ele>
        <time>2015-10-12T10:44:09.1Z</time>
      </trkpt>
      <trkpt lat="48.20555" lon="-3.04677">
        <ele>161</ele>
        <time>2015-10-12T10:44:11.1Z</time>
      </trkpt>
      <trkpt lat="48.20557" lon="-3.04673">
        <ele>161</ele>
        <time>2015-10-12T10:44:14.1Z</time>
      </trkpt>
      <trkpt lat="48.20558" lon="-3.0467">
        <ele>161</ele>
        <time>2015-10-12T10:44:16.1Z</time>
      </trkpt>
      <trkpt lat="48.20561" lon="-3.04666">
        <ele>161</ele>
        <time>2015-10-12T10:44:19.1Z</time>
      </trkpt>
      <trkpt lat="48.20562" lon="-3.04664">
        <ele>161</ele>
        <time>2015-10-12T10:44:22.1Z</time>
      </trkpt>
      <trkpt lat="48.20564" lon="-3.04662">
        <ele>161</ele>
        <time>2015-10-12T10:44:24.1Z</time>
      </trkpt>
      <trkpt lat="48.20565" lon="-3.0466">
        <ele>161</ele>
        <time>2015-10-12T10:44:26.1Z</time>
      </trkpt>
      <trkpt lat="48.20566" lon="-3.04656">
        <ele>161</ele>
        <time>2015-10-12T10:44:29.1Z</time>
      </trkpt>
      <trkpt lat="48.20568" lon="-3.04652">
        <ele>160</ele>
        <time>2015-10-12T10:44:32.1Z</time>
      </trkpt>
      <trkpt lat="48.2057" lon="-3.0465">
        <ele>160</ele>
        <time>2015-10-12T10:44:34.1Z</time>
      </trkpt>
      <trkpt lat="48.20572" lon="-3.04648">
        <ele>161</ele>
        <time>2015-10-12T10:44:37.1Z</time>
      </trkpt>
      <trkpt lat="48.20575" lon="-3.04646">
        <ele>161</ele>
        <time>2015-10-12T10:44:40.1Z</time>
      </trkpt>
      <trkpt lat="48.20577" lon="-3.04644">
        <ele>160</ele>
        <time>2015-10-12T10:44:42.1Z</time>
      </trkpt>
      <trkpt lat="48.20578" lon="-3.04643">
        <ele>161</ele>
        <time>2015-10-12T10:44:44.1Z</time>
      </trkpt>
      <trkpt lat="48.20581" lon="-3.04641">
        <ele>161</ele>
        <time>2015-10-12T10:44:47.1Z</time>
      </trkpt>
      <trkpt lat="48.20583" lon="-3.04639">
        <ele>161</ele>
        <time>2015-10-12T10:44:49.1Z</time>
      </trkpt>
      <trkpt lat="48.20585" lon="-3.04638">
        <ele>161</ele>
        <time>2015-10-12T10:44:51.1Z</time>
      </trkpt>
      <trkpt lat="48.20587" lon="-3.04636">
        <ele>161</ele>
        <time>2015-10-12T10:44:53.1Z</time>
      </trkpt>
      <trkpt lat="48.20589" lon="-3.04633">
        <ele>161</ele>
        <time>2015-10-12T10:44:56.1Z</time>
      </trkpt>
      <trkpt lat="48.20593" lon="-3.04631">
        <ele>161</ele>
        <time>2015-10-12T10:44:59.1Z</time>
      </trkpt>
      <trkpt lat="48.20594" lon="-3.0463">
        <ele>161</ele>
        <time>2015-10-12T10:45:01.1Z</time>
      </trkpt>
      <trkpt lat="48.20596" lon="-3.04629">
        <ele>161</ele>
        <time>2015-10-12T10:45:04.1Z</time>
      </trkpt>
      <trkpt lat="48.20597" lon="-3.04629">
        <ele>161</ele>
        <time>2015-10-12T10:45:06.1Z</time>
      </trkpt>
      <trkpt lat="48.20599" lon="-3.04627">
        <ele>161</ele>
        <time>2015-10-12T10:45:09.1Z</time>
      </trkpt>
      <trkpt lat="48.20602" lon="-3.04626">
        <ele>162</ele>
        <time>2015-10-12T10:45:12.1Z</time>
      </trkpt>
      <trkpt lat="48.20604" lon="-3.04625">
        <ele>161</ele>
        <time>2015-10-12T10:45:15.1Z</time>
      </trkpt>
      <trkpt lat="48.20607" lon="-3.04624">
        <ele>161</ele>
        <time>2015-10-12T10:45:18.1Z</time>
      </trkpt>
      <trkpt lat="48.20609" lon="-3.04622">
        <ele>161</ele>
        <time>2015-10-12T10:45:20.1Z</time>
      </trkpt>
      <trkpt lat="48.20611" lon="-3.04621">
        <ele>161</ele>
        <time>2015-10-12T10:45:22.1Z</time>
      </trkpt>
      <trkpt lat="48.20614" lon="-3.0462">
        <ele>161</ele>
        <time>2015-10-12T10:45:25.1Z</time>
      </trkpt>
      <trkpt lat="48.20618" lon="-3.04619">
        <ele>161</ele>
        <time>2015-10-12T10:45:28.1Z</time>
      </trkpt>
      <trkpt lat="48.20621" lon="-3.04619">
        <ele>161</ele>
        <time>2015-10-12T10:45:31.1Z</time>
      </trkpt>
      <trkpt lat="48.20623" lon="-3.04619">
        <ele>161</ele>
        <time>2015-10-12T10:45:33.1Z</time>
      </trkpt>
      <trkpt lat="48.20627" lon="-3.0462">
        <ele>162</ele>
        <time>2015-10-12T10:45:36.1Z</time>
      </trkpt>
      <trkpt lat="48.20631" lon="-3.04621">
        <ele>162</ele>
        <time>2015-10-12T10:45:39.1Z</time>
      </trkpt>
      <trkpt lat="48.20633" lon="-3.04622">
        <ele>162</ele>
        <time>2015-10-12T10:45:41.1Z</time>
      </trkpt>
      <trkpt lat="48.20636" lon="-3.04623">
        <ele>162</ele>
        <time>2015-10-12T10:45:44.1Z</time>
      </trkpt>
      <trkpt lat="48.20638" lon="-3.04625">
        <ele>163</ele>
        <time>2015-10-12T10:45:46.1Z</time>
      </trkpt>
      <trkpt lat="48.2064" lon="-3.04627">
        <ele>163</ele>
        <time>2015-10-12T10:45:49.1Z</time>
      </trkpt>
      <trkpt lat="48.20642" lon="-3.04629">
        <ele>163</ele>
        <time>2015-10-12T10:45:51.1Z</time>
      </trkpt>
      <trkpt lat="48.20643" lon="-3.04631">
        <ele>163</ele>
        <time>2015-10-12T10:45:53.1Z</time>
      </trkpt>
      <trkpt lat="48.20645" lon="-3.04635">
        <ele>163</ele>
        <time>2015-10-12T10:45:56.1Z</time>
      </trkpt>
      <trkpt lat="48.20646" lon="-3.04639">
        <ele>163</ele>
        <time>2015-10-12T10:45:59.1Z</time>
      </trkpt>
      <trkpt lat="48.20647" lon="-3.04642">
        <ele>163</ele>
        <time>2015-10-12T10:46:01.1Z</time>
      </trkpt>
      <trkpt lat="48.20649" lon="-3.04645">
        <ele>163</ele>
        <time>2015-10-12T10:46:04.1Z</time>
      </trkpt>
      <trkpt lat="48.2065" lon="-3.04647">
        <ele>164</ele>
        <time>2015-10-12T10:46:06.1Z</time>
      </trkpt>
      <trkpt lat="48.2065" lon="-3.04648">
        <ele>164</ele>
        <time>2015-10-12T10:46:08.1Z</time>
      </trkpt>
      <trkpt lat="48.20651" lon="-3.04651">
        <ele>165</ele>
        <time>2015-10-12T10:46:11.1Z</time>
      </trkpt>
      <trkpt lat="48.20652" lon="-3.04653">
        <ele>165</ele>
        <time>2015-10-12T10:46:13.1Z</time>
      </trkpt>
      <trkpt lat="48.20654" lon="-3.04657">
        <ele>165</ele>
        <time>2015-10-12T10:46:16.1Z</time>
      </trkpt>
      <trkpt lat="48.20656" lon="-3.04661">
        <ele>165</ele>
        <time>2015-10-12T10:46:19.1Z</time>
      </trkpt>
      <trkpt lat="48.20658" lon="-3.04663">
        <ele>165</ele>
        <time>2015-10-12T10:46:21.1Z</time>
      </trkpt>
      <trkpt lat="48.2066" lon="-3.04668">
        <ele>166</ele>
        <time>2015-10-12T10:46:24.1Z</time>
      </trkpt>
      <trkpt lat="48.20662" lon="-3.04673">
        <ele>166</ele>
        <time>2015-10-12T10:46:27.1Z</time>
      </trkpt>
      <trkpt lat="48.20663" lon="-3.04676">
        <ele>166</ele>
        <time>2015-10-12T10:46:29.1Z</time>
      </trkpt>
      <trkpt lat="48.20665" lon="-3.0468">
        <ele>166</ele>
        <time>2015-10-12T10:46:32.1Z</time>
      </trkpt>
      <trkpt lat="48.20667" lon="-3.04684">
        <ele>166</ele>
        <time>2015-10-12T10:46:35.1Z</time>
      </trkpt>
      <trkpt lat="48.20668" lon="-3.04687">
        <ele>166</ele>
        <time>2015-10-12T10:46:37.1Z</time>
      </trkpt>
      <trkpt lat="48.20669" lon="-3.04689">
        <ele>167</ele>
        <time>2015-10-12T10:46:39.1Z</time>
      </trkpt>
      <trkpt lat="48.2067" lon="-3.04691">
        <ele>167</ele>
        <time>2015-10-12T10:46:41.1Z</time>
      </trkpt>
    </trkseg>
  </trk>
</gpx>